﻿<?xml version="1.0" encoding="utf-8"?><gpx creator="Garmin Desktop App" version="1.1" xsi:schemaLocation="http://www.topografix.com/GPX/1/1 http://www.topografix.com/GPX/1/1/gpx.xsd http://www.garmin.com/xmlschemas/WaypointExtension/v1 http://www8.garmin.com/xmlschemas/WaypointExtensionv1.xsd http://www.garmin.com/xmlschemas/TrackPointExtension/v1 http://www.garmin.com/xmlschemas/TrackPointExtensionv1.xsd http://www.garmin.com/xmlschemas/GpxExtensions/v3 http://www8.garmin.com/xmlschemas/GpxExtensionsv3.xsd http://www.garmin.com/xmlschemas/ActivityExtension/v1 http://www8.garmin.com/xmlschemas/ActivityExtensionv1.xsd http://www.garmin.com/xmlschemas/AdventuresExtensions/v1 http://www8.garmin.com/xmlschemas/AdventuresExtensionv1.xsd http://www.garmin.com/xmlschemas/PressureExtension/v1 http://www.garmin.com/xmlschemas/PressureExtensionv1.xsd http://www.garmin.com/xmlschemas/TripExtensions/v1 http://www.garmin.com/xmlschemas/TripExtensionsv1.xsd http://www.garmin.com/xmlschemas/TripMetaDataExtensions/v1 http://www.garmin.com/xmlschemas/TripMetaDataExtensionsv1.xsd http://www.garmin.com/xmlschemas/ViaPointTransportationModeExtensions/v1 http://www.garmin.com/xmlschemas/ViaPointTransportationModeExtensionsv1.xsd http://www.garmin.com/xmlschemas/CreationTimeExtensions/v1 http://www.garmin.com/xmlschemas/CreationTimeExtensionsv1.xsd" xmlns="http://www.topografix.com/GPX/1/1" xmlns:xsi="http://www.w3.org/2001/XMLSchema-instance" xmlns:wptx1="http://www.garmin.com/xmlschemas/WaypointExtension/v1" xmlns:gpxtrx="http://www.garmin.com/xmlschemas/GpxExtensions/v3" xmlns:gpxtpx="http://www.garmin.com/xmlschemas/TrackPointExtension/v1" xmlns:gpxx="http://www.garmin.com/xmlschemas/GpxExtensions/v3" xmlns:trp="http://www.garmin.com/xmlschemas/TripExtensions/v1" xmlns:adv="http://www.garmin.com/xmlschemas/AdventuresExtensions/v1" xmlns:prs="http://www.garmin.com/xmlschemas/PressureExtension/v1" xmlns:tmd="http://www.garmin.com/xmlschemas/TripMetaDataExtensions/v1" xmlns:vptm="http://www.garmin.com/xmlschemas/ViaPointTransportationModeExtensions/v1" xmlns:ctx="http://www.garmin.com/xmlschemas/CreationTimeExtension/v1">

  <metadata>
    <link href="http://www.garmin.com">
      <text>Garmin International</text>
    </link>
    <time>2014-06-06T20:48:07Z</time>
    <bounds maxlat="44.18873998336494" maxlon="3.437919979915023" minlat="44.071010034531355" minlon="3.089189976453781" />
  </metadata>

  <trk>
    <name>4-Meyrueis-Le...</name>
    <extensions>
      <gpxx:TrackExtension>
        <gpxx:DisplayColor>Red</gpxx:DisplayColor>
      </gpxx:TrackExtension>
    </extensions>
    <trkseg>
      <trkpt lat="44.17945995926857" lon="3.429570011794567">
        <time>2014-06-06T20:17:12Z</time>
      </trkpt>
      <trkpt lat="44.179440010339022" lon="3.429649975150824">
        <time>2014-06-06T20:17:13Z</time>
      </trkpt>
      <trkpt lat="44.179162653163075" lon="3.42944260686636">
        <time>2014-06-06T20:17:19Z</time>
      </trkpt>
      <trkpt lat="44.178885212168097" lon="3.429235154762864">
        <time>2014-06-06T20:17:25Z</time>
      </trkpt>
      <trkpt lat="44.178607854992151" lon="3.4290277864784">
        <time>2014-06-06T20:17:31Z</time>
      </trkpt>
      <trkpt lat="44.178330497816205" lon="3.428820334374905">
        <time>2014-06-06T20:17:37Z</time>
      </trkpt>
      <trkpt lat="44.178329994902015" lon="3.428819999098778">
        <time>2014-06-06T20:17:37Z</time>
      </trkpt>
      <trkpt lat="44.178150035440922" lon="3.428650014102459">
        <time>2014-06-06T20:17:41Z</time>
      </trkpt>
      <trkpt lat="44.177870498970151" lon="3.428448177874088">
        <time>2014-06-06T20:17:47Z</time>
      </trkpt>
      <trkpt lat="44.177790032699704" lon="3.428390007466078">
        <time>2014-06-06T20:17:49Z</time>
      </trkpt>
      <trkpt lat="44.177690036594868" lon="3.428360000252724">
        <time>2014-06-06T20:17:51Z</time>
      </trkpt>
      <trkpt lat="44.177540000528097" lon="3.428369974717498">
        <time>2014-06-06T20:17:54Z</time>
      </trkpt>
      <trkpt lat="44.177279993891716" lon="3.42843996360898">
        <time>2014-06-06T20:17:59Z</time>
      </trkpt>
      <trkpt lat="44.176989980041981" lon="3.428580025210977">
        <time>2014-06-06T20:18:05Z</time>
      </trkpt>
      <trkpt lat="44.176717484369874" lon="3.428799547255039">
        <time>2014-06-06T20:18:11Z</time>
      </trkpt>
      <trkpt lat="44.176629977300763" lon="3.428870039060712">
        <time>2014-06-06T20:18:13Z</time>
      </trkpt>
      <trkpt lat="44.176410036161542" lon="3.429010016843677">
        <time>2014-06-06T20:18:18Z</time>
      </trkpt>
      <trkpt lat="44.176280032843351" lon="3.429059972986579">
        <time>2014-06-06T20:18:21Z</time>
      </trkpt>
      <trkpt lat="44.175969231873751" lon="3.429131386801601">
        <time>2014-06-06T20:18:27Z</time>
      </trkpt>
      <trkpt lat="44.17565843090415" lon="3.429202800616622">
        <time>2014-06-06T20:18:33Z</time>
      </trkpt>
      <trkpt lat="44.175347713753581" lon="3.429274298250675">
        <time>2014-06-06T20:18:39Z</time>
      </trkpt>
      <trkpt lat="44.17503691278398" lon="3.429345712065697">
        <time>2014-06-06T20:18:45Z</time>
      </trkpt>
      <trkpt lat="44.174726195633411" lon="3.429417125880718">
        <time>2014-06-06T20:18:51Z</time>
      </trkpt>
      <trkpt lat="44.174670036882162" lon="3.429430034011602">
        <time>2014-06-06T20:18:52Z</time>
      </trkpt>
      <trkpt lat="44.174360577017069" lon="3.429511925205588">
        <time>2014-06-06T20:18:58Z</time>
      </trkpt>
      <trkpt lat="44.174051117151976" lon="3.429593816399574">
        <time>2014-06-06T20:19:04Z</time>
      </trkpt>
      <trkpt lat="44.173990013077855" lon="3.429609993472695">
        <time>2014-06-06T20:19:05Z</time>
      </trkpt>
      <trkpt lat="44.173980038613081" lon="3.429690040647984">
        <time>2014-06-06T20:19:06Z</time>
      </trkpt>
      <trkpt lat="44.173939973115921" lon="3.429719964042306">
        <time>2014-06-06T20:19:07Z</time>
      </trkpt>
      <trkpt lat="44.173899991437793" lon="3.429719964042306">
        <time>2014-06-06T20:19:08Z</time>
      </trkpt>
      <trkpt lat="44.173860009759665" lon="3.429679982364178">
        <time>2014-06-06T20:19:09Z</time>
      </trkpt>
      <trkpt lat="44.173860009759665" lon="3.42964000068605">
        <time>2014-06-06T20:19:10Z</time>
      </trkpt>
      <trkpt lat="44.173552226275206" lon="3.429733291268349">
        <time>2014-06-06T20:19:16Z</time>
      </trkpt>
      <trkpt lat="44.173530014231801" lon="3.429739996790886">
        <time>2014-06-06T20:19:16Z</time>
      </trkpt>
      <trkpt lat="44.173236647620797" lon="3.429899252951145">
        <time>2014-06-06T20:19:22Z</time>
      </trkpt>
      <trkpt lat="44.173179985955358" lon="3.429930014535785">
        <time>2014-06-06T20:19:23Z</time>
      </trkpt>
      <trkpt lat="44.173019975423813" lon="3.430069992318749">
        <time>2014-06-06T20:19:27Z</time>
      </trkpt>
      <trkpt lat="44.172800034284592" lon="3.430383307859302">
        <time>2014-06-06T20:19:33Z</time>
      </trkpt>
      <trkpt lat="44.172689979895949" lon="3.430539965629578">
        <time>2014-06-06T20:19:36Z</time>
      </trkpt>
      <trkpt lat="44.172580009326339" lon="3.430659994482994">
        <time>2014-06-06T20:19:39Z</time>
      </trkpt>
      <trkpt lat="44.17241002433002" lon="3.430759990587831">
        <time>2014-06-06T20:19:43Z</time>
      </trkpt>
      <trkpt lat="44.172106012701988" lon="3.430874655023217">
        <time>2014-06-06T20:19:49Z</time>
      </trkpt>
      <trkpt lat="44.171802001073956" lon="3.430989235639572">
        <time>2014-06-06T20:19:55Z</time>
      </trkpt>
      <trkpt lat="44.171799989417195" lon="3.430989990010858">
        <time>2014-06-06T20:19:55Z</time>
      </trkpt>
      <trkpt lat="44.17148751206696" lon="3.431044807657599">
        <time>2014-06-06T20:20:01Z</time>
      </trkpt>
      <trkpt lat="44.171230020001531" lon="3.431089986115694">
        <time>2014-06-06T20:20:06Z</time>
      </trkpt>
      <trkpt lat="44.171070009469986" lon="3.431189982220531">
        <time>2014-06-06T20:20:09Z</time>
      </trkpt>
      <trkpt lat="44.17080488987267" lon="3.431426435709">
        <time>2014-06-06T20:20:15Z</time>
      </trkpt>
      <trkpt lat="44.170700032263994" lon="3.431519977748394">
        <time>2014-06-06T20:20:17Z</time>
      </trkpt>
      <trkpt lat="44.17054002173245" lon="3.431600024923682">
        <time>2014-06-06T20:20:20Z</time>
      </trkpt>
      <trkpt lat="44.170429967343807" lon="3.431600024923682">
        <time>2014-06-06T20:20:22Z</time>
      </trkpt>
      <trkpt lat="44.170319996774197" lon="3.431559959426522">
        <time>2014-06-06T20:20:24Z</time>
      </trkpt>
      <trkpt lat="44.170129979029298" lon="3.431359967216849">
        <time>2014-06-06T20:20:29Z</time>
      </trkpt>
      <trkpt lat="44.17006996460259" lon="3.431340018287301">
        <time>2014-06-06T20:20:30Z</time>
      </trkpt>
      <trkpt lat="44.169990001246333" lon="3.431359967216849">
        <time>2014-06-06T20:20:32Z</time>
      </trkpt>
      <trkpt lat="44.169920012354851" lon="3.431440014392138">
        <time>2014-06-06T20:20:34Z</time>
      </trkpt>
      <trkpt lat="44.169750027358532" lon="3.431760035455227">
        <time>2014-06-06T20:20:39Z</time>
      </trkpt>
      <trkpt lat="44.169569984078407" lon="3.432000009343028">
        <time>2014-06-06T20:20:44Z</time>
      </trkpt>
      <trkpt lat="44.169294890016317" lon="3.43221316114068">
        <time>2014-06-06T20:20:50Z</time>
      </trkpt>
      <trkpt lat="44.169019795954227" lon="3.432426396757364">
        <time>2014-06-06T20:20:56Z</time>
      </trkpt>
      <trkpt lat="44.168744785711169" lon="3.432639548555017">
        <time>2014-06-06T20:21:02Z</time>
      </trkpt>
      <trkpt lat="44.168469691649079" lon="3.432852784171701">
        <time>2014-06-06T20:21:08Z</time>
      </trkpt>
      <trkpt lat="44.16837003082037" lon="3.43292998149991">
        <time>2014-06-06T20:21:10Z</time>
      </trkpt>
      <trkpt lat="44.168089991435409" lon="3.433119999244809">
        <time>2014-06-06T20:21:16Z</time>
      </trkpt>
      <trkpt lat="44.167910031974316" lon="3.433219995349646">
        <time>2014-06-06T20:21:20Z</time>
      </trkpt>
      <trkpt lat="44.167602583765984" lon="3.433315297588706">
        <time>2014-06-06T20:21:26Z</time>
      </trkpt>
      <trkpt lat="44.167295135557652" lon="3.433410516008735">
        <time>2014-06-06T20:21:32Z</time>
      </trkpt>
      <trkpt lat="44.167200000956655" lon="3.433440020307899">
        <time>2014-06-06T20:21:34Z</time>
      </trkpt>
      <trkpt lat="44.166939994320273" lon="3.433570023626089">
        <time>2014-06-06T20:21:39Z</time>
      </trkpt>
      <trkpt lat="44.166655344888568" lon="3.433757442981005">
        <time>2014-06-06T20:21:45Z</time>
      </trkpt>
      <trkpt lat="44.166530035436153" lon="3.433840004727244">
        <time>2014-06-06T20:21:48Z</time>
      </trkpt>
      <trkpt lat="44.166267514228821" lon="3.434081906452775">
        <time>2014-06-06T20:21:54Z</time>
      </trkpt>
      <trkpt lat="44.166019996628165" lon="3.434309978038073">
        <time>2014-06-06T20:22:00Z</time>
      </trkpt>
      <trkpt lat="44.165780022740364" lon="3.434499995782971">
        <time>2014-06-06T20:22:05Z</time>
      </trkpt>
      <trkpt lat="44.165620012208819" lon="3.4345399774611">
        <time>2014-06-06T20:22:08Z</time>
      </trkpt>
      <trkpt lat="44.165360005572438" lon="3.434509970247746">
        <time>2014-06-06T20:22:13Z</time>
      </trkpt>
      <trkpt lat="44.165290016680956" lon="3.434530002996326">
        <time>2014-06-06T20:22:14Z</time>
      </trkpt>
      <trkpt lat="44.165239976719022" lon="3.434579959139228">
        <time>2014-06-06T20:22:15Z</time>
      </trkpt>
      <trkpt lat="44.165047528222203" lon="3.434926383197308">
        <time>2014-06-06T20:22:21Z</time>
      </trkpt>
      <trkpt lat="44.164939988404512" lon="3.43512000516057">
        <time>2014-06-06T20:22:24Z</time>
      </trkpt>
      <trkpt lat="44.164739996194839" lon="3.435299964621663">
        <time>2014-06-06T20:22:29Z</time>
      </trkpt>
      <trkpt lat="44.164500022307038" lon="3.43541999347508">
        <time>2014-06-06T20:22:34Z</time>
      </trkpt>
      <trkpt lat="44.164192657917738" lon="3.435515630990267">
        <time>2014-06-06T20:22:40Z</time>
      </trkpt>
      <trkpt lat="44.164049997925758" lon="3.435559971258044">
        <time>2014-06-06T20:22:43Z</time>
      </trkpt>
      <trkpt lat="44.163745231926441" lon="3.435670444741845">
        <time>2014-06-06T20:22:49Z</time>
      </trkpt>
      <trkpt lat="44.163440382108092" lon="3.435780834406614">
        <time>2014-06-06T20:22:55Z</time>
      </trkpt>
      <trkpt lat="44.163359999656677" lon="3.435810003429651">
        <time>2014-06-06T20:22:57Z</time>
      </trkpt>
      <trkpt lat="44.163060514256358" lon="3.435945622622967">
        <time>2014-06-06T20:23:03Z</time>
      </trkpt>
      <trkpt lat="44.162830011919141" lon="3.436049977317452">
        <time>2014-06-06T20:23:08Z</time>
      </trkpt>
      <trkpt lat="44.162690034136176" lon="3.436079984530807">
        <time>2014-06-06T20:23:11Z</time>
      </trkpt>
      <trkpt lat="44.162560030817986" lon="3.436079984530807">
        <time>2014-06-06T20:23:13Z</time>
      </trkpt>
      <trkpt lat="44.162489958107471" lon="3.436060035601258">
        <time>2014-06-06T20:23:14Z</time>
      </trkpt>
      <trkpt lat="44.162449976429343" lon="3.436030028387904">
        <time>2014-06-06T20:23:15Z</time>
      </trkpt>
      <trkpt lat="44.162300024181604" lon="3.435830036178231">
        <time>2014-06-06T20:23:19Z</time>
      </trkpt>
      <trkpt lat="44.162189634516835" lon="3.435420161113143">
        <time>2014-06-06T20:23:25Z</time>
      </trkpt>
      <trkpt lat="44.162089973688126" lon="3.435050016269088">
        <time>2014-06-06T20:23:30Z</time>
      </trkpt>
      <trkpt lat="44.162019984796643" lon="3.434890005737543">
        <time>2014-06-06T20:23:33Z</time>
      </trkpt>
      <trkpt lat="44.161829967051744" lon="3.434550035744906">
        <time>2014-06-06T20:23:39Z</time>
      </trkpt>
      <trkpt lat="44.161750003695488" lon="3.434360018000007">
        <time>2014-06-06T20:23:42Z</time>
      </trkpt>
      <trkpt lat="44.161645229905844" lon="3.433947376906872">
        <time>2014-06-06T20:23:48Z</time>
      </trkpt>
      <trkpt lat="44.161589993163943" lon="3.433730034157634">
        <time>2014-06-06T20:23:51Z</time>
      </trkpt>
      <trkpt lat="44.161439370363951" lon="3.433345723897219">
        <time>2014-06-06T20:23:57Z</time>
      </trkpt>
      <trkpt lat="44.161299979314208" lon="3.432989995926619">
        <time>2014-06-06T20:24:03Z</time>
      </trkpt>
      <trkpt lat="44.161130664870143" lon="3.432621024549007">
        <time>2014-06-06T20:24:09Z</time>
      </trkpt>
      <trkpt lat="44.161020023748279" lon="3.432379961013794">
        <time>2014-06-06T20:24:13Z</time>
      </trkpt>
      <trkpt lat="44.160834113135934" lon="3.432026747614145">
        <time>2014-06-06T20:24:19Z</time>
      </trkpt>
      <trkpt lat="44.160820031538606" lon="3.432000009343028">
        <time>2014-06-06T20:24:19Z</time>
      </trkpt>
      <trkpt lat="44.1606614459306" lon="3.43162190169096">
        <time>2014-06-06T20:24:25Z</time>
      </trkpt>
      <trkpt lat="44.160560024902225" lon="3.431379999965429">
        <time>2014-06-06T20:24:29Z</time>
      </trkpt>
      <trkpt lat="44.160340083763003" lon="3.431066768243909">
        <time>2014-06-06T20:24:35Z</time>
      </trkpt>
      <trkpt lat="44.16012005880475" lon="3.43075362034142">
        <time>2014-06-06T20:24:41Z</time>
      </trkpt>
      <trkpt lat="44.159900117665529" lon="3.4304403886199">
        <time>2014-06-06T20:24:47Z</time>
      </trkpt>
      <trkpt lat="44.159680176526308" lon="3.430127156898379">
        <time>2014-06-06T20:24:53Z</time>
      </trkpt>
      <trkpt lat="44.159640027210116" lon="3.430069992318749">
        <time>2014-06-06T20:24:54Z</time>
      </trkpt>
      <trkpt lat="44.159431820735335" lon="3.42974167317152">
        <time>2014-06-06T20:25:00Z</time>
      </trkpt>
      <trkpt lat="44.159380020573735" lon="3.429660033434629">
        <time>2014-06-06T20:25:01Z</time>
      </trkpt>
      <trkpt lat="44.159280024468899" lon="3.429470015689731">
        <time>2014-06-06T20:25:04Z</time>
      </trkpt>
      <trkpt lat="44.159199977293611" lon="3.429379994049668">
        <time>2014-06-06T20:25:06Z</time>
      </trkpt>
      <trkpt lat="44.159099981188774" lon="3.429349986836314">
        <time>2014-06-06T20:25:08Z</time>
      </trkpt>
      <trkpt lat="44.159020017832518" lon="3.429359961301088">
        <time>2014-06-06T20:25:10Z</time>
      </trkpt>
      <trkpt lat="44.158769985660911" lon="3.429449982941151">
        <time>2014-06-06T20:25:15Z</time>
      </trkpt>
      <trkpt lat="44.158455496653914" lon="3.429425256326795">
        <time>2014-06-06T20:25:21Z</time>
      </trkpt>
      <trkpt lat="44.158141007646918" lon="3.429400529712439">
        <time>2014-06-06T20:25:27Z</time>
      </trkpt>
      <trkpt lat="44.157879995182157" lon="3.429379994049668">
        <time>2014-06-06T20:25:32Z</time>
      </trkpt>
      <trkpt lat="44.157565087080002" lon="3.429373288527131">
        <time>2014-06-06T20:25:38Z</time>
      </trkpt>
      <trkpt lat="44.157410021871328" lon="3.429370019584894">
        <time>2014-06-06T20:25:41Z</time>
      </trkpt>
      <trkpt lat="44.157096622511744" lon="3.429325260221958">
        <time>2014-06-06T20:25:47Z</time>
      </trkpt>
      <trkpt lat="44.156990004703403" lon="3.429310005158186">
        <time>2014-06-06T20:25:49Z</time>
      </trkpt>
      <trkpt lat="44.156809961423278" lon="3.42934001237154">
        <time>2014-06-06T20:25:52Z</time>
      </trkpt>
      <trkpt lat="44.156709965318441" lon="3.429400026798248">
        <time>2014-06-06T20:25:54Z</time>
      </trkpt>
      <trkpt lat="44.156650034710765" lon="3.429479990154505">
        <time>2014-06-06T20:25:56Z</time>
      </trkpt>
      <trkpt lat="44.156599994748831" lon="3.429649975150824">
        <time>2014-06-06T20:25:59Z</time>
      </trkpt>
      <trkpt lat="44.156650034710765" lon="3.429809985682368">
        <time>2014-06-06T20:26:01Z</time>
      </trkpt>
      <trkpt lat="44.156879363581538" lon="3.430109890177846">
        <time>2014-06-06T20:26:07Z</time>
      </trkpt>
      <trkpt lat="44.156910041347146" lon="3.430150039494038">
        <time>2014-06-06T20:26:08Z</time>
      </trkpt>
      <trkpt lat="44.156999979168177" lon="3.430309966206551">
        <time>2014-06-06T20:26:11Z</time>
      </trkpt>
      <trkpt lat="44.157080026343465" lon="3.430550023913384">
        <time>2014-06-06T20:26:15Z</time>
      </trkpt>
      <trkpt lat="44.157183291390538" lon="3.430963335558772">
        <time>2014-06-06T20:26:21Z</time>
      </trkpt>
      <trkpt lat="44.157210029661655" lon="3.431070037186146">
        <time>2014-06-06T20:26:23Z</time>
      </trkpt>
      <trkpt lat="44.157269960269332" lon="3.431410007178783">
        <time>2014-06-06T20:26:28Z</time>
      </trkpt>
      <trkpt lat="44.157269960269332" lon="3.431600024923682">
        <time>2014-06-06T20:26:31Z</time>
      </trkpt>
      <trkpt lat="44.15722000412643" lon="3.431900013238192">
        <time>2014-06-06T20:26:35Z</time>
      </trkpt>
      <trkpt lat="44.15722000412643" lon="3.432120038196445">
        <time>2014-06-06T20:26:38Z</time>
      </trkpt>
      <trkpt lat="44.15724003687501" lon="3.432250041514635">
        <time>2014-06-06T20:26:40Z</time>
      </trkpt>
      <trkpt lat="44.157310025766492" lon="3.432450033724308">
        <time>2014-06-06T20:26:43Z</time>
      </trkpt>
      <trkpt lat="44.157498199492693" lon="3.432800816372037">
        <time>2014-06-06T20:26:49Z</time>
      </trkpt>
      <trkpt lat="44.157529966905713" lon="3.432859992608428">
        <time>2014-06-06T20:26:50Z</time>
      </trkpt>
      <trkpt lat="44.15767002850771" lon="3.43322996981442">
        <time>2014-06-06T20:26:56Z</time>
      </trkpt>
      <trkpt lat="44.157740017399192" lon="3.433510009199381">
        <time>2014-06-06T20:27:00Z</time>
      </trkpt>
      <trkpt lat="44.157795505598187" lon="3.433940671384335">
        <time>2014-06-06T20:27:06Z</time>
      </trkpt>
      <trkpt lat="44.157850909978151" lon="3.43437141738832">
        <time>2014-06-06T20:27:12Z</time>
      </trkpt>
      <trkpt lat="44.157906398177147" lon="3.434802079573274">
        <time>2014-06-06T20:27:18Z</time>
      </trkpt>
      <trkpt lat="44.157910002395511" lon="3.434829991310835">
        <time>2014-06-06T20:27:18Z</time>
      </trkpt>
      <trkpt lat="44.157926347106695" lon="3.435266939923167">
        <time>2014-06-06T20:27:24Z</time>
      </trkpt>
      <trkpt lat="44.157940009608865" lon="3.435629960149527">
        <time>2014-06-06T20:27:29Z</time>
      </trkpt>
      <trkpt lat="44.157970519736409" lon="3.43606548383832">
        <time>2014-06-06T20:27:35Z</time>
      </trkpt>
      <trkpt lat="44.157979991286993" lon="3.436200013384223">
        <time>2014-06-06T20:27:37Z</time>
      </trkpt>
      <trkpt lat="44.157959958538413" lon="3.436349965631962">
        <time>2014-06-06T20:27:39Z</time>
      </trkpt>
      <trkpt lat="44.157910002395511" lon="3.43643001280725">
        <time>2014-06-06T20:27:40Z</time>
      </trkpt>
      <trkpt lat="44.15777999907732" lon="3.436469994485378">
        <time>2014-06-06T20:27:43Z</time>
      </trkpt>
      <trkpt lat="44.157689977437258" lon="3.436449961736798">
        <time>2014-06-06T20:27:45Z</time>
      </trkpt>
      <trkpt lat="44.157386217266321" lon="3.436334291473031">
        <time>2014-06-06T20:27:51Z</time>
      </trkpt>
      <trkpt lat="44.157269960269332" lon="3.436290035024285">
        <time>2014-06-06T20:27:53Z</time>
      </trkpt>
      <trkpt lat="44.15695614181459" lon="3.436253070831299">
        <time>2014-06-06T20:27:59Z</time>
      </trkpt>
      <trkpt lat="44.156929990276694" lon="3.436249969527125">
        <time>2014-06-06T20:27:59Z</time>
      </trkpt>
      <trkpt lat="44.156617177650332" lon="3.436300763860345">
        <time>2014-06-06T20:28:05Z</time>
      </trkpt>
      <trkpt lat="44.156560013070703" lon="3.436309983953834">
        <time>2014-06-06T20:28:06Z</time>
      </trkpt>
      <trkpt lat="44.156320039182901" lon="3.43640998005867">
        <time>2014-06-06T20:28:11Z</time>
      </trkpt>
      <trkpt lat="44.156053243204951" lon="3.436642661690712">
        <time>2014-06-06T20:28:17Z</time>
      </trkpt>
      <trkpt lat="44.155849982053041" lon="3.436820022761822">
        <time>2014-06-06T20:28:22Z</time>
      </trkpt>
      <trkpt lat="44.155740011483431" lon="3.436869978904724">
        <time>2014-06-06T20:28:24Z</time>
      </trkpt>
      <trkpt lat="44.155428539961576" lon="3.43693527393043">
        <time>2014-06-06T20:28:30Z</time>
      </trkpt>
      <trkpt lat="44.155117068439722" lon="3.437000485137105">
        <time>2014-06-06T20:28:36Z</time>
      </trkpt>
      <trkpt lat="44.154805596917868" lon="3.43706569634378">
        <time>2014-06-06T20:28:42Z</time>
      </trkpt>
      <trkpt lat="44.154494125396013" lon="3.437130991369486">
        <time>2014-06-06T20:28:48Z</time>
      </trkpt>
      <trkpt lat="44.154260018840432" lon="3.437180025503039">
        <time>2014-06-06T20:28:53Z</time>
      </trkpt>
      <trkpt lat="44.153970004990697" lon="3.43728999607265">
        <time>2014-06-06T20:28:59Z</time>
      </trkpt>
      <trkpt lat="44.153809994459152" lon="3.437399966642261">
        <time>2014-06-06T20:29:02Z</time>
      </trkpt>
      <trkpt lat="44.153640009462833" lon="3.437559977173805">
        <time>2014-06-06T20:29:06Z</time>
      </trkpt>
      <trkpt lat="44.153489973396063" lon="3.437829958274961">
        <time>2014-06-06T20:29:11Z</time>
      </trkpt>
      <trkpt lat="44.153429958969355" lon="3.437910005450249">
        <time>2014-06-06T20:29:13Z</time>
      </trkpt>
      <trkpt lat="44.153370028361678" lon="3.437919979915023">
        <time>2014-06-06T20:29:14Z</time>
      </trkpt>
      <trkpt lat="44.153329962864518" lon="3.437900030985475">
        <time>2014-06-06T20:29:15Z</time>
      </trkpt>
      <trkpt lat="44.15331001393497" lon="3.437849991023541">
        <time>2014-06-06T20:29:16Z</time>
      </trkpt>
      <trkpt lat="44.153329962864518" lon="3.437759969383478">
        <time>2014-06-06T20:29:17Z</time>
      </trkpt>
      <trkpt lat="44.153564488515258" lon="3.43746786005795">
        <time>2014-06-06T20:29:23Z</time>
      </trkpt>
      <trkpt lat="44.153798930346966" lon="3.43717566691339">
        <time>2014-06-06T20:29:29Z</time>
      </trkpt>
      <trkpt lat="44.153979979455471" lon="3.436950026080012">
        <time>2014-06-06T20:29:34Z</time>
      </trkpt>
      <trkpt lat="44.154100008308887" lon="3.436829997226596">
        <time>2014-06-06T20:29:37Z</time>
      </trkpt>
      <trkpt lat="44.154391279444098" lon="3.436663532629609">
        <time>2014-06-06T20:29:43Z</time>
      </trkpt>
      <trkpt lat="44.154450036585331" lon="3.436630005016923">
        <time>2014-06-06T20:29:44Z</time>
      </trkpt>
      <trkpt lat="44.154680036008358" lon="3.436460020020604">
        <time>2014-06-06T20:29:49Z</time>
      </trkpt>
      <trkpt lat="44.154935600236058" lon="3.436204371973872">
        <time>2014-06-06T20:29:55Z</time>
      </trkpt>
      <trkpt lat="44.15519124828279" lon="3.43594872392714">
        <time>2014-06-06T20:30:01Z</time>
      </trkpt>
      <trkpt lat="44.155380008742213" lon="3.435759963467717">
        <time>2014-06-06T20:30:05Z</time>
      </trkpt>
      <trkpt lat="44.15561000816524" lon="3.435559971258044">
        <time>2014-06-06T20:30:10Z</time>
      </trkpt>
      <trkpt lat="44.155730037018657" lon="3.435429967939854">
        <time>2014-06-06T20:30:13Z</time>
      </trkpt>
      <trkpt lat="44.155810000374913" lon="3.435289990156889">
        <time>2014-06-06T20:30:15Z</time>
      </trkpt>
      <trkpt lat="44.155870014801621" lon="3.435080023482442">
        <time>2014-06-06T20:30:18Z</time>
      </trkpt>
      <trkpt lat="44.155860040336847" lon="3.434880031272769">
        <time>2014-06-06T20:30:21Z</time>
      </trkpt>
      <trkpt lat="44.155819974839687" lon="3.434720020741224">
        <time>2014-06-06T20:30:23Z</time>
      </trkpt>
      <trkpt lat="44.155590813606977" lon="3.434419948607683">
        <time>2014-06-06T20:30:29Z</time>
      </trkpt>
      <trkpt lat="44.155361568555236" lon="3.434119876474142">
        <time>2014-06-06T20:30:35Z</time>
      </trkpt>
      <trkpt lat="44.155270038172603" lon="3.434000015258789">
        <time>2014-06-06T20:30:37Z</time>
      </trkpt>
      <trkpt lat="44.155047247186303" lon="3.433690639212728">
        <time>2014-06-06T20:30:43Z</time>
      </trkpt>
      <trkpt lat="44.154824540019035" lon="3.433381263166666">
        <time>2014-06-06T20:30:49Z</time>
      </trkpt>
      <trkpt lat="44.154601749032736" lon="3.433071887120605">
        <time>2014-06-06T20:30:55Z</time>
      </trkpt>
      <trkpt lat="44.154550032690167" lon="3.432999970391393">
        <time>2014-06-06T20:30:56Z</time>
      </trkpt>
      <trkpt lat="44.154309974983335" lon="3.432720014825463">
        <time>2014-06-06T20:31:02Z</time>
      </trkpt>
      <trkpt lat="44.154037060216069" lon="3.432501666247845">
        <time>2014-06-06T20:31:08Z</time>
      </trkpt>
      <trkpt lat="44.153960030525923" lon="3.432439975440502">
        <time>2014-06-06T20:31:10Z</time>
      </trkpt>
      <trkpt lat="44.153675297275186" lon="3.432252891361713">
        <time>2014-06-06T20:31:16Z</time>
      </trkpt>
      <trkpt lat="44.153610002249479" lon="3.432209976017475">
        <time>2014-06-06T20:31:17Z</time>
      </trkpt>
      <trkpt lat="44.15344001725316" lon="3.432120038196445">
        <time>2014-06-06T20:31:20Z</time>
      </trkpt>
      <trkpt lat="44.153133742511272" lon="3.432017862796783">
        <time>2014-06-06T20:31:26Z</time>
      </trkpt>
      <trkpt lat="44.152869964018464" lon="3.431930020451546">
        <time>2014-06-06T20:31:31Z</time>
      </trkpt>
      <trkpt lat="44.152580033987761" lon="3.431760035455227">
        <time>2014-06-06T20:31:37Z</time>
      </trkpt>
      <trkpt lat="44.152369983494282" lon="3.431579992175102">
        <time>2014-06-06T20:31:42Z</time>
      </trkpt>
      <trkpt lat="44.152120789512992" lon="3.431312358006835">
        <time>2014-06-06T20:31:48Z</time>
      </trkpt>
      <trkpt lat="44.152100002393126" lon="3.431289978325367">
        <time>2014-06-06T20:31:49Z</time>
      </trkpt>
      <trkpt lat="44.15186514146626" lon="3.430998455733061">
        <time>2014-06-06T20:31:55Z</time>
      </trkpt>
      <trkpt lat="44.151809988543391" lon="3.430929975584149">
        <time>2014-06-06T20:31:56Z</time>
      </trkpt>
      <trkpt lat="44.151689959689975" lon="3.430720008909702">
        <time>2014-06-06T20:32:00Z</time>
      </trkpt>
      <trkpt lat="44.151670010760427" lon="3.430590005591512">
        <time>2014-06-06T20:32:02Z</time>
      </trkpt>
      <trkpt lat="44.151770006865263" lon="3.430380038917065">
        <time>2014-06-06T20:32:05Z</time>
      </trkpt>
      <trkpt lat="44.151830021291971" lon="3.430290017277002">
        <time>2014-06-06T20:32:07Z</time>
      </trkpt>
      <trkpt lat="44.151890035718679" lon="3.430130006745458">
        <time>2014-06-06T20:32:09Z</time>
      </trkpt>
      <trkpt lat="44.151939991861582" lon="3.429909981787205">
        <time>2014-06-06T20:32:12Z</time>
      </trkpt>
      <trkpt lat="44.151960024610162" lon="3.429730022326112">
        <time>2014-06-06T20:32:14Z</time>
      </trkpt>
      <trkpt lat="44.151920545846224" lon="3.429295923560858">
        <time>2014-06-06T20:32:20Z</time>
      </trkpt>
      <trkpt lat="44.151919959113002" lon="3.429289972409606">
        <time>2014-06-06T20:32:20Z</time>
      </trkpt>
      <trkpt lat="44.151830021291971" lon="3.429010016843677">
        <time>2014-06-06T20:32:24Z</time>
      </trkpt>
      <trkpt lat="44.15164184756577" lon="3.428659150376916">
        <time>2014-06-06T20:32:30Z</time>
      </trkpt>
      <trkpt lat="44.151459960266948" lon="3.428320018574596">
        <time>2014-06-06T20:32:36Z</time>
      </trkpt>
      <trkpt lat="44.151280336081982" lon="3.427960686385632">
        <time>2014-06-06T20:32:42Z</time>
      </trkpt>
      <trkpt lat="44.15114002302289" lon="3.427679976448417">
        <time>2014-06-06T20:32:47Z</time>
      </trkpt>
      <trkpt lat="44.15098998695612" lon="3.427330031991005">
        <time>2014-06-06T20:32:53Z</time>
      </trkpt>
      <trkpt lat="44.150829976424575" lon="3.427049992606044">
        <time>2014-06-06T20:32:58Z</time>
      </trkpt>
      <trkpt lat="44.150639958679676" lon="3.426780011504889">
        <time>2014-06-06T20:33:03Z</time>
      </trkpt>
      <trkpt lat="44.150620009750128" lon="3.426659982651472">
        <time>2014-06-06T20:33:05Z</time>
      </trkpt>
      <trkpt lat="44.150650016963482" lon="3.426469964906573">
        <time>2014-06-06T20:33:08Z</time>
      </trkpt>
      <trkpt lat="44.150759987533092" lon="3.4262699726969">
        <time>2014-06-06T20:33:11Z</time>
      </trkpt>
      <trkpt lat="44.150919998064637" lon="3.426039973273873">
        <time>2014-06-06T20:33:15Z</time>
      </trkpt>
      <trkpt lat="44.151019994169474" lon="3.425809973850846">
        <time>2014-06-06T20:33:19Z</time>
      </trkpt>
      <trkpt lat="44.15114002302289" lon="3.425449971109629">
        <time>2014-06-06T20:33:24Z</time>
      </trkpt>
      <trkpt lat="44.151294333860278" lon="3.425068678334355">
        <time>2014-06-06T20:33:30Z</time>
      </trkpt>
      <trkpt lat="44.151310008019209" lon="3.425030037760735">
        <time>2014-06-06T20:33:31Z</time>
      </trkpt>
      <trkpt lat="44.151481334120035" lon="3.424662910401821">
        <time>2014-06-06T20:33:37Z</time>
      </trkpt>
      <trkpt lat="44.151589963585138" lon="3.424429977312684">
        <time>2014-06-06T20:33:41Z</time>
      </trkpt>
      <trkpt lat="44.151686690747738" lon="3.424013648182154">
        <time>2014-06-06T20:33:47Z</time>
      </trkpt>
      <trkpt lat="44.151719966903329" lon="3.423869982361794">
        <time>2014-06-06T20:33:49Z</time>
      </trkpt>
      <trkpt lat="44.151809988543391" lon="3.423790019005537">
        <time>2014-06-06T20:33:51Z</time>
      </trkpt>
      <trkpt lat="44.151849970221519" lon="3.423720030114055">
        <time>2014-06-06T20:33:52Z</time>
      </trkpt>
      <trkpt lat="44.151986846700311" lon="3.423325913026929">
        <time>2014-06-06T20:33:58Z</time>
      </trkpt>
      <trkpt lat="44.152100002393126" lon="3.42300002463162">
        <time>2014-06-06T20:34:03Z</time>
      </trkpt>
      <trkpt lat="44.152159849181771" lon="3.422570452094078">
        <time>2014-06-06T20:34:09Z</time>
      </trkpt>
      <trkpt lat="44.152209972962737" lon="3.422210030257702">
        <time>2014-06-06T20:34:14Z</time>
      </trkpt>
      <trkpt lat="44.152300413697958" lon="3.421790935099125">
        <time>2014-06-06T20:34:20Z</time>
      </trkpt>
      <trkpt lat="44.152320027351379" lon="3.421699991449714">
        <time>2014-06-06T20:34:21Z</time>
      </trkpt>
      <trkpt lat="44.15243879891932" lon="3.421294810250402">
        <time>2014-06-06T20:34:27Z</time>
      </trkpt>
      <trkpt lat="44.152557654306293" lon="3.420889629051089">
        <time>2014-06-06T20:34:33Z</time>
      </trkpt>
      <trkpt lat="44.152676425874233" lon="3.420484447851777">
        <time>2014-06-06T20:34:39Z</time>
      </trkpt>
      <trkpt lat="44.152710037305951" lon="3.420370034873486">
        <time>2014-06-06T20:34:41Z</time>
      </trkpt>
      <trkpt lat="44.152810033410788" lon="3.420150009915233">
        <time>2014-06-06T20:34:45Z</time>
      </trkpt>
      <trkpt lat="44.152929978445172" lon="3.419959992170334">
        <time>2014-06-06T20:34:48Z</time>
      </trkpt>
      <trkpt lat="44.153159977868199" lon="3.419780032709241">
        <time>2014-06-06T20:34:53Z</time>
      </trkpt>
      <trkpt lat="44.153270032256842" lon="3.41965002939105">
        <time>2014-06-06T20:34:56Z</time>
      </trkpt>
      <trkpt lat="44.153349995613098" lon="3.41949999332428">
        <time>2014-06-06T20:34:59Z</time>
      </trkpt>
      <trkpt lat="44.153441609814763" lon="3.419081401079893">
        <time>2014-06-06T20:35:05Z</time>
      </trkpt>
      <trkpt lat="44.153533224016428" lon="3.418662808835506">
        <time>2014-06-06T20:35:11Z</time>
      </trkpt>
      <trkpt lat="44.153624838218093" lon="3.41824421659112">
        <time>2014-06-06T20:35:17Z</time>
      </trkpt>
      <trkpt lat="44.153716452419758" lon="3.417825624346733">
        <time>2014-06-06T20:35:23Z</time>
      </trkpt>
      <trkpt lat="44.153808150440454" lon="3.417407032102346">
        <time>2014-06-06T20:35:29Z</time>
      </trkpt>
      <trkpt lat="44.153860034421086" lon="3.417169991880655">
        <time>2014-06-06T20:35:32Z</time>
      </trkpt>
      <trkpt lat="44.153933627530932" lon="3.4167446102947">
        <time>2014-06-06T20:35:38Z</time>
      </trkpt>
      <trkpt lat="44.153949972242117" lon="3.416649978607893">
        <time>2014-06-06T20:35:39Z</time>
      </trkpt>
      <trkpt lat="44.153990037739277" lon="3.416259968653321">
        <time>2014-06-06T20:35:44Z</time>
      </trkpt>
      <trkpt lat="44.153976375237107" lon="3.415822936221957">
        <time>2014-06-06T20:35:50Z</time>
      </trkpt>
      <trkpt lat="44.153970004990697" lon="3.415620010346174">
        <time>2014-06-06T20:35:53Z</time>
      </trkpt>
      <trkpt lat="44.153942344710231" lon="3.415184151381254">
        <time>2014-06-06T20:35:59Z</time>
      </trkpt>
      <trkpt lat="44.153930023312569" lon="3.414990026503801">
        <time>2014-06-06T20:36:02Z</time>
      </trkpt>
      <trkpt lat="44.153866488486528" lon="3.414561459794641">
        <time>2014-06-06T20:36:08Z</time>
      </trkpt>
      <trkpt lat="44.153809994459152" lon="3.414179999381304">
        <time>2014-06-06T20:36:13Z</time>
      </trkpt>
      <trkpt lat="44.15375517681241" lon="3.413749169558287">
        <time>2014-06-06T20:36:19Z</time>
      </trkpt>
      <trkpt lat="44.153700359165668" lon="3.41331833973527">
        <time>2014-06-06T20:36:25Z</time>
      </trkpt>
      <trkpt lat="44.153645541518927" lon="3.412887509912252">
        <time>2014-06-06T20:36:31Z</time>
      </trkpt>
      <trkpt lat="44.153590640053153" lon="3.412456680089235">
        <time>2014-06-06T20:36:37Z</time>
      </trkpt>
      <trkpt lat="44.153535822406411" lon="3.412025850266218">
        <time>2014-06-06T20:36:43Z</time>
      </trkpt>
      <trkpt lat="44.153530038893223" lon="3.41198000125587">
        <time>2014-06-06T20:36:44Z</time>
      </trkpt>
      <trkpt lat="44.153500953689218" lon="3.411544393748045">
        <time>2014-06-06T20:36:50Z</time>
      </trkpt>
      <trkpt lat="44.153479998931289" lon="3.411229988560081">
        <time>2014-06-06T20:36:54Z</time>
      </trkpt>
      <trkpt lat="44.153462732210755" lon="3.41079312376678">
        <time>2014-06-06T20:37:00Z</time>
      </trkpt>
      <trkpt lat="44.153445549309254" lon="3.410356342792511">
        <time>2014-06-06T20:37:06Z</time>
      </trkpt>
      <trkpt lat="44.15342828258872" lon="3.40991947799921">
        <time>2014-06-06T20:37:12Z</time>
      </trkpt>
      <trkpt lat="44.15341998450458" lon="3.409710014238954">
        <time>2014-06-06T20:37:15Z</time>
      </trkpt>
      <trkpt lat="44.153345553204417" lon="3.409284884110093">
        <time>2014-06-06T20:37:21Z</time>
      </trkpt>
      <trkpt lat="44.153271038085222" lon="3.408859837800264">
        <time>2014-06-06T20:37:27Z</time>
      </trkpt>
      <trkpt lat="44.153196606785059" lon="3.408434707671404">
        <time>2014-06-06T20:37:33Z</time>
      </trkpt>
      <trkpt lat="44.153180010616779" lon="3.408339992165566">
        <time>2014-06-06T20:37:34Z</time>
      </trkpt>
      <trkpt lat="44.153082696720958" lon="3.40792391449213">
        <time>2014-06-06T20:37:40Z</time>
      </trkpt>
      <trkpt lat="44.152999967336655" lon="3.407570030540228">
        <time>2014-06-06T20:37:45Z</time>
      </trkpt>
      <trkpt lat="44.152888488024473" lon="3.407160826027393">
        <time>2014-06-06T20:37:51Z</time>
      </trkpt>
      <trkpt lat="44.152777092531323" lon="3.406751621514559">
        <time>2014-06-06T20:37:57Z</time>
      </trkpt>
      <trkpt lat="44.152665613219142" lon="3.406342417001724">
        <time>2014-06-06T20:38:03Z</time>
      </trkpt>
      <trkpt lat="44.15255413390696" lon="3.405933296307921">
        <time>2014-06-06T20:38:09Z</time>
      </trkpt>
      <trkpt lat="44.152442654594779" lon="3.405524091795087">
        <time>2014-06-06T20:38:15Z</time>
      </trkpt>
      <trkpt lat="44.152331175282598" lon="3.405114887282252">
        <time>2014-06-06T20:38:21Z</time>
      </trkpt>
      <trkpt lat="44.152219695970416" lon="3.404705682769418">
        <time>2014-06-06T20:38:27Z</time>
      </trkpt>
      <trkpt lat="44.152149958536029" lon="3.404450034722686">
        <time>2014-06-06T20:38:31Z</time>
      </trkpt>
      <trkpt lat="44.152006125077605" lon="3.4040607791394">
        <time>2014-06-06T20:38:37Z</time>
      </trkpt>
      <trkpt lat="44.15197997353971" lon="3.403990035876632">
        <time>2014-06-06T20:38:38Z</time>
      </trkpt>
      <trkpt lat="44.151860028505325" lon="3.403789959847927">
        <time>2014-06-06T20:38:42Z</time>
      </trkpt>
      <trkpt lat="44.151614271104336" lon="3.403516206890345">
        <time>2014-06-06T20:38:48Z</time>
      </trkpt>
      <trkpt lat="44.151368597522378" lon="3.403242453932762">
        <time>2014-06-06T20:38:54Z</time>
      </trkpt>
      <trkpt lat="44.151159971952438" lon="3.403010023757815">
        <time>2014-06-06T20:38:59Z</time>
      </trkpt>
      <trkpt lat="44.150999961420894" lon="3.402780024334788">
        <time>2014-06-06T20:39:03Z</time>
      </trkpt>
      <trkpt lat="44.150817403569818" lon="3.402423541992903">
        <time>2014-06-06T20:39:09Z</time>
      </trkpt>
      <trkpt lat="44.150789994746447" lon="3.402369981631637">
        <time>2014-06-06T20:39:10Z</time>
      </trkpt>
      <trkpt lat="44.150594864040613" lon="3.402026575058699">
        <time>2014-06-06T20:39:16Z</time>
      </trkpt>
      <trkpt lat="44.15053996257484" lon="3.401930015534163">
        <time>2014-06-06T20:39:18Z</time>
      </trkpt>
      <trkpt lat="44.150329828262329" lon="3.401604210957885">
        <time>2014-06-06T20:39:24Z</time>
      </trkpt>
      <trkpt lat="44.150119610130787" lon="3.401278406381607">
        <time>2014-06-06T20:39:30Z</time>
      </trkpt>
      <trkpt lat="44.149939985945821" lon="3.400999959558249">
        <time>2014-06-06T20:39:35Z</time>
      </trkpt>
      <trkpt lat="44.149733623489738" lon="3.400669461116195">
        <time>2014-06-06T20:39:41Z</time>
      </trkpt>
      <trkpt lat="44.149527261033654" lon="3.400338962674141">
        <time>2014-06-06T20:39:47Z</time>
      </trkpt>
      <trkpt lat="44.149320898577571" lon="3.400008464232087">
        <time>2014-06-06T20:39:53Z</time>
      </trkpt>
      <trkpt lat="44.149114452302456" lon="3.399678049609065">
        <time>2014-06-06T20:39:59Z</time>
      </trkpt>
      <trkpt lat="44.148908089846373" lon="3.399347551167011">
        <time>2014-06-06T20:40:05Z</time>
      </trkpt>
      <trkpt lat="44.148701727390289" lon="3.399017052724958">
        <time>2014-06-06T20:40:11Z</time>
      </trkpt>
      <trkpt lat="44.148510033264756" lon="3.398710023611784">
        <time>2014-06-06T20:40:17Z</time>
      </trkpt>
      <trkpt lat="44.148317333310843" lon="3.398363934829831">
        <time>2014-06-06T20:40:23Z</time>
      </trkpt>
      <trkpt lat="44.148124633356929" lon="3.398017846047878">
        <time>2014-06-06T20:40:29Z</time>
      </trkpt>
      <trkpt lat="44.147931933403015" lon="3.397671757265925">
        <time>2014-06-06T20:40:35Z</time>
      </trkpt>
      <trkpt lat="44.147739317268133" lon="3.397325668483973">
        <time>2014-06-06T20:40:41Z</time>
      </trkpt>
      <trkpt lat="44.147546617314219" lon="3.396979663521051">
        <time>2014-06-06T20:40:47Z</time>
      </trkpt>
      <trkpt lat="44.147479981184006" lon="3.396859969943762">
        <time>2014-06-06T20:40:49Z</time>
      </trkpt>
      <trkpt lat="44.147309996187687" lon="3.396589988842607">
        <time>2014-06-06T20:40:54Z</time>
      </trkpt>
      <trkpt lat="44.14718996733427" lon="3.396440036594868">
        <time>2014-06-06T20:40:57Z</time>
      </trkpt>
      <trkpt lat="44.146980000659823" lon="3.396269967779517">
        <time>2014-06-06T20:41:02Z</time>
      </trkpt>
      <trkpt lat="44.146810015663505" lon="3.396090008318424">
        <time>2014-06-06T20:41:06Z</time>
      </trkpt>
      <trkpt lat="44.146710019558668" lon="3.395939972251654">
        <time>2014-06-06T20:41:09Z</time>
      </trkpt>
      <trkpt lat="44.146559983491898" lon="3.395679965615273">
        <time>2014-06-06T20:41:14Z</time>
      </trkpt>
      <trkpt lat="44.146383292973042" lon="3.395317867398262">
        <time>2014-06-06T20:41:20Z</time>
      </trkpt>
      <trkpt lat="44.146359991282225" lon="3.395270006731153">
        <time>2014-06-06T20:41:21Z</time>
      </trkpt>
      <trkpt lat="44.14619218558073" lon="3.394899778068066">
        <time>2014-06-06T20:41:27Z</time>
      </trkpt>
      <trkpt lat="44.146024379879236" lon="3.394529633224011">
        <time>2014-06-06T20:41:33Z</time>
      </trkpt>
      <trkpt lat="44.146020021289587" lon="3.394519994035363">
        <time>2014-06-06T20:41:33Z</time>
      </trkpt>
      <trkpt lat="44.145819023251534" lon="3.394183125346899">
        <time>2014-06-06T20:41:39Z</time>
      </trkpt>
      <trkpt lat="44.145679967477918" lon="3.393950024619699">
        <time>2014-06-06T20:41:43Z</time>
      </trkpt>
      <trkpt lat="44.145445860922337" lon="3.393657328560948">
        <time>2014-06-06T20:41:49Z</time>
      </trkpt>
      <trkpt lat="44.145211754366755" lon="3.39336471632123">
        <time>2014-06-06T20:41:55Z</time>
      </trkpt>
      <trkpt lat="44.145160038024187" lon="3.393300008028746">
        <time>2014-06-06T20:41:56Z</time>
      </trkpt>
      <trkpt lat="44.144888883456588" lon="3.393077300861478">
        <time>2014-06-06T20:42:02Z</time>
      </trkpt>
      <trkpt lat="44.144879998639226" lon="3.393070008605719">
        <time>2014-06-06T20:42:02Z</time>
      </trkpt>
      <trkpt lat="44.144597193226218" lon="3.392877476289868">
        <time>2014-06-06T20:42:08Z</time>
      </trkpt>
      <trkpt lat="44.144314303994179" lon="3.392684943974018">
        <time>2014-06-06T20:42:14Z</time>
      </trkpt>
      <trkpt lat="44.144031498581171" lon="3.392492411658168">
        <time>2014-06-06T20:42:20Z</time>
      </trkpt>
      <trkpt lat="44.143748693168163" lon="3.392299879342318">
        <time>2014-06-06T20:42:26Z</time>
      </trkpt>
      <trkpt lat="44.143465803936124" lon="3.392107347026467">
        <time>2014-06-06T20:42:32Z</time>
      </trkpt>
      <trkpt lat="44.143182998523116" lon="3.391914814710617">
        <time>2014-06-06T20:42:38Z</time>
      </trkpt>
      <trkpt lat="44.142900109291077" lon="3.391722282394767">
        <time>2014-06-06T20:42:44Z</time>
      </trkpt>
      <trkpt lat="44.142617303878069" lon="3.391529750078917">
        <time>2014-06-06T20:42:50Z</time>
      </trkpt>
      <trkpt lat="44.142334498465061" lon="3.391337217763066">
        <time>2014-06-06T20:42:56Z</time>
      </trkpt>
      <trkpt lat="44.142051609233022" lon="3.391144685447216">
        <time>2014-06-06T20:43:02Z</time>
      </trkpt>
      <trkpt lat="44.141768803820014" lon="3.390952153131366">
        <time>2014-06-06T20:43:08Z</time>
      </trkpt>
      <trkpt lat="44.141485914587975" lon="3.390759620815516">
        <time>2014-06-06T20:43:14Z</time>
      </trkpt>
      <trkpt lat="44.141203109174967" lon="3.390567172318697">
        <time>2014-06-06T20:43:20Z</time>
      </trkpt>
      <trkpt lat="44.140920219942927" lon="3.390374640002847">
        <time>2014-06-06T20:43:26Z</time>
      </trkpt>
      <trkpt lat="44.140840005129576" lon="3.390319989994168">
        <time>2014-06-06T20:43:28Z</time>
      </trkpt>
      <trkpt lat="44.140559295192361" lon="3.390121506527066">
        <time>2014-06-06T20:43:34Z</time>
      </trkpt>
      <trkpt lat="44.140278669074178" lon="3.389922939240933">
        <time>2014-06-06T20:43:40Z</time>
      </trkpt>
      <trkpt lat="44.139997959136963" lon="3.38972445577383">
        <time>2014-06-06T20:43:46Z</time>
      </trkpt>
      <trkpt lat="44.13971733301878" lon="3.389525888487697">
        <time>2014-06-06T20:43:52Z</time>
      </trkpt>
      <trkpt lat="44.139609960839152" lon="3.389450032263994">
        <time>2014-06-06T20:43:54Z</time>
      </trkpt>
      <trkpt lat="44.139327239245176" lon="3.389257332310081">
        <time>2014-06-06T20:44:00Z</time>
      </trkpt>
      <trkpt lat="44.139044433832169" lon="3.389064716175199">
        <time>2014-06-06T20:44:06Z</time>
      </trkpt>
      <trkpt lat="44.138761628419161" lon="3.388872016221285">
        <time>2014-06-06T20:44:12Z</time>
      </trkpt>
      <trkpt lat="44.138478823006153" lon="3.388679316267371">
        <time>2014-06-06T20:44:18Z</time>
      </trkpt>
      <trkpt lat="44.138196101412177" lon="3.388486700132489">
        <time>2014-06-06T20:44:24Z</time>
      </trkpt>
      <trkpt lat="44.137913295999169" lon="3.388294083997607">
        <time>2014-06-06T20:44:30Z</time>
      </trkpt>
      <trkpt lat="44.137630490586162" lon="3.388101384043694">
        <time>2014-06-06T20:44:36Z</time>
      </trkpt>
      <trkpt lat="44.137347685173154" lon="3.387908767908812">
        <time>2014-06-06T20:44:42Z</time>
      </trkpt>
      <trkpt lat="44.137099999934435" lon="3.387740040197969">
        <time>2014-06-06T20:44:47Z</time>
      </trkpt>
      <trkpt lat="44.136820212006569" lon="3.387539209797978">
        <time>2014-06-06T20:44:53Z</time>
      </trkpt>
      <trkpt lat="44.136540340259671" lon="3.387338379397988">
        <time>2014-06-06T20:44:59Z</time>
      </trkpt>
      <trkpt lat="44.136260552331805" lon="3.387137548997998">
        <time>2014-06-06T20:45:05Z</time>
      </trkpt>
      <trkpt lat="44.136249991133809" lon="3.387130005285144">
        <time>2014-06-06T20:45:05Z</time>
      </trkpt>
      <trkpt lat="44.135968023911119" lon="3.386935126036406">
        <time>2014-06-06T20:45:11Z</time>
      </trkpt>
      <trkpt lat="44.135686056688428" lon="3.386740162968636">
        <time>2014-06-06T20:45:17Z</time>
      </trkpt>
      <trkpt lat="44.135404005646706" lon="3.386545283719897">
        <time>2014-06-06T20:45:23Z</time>
      </trkpt>
      <trkpt lat="44.135122038424015" lon="3.386350404471159">
        <time>2014-06-06T20:45:29Z</time>
      </trkpt>
      <trkpt lat="44.134890027344227" lon="3.386189974844456">
        <time>2014-06-06T20:45:34Z</time>
      </trkpt>
      <trkpt lat="44.134709984064102" lon="3.386100037023425">
        <time>2014-06-06T20:45:38Z</time>
      </trkpt>
      <trkpt lat="44.134560031816363" lon="3.386080004274845">
        <time>2014-06-06T20:45:41Z</time>
      </trkpt>
      <trkpt lat="44.134245375171304" lon="3.386100959032774">
        <time>2014-06-06T20:45:47Z</time>
      </trkpt>
      <trkpt lat="44.134110007435083" lon="3.386110011488199">
        <time>2014-06-06T20:45:50Z</time>
      </trkpt>
      <trkpt lat="44.133797278627753" lon="3.386057876050472">
        <time>2014-06-06T20:45:56Z</time>
      </trkpt>
      <trkpt lat="44.133689990267158" lon="3.386040022596717">
        <time>2014-06-06T20:45:58Z</time>
      </trkpt>
      <trkpt lat="44.133459990844131" lon="3.385880012065172">
        <time>2014-06-06T20:46:03Z</time>
      </trkpt>
      <trkpt lat="44.133269973099232" lon="3.385650012642145">
        <time>2014-06-06T20:46:08Z</time>
      </trkpt>
      <trkpt lat="44.133050031960011" lon="3.385480027645826">
        <time>2014-06-06T20:46:13Z</time>
      </trkpt>
      <trkpt lat="44.132850039750338" lon="3.38538003154099">
        <time>2014-06-06T20:46:17Z</time>
      </trkpt>
      <trkpt lat="44.132639989256859" lon="3.385329991579056">
        <time>2014-06-06T20:46:21Z</time>
      </trkpt>
      <trkpt lat="44.132439997047186" lon="3.385369973257184">
        <time>2014-06-06T20:46:25Z</time>
      </trkpt>
      <trkpt lat="44.132289960980415" lon="3.38535999879241">
        <time>2014-06-06T20:46:28Z</time>
      </trkpt>
      <trkpt lat="44.132209997624159" lon="3.385320017114282">
        <time>2014-06-06T20:46:30Z</time>
      </trkpt>
      <trkpt lat="44.132140008732677" lon="3.385229995474219">
        <time>2014-06-06T20:46:32Z</time>
      </trkpt>
      <trkpt lat="44.132030038163066" lon="3.384920032694936">
        <time>2014-06-06T20:46:37Z</time>
      </trkpt>
      <trkpt lat="44.131979998201132" lon="3.384660026058555">
        <time>2014-06-06T20:46:41Z</time>
      </trkpt>
      <trkpt lat="44.13194814696908" lon="3.38422492146492">
        <time>2014-06-06T20:46:47Z</time>
      </trkpt>
      <trkpt lat="44.131919983774424" lon="3.383840024471283">
        <time>2014-06-06T20:46:52Z</time>
      </trkpt>
      <trkpt lat="44.131849994882941" lon="3.383659981191158">
        <time>2014-06-06T20:46:55Z</time>
      </trkpt>
      <trkpt lat="44.131659977138042" lon="3.383359992876649">
        <time>2014-06-06T20:47:00Z</time>
      </trkpt>
      <trkpt lat="44.131438694894314" lon="3.38304877281189">
        <time>2014-06-06T20:47:06Z</time>
      </trkpt>
      <trkpt lat="44.131340039893985" lon="3.382909968495369">
        <time>2014-06-06T20:47:09Z</time>
      </trkpt>
      <trkpt lat="44.131110040470958" lon="3.38263001292944">
        <time>2014-06-06T20:47:15Z</time>
      </trkpt>
      <trkpt lat="44.130980037152767" lon="3.38233002461493">
        <time>2014-06-06T20:47:20Z</time>
      </trkpt>
      <trkpt lat="44.130838382989168" lon="3.381939344108105">
        <time>2014-06-06T20:47:26Z</time>
      </trkpt>
      <trkpt lat="44.130696728825569" lon="3.381548747420311">
        <time>2014-06-06T20:47:32Z</time>
      </trkpt>
      <trkpt lat="44.130650041624904" lon="3.381420001387596">
        <time>2014-06-06T20:47:34Z</time>
      </trkpt>
      <trkpt lat="44.130520038306713" lon="3.381229983642697">
        <time>2014-06-06T20:47:38Z</time>
      </trkpt>
      <trkpt lat="44.130430016666651" lon="3.381139962002635">
        <time>2014-06-06T20:47:40Z</time>
      </trkpt>
      <trkpt lat="44.130143355578184" lon="3.380958745256066">
        <time>2014-06-06T20:47:46Z</time>
      </trkpt>
      <trkpt lat="44.129856694489717" lon="3.380777444690466">
        <time>2014-06-06T20:47:52Z</time>
      </trkpt>
      <trkpt lat="44.129749992862344" lon="3.380709970369935">
        <time>2014-06-06T20:47:54Z</time>
      </trkpt>
      <trkpt lat="44.129467103630304" lon="3.380517605692148">
        <time>2014-06-06T20:48:00Z</time>
      </trkpt>
      <trkpt lat="44.129184214398265" lon="3.380325241014361">
        <time>2014-06-06T20:48:06Z</time>
      </trkpt>
      <trkpt lat="44.128999980166554" lon="3.380200015380979">
        <time>2014-06-06T20:48:10Z</time>
      </trkpt>
      <trkpt lat="44.128714324906468" lon="3.380015781149268">
        <time>2014-06-06T20:48:16Z</time>
      </trkpt>
      <trkpt lat="44.128428669646382" lon="3.379831546917558">
        <time>2014-06-06T20:48:22Z</time>
      </trkpt>
      <trkpt lat="44.128142930567265" lon="3.379647396504879">
        <time>2014-06-06T20:48:28Z</time>
      </trkpt>
      <trkpt lat="44.127857275307178" lon="3.379463162273169">
        <time>2014-06-06T20:48:34Z</time>
      </trkpt>
      <trkpt lat="44.127571620047092" lon="3.379278928041458">
        <time>2014-06-06T20:48:40Z</time>
      </trkpt>
      <trkpt lat="44.127285880967975" lon="3.379094777628779">
        <time>2014-06-06T20:48:46Z</time>
      </trkpt>
      <trkpt lat="44.127169959247112" lon="3.379020011052489">
        <time>2014-06-06T20:48:48Z</time>
      </trkpt>
      <trkpt lat="44.126912802457809" lon="3.378767464309931">
        <time>2014-06-06T20:48:54Z</time>
      </trkpt>
      <trkpt lat="44.126655645668507" lon="3.378514917567372">
        <time>2014-06-06T20:49:00Z</time>
      </trkpt>
      <trkpt lat="44.126398488879204" lon="3.378262370824814">
        <time>2014-06-06T20:49:06Z</time>
      </trkpt>
      <trkpt lat="44.126141332089901" lon="3.378009824082255">
        <time>2014-06-06T20:49:12Z</time>
      </trkpt>
      <trkpt lat="44.125884175300598" lon="3.377757361158729">
        <time>2014-06-06T20:49:18Z</time>
      </trkpt>
      <trkpt lat="44.125627018511295" lon="3.37750481441617">
        <time>2014-06-06T20:49:24Z</time>
      </trkpt>
      <trkpt lat="44.125369861721992" lon="3.377252267673612">
        <time>2014-06-06T20:49:30Z</time>
      </trkpt>
      <trkpt lat="44.12511270493269" lon="3.376999720931053">
        <time>2014-06-06T20:49:36Z</time>
      </trkpt>
      <trkpt lat="44.124855548143387" lon="3.376747258007526">
        <time>2014-06-06T20:49:42Z</time>
      </trkpt>
      <trkpt lat="44.124598391354084" lon="3.376494711264968">
        <time>2014-06-06T20:49:48Z</time>
      </trkpt>
      <trkpt lat="44.124341234564781" lon="3.376242164522409">
        <time>2014-06-06T20:49:54Z</time>
      </trkpt>
      <trkpt lat="44.124084077775478" lon="3.375989701598883">
        <time>2014-06-06T20:50:00Z</time>
      </trkpt>
      <trkpt lat="44.123826920986176" lon="3.375737154856324">
        <time>2014-06-06T20:50:06Z</time>
      </trkpt>
      <trkpt lat="44.123569764196873" lon="3.375484691932797">
        <time>2014-06-06T20:50:12Z</time>
      </trkpt>
      <trkpt lat="44.123312523588538" lon="3.375232145190239">
        <time>2014-06-06T20:50:18Z</time>
      </trkpt>
      <trkpt lat="44.123289976269007" lon="3.375210016965866">
        <time>2014-06-06T20:50:19Z</time>
      </trkpt>
      <trkpt lat="44.123031562194228" lon="3.374960068613291">
        <time>2014-06-06T20:50:25Z</time>
      </trkpt>
      <trkpt lat="44.122773064300418" lon="3.374710120260716">
        <time>2014-06-06T20:50:31Z</time>
      </trkpt>
      <trkpt lat="44.122514650225639" lon="3.37446017190814">
        <time>2014-06-06T20:50:37Z</time>
      </trkpt>
      <trkpt lat="44.122256152331829" lon="3.374210223555565">
        <time>2014-06-06T20:50:43Z</time>
      </trkpt>
      <trkpt lat="44.121997738257051" lon="3.37396027520299">
        <time>2014-06-06T20:50:49Z</time>
      </trkpt>
      <trkpt lat="44.12173924036324" lon="3.373710326850414">
        <time>2014-06-06T20:50:55Z</time>
      </trkpt>
      <trkpt lat="44.12148074246943" lon="3.373460378497839">
        <time>2014-06-06T20:51:01Z</time>
      </trkpt>
      <trkpt lat="44.121222328394651" lon="3.373210430145264">
        <time>2014-06-06T20:51:07Z</time>
      </trkpt>
      <trkpt lat="44.120963830500841" lon="3.372960481792688">
        <time>2014-06-06T20:51:13Z</time>
      </trkpt>
      <trkpt lat="44.120705416426063" lon="3.372710617259145">
        <time>2014-06-06T20:51:19Z</time>
      </trkpt>
      <trkpt lat="44.120559990406036" lon="3.372569968923926">
        <time>2014-06-06T20:51:22Z</time>
      </trkpt>
      <trkpt lat="44.120303336530924" lon="3.372316583991051">
        <time>2014-06-06T20:51:28Z</time>
      </trkpt>
      <trkpt lat="44.12004659883678" lon="3.372063115239143">
        <time>2014-06-06T20:51:34Z</time>
      </trkpt>
      <trkpt lat="44.119789944961667" lon="3.371809730306268">
        <time>2014-06-06T20:51:40Z</time>
      </trkpt>
      <trkpt lat="44.119533207267523" lon="3.37155626155436">
        <time>2014-06-06T20:51:46Z</time>
      </trkpt>
      <trkpt lat="44.11927655339241" lon="3.371302876621485">
        <time>2014-06-06T20:51:52Z</time>
      </trkpt>
      <trkpt lat="44.119019815698266" lon="3.371049491688609">
        <time>2014-06-06T20:51:58Z</time>
      </trkpt>
      <trkpt lat="44.118989976122975" lon="3.371019987389445">
        <time>2014-06-06T20:51:59Z</time>
      </trkpt>
      <trkpt lat="44.118799958378077" lon="3.370889984071255">
        <time>2014-06-06T20:52:03Z</time>
      </trkpt>
      <trkpt lat="44.118495611473918" lon="3.370777582749724">
        <time>2014-06-06T20:52:09Z</time>
      </trkpt>
      <trkpt lat="44.118191180750728" lon="3.370665181428194">
        <time>2014-06-06T20:52:15Z</time>
      </trkpt>
      <trkpt lat="44.118150025606155" lon="3.370650010183454">
        <time>2014-06-06T20:52:16Z</time>
      </trkpt>
      <trkpt lat="44.117930000647902" lon="3.370589995756745">
        <time>2014-06-06T20:52:20Z</time>
      </trkpt>
      <trkpt lat="44.117660019546747" lon="3.370610028505325">
        <time>2014-06-06T20:52:25Z</time>
      </trkpt>
      <trkpt lat="44.117390038445592" lon="3.370680017396808">
        <time>2014-06-06T20:52:30Z</time>
      </trkpt>
      <trkpt lat="44.117240002378821" lon="3.370650010183454">
        <time>2014-06-06T20:52:33Z</time>
      </trkpt>
      <trkpt lat="44.117040010169148" lon="3.370559988543391">
        <time>2014-06-06T20:52:37Z</time>
      </trkpt>
      <trkpt lat="44.116759384050965" lon="3.370361505076289">
        <time>2014-06-06T20:52:43Z</time>
      </trkpt>
      <trkpt lat="44.116629967465997" lon="3.370269974693656">
        <time>2014-06-06T20:52:46Z</time>
      </trkpt>
      <trkpt lat="44.116380019113421" lon="3.370060008019209">
        <time>2014-06-06T20:52:52Z</time>
      </trkpt>
      <trkpt lat="44.116147169843316" lon="3.369765551760793">
        <time>2014-06-06T20:52:58Z</time>
      </trkpt>
      <trkpt lat="44.116039965301752" lon="3.369630016386509">
        <time>2014-06-06T20:53:01Z</time>
      </trkpt>
      <trkpt lat="44.115890013054013" lon="3.369370009750128">
        <time>2014-06-06T20:53:06Z</time>
      </trkpt>
      <trkpt lat="44.115860005840659" lon="3.369249980896711">
        <time>2014-06-06T20:53:08Z</time>
      </trkpt>
      <trkpt lat="44.115750035271049" lon="3.368979999795556">
        <time>2014-06-06T20:53:12Z</time>
      </trkpt>
      <trkpt lat="44.115820024162531" lon="3.368770033121109">
        <time>2014-06-06T20:53:15Z</time>
      </trkpt>
      <trkpt lat="44.115849025547504" lon="3.368334593251348">
        <time>2014-06-06T20:53:21Z</time>
      </trkpt>
      <trkpt lat="44.115850031375885" lon="3.368320008739829">
        <time>2014-06-06T20:53:21Z</time>
      </trkpt>
      <trkpt lat="44.115799991413951" lon="3.367990013211966">
        <time>2014-06-06T20:53:26Z</time>
      </trkpt>
      <trkpt lat="44.115663869306445" lon="3.367595728486776">
        <time>2014-06-06T20:53:32Z</time>
      </trkpt>
      <trkpt lat="44.115527747198939" lon="3.367201443761587">
        <time>2014-06-06T20:53:38Z</time>
      </trkpt>
      <trkpt lat="44.115509977564216" lon="3.367149978876114">
        <time>2014-06-06T20:53:39Z</time>
      </trkpt>
      <trkpt lat="44.115426409989595" lon="3.366728452965617">
        <time>2014-06-06T20:53:45Z</time>
      </trkpt>
      <trkpt lat="44.115342842414975" lon="3.366306927055121">
        <time>2014-06-06T20:53:51Z</time>
      </trkpt>
      <trkpt lat="44.115279978141189" lon="3.365990007296205">
        <time>2014-06-06T20:53:56Z</time>
      </trkpt>
      <trkpt lat="44.11526002921164" lon="3.365750033408403">
        <time>2014-06-06T20:53:59Z</time>
      </trkpt>
      <trkpt lat="44.115328257903457" lon="3.365323143079877">
        <time>2014-06-06T20:54:05Z</time>
      </trkpt>
      <trkpt lat="44.115379974246025" lon="3.365000020712614">
        <time>2014-06-06T20:54:10Z</time>
      </trkpt>
      <trkpt lat="44.115410819649696" lon="3.36456491611898">
        <time>2014-06-06T20:54:16Z</time>
      </trkpt>
      <trkpt lat="44.115441665053368" lon="3.364129727706313">
        <time>2014-06-06T20:54:22Z</time>
      </trkpt>
      <trkpt lat="44.115469995886087" lon="3.363729994744062">
        <time>2014-06-06T20:54:28Z</time>
      </trkpt>
      <trkpt lat="44.115609973669052" lon="3.363360017538071">
        <time>2014-06-06T20:54:34Z</time>
      </trkpt>
      <trkpt lat="44.115820443257689" lon="3.363034715875983">
        <time>2014-06-06T20:54:40Z</time>
      </trkpt>
      <trkpt lat="44.115829998627305" lon="3.363019963726401">
        <time>2014-06-06T20:54:40Z</time>
      </trkpt>
      <trkpt lat="44.116050023585558" lon="3.362719975411892">
        <time>2014-06-06T20:54:46Z</time>
      </trkpt>
      <trkpt lat="44.116311622783542" lon="3.362476481124759">
        <time>2014-06-06T20:54:52Z</time>
      </trkpt>
      <trkpt lat="44.116340037435293" lon="3.362449994310737">
        <time>2014-06-06T20:54:53Z</time>
      </trkpt>
      <trkpt lat="44.11644003354013" lon="3.362289983779192">
        <time>2014-06-06T20:54:56Z</time>
      </trkpt>
      <trkpt lat="44.116489989683032" lon="3.362159980461001">
        <time>2014-06-06T20:54:58Z</time>
      </trkpt>
      <trkpt lat="44.116510022431612" lon="3.361959988251329">
        <time>2014-06-06T20:55:01Z</time>
      </trkpt>
      <trkpt lat="44.116480015218258" lon="3.361780028790236">
        <time>2014-06-06T20:55:04Z</time>
      </trkpt>
      <trkpt lat="44.116313802078366" lon="3.361408542841673">
        <time>2014-06-06T20:55:10Z</time>
      </trkpt>
      <trkpt lat="44.116310030221939" lon="3.361399993300438">
        <time>2014-06-06T20:55:10Z</time>
      </trkpt>
      <trkpt lat="44.116190504282713" lon="3.360995482653379">
        <time>2014-06-06T20:55:16Z</time>
      </trkpt>
      <trkpt lat="44.116180026903749" lon="3.360960027202964">
        <time>2014-06-06T20:55:17Z</time>
      </trkpt>
      <trkpt lat="44.116112049669027" lon="3.360533053055406">
        <time>2014-06-06T20:55:23Z</time>
      </trkpt>
      <trkpt lat="44.116110038012266" lon="3.360519977286458">
        <time>2014-06-06T20:55:23Z</time>
      </trkpt>
      <trkpt lat="44.116075253114104" lon="3.360085459426045">
        <time>2014-06-06T20:55:29Z</time>
      </trkpt>
      <trkpt lat="44.116050023585558" lon="3.359769964590669">
        <time>2014-06-06T20:55:33Z</time>
      </trkpt>
      <trkpt lat="44.115990092977881" lon="3.359340727329254">
        <time>2014-06-06T20:55:39Z</time>
      </trkpt>
      <trkpt lat="44.11599000915885" lon="3.359339972957969">
        <time>2014-06-06T20:55:39Z</time>
      </trkpt>
      <trkpt lat="44.115899987518787" lon="3.359009977430105">
        <time>2014-06-06T20:55:44Z</time>
      </trkpt>
      <trkpt lat="44.115850031375885" lon="3.358749970793724">
        <time>2014-06-06T20:55:48Z</time>
      </trkpt>
      <trkpt lat="44.115880038589239" lon="3.358530029654503">
        <time>2014-06-06T20:55:51Z</time>
      </trkpt>
      <trkpt lat="44.11596997641027" lon="3.358300030231476">
        <time>2014-06-06T20:55:55Z</time>
      </trkpt>
      <trkpt lat="44.116139961406589" lon="3.358070030808449">
        <time>2014-06-06T20:56:00Z</time>
      </trkpt>
      <trkpt lat="44.11639996804297" lon="3.357829973101616">
        <time>2014-06-06T20:56:06Z</time>
      </trkpt>
      <trkpt lat="44.11655000410974" lon="3.357599973678589">
        <time>2014-06-06T20:56:10Z</time>
      </trkpt>
      <trkpt lat="44.116650000214577" lon="3.357269978150725">
        <time>2014-06-06T20:56:15Z</time>
      </trkpt>
      <trkpt lat="44.116689981892705" lon="3.356909975409508">
        <time>2014-06-06T20:56:20Z</time>
      </trkpt>
      <trkpt lat="44.116689981892705" lon="3.35647277534008">
        <time>2014-06-06T20:56:26Z</time>
      </trkpt>
      <trkpt lat="44.116689981892705" lon="3.356159962713718">
        <time>2014-06-06T20:56:30Z</time>
      </trkpt>
      <trkpt lat="44.11657003685832" lon="3.355819992721081">
        <time>2014-06-06T20:56:35Z</time>
      </trkpt>
      <trkpt lat="44.116540029644966" lon="3.355670040473342">
        <time>2014-06-06T20:56:37Z</time>
      </trkpt>
      <trkpt lat="44.116559978574514" lon="3.355469964444637">
        <time>2014-06-06T20:56:40Z</time>
      </trkpt>
      <trkpt lat="44.116659974679351" lon="3.35510996170342">
        <time>2014-06-06T20:56:45Z</time>
      </trkpt>
      <trkpt lat="44.116670032963157" lon="3.354990016669035">
        <time>2014-06-06T20:56:47Z</time>
      </trkpt>
      <trkpt lat="44.116659974679351" lon="3.354839980602264">
        <time>2014-06-06T20:56:49Z</time>
      </trkpt>
      <trkpt lat="44.11655880510807" lon="3.35442591458559">
        <time>2014-06-06T20:56:55Z</time>
      </trkpt>
      <trkpt lat="44.11655000410974" lon="3.354390040040016">
        <time>2014-06-06T20:56:56Z</time>
      </trkpt>
      <trkpt lat="44.116489989683032" lon="3.354230029508472">
        <time>2014-06-06T20:56:58Z</time>
      </trkpt>
      <trkpt lat="44.116410026326776" lon="3.354140007868409">
        <time>2014-06-06T20:57:00Z</time>
      </trkpt>
      <trkpt lat="44.116320004686713" lon="3.354100026190281">
        <time>2014-06-06T20:57:02Z</time>
      </trkpt>
      <trkpt lat="44.116007443517447" lon="3.354045627638698">
        <time>2014-06-06T20:57:08Z</time>
      </trkpt>
      <trkpt lat="44.115860005840659" lon="3.354019979014993">
        <time>2014-06-06T20:57:11Z</time>
      </trkpt>
      <trkpt lat="44.115760009735823" lon="3.353919982910156">
        <time>2014-06-06T20:57:13Z</time>
      </trkpt>
      <trkpt lat="44.115679962560534" lon="3.353789979591966">
        <time>2014-06-06T20:57:15Z</time>
      </trkpt>
      <trkpt lat="44.115620031952858" lon="3.353629969060421">
        <time>2014-06-06T20:57:17Z</time>
      </trkpt>
      <trkpt lat="44.115541409701109" lon="3.353206599131227">
        <time>2014-06-06T20:57:23Z</time>
      </trkpt>
      <trkpt lat="44.115462871268392" lon="3.352783229202032">
        <time>2014-06-06T20:57:29Z</time>
      </trkpt>
      <trkpt lat="44.115439988672733" lon="3.352660015225411">
        <time>2014-06-06T20:57:31Z</time>
      </trkpt>
      <trkpt lat="44.115349967032671" lon="3.352370001375675">
        <time>2014-06-06T20:57:35Z</time>
      </trkpt>
      <trkpt lat="44.115249970927835" lon="3.352170009166002">
        <time>2014-06-06T20:57:38Z</time>
      </trkpt>
      <trkpt lat="44.115140000358224" lon="3.352009998634458">
        <time>2014-06-06T20:57:41Z</time>
      </trkpt>
      <trkpt lat="44.114960040897131" lon="3.351870020851493">
        <time>2014-06-06T20:57:45Z</time>
      </trkpt>
      <trkpt lat="44.114672793075442" lon="3.351690480485559">
        <time>2014-06-06T20:57:51Z</time>
      </trkpt>
      <trkpt lat="44.114559972658753" lon="3.351619988679886">
        <time>2014-06-06T20:57:53Z</time>
      </trkpt>
      <trkpt lat="44.114450002089143" lon="3.351499959826469">
        <time>2014-06-06T20:57:56Z</time>
      </trkpt>
      <trkpt lat="44.114287476986647" lon="3.351125456392765">
        <time>2014-06-06T20:58:02Z</time>
      </trkpt>
      <trkpt lat="44.114220002666116" lon="3.350969972088933">
        <time>2014-06-06T20:58:04Z</time>
      </trkpt>
      <trkpt lat="44.114129981026053" lon="3.350590020418167">
        <time>2014-06-06T20:58:09Z</time>
      </trkpt>
      <trkpt lat="44.114098465070128" lon="3.350154999643564">
        <time>2014-06-06T20:58:15Z</time>
      </trkpt>
      <trkpt lat="44.114080024883151" lon="3.349900022149086">
        <time>2014-06-06T20:58:19Z</time>
      </trkpt>
      <trkpt lat="44.113999977707863" lon="3.349649989977479">
        <time>2014-06-06T20:58:23Z</time>
      </trkpt>
      <trkpt lat="44.113794201985002" lon="3.349318988621235">
        <time>2014-06-06T20:58:29Z</time>
      </trkpt>
      <trkpt lat="44.113769978284836" lon="3.349280012771487">
        <time>2014-06-06T20:58:30Z</time>
      </trkpt>
      <trkpt lat="44.113660007715225" lon="3.349059987813234">
        <time>2014-06-06T20:58:34Z</time>
      </trkpt>
      <trkpt lat="44.113550037145615" lon="3.348660003393889">
        <time>2014-06-06T20:58:40Z</time>
      </trkpt>
      <trkpt lat="44.113400001078844" lon="3.348399996757507">
        <time>2014-06-06T20:58:45Z</time>
      </trkpt>
      <trkpt lat="44.113290030509233" lon="3.348260018974543">
        <time>2014-06-06T20:58:48Z</time>
      </trkpt>
      <trkpt lat="44.113200008869171" lon="3.348079975694418">
        <time>2014-06-06T20:58:51Z</time>
      </trkpt>
      <trkpt lat="44.113056845963001" lon="3.347690552473068">
        <time>2014-06-06T20:58:57Z</time>
      </trkpt>
      <trkpt lat="44.112913683056831" lon="3.347301129251719">
        <time>2014-06-06T20:59:03Z</time>
      </trkpt>
      <trkpt lat="44.112770520150661" lon="3.346911706030369">
        <time>2014-06-06T20:59:09Z</time>
      </trkpt>
      <trkpt lat="44.112700028344989" lon="3.346720011904836">
        <time>2014-06-06T20:59:12Z</time>
      </trkpt>
      <trkpt lat="44.112679995596409" lon="3.346560001373291">
        <time>2014-06-06T20:59:14Z</time>
      </trkpt>
      <trkpt lat="44.112705979496241" lon="3.346124310046434">
        <time>2014-06-06T20:59:20Z</time>
      </trkpt>
      <trkpt lat="44.112719977274537" lon="3.34589003585279">
        <time>2014-06-06T20:59:23Z</time>
      </trkpt>
      <trkpt lat="44.112670021131635" lon="3.345689959824085">
        <time>2014-06-06T20:59:26Z</time>
      </trkpt>
      <trkpt lat="44.112452762201428" lon="3.345373459160328">
        <time>2014-06-06T20:59:32Z</time>
      </trkpt>
      <trkpt lat="44.112319992855191" lon="3.345180004835129">
        <time>2014-06-06T20:59:36Z</time>
      </trkpt>
      <trkpt lat="44.112240029498935" lon="3.344940030947328">
        <time>2014-06-06T20:59:40Z</time>
      </trkpt>
      <trkpt lat="44.112219996750355" lon="3.344799969345331">
        <time>2014-06-06T20:59:42Z</time>
      </trkpt>
      <trkpt lat="44.112229971215129" lon="3.344480032101274">
        <time>2014-06-06T20:59:46Z</time>
      </trkpt>
      <trkpt lat="44.112210022285581" lon="3.344250032678247">
        <time>2014-06-06T20:59:49Z</time>
      </trkpt>
      <trkpt lat="44.112159982323647" lon="3.34415003657341">
        <time>2014-06-06T20:59:51Z</time>
      </trkpt>
      <trkpt lat="44.11208001896739" lon="3.344090022146702">
        <time>2014-06-06T20:59:53Z</time>
      </trkpt>
      <trkpt lat="44.111790005117655" lon="3.34397996775806">
        <time>2014-06-06T20:59:59Z</time>
      </trkpt>
      <trkpt lat="44.111680034548044" lon="3.343849964439869">
        <time>2014-06-06T21:00:02Z</time>
      </trkpt>
      <trkpt lat="44.111550031229854" lon="3.343530027195811">
        <time>2014-06-06T21:00:07Z</time>
      </trkpt>
      <trkpt lat="44.111423548310995" lon="3.343129539862275">
        <time>2014-06-06T21:00:13Z</time>
      </trkpt>
      <trkpt lat="44.111297065392137" lon="3.342729136347771">
        <time>2014-06-06T21:00:19Z</time>
      </trkpt>
      <trkpt lat="44.111249959096313" lon="3.342580022290349">
        <time>2014-06-06T21:00:21Z</time>
      </trkpt>
      <trkpt lat="44.111035466194153" lon="3.342259917408228">
        <time>2014-06-06T21:00:27Z</time>
      </trkpt>
      <trkpt lat="44.110820889472961" lon="3.341939812526107">
        <time>2014-06-06T21:00:33Z</time>
      </trkpt>
      <trkpt lat="44.11061997525394" lon="3.341639991849661">
        <time>2014-06-06T21:00:39Z</time>
      </trkpt>
      <trkpt lat="44.110449990257621" lon="3.341319970786572">
        <time>2014-06-06T21:00:44Z</time>
      </trkpt>
      <trkpt lat="44.110358040779829" lon="3.340901881456375">
        <time>2014-06-06T21:00:50Z</time>
      </trkpt>
      <trkpt lat="44.11034001968801" lon="3.340819990262389">
        <time>2014-06-06T21:00:51Z</time>
      </trkpt>
      <trkpt lat="44.110280005261302" lon="3.340619998052716">
        <time>2014-06-06T21:00:54Z</time>
      </trkpt>
      <trkpt lat="44.110100381076336" lon="3.340260833501816">
        <time>2014-06-06T21:01:00Z</time>
      </trkpt>
      <trkpt lat="44.109920840710402" lon="3.339901668950915">
        <time>2014-06-06T21:01:06Z</time>
      </trkpt>
      <trkpt lat="44.109741216525435" lon="3.339542504400015">
        <time>2014-06-06T21:01:12Z</time>
      </trkpt>
      <trkpt lat="44.109650021418929" lon="3.339360030367971">
        <time>2014-06-06T21:01:15Z</time>
      </trkpt>
      <trkpt lat="44.109590006992221" lon="3.339179987087846">
        <time>2014-06-06T21:01:18Z</time>
      </trkpt>
      <trkpt lat="44.109569974243641" lon="3.338959962129593">
        <time>2014-06-06T21:01:21Z</time>
      </trkpt>
      <trkpt lat="44.109561592340469" lon="3.338523013517261">
        <time>2014-06-06T21:01:27Z</time>
      </trkpt>
      <trkpt lat="44.109559999778867" lon="3.338440032675862">
        <time>2014-06-06T21:01:28Z</time>
      </trkpt>
      <trkpt lat="44.109420021995902" lon="3.338159993290901">
        <time>2014-06-06T21:01:33Z</time>
      </trkpt>
      <trkpt lat="44.10918784327805" lon="3.337864531204104">
        <time>2014-06-06T21:01:39Z</time>
      </trkpt>
      <trkpt lat="44.108955664560199" lon="3.337569069117308">
        <time>2014-06-06T21:01:45Z</time>
      </trkpt>
      <trkpt lat="44.108723569661379" lon="3.337273607030511">
        <time>2014-06-06T21:01:51Z</time>
      </trkpt>
      <trkpt lat="44.108491390943527" lon="3.336978144943714">
        <time>2014-06-06T21:01:57Z</time>
      </trkpt>
      <trkpt lat="44.108430035412312" lon="3.336900025606155">
        <time>2014-06-06T21:01:59Z</time>
      </trkpt>
      <trkpt lat="44.108205484226346" lon="3.336593415588141">
        <time>2014-06-06T21:02:05Z</time>
      </trkpt>
      <trkpt lat="44.10798093304038" lon="3.336286805570126">
        <time>2014-06-06T21:02:11Z</time>
      </trkpt>
      <trkpt lat="44.107910022139549" lon="3.336189994588494">
        <time>2014-06-06T21:02:13Z</time>
      </trkpt>
      <trkpt lat="44.107810026034713" lon="3.335990002378821">
        <time>2014-06-06T21:02:16Z</time>
      </trkpt>
      <trkpt lat="44.107697792351246" lon="3.335581468418241">
        <time>2014-06-06T21:02:22Z</time>
      </trkpt>
      <trkpt lat="44.107585642486811" lon="3.335173018276691">
        <time>2014-06-06T21:02:28Z</time>
      </trkpt>
      <trkpt lat="44.107473492622375" lon="3.334764484316111">
        <time>2014-06-06T21:02:34Z</time>
      </trkpt>
      <trkpt lat="44.107361258938909" lon="3.33435595035553">
        <time>2014-06-06T21:02:40Z</time>
      </trkpt>
      <trkpt lat="44.107280038297176" lon="3.334059985354543">
        <time>2014-06-06T21:02:44Z</time>
      </trkpt>
      <trkpt lat="44.107209965586662" lon="3.333890000358224">
        <time>2014-06-06T21:02:47Z</time>
      </trkpt>
      <trkpt lat="44.107050038874149" lon="3.333620019257069">
        <time>2014-06-06T21:02:52Z</time>
      </trkpt>
      <trkpt lat="44.106812411919236" lon="3.333332939073443">
        <time>2014-06-06T21:02:58Z</time>
      </trkpt>
      <trkpt lat="44.106809981167316" lon="3.333330005407333">
        <time>2014-06-06T21:02:58Z</time>
      </trkpt>
      <trkpt lat="44.106552489101887" lon="3.33307821303606">
        <time>2014-06-06T21:03:04Z</time>
      </trkpt>
      <trkpt lat="44.106360040605068" lon="3.332890039309859">
        <time>2014-06-06T21:03:08Z</time>
      </trkpt>
      <trkpt lat="44.106097184121609" lon="3.332649059593678">
        <time>2014-06-06T21:03:14Z</time>
      </trkpt>
      <trkpt lat="44.105880009010434" lon="3.332449989393354">
        <time>2014-06-06T21:03:19Z</time>
      </trkpt>
      <trkpt lat="44.105770038440824" lon="3.332280004397035">
        <time>2014-06-06T21:03:22Z</time>
      </trkpt>
      <trkpt lat="44.105680016800761" lon="3.332089986652136">
        <time>2014-06-06T21:03:25Z</time>
      </trkpt>
      <trkpt lat="44.105563005432487" lon="3.33168413490057">
        <time>2014-06-06T21:03:31Z</time>
      </trkpt>
      <trkpt lat="44.105510031804442" lon="3.331499984487891">
        <time>2014-06-06T21:03:34Z</time>
      </trkpt>
      <trkpt lat="44.105410035699606" lon="3.331279959529638">
        <time>2014-06-06T21:03:38Z</time>
      </trkpt>
      <trkpt lat="44.105320014059544" lon="3.331179963424802">
        <time>2014-06-06T21:03:40Z</time>
      </trkpt>
      <trkpt lat="44.105220017954707" lon="3.33110997453332">
        <time>2014-06-06T21:03:42Z</time>
      </trkpt>
      <trkpt lat="44.105020025745034" lon="3.331030011177063">
        <time>2014-06-06T21:03:46Z</time>
      </trkpt>
      <trkpt lat="44.104705117642879" lon="3.331039566546679">
        <time>2014-06-06T21:03:52Z</time>
      </trkpt>
      <trkpt lat="44.104690030217171" lon="3.331039985641837">
        <time>2014-06-06T21:03:52Z</time>
      </trkpt>
      <trkpt lat="44.104376127943397" lon="3.331077368929982">
        <time>2014-06-06T21:03:58Z</time>
      </trkpt>
      <trkpt lat="44.104270013049245" lon="3.331090025603771">
        <time>2014-06-06T21:04:00Z</time>
      </trkpt>
      <trkpt lat="44.104119976982474" lon="3.331139981746674">
        <time>2014-06-06T21:04:03Z</time>
      </trkpt>
      <trkpt lat="44.104010006412864" lon="3.331230003386736">
        <time>2014-06-06T21:04:05Z</time>
      </trkpt>
      <trkpt lat="44.10376357845962" lon="3.331502331420779">
        <time>2014-06-06T21:04:11Z</time>
      </trkpt>
      <trkpt lat="44.103517234325409" lon="3.331774659454823">
        <time>2014-06-06T21:04:17Z</time>
      </trkpt>
      <trkpt lat="44.103270806372166" lon="3.332046987488866">
        <time>2014-06-06T21:04:23Z</time>
      </trkpt>
      <trkpt lat="44.1032500192523" lon="3.332070037722588">
        <time>2014-06-06T21:04:24Z</time>
      </trkpt>
      <trkpt lat="44.103009961545467" lon="3.332310011610389">
        <time>2014-06-06T21:04:30Z</time>
      </trkpt>
      <trkpt lat="44.102899990975857" lon="3.332359967753291">
        <time>2014-06-06T21:04:32Z</time>
      </trkpt>
      <trkpt lat="44.102709973230958" lon="3.332389974966645">
        <time>2014-06-06T21:04:36Z</time>
      </trkpt>
      <trkpt lat="44.102397747337818" lon="3.332332894206047">
        <time>2014-06-06T21:04:42Z</time>
      </trkpt>
      <trkpt lat="44.102085437625647" lon="3.332275729626417">
        <time>2014-06-06T21:04:48Z</time>
      </trkpt>
      <trkpt lat="44.101889971643686" lon="3.332240022718906">
        <time>2014-06-06T21:04:52Z</time>
      </trkpt>
      <trkpt lat="44.101576069369912" lon="3.332203812897205">
        <time>2014-06-06T21:04:58Z</time>
      </trkpt>
      <trkpt lat="44.101262167096138" lon="3.332167519256473">
        <time>2014-06-06T21:05:04Z</time>
      </trkpt>
      <trkpt lat="44.100948264822364" lon="3.332131309434772">
        <time>2014-06-06T21:05:10Z</time>
      </trkpt>
      <trkpt lat="44.10063436254859" lon="3.332095099613071">
        <time>2014-06-06T21:05:16Z</time>
      </trkpt>
      <trkpt lat="44.100590022280812" lon="3.332089986652136">
        <time>2014-06-06T21:05:17Z</time>
      </trkpt>
      <trkpt lat="44.100400004535913" lon="3.331929976120591">
        <time>2014-06-06T21:05:21Z</time>
      </trkpt>
      <trkpt lat="44.100205125287175" lon="3.331586569547653">
        <time>2014-06-06T21:05:27Z</time>
      </trkpt>
      <trkpt lat="44.100190037861466" lon="3.331559998914599">
        <time>2014-06-06T21:05:27Z</time>
      </trkpt>
      <trkpt lat="44.100061459466815" lon="3.331160936504602">
        <time>2014-06-06T21:05:33Z</time>
      </trkpt>
      <trkpt lat="44.100000020116568" lon="3.330969996750355">
        <time>2014-06-06T21:05:36Z</time>
      </trkpt>
      <trkpt lat="44.099849984049797" lon="3.330719964578748">
        <time>2014-06-06T21:05:40Z</time>
      </trkpt>
      <trkpt lat="44.099628953263164" lon="3.330408576875925">
        <time>2014-06-06T21:05:46Z</time>
      </trkpt>
      <trkpt lat="44.099410017952323" lon="3.330100039020181">
        <time>2014-06-06T21:05:52Z</time>
      </trkpt>
      <trkpt lat="44.099249001592398" lon="3.329724278301001">
        <time>2014-06-06T21:05:58Z</time>
      </trkpt>
      <trkpt lat="44.099229974672198" lon="3.329680021852255">
        <time>2014-06-06T21:05:59Z</time>
      </trkpt>
      <trkpt lat="44.099108520895243" lon="3.32927668467164">
        <time>2014-06-06T21:06:05Z</time>
      </trkpt>
      <trkpt lat="44.098987067118287" lon="3.328873431310058">
        <time>2014-06-06T21:06:11Z</time>
      </trkpt>
      <trkpt lat="44.098980026319623" lon="3.328849961981177">
        <time>2014-06-06T21:06:11Z</time>
      </trkpt>
      <trkpt lat="44.098810041323304" lon="3.32848995923996">
        <time>2014-06-06T21:06:17Z</time>
      </trkpt>
      <trkpt lat="44.098660005256534" lon="3.328119982033968">
        <time>2014-06-06T21:06:23Z</time>
      </trkpt>
      <trkpt lat="44.098550034686923" lon="3.327740030363202">
        <time>2014-06-06T21:06:29Z</time>
      </trkpt>
      <trkpt lat="44.098461270332336" lon="3.327320599928498">
        <time>2014-06-06T21:06:35Z</time>
      </trkpt>
      <trkpt lat="44.098439980298281" lon="3.32722001709044">
        <time>2014-06-06T21:06:36Z</time>
      </trkpt>
      <trkpt lat="44.098360016942024" lon="3.327029999345541">
        <time>2014-06-06T21:06:39Z</time>
      </trkpt>
      <trkpt lat="44.098279969766736" lon="3.32689999602735">
        <time>2014-06-06T21:06:41Z</time>
      </trkpt>
      <trkpt lat="44.098015017807484" lon="3.326663626357913">
        <time>2014-06-06T21:06:47Z</time>
      </trkpt>
      <trkpt lat="44.097909992560744" lon="3.326570000499487">
        <time>2014-06-06T21:06:49Z</time>
      </trkpt>
      <trkpt lat="44.097849978134036" lon="3.326400015503168">
        <time>2014-06-06T21:06:52Z</time>
      </trkpt>
      <trkpt lat="44.09775928594172" lon="3.325981423258781">
        <time>2014-06-06T21:06:58Z</time>
      </trkpt>
      <trkpt lat="44.097719974815845" lon="3.325800038874149">
        <time>2014-06-06T21:07:01Z</time>
      </trkpt>
      <trkpt lat="44.097536243498325" lon="3.325444981455803">
        <time>2014-06-06T21:07:07Z</time>
      </trkpt>
      <trkpt lat="44.097352512180805" lon="3.325090007856488">
        <time>2014-06-06T21:07:13Z</time>
      </trkpt>
      <trkpt lat="44.097168697044253" lon="3.324735034257174">
        <time>2014-06-06T21:07:19Z</time>
      </trkpt>
      <trkpt lat="44.096984965726733" lon="3.324379976838827">
        <time>2014-06-06T21:07:25Z</time>
      </trkpt>
      <trkpt lat="44.096839958801866" lon="3.324100021272898">
        <time>2014-06-06T21:07:30Z</time>
      </trkpt>
      <trkpt lat="44.096720013767481" lon="3.323810007423163">
        <time>2014-06-06T21:07:35Z</time>
      </trkpt>
      <trkpt lat="44.096620017662644" lon="3.323410023003817">
        <time>2014-06-06T21:07:41Z</time>
      </trkpt>
      <trkpt lat="44.096539970487356" lon="3.32318002358079">
        <time>2014-06-06T21:07:45Z</time>
      </trkpt>
      <trkpt lat="44.096469981595874" lon="3.323059994727373">
        <time>2014-06-06T21:07:47Z</time>
      </trkpt>
      <trkpt lat="44.096369985491037" lon="3.322950024157763">
        <time>2014-06-06T21:07:49Z</time>
      </trkpt>
      <trkpt lat="44.096169993281364" lon="3.322790013626218">
        <time>2014-06-06T21:07:53Z</time>
      </trkpt>
      <trkpt lat="44.095905544236302" lon="3.322552470490336">
        <time>2014-06-06T21:07:59Z</time>
      </trkpt>
      <trkpt lat="44.095641179010272" lon="3.322314927354455">
        <time>2014-06-06T21:08:05Z</time>
      </trkpt>
      <trkpt lat="44.09557999111712" lon="3.322260025888681">
        <time>2014-06-06T21:08:06Z</time>
      </trkpt>
      <trkpt lat="44.095510002225637" lon="3.322149971500039">
        <time>2014-06-06T21:08:08Z</time>
      </trkpt>
      <trkpt lat="44.095440013334155" lon="3.321989960968494">
        <time>2014-06-06T21:08:11Z</time>
      </trkpt>
      <trkpt lat="44.095379998907447" lon="3.321619983762503">
        <time>2014-06-06T21:08:16Z</time>
      </trkpt>
      <trkpt lat="44.095379998907447" lon="3.321280013769865">
        <time>2014-06-06T21:08:21Z</time>
      </trkpt>
      <trkpt lat="44.095419980585575" lon="3.320929985493422">
        <time>2014-06-06T21:08:26Z</time>
      </trkpt>
      <trkpt lat="44.095496004447341" lon="3.320505861192942">
        <time>2014-06-06T21:08:32Z</time>
      </trkpt>
      <trkpt lat="44.095571944490075" lon="3.32008165307343">
        <time>2014-06-06T21:08:38Z</time>
      </trkpt>
      <trkpt lat="44.095647884532809" lon="3.319657444953919">
        <time>2014-06-06T21:08:44Z</time>
      </trkpt>
      <trkpt lat="44.095660038292408" lon="3.319589970633388">
        <time>2014-06-06T21:08:45Z</time>
      </trkpt>
      <trkpt lat="44.095679987221956" lon="3.319180011749268">
        <time>2014-06-06T21:08:51Z</time>
      </trkpt>
      <trkpt lat="44.095640005543828" lon="3.318989994004369">
        <time>2014-06-06T21:08:54Z</time>
      </trkpt>
      <trkpt lat="44.095514696091413" lon="3.318589003756642">
        <time>2014-06-06T21:09:00Z</time>
      </trkpt>
      <trkpt lat="44.095440013334155" lon="3.318350035697222">
        <time>2014-06-06T21:09:04Z</time>
      </trkpt>
      <trkpt lat="44.095365330576897" lon="3.317925408482552">
        <time>2014-06-06T21:09:10Z</time>
      </trkpt>
      <trkpt lat="44.095290647819638" lon="3.317500781267881">
        <time>2014-06-06T21:09:16Z</time>
      </trkpt>
      <trkpt lat="44.09528000280261" lon="3.317440012469888">
        <time>2014-06-06T21:09:17Z</time>
      </trkpt>
      <trkpt lat="44.09528000280261" lon="3.317259969189763">
        <time>2014-06-06T21:09:19Z</time>
      </trkpt>
      <trkpt lat="44.095338089391589" lon="3.316830396652222">
        <time>2014-06-06T21:09:25Z</time>
      </trkpt>
      <trkpt lat="44.095379998907447" lon="3.31652001477778">
        <time>2014-06-06T21:09:29Z</time>
      </trkpt>
      <trkpt lat="44.095440013334155" lon="3.316329997032881">
        <time>2014-06-06T21:09:32Z</time>
      </trkpt>
      <trkpt lat="44.095519976690412" lon="3.316190019249916">
        <time>2014-06-06T21:09:34Z</time>
      </trkpt>
      <trkpt lat="44.095649980008602" lon="3.316020034253597">
        <time>2014-06-06T21:09:37Z</time>
      </trkpt>
      <trkpt lat="44.0959332883358" lon="3.315828926861286">
        <time>2014-06-06T21:09:43Z</time>
      </trkpt>
      <trkpt lat="44.096079971641302" lon="3.315730020403862">
        <time>2014-06-06T21:09:46Z</time>
      </trkpt>
      <trkpt lat="44.096230007708073" lon="3.315649973228574">
        <time>2014-06-06T21:09:49Z</time>
      </trkpt>
      <trkpt lat="44.096450032666326" lon="3.315460039302707">
        <time>2014-06-06T21:09:54Z</time>
      </trkpt>
      <trkpt lat="44.096650863066316" lon="3.315123338252306">
        <time>2014-06-06T21:10:00Z</time>
      </trkpt>
      <trkpt lat="44.096820009872317" lon="3.314840029925108">
        <time>2014-06-06T21:10:05Z</time>
      </trkpt>
      <trkpt lat="44.09691003151238" lon="3.314589997753501">
        <time>2014-06-06T21:10:09Z</time>
      </trkpt>
      <trkpt lat="44.096929980441928" lon="3.314410038292408">
        <time>2014-06-06T21:10:12Z</time>
      </trkpt>
      <trkpt lat="44.096920005977154" lon="3.314250027760863">
        <time>2014-06-06T21:10:14Z</time>
      </trkpt>
      <trkpt lat="44.096859991550446" lon="3.313950039446354">
        <time>2014-06-06T21:10:18Z</time>
      </trkpt>
      <trkpt lat="44.096720013767481" lon="3.313560029491782">
        <time>2014-06-06T21:10:24Z</time>
      </trkpt>
      <trkpt lat="44.096499988809228" lon="3.313309997320175">
        <time>2014-06-06T21:10:29Z</time>
      </trkpt>
      <trkpt lat="44.096229337155819" lon="3.31308645196259">
        <time>2014-06-06T21:10:35Z</time>
      </trkpt>
      <trkpt lat="44.096039989963174" lon="3.312929961830378">
        <time>2014-06-06T21:10:39Z</time>
      </trkpt>
      <trkpt lat="44.095849972218275" lon="3.312810016795993">
        <time>2014-06-06T21:10:43Z</time>
      </trkpt>
      <trkpt lat="44.095700019970536" lon="3.312770035117865">
        <time>2014-06-06T21:10:46Z</time>
      </trkpt>
      <trkpt lat="44.095510002225637" lon="3.312810016795993">
        <time>2014-06-06T21:10:50Z</time>
      </trkpt>
      <trkpt lat="44.095419980585575" lon="3.312859972938895">
        <time>2014-06-06T21:10:52Z</time>
      </trkpt>
      <trkpt lat="44.095151675865054" lon="3.313089050352573">
        <time>2014-06-06T21:10:58Z</time>
      </trkpt>
      <trkpt lat="44.095010021701455" lon="3.313210001215339">
        <time>2014-06-06T21:11:01Z</time>
      </trkpt>
      <trkpt lat="44.09485001116991" lon="3.313300022855401">
        <time>2014-06-06T21:11:04Z</time>
      </trkpt>
      <trkpt lat="44.094690000638366" lon="3.313340004533529">
        <time>2014-06-06T21:11:07Z</time>
      </trkpt>
      <trkpt lat="44.094490008428693" lon="3.313340004533529">
        <time>2014-06-06T21:11:11Z</time>
      </trkpt>
      <trkpt lat="44.09417568705976" lon="3.313311422243714">
        <time>2014-06-06T21:11:17Z</time>
      </trkpt>
      <trkpt lat="44.094049958512187" lon="3.313300022855401">
        <time>2014-06-06T21:11:19Z</time>
      </trkpt>
      <trkpt lat="44.093809984624386" lon="3.313130037859082">
        <time>2014-06-06T21:11:24Z</time>
      </trkpt>
      <trkpt lat="44.093604125082493" lon="3.312799204140902">
        <time>2014-06-06T21:11:30Z</time>
      </trkpt>
      <trkpt lat="44.093530029058456" lon="3.312680013477802">
        <time>2014-06-06T21:11:32Z</time>
      </trkpt>
      <trkpt lat="44.093333976343274" lon="3.31233786419034">
        <time>2014-06-06T21:11:38Z</time>
      </trkpt>
      <trkpt lat="44.093137923628092" lon="3.31199579872191">
        <time>2014-06-06T21:11:44Z</time>
      </trkpt>
      <trkpt lat="44.093019990250468" lon="3.311790022999048">
        <time>2014-06-06T21:11:48Z</time>
      </trkpt>
      <trkpt lat="44.092929968610406" lon="3.31157997250557">
        <time>2014-06-06T21:11:51Z</time>
      </trkpt>
      <trkpt lat="44.092889986932278" lon="3.311349973082542">
        <time>2014-06-06T21:11:54Z</time>
      </trkpt>
      <trkpt lat="44.092880012467504" lon="3.311119973659515">
        <time>2014-06-06T21:11:57Z</time>
      </trkpt>
      <trkpt lat="44.092899961397052" lon="3.310859967023134">
        <time>2014-06-06T21:12:01Z</time>
      </trkpt>
      <trkpt lat="44.09295997582376" lon="3.310640025883913">
        <time>2014-06-06T21:12:04Z</time>
      </trkpt>
      <trkpt lat="44.093049997463822" lon="3.310489989817143">
        <time>2014-06-06T21:12:07Z</time>
      </trkpt>
      <trkpt lat="44.093295335769653" lon="3.310215817764401">
        <time>2014-06-06T21:12:13Z</time>
      </trkpt>
      <trkpt lat="44.09338996745646" lon="3.310110038146377">
        <time>2014-06-06T21:12:15Z</time>
      </trkpt>
      <trkpt lat="44.093449981883168" lon="3.309869980439544">
        <time>2014-06-06T21:12:18Z</time>
      </trkpt>
      <trkpt lat="44.09341000020504" lon="3.309699995443225">
        <time>2014-06-06T21:12:20Z</time>
      </trkpt>
      <trkpt lat="44.093289971351624" lon="3.30956001766026">
        <time>2014-06-06T21:12:23Z</time>
      </trkpt>
      <trkpt lat="44.093059971928596" lon="3.309339992702007">
        <time>2014-06-06T21:12:28Z</time>
      </trkpt>
      <trkpt lat="44.092832906171679" lon="3.30903715454042">
        <time>2014-06-06T21:12:34Z</time>
      </trkpt>
      <trkpt lat="44.092610031366348" lon="3.308740016072989">
        <time>2014-06-06T21:12:40Z</time>
      </trkpt>
      <trkpt lat="44.092421438544989" lon="3.308389903977513">
        <time>2014-06-06T21:12:46Z</time>
      </trkpt>
      <trkpt lat="44.092232929542661" lon="3.308039708063006">
        <time>2014-06-06T21:12:52Z</time>
      </trkpt>
      <trkpt lat="44.092050036415458" lon="3.307699989527464">
        <time>2014-06-06T21:12:58Z</time>
      </trkpt>
      <trkpt lat="44.091939982026815" lon="3.307469990104437">
        <time>2014-06-06T21:13:02Z</time>
      </trkpt>
      <trkpt lat="44.091900000348687" lon="3.307320037856698">
        <time>2014-06-06T21:13:04Z</time>
      </trkpt>
      <trkpt lat="44.091884577646852" lon="3.306883508339524">
        <time>2014-06-06T21:13:10Z</time>
      </trkpt>
      <trkpt lat="44.091869993135333" lon="3.306470029056072">
        <time>2014-06-06T21:13:16Z</time>
      </trkpt>
      <trkpt lat="44.091720040887594" lon="3.306189989671111">
        <time>2014-06-06T21:13:21Z</time>
      </trkpt>
      <trkpt lat="44.091500015929341" lon="3.305920008569956">
        <time>2014-06-06T21:13:27Z</time>
      </trkpt>
      <trkpt lat="44.091349979862571" lon="3.305790005251765">
        <time>2014-06-06T21:13:30Z</time>
      </trkpt>
      <trkpt lat="44.091062815859914" lon="3.305610464885831">
        <time>2014-06-06T21:13:36Z</time>
      </trkpt>
      <trkpt lat="44.091029958799481" lon="3.305590013042092">
        <time>2014-06-06T21:13:37Z</time>
      </trkpt>
      <trkpt lat="44.090732652693987" lon="3.305445676669478">
        <time>2014-06-06T21:13:43Z</time>
      </trkpt>
      <trkpt lat="44.090435346588492" lon="3.305301424115896">
        <time>2014-06-06T21:13:49Z</time>
      </trkpt>
      <trkpt lat="44.090350018814206" lon="3.305260017514229">
        <time>2014-06-06T21:13:51Z</time>
      </trkpt>
      <trkpt lat="44.090169975534081" lon="3.30506999976933">
        <time>2014-06-06T21:13:55Z</time>
      </trkpt>
      <trkpt lat="44.08999303355813" lon="3.30470840446651">
        <time>2014-06-06T21:14:01Z</time>
      </trkpt>
      <trkpt lat="44.089939976111054" lon="3.304600026458502">
        <time>2014-06-06T21:14:03Z</time>
      </trkpt>
      <trkpt lat="44.089718861505389" lon="3.304288806393743">
        <time>2014-06-06T21:14:09Z</time>
      </trkpt>
      <trkpt lat="44.089669995009899" lon="3.304219990968704">
        <time>2014-06-06T21:14:10Z</time>
      </trkpt>
      <trkpt lat="44.089377215132117" lon="3.304058974608779">
        <time>2014-06-06T21:14:16Z</time>
      </trkpt>
      <trkpt lat="44.089270010590553" lon="3.303999966010451">
        <time>2014-06-06T21:14:18Z</time>
      </trkpt>
      <trkpt lat="44.089059960097075" lon="3.303850013762713">
        <time>2014-06-06T21:14:22Z</time>
      </trkpt>
      <trkpt lat="44.088806994259357" lon="3.303589588031173">
        <time>2014-06-06T21:14:28Z</time>
      </trkpt>
      <trkpt lat="44.088719990104437" lon="3.303499985486269">
        <time>2014-06-06T21:14:30Z</time>
      </trkpt>
      <trkpt lat="44.088499965146184" lon="3.30319999717176">
        <time>2014-06-06T21:14:36Z</time>
      </trkpt>
      <trkpt lat="44.088369961827993" lon="3.302909983322024">
        <time>2014-06-06T21:14:41Z</time>
      </trkpt>
      <trkpt lat="44.088310031220317" lon="3.302700016647577">
        <time>2014-06-06T21:14:44Z</time>
      </trkpt>
      <trkpt lat="44.088299972936511" lon="3.302410002797842">
        <time>2014-06-06T21:14:48Z</time>
      </trkpt>
      <trkpt lat="44.088429473340511" lon="3.302011610940099">
        <time>2014-06-06T21:14:54Z</time>
      </trkpt>
      <trkpt lat="44.088429976254702" lon="3.302010018378496">
        <time>2014-06-06T21:14:54Z</time>
      </trkpt>
      <trkpt lat="44.088610019534826" lon="3.301729978993535">
        <time>2014-06-06T21:14:59Z</time>
      </trkpt>
      <trkpt lat="44.088847562670708" lon="3.301442982628942">
        <time>2014-06-06T21:15:05Z</time>
      </trkpt>
      <trkpt lat="44.088849993422627" lon="3.3014399651438">
        <time>2014-06-06T21:15:05Z</time>
      </trkpt>
      <trkpt lat="44.089111760258675" lon="3.301196889951825">
        <time>2014-06-06T21:15:11Z</time>
      </trkpt>
      <trkpt lat="44.089130032807589" lon="3.301179958507419">
        <time>2014-06-06T21:15:11Z</time>
      </trkpt>
      <trkpt lat="44.089403450489044" lon="3.300963118672371">
        <time>2014-06-06T21:15:17Z</time>
      </trkpt>
      <trkpt lat="44.089419962838292" lon="3.300949959084392">
        <time>2014-06-06T21:15:17Z</time>
      </trkpt>
      <trkpt lat="44.089707210659981" lon="3.300770502537489">
        <time>2014-06-06T21:15:23Z</time>
      </trkpt>
      <trkpt lat="44.089980041608214" lon="3.30060001462698">
        <time>2014-06-06T21:15:29Z</time>
      </trkpt>
      <trkpt lat="44.090060004964471" lon="3.300500018522143">
        <time>2014-06-06T21:15:31Z</time>
      </trkpt>
      <trkpt lat="44.090231163427234" lon="3.300133142620325">
        <time>2014-06-06T21:15:37Z</time>
      </trkpt>
      <trkpt lat="44.090269971638918" lon="3.300049994140863">
        <time>2014-06-06T21:15:38Z</time>
      </trkpt>
      <trkpt lat="44.09038002602756" lon="3.299900041893125">
        <time>2014-06-06T21:15:41Z</time>
      </trkpt>
      <trkpt lat="44.090648582205176" lon="3.299671718850732">
        <time>2014-06-06T21:15:47Z</time>
      </trkpt>
      <trkpt lat="44.090780010446906" lon="3.299559988081455">
        <time>2014-06-06T21:15:50Z</time>
      </trkpt>
      <trkpt lat="44.091079998761415" lon="3.299429984763265">
        <time>2014-06-06T21:15:56Z</time>
      </trkpt>
      <trkpt lat="44.091159962117672" lon="3.299339963123202">
        <time>2014-06-06T21:15:58Z</time>
      </trkpt>
      <trkpt lat="44.091200027614832" lon="3.299229992553592">
        <time>2014-06-06T21:16:00Z</time>
      </trkpt>
      <trkpt lat="44.091200027614832" lon="3.299060007557273">
        <time>2014-06-06T21:16:02Z</time>
      </trkpt>
      <trkpt lat="44.09108997322619" lon="3.298869989812374">
        <time>2014-06-06T21:16:05Z</time>
      </trkpt>
      <trkpt lat="44.091000035405159" lon="3.298790026456118">
        <time>2014-06-06T21:16:07Z</time>
      </trkpt>
      <trkpt lat="44.090705411508679" lon="3.298635128885508">
        <time>2014-06-06T21:16:13Z</time>
      </trkpt>
      <trkpt lat="44.090410871431231" lon="3.298480315133929">
        <time>2014-06-06T21:16:19Z</time>
      </trkpt>
      <trkpt lat="44.090220015496016" lon="3.298379983752966">
        <time>2014-06-06T21:16:23Z</time>
      </trkpt>
      <trkpt lat="44.090039972215891" lon="3.298209998756647">
        <time>2014-06-06T21:16:27Z</time>
      </trkpt>
      <trkpt lat="44.089879961684346" lon="3.297910010442138">
        <time>2014-06-06T21:16:32Z</time>
      </trkpt>
      <trkpt lat="44.089789018034935" lon="3.297491585835815">
        <time>2014-06-06T21:16:38Z</time>
      </trkpt>
      <trkpt lat="44.089730009436607" lon="3.297220012173057">
        <time>2014-06-06T21:16:42Z</time>
      </trkpt>
      <trkpt lat="44.089649962261319" lon="3.297020019963384">
        <time>2014-06-06T21:16:45Z</time>
      </trkpt>
      <trkpt lat="44.089470002800226" lon="3.296779962256551">
        <time>2014-06-06T21:16:50Z</time>
      </trkpt>
      <trkpt lat="44.08934997394681" lon="3.29666999168694">
        <time>2014-06-06T21:16:53Z</time>
      </trkpt>
      <trkpt lat="44.089179988950491" lon="3.296549962833524">
        <time>2014-06-06T21:16:57Z</time>
      </trkpt>
      <trkpt lat="44.088979996740818" lon="3.296500006690621">
        <time>2014-06-06T21:17:01Z</time>
      </trkpt>
      <trkpt lat="44.088770030066371" lon="3.296590028330684">
        <time>2014-06-06T21:17:05Z</time>
      </trkpt>
      <trkpt lat="44.088689982891083" lon="3.296639984473586">
        <time>2014-06-06T21:17:07Z</time>
      </trkpt>
      <trkpt lat="44.088470041751862" lon="3.296899991109967">
        <time>2014-06-06T21:17:13Z</time>
      </trkpt>
      <trkpt lat="44.088289998471737" lon="3.297039968892932">
        <time>2014-06-06T21:17:17Z</time>
      </trkpt>
      <trkpt lat="44.088159995153546" lon="3.297069976106286">
        <time>2014-06-06T21:17:20Z</time>
      </trkpt>
      <trkpt lat="44.087909962981939" lon="3.297080034390092">
        <time>2014-06-06T21:17:25Z</time>
      </trkpt>
      <trkpt lat="44.087709970772266" lon="3.296980038285255">
        <time>2014-06-06T21:17:29Z</time>
      </trkpt>
      <trkpt lat="44.087459770962596" lon="3.296714583411813">
        <time>2014-06-06T21:17:35Z</time>
      </trkpt>
      <trkpt lat="44.087379975244403" lon="3.296630010008812">
        <time>2014-06-06T21:17:37Z</time>
      </trkpt>
      <trkpt lat="44.087339993566275" lon="3.29656002111733">
        <time>2014-06-06T21:17:38Z</time>
      </trkpt>
      <trkpt lat="44.087260030210018" lon="3.29626003280282">
        <time>2014-06-06T21:17:42Z</time>
      </trkpt>
      <trkpt lat="44.087270004674792" lon="3.296119971200824">
        <time>2014-06-06T21:17:44Z</time>
      </trkpt>
      <trkpt lat="44.087319960817695" lon="3.295889971777797">
        <time>2014-06-06T21:17:47Z</time>
      </trkpt>
      <trkpt lat="44.087409982457757" lon="3.29568000510335">
        <time>2014-06-06T21:17:50Z</time>
      </trkpt>
      <trkpt lat="44.087569992989302" lon="3.295399965718389">
        <time>2014-06-06T21:17:55Z</time>
      </trkpt>
      <trkpt lat="44.087699996307492" lon="3.29525001347065">
        <time>2014-06-06T21:17:58Z</time>
      </trkpt>
      <trkpt lat="44.087909962981939" lon="3.295199973508716">
        <time>2014-06-06T21:18:02Z</time>
      </trkpt>
      <trkpt lat="44.088120013475418" lon="3.295210031792522">
        <time>2014-06-06T21:18:06Z</time>
      </trkpt>
      <trkpt lat="44.088250016793609" lon="3.295189999043942">
        <time>2014-06-06T21:18:08Z</time>
      </trkpt>
      <trkpt lat="44.088380020111799" lon="3.295090002939105">
        <time>2014-06-06T21:18:11Z</time>
      </trkpt>
      <trkpt lat="44.088642792776227" lon="3.294849107041955">
        <time>2014-06-06T21:18:17Z</time>
      </trkpt>
      <trkpt lat="44.088859967887402" lon="3.294650036841631">
        <time>2014-06-06T21:18:22Z</time>
      </trkpt>
      <trkpt lat="44.089089212939143" lon="3.294350216165185">
        <time>2014-06-06T21:18:28Z</time>
      </trkpt>
      <trkpt lat="44.089119974523783" lon="3.294309983029962">
        <time>2014-06-06T21:18:29Z</time>
      </trkpt>
      <trkpt lat="44.089209996163845" lon="3.294170005246997">
        <time>2014-06-06T21:18:32Z</time>
      </trkpt>
      <trkpt lat="44.089366234838963" lon="3.293790556490421">
        <time>2014-06-06T21:18:38Z</time>
      </trkpt>
      <trkpt lat="44.08952247351408" lon="3.293411023914814">
        <time>2014-06-06T21:18:44Z</time>
      </trkpt>
      <trkpt lat="44.089630013331771" lon="3.293150011450052">
        <time>2014-06-06T21:18:48Z</time>
      </trkpt>
      <trkpt lat="44.089660020545125" lon="3.292950019240379">
        <time>2014-06-06T21:18:51Z</time>
      </trkpt>
      <trkpt lat="44.089624648913741" lon="3.292515752837062">
        <time>2014-06-06T21:18:57Z</time>
      </trkpt>
      <trkpt lat="44.089590031653643" lon="3.292090035974979">
        <time>2014-06-06T21:19:03Z</time>
      </trkpt>
      <trkpt lat="44.089651219546795" lon="3.291661301627755">
        <time>2014-06-06T21:19:09Z</time>
      </trkpt>
      <trkpt lat="44.089712491258979" lon="3.291232651099563">
        <time>2014-06-06T21:19:15Z</time>
      </trkpt>
      <trkpt lat="44.089760016649961" lon="3.290899973362684">
        <time>2014-06-06T21:19:20Z</time>
      </trkpt>
      <trkpt lat="44.089787760749459" lon="3.290464701130986">
        <time>2014-06-06T21:19:26Z</time>
      </trkpt>
      <trkpt lat="44.089790023863316" lon="3.290430000051856">
        <time>2014-06-06T21:19:26Z</time>
      </trkpt>
      <trkpt lat="44.089686758816242" lon="3.290017107501626">
        <time>2014-06-06T21:19:32Z</time>
      </trkpt>
      <trkpt lat="44.089660020545125" lon="3.289909986779094">
        <time>2014-06-06T21:19:34Z</time>
      </trkpt>
      <trkpt lat="44.089607382193208" lon="3.289479073137045">
        <time>2014-06-06T21:19:40Z</time>
      </trkpt>
      <trkpt lat="44.08955474384129" lon="3.289048243314028">
        <time>2014-06-06T21:19:46Z</time>
      </trkpt>
      <trkpt lat="44.089502105489373" lon="3.288617329671979">
        <time>2014-06-06T21:19:52Z</time>
      </trkpt>
      <trkpt lat="44.08950001001358" lon="3.288599979132414">
        <time>2014-06-06T21:19:52Z</time>
      </trkpt>
      <trkpt lat="44.089460028335452" lon="3.288480034098029">
        <time>2014-06-06T21:19:54Z</time>
      </trkpt>
      <trkpt lat="44.089400013908744" lon="3.288369979709387">
        <time>2014-06-06T21:19:56Z</time>
      </trkpt>
      <trkpt lat="44.089186107739806" lon="3.288049204275012">
        <time>2014-06-06T21:20:02Z</time>
      </trkpt>
      <trkpt lat="44.089019978418946" lon="3.287800010293722">
        <time>2014-06-06T21:20:07Z</time>
      </trkpt>
      <trkpt lat="44.088792912662029" lon="3.287497172132134">
        <time>2014-06-06T21:20:13Z</time>
      </trkpt>
      <trkpt lat="44.088780004531145" lon="3.287479989230633">
        <time>2014-06-06T21:20:13Z</time>
      </trkpt>
      <trkpt lat="44.088700041174889" lon="3.287419974803925">
        <time>2014-06-06T21:20:15Z</time>
      </trkpt>
      <trkpt lat="44.08859996125102" lon="3.28738996759057">
        <time>2014-06-06T21:20:17Z</time>
      </trkpt>
      <trkpt lat="44.088286142796278" lon="3.287426512688398">
        <time>2014-06-06T21:20:23Z</time>
      </trkpt>
      <trkpt lat="44.08816996961832" lon="3.287440007552505">
        <time>2014-06-06T21:20:25Z</time>
      </trkpt>
      <trkpt lat="44.088029991835356" lon="3.287479989230633">
        <time>2014-06-06T21:20:28Z</time>
      </trkpt>
      <trkpt lat="44.087920021265745" lon="3.287540003657341">
        <time>2014-06-06T21:20:30Z</time>
      </trkpt>
      <trkpt lat="44.087809966877103" lon="3.287639999762178">
        <time>2014-06-06T21:20:33Z</time>
      </trkpt>
      <trkpt lat="44.08760997466743" lon="3.287930013611913">
        <time>2014-06-06T21:20:39Z</time>
      </trkpt>
      <trkpt lat="44.087560018524528" lon="3.288039984181523">
        <time>2014-06-06T21:20:41Z</time>
      </trkpt>
      <trkpt lat="44.087549960240722" lon="3.288230001926422">
        <time>2014-06-06T21:20:44Z</time>
      </trkpt>
      <trkpt lat="44.08763000741601" lon="3.288460001349449">
        <time>2014-06-06T21:20:48Z</time>
      </trkpt>
      <trkpt lat="44.08780544064939" lon="3.288822937756777">
        <time>2014-06-06T21:20:54Z</time>
      </trkpt>
      <trkpt lat="44.087980873882771" lon="3.289185957983136">
        <time>2014-06-06T21:21:00Z</time>
      </trkpt>
      <trkpt lat="44.088156307116151" lon="3.289548894390464">
        <time>2014-06-06T21:21:06Z</time>
      </trkpt>
      <trkpt lat="44.08821003511548" lon="3.289660038426518">
        <time>2014-06-06T21:21:08Z</time>
      </trkpt>
      <trkpt lat="44.088340038433671" lon="3.290049964562058">
        <time>2014-06-06T21:21:14Z</time>
      </trkpt>
      <trkpt lat="44.088320005685091" lon="3.290209975093603">
        <time>2014-06-06T21:21:16Z</time>
      </trkpt>
      <trkpt lat="44.088239958509803" lon="3.290360011160374">
        <time>2014-06-06T21:21:19Z</time>
      </trkpt>
      <trkpt lat="44.08816996961832" lon="3.290409967303276">
        <time>2014-06-06T21:21:20Z</time>
      </trkpt>
      <trkpt lat="44.087960002943873" lon="3.290420025587082">
        <time>2014-06-06T21:21:24Z</time>
      </trkpt>
      <trkpt lat="44.08765884116292" lon="3.290292033925653">
        <time>2014-06-06T21:21:30Z</time>
      </trkpt>
      <trkpt lat="44.087357679381967" lon="3.290163958445191">
        <time>2014-06-06T21:21:36Z</time>
      </trkpt>
      <trkpt lat="44.087160034105182" lon="3.290079971775413">
        <time>2014-06-06T21:21:40Z</time>
      </trkpt>
      <trkpt lat="44.087060038000345" lon="3.290060022845864">
        <time>2014-06-06T21:21:42Z</time>
      </trkpt>
      <trkpt lat="44.087000023573637" lon="3.290079971775413">
        <time>2014-06-06T21:21:43Z</time>
      </trkpt>
      <trkpt lat="44.086889969184995" lon="3.290200000628829">
        <time>2014-06-06T21:21:46Z</time>
      </trkpt>
      <trkpt lat="44.08674999140203" lon="3.290420025587082">
        <time>2014-06-06T21:21:50Z</time>
      </trkpt>
      <trkpt lat="44.086680002510548" lon="3.29043997451663">
        <time>2014-06-06T21:21:51Z</time>
      </trkpt>
      <trkpt lat="44.086619988083839" lon="3.290430000051856">
        <time>2014-06-06T21:21:52Z</time>
      </trkpt>
      <trkpt lat="44.086499959230423" lon="3.290299996733666">
        <time>2014-06-06T21:21:55Z</time>
      </trkpt>
      <trkpt lat="44.086331147700548" lon="3.289931025356054">
        <time>2014-06-06T21:22:01Z</time>
      </trkpt>
      <trkpt lat="44.086229978129268" lon="3.289709994569421">
        <time>2014-06-06T21:22:05Z</time>
      </trkpt>
      <trkpt lat="44.086150014773011" lon="3.289589965716004">
        <time>2014-06-06T21:22:07Z</time>
      </trkpt>
      <trkpt lat="44.085901575163007" lon="3.289321409538388">
        <time>2014-06-06T21:22:13Z</time>
      </trkpt>
      <trkpt lat="44.085780037567019" lon="3.289189981296659">
        <time>2014-06-06T21:22:16Z</time>
      </trkpt>
      <trkpt lat="44.085550038143992" lon="3.28899996355176">
        <time>2014-06-06T21:22:21Z</time>
      </trkpt>
      <trkpt lat="44.08546001650393" lon="3.288970040157437">
        <time>2014-06-06T21:22:23Z</time>
      </trkpt>
      <trkpt lat="44.085349962115288" lon="3.289010021835566">
        <time>2014-06-06T21:22:25Z</time>
      </trkpt>
      <trkpt lat="44.085055841132998" lon="3.289166260510683">
        <time>2014-06-06T21:22:31Z</time>
      </trkpt>
      <trkpt lat="44.08503002487123" lon="3.289180006831884">
        <time>2014-06-06T21:22:32Z</time>
      </trkpt>
      <trkpt lat="44.08490002155304" lon="3.289229962974787">
        <time>2014-06-06T21:22:35Z</time>
      </trkpt>
      <trkpt lat="44.084789967164397" lon="3.289229962974787">
        <time>2014-06-06T21:22:37Z</time>
      </trkpt>
      <trkpt lat="44.084710003808141" lon="3.289180006831884">
        <time>2014-06-06T21:22:39Z</time>
      </trkpt>
      <trkpt lat="44.084649989381433" lon="3.289089985191822">
        <time>2014-06-06T21:22:41Z</time>
      </trkpt>
      <trkpt lat="44.084619982168078" lon="3.288929974660277">
        <time>2014-06-06T21:22:43Z</time>
      </trkpt>
      <trkpt lat="44.084649989381433" lon="3.288810029625893">
        <time>2014-06-06T21:22:45Z</time>
      </trkpt>
      <trkpt lat="44.084749985486269" lon="3.28859000466764">
        <time>2014-06-06T21:22:49Z</time>
      </trkpt>
      <trkpt lat="44.084809999912977" lon="3.288360005244613">
        <time>2014-06-06T21:22:52Z</time>
      </trkpt>
      <trkpt lat="44.084789967164397" lon="3.288190020248294">
        <time>2014-06-06T21:22:54Z</time>
      </trkpt>
      <trkpt lat="44.084705812856555" lon="3.287768913432956">
        <time>2014-06-06T21:23:00Z</time>
      </trkpt>
      <trkpt lat="44.084700029343367" lon="3.287739995867014">
        <time>2014-06-06T21:23:00Z</time>
      </trkpt>
      <trkpt lat="44.084691228345037" lon="3.287303131073713">
        <time>2014-06-06T21:23:06Z</time>
      </trkpt>
      <trkpt lat="44.084689971059561" lon="3.287240015342832">
        <time>2014-06-06T21:23:07Z</time>
      </trkpt>
      <trkpt lat="44.084670022130013" lon="3.287029964849353">
        <time>2014-06-06T21:23:10Z</time>
      </trkpt>
      <trkpt lat="44.084610007703304" lon="3.286859979853034">
        <time>2014-06-06T21:23:13Z</time>
      </trkpt>
      <trkpt lat="44.084500037133694" lon="3.286720002070069">
        <time>2014-06-06T21:23:16Z</time>
      </trkpt>
      <trkpt lat="44.084340026602149" lon="3.286640038713813">
        <time>2014-06-06T21:23:19Z</time>
      </trkpt>
      <trkpt lat="44.084026459604502" lon="3.286597793921828">
        <time>2014-06-06T21:23:25Z</time>
      </trkpt>
      <trkpt lat="44.083820013329387" lon="3.286569966003299">
        <time>2014-06-06T21:23:29Z</time>
      </trkpt>
      <trkpt lat="44.083505775779486" lon="3.286599889397621">
        <time>2014-06-06T21:23:35Z</time>
      </trkpt>
      <trkpt lat="44.083191454410553" lon="3.286629896610975">
        <time>2014-06-06T21:23:41Z</time>
      </trkpt>
      <trkpt lat="44.083190029487014" lon="3.286629980430007">
        <time>2014-06-06T21:23:41Z</time>
      </trkpt>
      <trkpt lat="44.082900015637279" lon="3.286599973216653">
        <time>2014-06-06T21:23:47Z</time>
      </trkpt>
      <trkpt lat="44.08273003064096" lon="3.286520009860396">
        <time>2014-06-06T21:23:50Z</time>
      </trkpt>
      <trkpt lat="44.082442615181208" lon="3.286340972408652">
        <time>2014-06-06T21:23:56Z</time>
      </trkpt>
      <trkpt lat="44.082155283540487" lon="3.28616201877594">
        <time>2014-06-06T21:24:02Z</time>
      </trkpt>
      <trkpt lat="44.082119995728135" lon="3.286139974370599">
        <time>2014-06-06T21:24:03Z</time>
      </trkpt>
      <trkpt lat="44.081969959661365" lon="3.286069985479116">
        <time>2014-06-06T21:24:06Z</time>
      </trkpt>
      <trkpt lat="44.081780025735497" lon="3.286050036549568">
        <time>2014-06-06T21:24:10Z</time>
      </trkpt>
      <trkpt lat="44.081629989668727" lon="3.286109967157245">
        <time>2014-06-06T21:24:13Z</time>
      </trkpt>
      <trkpt lat="44.08150996081531" lon="3.286199988797307">
        <time>2014-06-06T21:24:16Z</time>
      </trkpt>
      <trkpt lat="44.08142002299428" lon="3.286369973793626">
        <time>2014-06-06T21:24:19Z</time>
      </trkpt>
      <trkpt lat="44.08130812458694" lon="3.286778507754207">
        <time>2014-06-06T21:24:25Z</time>
      </trkpt>
      <trkpt lat="44.081220030784607" lon="3.287100037559867">
        <time>2014-06-06T21:24:30Z</time>
      </trkpt>
      <trkpt lat="44.081054655835032" lon="3.287471942603588">
        <time>2014-06-06T21:24:36Z</time>
      </trkpt>
      <trkpt lat="44.08088936470449" lon="3.287843931466341">
        <time>2014-06-06T21:24:42Z</time>
      </trkpt>
      <trkpt lat="44.080819962546229" lon="3.288000002503395">
        <time>2014-06-06T21:24:45Z</time>
      </trkpt>
      <trkpt lat="44.080703957006335" lon="3.288406189531088">
        <time>2014-06-06T21:24:51Z</time>
      </trkpt>
      <trkpt lat="44.080700017511845" lon="3.288420019671321">
        <time>2014-06-06T21:24:51Z</time>
      </trkpt>
      <trkpt lat="44.08056003972888" lon="3.288650019094348">
        <time>2014-06-06T21:24:55Z</time>
      </trkpt>
      <trkpt lat="44.080459959805012" lon="3.288759989663959">
        <time>2014-06-06T21:24:57Z</time>
      </trkpt>
      <trkpt lat="44.080180926248431" lon="3.288962664082646">
        <time>2014-06-06T21:25:03Z</time>
      </trkpt>
      <trkpt lat="44.079901892691851" lon="3.289165338501334">
        <time>2014-06-06T21:25:09Z</time>
      </trkpt>
      <trkpt lat="44.079622775316238" lon="3.28936792910099">
        <time>2014-06-06T21:25:15Z</time>
      </trkpt>
      <trkpt lat="44.079620009288192" lon="3.289370024576783">
        <time>2014-06-06T21:25:15Z</time>
      </trkpt>
      <trkpt lat="44.079347094520926" lon="3.28958828933537">
        <time>2014-06-06T21:25:21Z</time>
      </trkpt>
      <trkpt lat="44.079320020973682" lon="3.289609998464584">
        <time>2014-06-06T21:25:22Z</time>
      </trkpt>
      <trkpt lat="44.079065881669521" lon="3.289868161082268">
        <time>2014-06-06T21:25:28Z</time>
      </trkpt>
      <trkpt lat="44.078811658546329" lon="3.29012623988092">
        <time>2014-06-06T21:25:34Z</time>
      </trkpt>
      <trkpt lat="44.078679978847504" lon="3.290260015055537">
        <time>2014-06-06T21:25:37Z</time>
      </trkpt>
      <trkpt lat="44.078441765159369" lon="3.290545837953687">
        <time>2014-06-06T21:25:43Z</time>
      </trkpt>
      <trkpt lat="44.078330034390092" lon="3.290680032223463">
        <time>2014-06-06T21:25:46Z</time>
      </trkpt>
      <trkpt lat="44.078064244240522" lon="3.290914474055171">
        <time>2014-06-06T21:25:52Z</time>
      </trkpt>
      <trkpt lat="44.077989980578423" lon="3.290980020537973">
        <time>2014-06-06T21:25:54Z</time>
      </trkpt>
      <trkpt lat="44.077870035544038" lon="3.291059983894229">
        <time>2014-06-06T21:25:57Z</time>
      </trkpt>
      <trkpt lat="44.07757205888629" lon="3.291201889514923">
        <time>2014-06-06T21:26:03Z</time>
      </trkpt>
      <trkpt lat="44.077274166047573" lon="3.291343711316586">
        <time>2014-06-06T21:26:09Z</time>
      </trkpt>
      <trkpt lat="44.077239967882633" lon="3.291359972208738">
        <time>2014-06-06T21:26:10Z</time>
      </trkpt>
      <trkpt lat="44.076949283480644" lon="3.291528280824423">
        <time>2014-06-06T21:26:16Z</time>
      </trkpt>
      <trkpt lat="44.076860016211867" lon="3.291579997166991">
        <time>2014-06-06T21:26:18Z</time>
      </trkpt>
      <trkpt lat="44.076749961823225" lon="3.291610004380345">
        <time>2014-06-06T21:26:20Z</time>
      </trkpt>
      <trkpt lat="44.076679972931743" lon="3.291570022702217">
        <time>2014-06-06T21:26:21Z</time>
      </trkpt>
      <trkpt lat="44.07663001678884" lon="3.291500033810735">
        <time>2014-06-06T21:26:22Z</time>
      </trkpt>
      <trkpt lat="44.076619958505034" lon="3.291410012170672">
        <time>2014-06-06T21:26:23Z</time>
      </trkpt>
      <trkpt lat="44.076649965718389" lon="3.29131999053061">
        <time>2014-06-06T21:26:24Z</time>
      </trkpt>
      <trkpt lat="44.076739987358451" lon="3.291280008852482">
        <time>2014-06-06T21:26:26Z</time>
      </trkpt>
      <trkpt lat="44.076979961246252" lon="3.291259976103902">
        <time>2014-06-06T21:26:31Z</time>
      </trkpt>
      <trkpt lat="44.077235525473952" lon="3.291004495695233">
        <time>2014-06-06T21:26:37Z</time>
      </trkpt>
      <trkpt lat="44.077269975095987" lon="3.290969962254167">
        <time>2014-06-06T21:26:38Z</time>
      </trkpt>
      <trkpt lat="44.07738002948463" lon="3.29088999889791">
        <time>2014-06-06T21:26:40Z</time>
      </trkpt>
      <trkpt lat="44.077610028907657" lon="3.290820010006428">
        <time>2014-06-06T21:26:44Z</time>
      </trkpt>
      <trkpt lat="44.077729973942041" lon="3.29073996283114">
        <time>2014-06-06T21:26:47Z</time>
      </trkpt>
      <trkpt lat="44.077859977260232" lon="3.290620017796755">
        <time>2014-06-06T21:26:50Z</time>
      </trkpt>
      <trkpt lat="44.078072374686599" lon="3.290297230705619">
        <time>2014-06-06T21:26:56Z</time>
      </trkpt>
      <trkpt lat="44.078110009431839" lon="3.290239982306957">
        <time>2014-06-06T21:26:57Z</time>
      </trkpt>
      <trkpt lat="44.07824001275003" lon="3.289919961243868">
        <time>2014-06-06T21:27:02Z</time>
      </trkpt>
      <trkpt lat="44.07834998331964" lon="3.289749976247549">
        <time>2014-06-06T21:27:05Z</time>
      </trkpt>
      <trkpt lat="44.078598422929645" lon="3.289481420069933">
        <time>2014-06-06T21:27:11Z</time>
      </trkpt>
      <trkpt lat="44.078719960525632" lon="3.289349991828203">
        <time>2014-06-06T21:27:14Z</time>
      </trkpt>
      <trkpt lat="44.078849963843822" lon="3.289099959656596">
        <time>2014-06-06T21:27:18Z</time>
      </trkpt>
      <trkpt lat="44.079020032659173" lon="3.288840036839247">
        <time>2014-06-06T21:27:23Z</time>
      </trkpt>
      <trkpt lat="44.079242153093219" lon="3.288530157878995">
        <time>2014-06-06T21:27:29Z</time>
      </trkpt>
      <trkpt lat="44.079399984329939" lon="3.288309965282679">
        <time>2014-06-06T21:27:33Z</time>
      </trkpt>
      <trkpt lat="44.07963945530355" lon="3.28802615404129">
        <time>2014-06-06T21:27:39Z</time>
      </trkpt>
      <trkpt lat="44.079669965431094" lon="3.287990028038621">
        <time>2014-06-06T21:27:40Z</time>
      </trkpt>
      <trkpt lat="44.079769961535931" lon="3.287830017507076">
        <time>2014-06-06T21:27:43Z</time>
      </trkpt>
      <trkpt lat="44.079820001497865" lon="3.287639999762178">
        <time>2014-06-06T21:27:46Z</time>
      </trkpt>
      <trkpt lat="44.079840034246445" lon="3.28743003308773">
        <time>2014-06-06T21:27:49Z</time>
      </trkpt>
      <trkpt lat="44.079927792772651" lon="3.287010351195931">
        <time>2014-06-06T21:27:55Z</time>
      </trkpt>
      <trkpt lat="44.079929972067475" lon="3.28700004145503">
        <time>2014-06-06T21:27:55Z</time>
      </trkpt>
      <trkpt lat="44.080039858818054" lon="3.286590501666069">
        <time>2014-06-06T21:28:01Z</time>
      </trkpt>
      <trkpt lat="44.080040026456118" lon="3.286589998751879">
        <time>2014-06-06T21:28:01Z</time>
      </trkpt>
      <trkpt lat="44.080050000920892" lon="3.286169981583953">
        <time>2014-06-06T21:28:07Z</time>
      </trkpt>
      <trkpt lat="44.080005828291178" lon="3.285737307742238">
        <time>2014-06-06T21:28:13Z</time>
      </trkpt>
      <trkpt lat="44.079999960958958" lon="3.285679975524545">
        <time>2014-06-06T21:28:14Z</time>
      </trkpt>
      <trkpt lat="44.079950004816055" lon="3.285500016063452">
        <time>2014-06-06T21:28:17Z</time>
      </trkpt>
      <trkpt lat="44.079870041459799" lon="3.285349979996681">
        <time>2014-06-06T21:28:20Z</time>
      </trkpt>
      <trkpt lat="44.079656135290861" lon="3.285029204562306">
        <time>2014-06-06T21:28:26Z</time>
      </trkpt>
      <trkpt lat="44.079629983752966" lon="3.284989977255464">
        <time>2014-06-06T21:28:27Z</time>
      </trkpt>
      <trkpt lat="44.079539962112904" lon="3.284819992259145">
        <time>2014-06-06T21:28:30Z</time>
      </trkpt>
      <trkpt lat="44.079499980434775" lon="3.284640032798052">
        <time>2014-06-06T21:28:33Z</time>
      </trkpt>
      <trkpt lat="44.079490005970001" lon="3.284420007839799">
        <time>2014-06-06T21:28:36Z</time>
      </trkpt>
      <trkpt lat="44.079510038718581" lon="3.284210041165352">
        <time>2014-06-06T21:28:39Z</time>
      </trkpt>
      <trkpt lat="44.079569969326258" lon="3.284060005098581">
        <time>2014-06-06T21:28:41Z</time>
      </trkpt>
      <trkpt lat="44.0796800237149" lon="3.283950034528971">
        <time>2014-06-06T21:28:44Z</time>
      </trkpt>
      <trkpt lat="44.079820001497865" lon="3.283860012888908">
        <time>2014-06-06T21:28:47Z</time>
      </trkpt>
      <trkpt lat="44.080073637887836" lon="3.283600928261876">
        <time>2014-06-06T21:28:53Z</time>
      </trkpt>
      <trkpt lat="44.080289974808693" lon="3.283379981294274">
        <time>2014-06-06T21:28:58Z</time>
      </trkpt>
      <trkpt lat="44.080524416640401" lon="3.283088123425841">
        <time>2014-06-06T21:29:04Z</time>
      </trkpt>
      <trkpt lat="44.080758774653077" lon="3.282796181738377">
        <time>2014-06-06T21:29:10Z</time>
      </trkpt>
      <trkpt lat="44.080819962546229" lon="3.282719990238547">
        <time>2014-06-06T21:29:12Z</time>
      </trkpt>
      <trkpt lat="44.08108189702034" lon="3.2824772503227">
        <time>2014-06-06T21:29:18Z</time>
      </trkpt>
      <trkpt lat="44.081230005249381" lon="3.282340038567781">
        <time>2014-06-06T21:29:21Z</time>
      </trkpt>
      <trkpt lat="44.081360008567572" lon="3.282250016927719">
        <time>2014-06-06T21:29:24Z</time>
      </trkpt>
      <trkpt lat="44.081469979137182" lon="3.282239958643913">
        <time>2014-06-06T21:29:26Z</time>
      </trkpt>
      <trkpt lat="44.081569975242019" lon="3.282299973070622">
        <time>2014-06-06T21:29:28Z</time>
      </trkpt>
      <trkpt lat="44.081669971346855" lon="3.282389994710684">
        <time>2014-06-06T21:29:30Z</time>
      </trkpt>
      <trkpt lat="44.081799974665046" lon="3.282420001924038">
        <time>2014-06-06T21:29:33Z</time>
      </trkpt>
      <trkpt lat="44.081940036267042" lon="3.282369961962104">
        <time>2014-06-06T21:29:36Z</time>
      </trkpt>
      <trkpt lat="44.082070039585233" lon="3.282269965857267">
        <time>2014-06-06T21:29:39Z</time>
      </trkpt>
      <trkpt lat="44.082240024581552" lon="3.282099980860949">
        <time>2014-06-06T21:29:43Z</time>
      </trkpt>
      <trkpt lat="44.082459965720773" lon="3.281839974224567">
        <time>2014-06-06T21:29:49Z</time>
      </trkpt>
      <trkpt lat="44.082600027322769" lon="3.28160997480154">
        <time>2014-06-06T21:29:53Z</time>
      </trkpt>
      <trkpt lat="44.082670016214252" lon="3.281420040875673">
        <time>2014-06-06T21:29:56Z</time>
      </trkpt>
      <trkpt lat="44.082679990679026" lon="3.281300012022257">
        <time>2014-06-06T21:29:58Z</time>
      </trkpt>
      <trkpt lat="44.082649983465672" lon="3.281209990382195">
        <time>2014-06-06T21:29:59Z</time>
      </trkpt>
      <trkpt lat="44.082579994574189" lon="3.28120001591742">
        <time>2014-06-06T21:30:00Z</time>
      </trkpt>
      <trkpt lat="44.082519980147481" lon="3.281270004808903">
        <time>2014-06-06T21:30:01Z</time>
      </trkpt>
      <trkpt lat="44.082419984042645" lon="3.28163000755012">
        <time>2014-06-06T21:30:06Z</time>
      </trkpt>
      <trkpt lat="44.082340020686388" lon="3.281779959797859">
        <time>2014-06-06T21:30:09Z</time>
      </trkpt>
      <trkpt lat="44.082150002941489" lon="3.281939970329404">
        <time>2014-06-06T21:30:13Z</time>
      </trkpt>
      <trkpt lat="44.081989992409945" lon="3.28203996643424">
        <time>2014-06-06T21:30:16Z</time>
      </trkpt>
      <trkpt lat="44.081859989091754" lon="3.2820800319314">
        <time>2014-06-06T21:30:19Z</time>
      </trkpt>
      <trkpt lat="44.081720011308789" lon="3.28203996643424">
        <time>2014-06-06T21:30:22Z</time>
      </trkpt>
      <trkpt lat="44.081580033525825" lon="3.281939970329404">
        <time>2014-06-06T21:30:25Z</time>
      </trkpt>
      <trkpt lat="44.081439971923828" lon="3.281880039721727">
        <time>2014-06-06T21:30:28Z</time>
      </trkpt>
      <trkpt lat="44.081290019676089" lon="3.281890014186502">
        <time>2014-06-06T21:30:31Z</time>
      </trkpt>
      <trkpt lat="44.081060020253062" lon="3.28203996643424">
        <time>2014-06-06T21:30:36Z</time>
      </trkpt>
      <trkpt lat="44.080759026110172" lon="3.28216896392405">
        <time>2014-06-06T21:30:42Z</time>
      </trkpt>
      <trkpt lat="44.080570014193654" lon="3.282250016927719">
        <time>2014-06-06T21:30:46Z</time>
      </trkpt>
      <trkpt lat="44.080470018088818" lon="3.282329980283976">
        <time>2014-06-06T21:30:48Z</time>
      </trkpt>
      <trkpt lat="44.080400029197335" lon="3.282459983602166">
        <time>2014-06-06T21:30:50Z</time>
      </trkpt>
      <trkpt lat="44.080300033092499" lon="3.282580012455583">
        <time>2014-06-06T21:30:53Z</time>
      </trkpt>
      <trkpt lat="44.080050000920892" lon="3.282729964703322">
        <time>2014-06-06T21:30:58Z</time>
      </trkpt>
      <trkpt lat="44.079910023137927" lon="3.282949989661574">
        <time>2014-06-06T21:31:02Z</time>
      </trkpt>
      <trkpt lat="44.079636102542281" lon="3.283165823668242">
        <time>2014-06-06T21:31:08Z</time>
      </trkpt>
      <trkpt lat="44.079580027610064" lon="3.283209996297956">
        <time>2014-06-06T21:31:09Z</time>
      </trkpt>
      <trkpt lat="44.079279033467174" lon="3.283338993787766">
        <time>2014-06-06T21:31:15Z</time>
      </trkpt>
      <trkpt lat="44.079160010442138" lon="3.28339003957808">
        <time>2014-06-06T21:31:17Z</time>
      </trkpt>
      <trkpt lat="44.079050039872527" lon="3.283509984612465">
        <time>2014-06-06T21:31:20Z</time>
      </trkpt>
      <trkpt lat="44.078876115381718" lon="3.283874345943332">
        <time>2014-06-06T21:31:26Z</time>
      </trkpt>
      <trkpt lat="44.078839989379048" lon="3.283950034528971">
        <time>2014-06-06T21:31:27Z</time>
      </trkpt>
      <trkpt lat="44.078691713511944" lon="3.28433551825583">
        <time>2014-06-06T21:31:33Z</time>
      </trkpt>
      <trkpt lat="44.07869003713131" lon="3.284339960664511">
        <time>2014-06-06T21:31:33Z</time>
      </trkpt>
      <trkpt lat="44.078630022704601" lon="3.284599967300892">
        <time>2014-06-06T21:31:37Z</time>
      </trkpt>
      <trkpt lat="44.078630022704601" lon="3.285036915913224">
        <time>2014-06-06T21:31:43Z</time>
      </trkpt>
      <trkpt lat="44.078630022704601" lon="3.285473864525557">
        <time>2014-06-06T21:31:49Z</time>
      </trkpt>
      <trkpt lat="44.078630022704601" lon="3.285500016063452">
        <time>2014-06-06T21:31:49Z</time>
      </trkpt>
      <trkpt lat="44.07869003713131" lon="3.285909974947572">
        <time>2014-06-06T21:31:55Z</time>
      </trkpt>
      <trkpt lat="44.078679978847504" lon="3.286050036549568">
        <time>2014-06-06T21:31:57Z</time>
      </trkpt>
      <trkpt lat="44.078630022704601" lon="3.286169981583953">
        <time>2014-06-06T21:31:59Z</time>
      </trkpt>
      <trkpt lat="44.078549975529313" lon="3.286269977688789">
        <time>2014-06-06T21:32:01Z</time>
      </trkpt>
      <trkpt lat="44.078279994428158" lon="3.286439962685108">
        <time>2014-06-06T21:32:07Z</time>
      </trkpt>
      <trkpt lat="44.078140016645193" lon="3.286610031500459">
        <time>2014-06-06T21:32:11Z</time>
      </trkpt>
      <trkpt lat="44.077932815998793" lon="3.286939105018973">
        <time>2014-06-06T21:32:17Z</time>
      </trkpt>
      <trkpt lat="44.077799962833524" lon="3.287149993702769">
        <time>2014-06-06T21:32:21Z</time>
      </trkpt>
      <trkpt lat="44.077529981732368" lon="3.287340011447668">
        <time>2014-06-06T21:32:27Z</time>
      </trkpt>
      <trkpt lat="44.077320015057921" lon="3.28741000033915">
        <time>2014-06-06T21:32:31Z</time>
      </trkpt>
      <trkpt lat="44.077180037274957" lon="3.287500021979213">
        <time>2014-06-06T21:32:34Z</time>
      </trkpt>
      <trkpt lat="44.077090015634894" lon="3.287589959800243">
        <time>2014-06-06T21:32:36Z</time>
      </trkpt>
      <trkpt lat="44.076881557703018" lon="3.287917608395219">
        <time>2014-06-06T21:32:42Z</time>
      </trkpt>
      <trkpt lat="44.076809976249933" lon="3.288030009716749">
        <time>2014-06-06T21:32:44Z</time>
      </trkpt>
      <trkpt lat="44.076730012893677" lon="3.288099998608232">
        <time>2014-06-06T21:32:46Z</time>
      </trkpt>
      <trkpt lat="44.07663001678884" lon="3.288150038570166">
        <time>2014-06-06T21:32:48Z</time>
      </trkpt>
      <trkpt lat="44.076549969613552" lon="3.28813998028636">
        <time>2014-06-06T21:32:50Z</time>
      </trkpt>
      <trkpt lat="44.076449973508716" lon="3.288079965859652">
        <time>2014-06-06T21:32:52Z</time>
      </trkpt>
      <trkpt lat="44.076194493100047" lon="3.287824485450983">
        <time>2014-06-06T21:32:58Z</time>
      </trkpt>
      <trkpt lat="44.076040014624596" lon="3.287670006975532">
        <time>2014-06-06T21:33:02Z</time>
      </trkpt>
      <trkpt lat="44.075940018519759" lon="3.287630025297403">
        <time>2014-06-06T21:33:04Z</time>
      </trkpt>
      <trkpt lat="44.075840022414923" lon="3.287630025297403">
        <time>2014-06-06T21:33:06Z</time>
      </trkpt>
      <trkpt lat="44.07577003352344" lon="3.287670006975532">
        <time>2014-06-06T21:33:07Z</time>
      </trkpt>
      <trkpt lat="44.07559996470809" lon="3.288000002503395">
        <time>2014-06-06T21:33:13Z</time>
      </trkpt>
      <trkpt lat="44.075317494571209" lon="3.288193289190531">
        <time>2014-06-06T21:33:19Z</time>
      </trkpt>
      <trkpt lat="44.075035024434328" lon="3.288386575877667">
        <time>2014-06-06T21:33:25Z</time>
      </trkpt>
      <trkpt lat="44.074839977547526" lon="3.288520015776157">
        <time>2014-06-06T21:33:29Z</time>
      </trkpt>
      <trkpt lat="44.07454158179462" lon="3.28865990974009">
        <time>2014-06-06T21:33:35Z</time>
      </trkpt>
      <trkpt lat="44.074520040303469" lon="3.288669968023896">
        <time>2014-06-06T21:33:35Z</time>
      </trkpt>
      <trkpt lat="44.074214184656739" lon="3.288774825632572">
        <time>2014-06-06T21:33:41Z</time>
      </trkpt>
      <trkpt lat="44.074170012027025" lon="3.288789996877313">
        <time>2014-06-06T21:33:42Z</time>
      </trkpt>
      <trkpt lat="44.074060041457415" lon="3.288859985768795">
        <time>2014-06-06T21:33:44Z</time>
      </trkpt>
      <trkpt lat="44.073781510815024" lon="3.289064252749085">
        <time>2014-06-06T21:33:50Z</time>
      </trkpt>
      <trkpt lat="44.073759969323874" lon="3.289080010727048">
        <time>2014-06-06T21:33:50Z</time>
      </trkpt>
      <trkpt lat="44.073488563299179" lon="3.289301712065935">
        <time>2014-06-06T21:33:56Z</time>
      </trkpt>
      <trkpt lat="44.073217157274485" lon="3.289523329585791">
        <time>2014-06-06T21:34:02Z</time>
      </trkpt>
      <trkpt lat="44.073159992694855" lon="3.289570016786456">
        <time>2014-06-06T21:34:03Z</time>
      </trkpt>
      <trkpt lat="44.072872493416071" lon="3.289748467504978">
        <time>2014-06-06T21:34:09Z</time>
      </trkpt>
      <trkpt lat="44.072869978845119" lon="3.289749976247549">
        <time>2014-06-06T21:34:09Z</time>
      </trkpt>
      <trkpt lat="44.072660012170672" lon="3.289909986779094">
        <time>2014-06-06T21:34:14Z</time>
      </trkpt>
      <trkpt lat="44.072469994425774" lon="3.290130011737347">
        <time>2014-06-06T21:34:19Z</time>
      </trkpt>
      <trkpt lat="44.072369998320937" lon="3.290290022268891">
        <time>2014-06-06T21:34:22Z</time>
      </trkpt>
      <trkpt lat="44.072300009429455" lon="3.290430000051856">
        <time>2014-06-06T21:34:24Z</time>
      </trkpt>
      <trkpt lat="44.072279976680875" lon="3.290590010583401">
        <time>2014-06-06T21:34:26Z</time>
      </trkpt>
      <trkpt lat="44.072290034964681" lon="3.2907800283283">
        <time>2014-06-06T21:34:29Z</time>
      </trkpt>
      <trkpt lat="44.072389863431454" lon="3.291194345802069">
        <time>2014-06-06T21:34:35Z</time>
      </trkpt>
      <trkpt lat="44.072489691898227" lon="3.29160874709487">
        <time>2014-06-06T21:34:41Z</time>
      </trkpt>
      <trkpt lat="44.072490027174354" lon="3.291610004380345">
        <time>2014-06-06T21:34:41Z</time>
      </trkpt>
      <trkpt lat="44.072560016065836" lon="3.291710000485182">
        <time>2014-06-06T21:34:43Z</time>
      </trkpt>
      <trkpt lat="44.072669986635447" lon="3.291819971054792">
        <time>2014-06-06T21:34:46Z</time>
      </trkpt>
      <trkpt lat="44.072709968313575" lon="3.291889959946275">
        <time>2014-06-06T21:34:47Z</time>
      </trkpt>
      <trkpt lat="44.072709968313575" lon="3.292009988799691">
        <time>2014-06-06T21:34:49Z</time>
      </trkpt>
      <trkpt lat="44.072650037705898" lon="3.292039996013045">
        <time>2014-06-06T21:34:50Z</time>
      </trkpt>
      <trkpt lat="44.072599997743964" lon="3.292000014334917">
        <time>2014-06-06T21:34:51Z</time>
      </trkpt>
      <trkpt lat="44.072560016065836" lon="3.291870011016727">
        <time>2014-06-06T21:34:53Z</time>
      </trkpt>
      <trkpt lat="44.072400005534291" lon="3.291549989953637">
        <time>2014-06-06T21:34:58Z</time>
      </trkpt>
      <trkpt lat="44.072277210652828" lon="3.291147658601403">
        <time>2014-06-06T21:35:04Z</time>
      </trkpt>
      <trkpt lat="44.072219962254167" lon="3.290959987789393">
        <time>2014-06-06T21:35:07Z</time>
      </trkpt>
      <trkpt lat="44.072149973362684" lon="3.290820010006428">
        <time>2014-06-06T21:35:09Z</time>
      </trkpt>
      <trkpt lat="44.072040002793074" lon="3.290490014478564">
        <time>2014-06-06T21:35:14Z</time>
      </trkpt>
      <trkpt lat="44.072040002793074" lon="3.290139986202121">
        <time>2014-06-06T21:35:19Z</time>
      </trkpt>
      <trkpt lat="44.072100017219782" lon="3.289939993992448">
        <time>2014-06-06T21:35:22Z</time>
      </trkpt>
      <trkpt lat="44.072170006111264" lon="3.289790041744709">
        <time>2014-06-06T21:35:24Z</time>
      </trkpt>
      <trkpt lat="44.072260027751327" lon="3.289660038426518">
        <time>2014-06-06T21:35:26Z</time>
      </trkpt>
      <trkpt lat="44.072319958359003" lon="3.289540009573102">
        <time>2014-06-06T21:35:28Z</time>
      </trkpt>
      <trkpt lat="44.072339991107583" lon="3.289440013468266">
        <time>2014-06-06T21:35:29Z</time>
      </trkpt>
      <trkpt lat="44.072309983894229" lon="3.289349991828203">
        <time>2014-06-06T21:35:30Z</time>
      </trkpt>
      <trkpt lat="44.072130024433136" lon="3.289089985191822">
        <time>2014-06-06T21:35:35Z</time>
      </trkpt>
      <trkpt lat="44.071940006688237" lon="3.288869960233569">
        <time>2014-06-06T21:35:40Z</time>
      </trkpt>
      <trkpt lat="44.071889966726303" lon="3.288859985768795">
        <time>2014-06-06T21:35:41Z</time>
      </trkpt>
      <trkpt lat="44.071819977834821" lon="3.288910025730729">
        <time>2014-06-06T21:35:42Z</time>
      </trkpt>
      <trkpt lat="44.071597438305616" lon="3.289219150319696">
        <time>2014-06-06T21:35:48Z</time>
      </trkpt>
      <trkpt lat="44.071459975093603" lon="3.289410006254911">
        <time>2014-06-06T21:35:52Z</time>
      </trkpt>
      <trkpt lat="44.071319997310638" lon="3.289649980142713">
        <time>2014-06-06T21:35:56Z</time>
      </trkpt>
      <trkpt lat="44.071240033954382" lon="3.289839997887611">
        <time>2014-06-06T21:35:59Z</time>
      </trkpt>
      <trkpt lat="44.071199968457222" lon="3.290139986202121">
        <time>2014-06-06T21:36:03Z</time>
      </trkpt>
      <trkpt lat="44.071199968457222" lon="3.290576934814453">
        <time>2014-06-06T21:36:09Z</time>
      </trkpt>
      <trkpt lat="44.071199968457222" lon="3.290850017219782">
        <time>2014-06-06T21:36:13Z</time>
      </trkpt>
      <trkpt lat="44.071240033954382" lon="3.291199961677194">
        <time>2014-06-06T21:36:18Z</time>
      </trkpt>
      <trkpt lat="44.071299964562058" lon="3.291480001062155">
        <time>2014-06-06T21:36:22Z</time>
      </trkpt>
      <trkpt lat="44.071351094171405" lon="3.291911082342267">
        <time>2014-06-06T21:36:28Z</time>
      </trkpt>
      <trkpt lat="44.071389986202121" lon="3.292239988222718">
        <time>2014-06-06T21:36:33Z</time>
      </trkpt>
      <trkpt lat="44.071370037272573" lon="3.292660005390644">
        <time>2014-06-06T21:36:39Z</time>
      </trkpt>
      <trkpt lat="44.071268867701292" lon="3.293073736131191">
        <time>2014-06-06T21:36:45Z</time>
      </trkpt>
      <trkpt lat="44.07125998288393" lon="3.293110029771924">
        <time>2014-06-06T21:36:46Z</time>
      </trkpt>
      <trkpt lat="44.071220001205802" lon="3.293240033090115">
        <time>2014-06-06T21:36:48Z</time>
      </trkpt>
      <trkpt lat="44.071180019527674" lon="3.293259982019663">
        <time>2014-06-06T21:36:49Z</time>
      </trkpt>
      <trkpt lat="44.071120005100965" lon="3.293199967592955">
        <time>2014-06-06T21:36:50Z</time>
      </trkpt>
      <trkpt lat="44.071169961243868" lon="3.293110029771924">
        <time>2014-06-06T21:36:52Z</time>
      </trkpt>
      <trkpt lat="44.071240033954382" lon="3.292869972065091">
        <time>2014-06-06T21:36:56Z</time>
      </trkpt>
      <trkpt lat="44.071289990097284" lon="3.292620023712516">
        <time>2014-06-06T21:37:00Z</time>
      </trkpt>
      <trkpt lat="44.071299964562058" lon="3.292390024289489">
        <time>2014-06-06T21:37:03Z</time>
      </trkpt>
      <trkpt lat="44.071270041167736" lon="3.292070003226399">
        <time>2014-06-06T21:37:07Z</time>
      </trkpt>
      <trkpt lat="44.071196028962731" lon="3.291645292192698">
        <time>2014-06-06T21:37:13Z</time>
      </trkpt>
      <trkpt lat="44.071122016757727" lon="3.291220664978027">
        <time>2014-06-06T21:37:19Z</time>
      </trkpt>
      <trkpt lat="44.071048004552722" lon="3.290795953944325">
        <time>2014-06-06T21:37:25Z</time>
      </trkpt>
      <trkpt lat="44.071040041744709" lon="3.290750021114945">
        <time>2014-06-06T21:37:26Z</time>
      </trkpt>
      <trkpt lat="44.071010034531355" lon="3.2903500366956">
        <time>2014-06-06T21:37:32Z</time>
      </trkpt>
      <trkpt lat="44.071050602942705" lon="3.289916776120663">
        <time>2014-06-06T21:37:38Z</time>
      </trkpt>
      <trkpt lat="44.071069965139031" lon="3.289709994569421">
        <time>2014-06-06T21:37:41Z</time>
      </trkpt>
      <trkpt lat="44.071228886023164" lon="3.28933272510767">
        <time>2014-06-06T21:37:47Z</time>
      </trkpt>
      <trkpt lat="44.071229975670576" lon="3.289329959079623">
        <time>2014-06-06T21:37:47Z</time>
      </trkpt>
      <trkpt lat="44.071426782757044" lon="3.288988899439573">
        <time>2014-06-06T21:37:53Z</time>
      </trkpt>
      <trkpt lat="44.071529963985085" lon="3.288810029625893">
        <time>2014-06-06T21:37:56Z</time>
      </trkpt>
      <trkpt lat="44.07171000726521" lon="3.288539964705706">
        <time>2014-06-06T21:38:01Z</time>
      </trkpt>
      <trkpt lat="44.071849985048175" lon="3.288380037993193">
        <time>2014-06-06T21:38:04Z</time>
      </trkpt>
      <trkpt lat="44.07211066223681" lon="3.288134699687362">
        <time>2014-06-06T21:38:10Z</time>
      </trkpt>
      <trkpt lat="44.072360023856163" lon="3.287900006398559">
        <time>2014-06-06T21:38:16Z</time>
      </trkpt>
      <trkpt lat="44.072500001639128" lon="3.287719963118434">
        <time>2014-06-06T21:38:20Z</time>
      </trkpt>
      <trkpt lat="44.072714829817414" lon="3.287400444969535">
        <time>2014-06-06T21:38:26Z</time>
      </trkpt>
      <trkpt lat="44.072909960523248" lon="3.287110012024641">
        <time>2014-06-06T21:38:31Z</time>
      </trkpt>
      <trkpt lat="44.073119089007378" lon="3.286783285439014">
        <time>2014-06-06T21:38:37Z</time>
      </trkpt>
      <trkpt lat="44.073229981586337" lon="3.286610031500459">
        <time>2014-06-06T21:38:40Z</time>
      </trkpt>
      <trkpt lat="44.073408516123891" lon="3.286250028759241">
        <time>2014-06-06T21:38:46Z</time>
      </trkpt>
      <trkpt lat="44.073587050661445" lon="3.285890026018024">
        <time>2014-06-06T21:38:52Z</time>
      </trkpt>
      <trkpt lat="44.073765501379967" lon="3.285530023276806">
        <time>2014-06-06T21:38:58Z</time>
      </trkpt>
      <trkpt lat="44.073829958215356" lon="3.285400019958615">
        <time>2014-06-06T21:39:00Z</time>
      </trkpt>
      <trkpt lat="44.074000027030706" lon="3.285230034962297">
        <time>2014-06-06T21:39:04Z</time>
      </trkpt>
      <trkpt lat="44.074100023135543" lon="3.285159962251782">
        <time>2014-06-06T21:39:06Z</time>
      </trkpt>
      <trkpt lat="44.074230026453733" lon="3.285119980573654">
        <time>2014-06-06T21:39:09Z</time>
      </trkpt>
      <trkpt lat="44.074360029771924" lon="3.28511000610888">
        <time>2014-06-06T21:39:11Z</time>
      </trkpt>
      <trkpt lat="44.074669824913144" lon="3.285189131274819">
        <time>2014-06-06T21:39:17Z</time>
      </trkpt>
      <trkpt lat="44.074830003082752" lon="3.285230034962297">
        <time>2014-06-06T21:39:20Z</time>
      </trkpt>
      <trkpt lat="44.074950031936169" lon="3.285230034962297">
        <time>2014-06-06T21:39:22Z</time>
      </trkpt>
      <trkpt lat="44.075039969757199" lon="3.285210002213717">
        <time>2014-06-06T21:39:24Z</time>
      </trkpt>
      <trkpt lat="44.075199980288744" lon="3.285100031644106">
        <time>2014-06-06T21:39:27Z</time>
      </trkpt>
      <trkpt lat="44.075429979711771" lon="3.284910013899207">
        <time>2014-06-06T21:39:32Z</time>
      </trkpt>
      <trkpt lat="44.07569233328104" lon="3.284668195992708">
        <time>2014-06-06T21:39:38Z</time>
      </trkpt>
      <trkpt lat="44.075940018519759" lon="3.284440040588379">
        <time>2014-06-06T21:39:44Z</time>
      </trkpt>
      <trkpt lat="44.076182506978512" lon="3.284161174669862">
        <time>2014-06-06T21:39:50Z</time>
      </trkpt>
      <trkpt lat="44.076340002939105" lon="3.283980041742325">
        <time>2014-06-06T21:39:54Z</time>
      </trkpt>
      <trkpt lat="44.076470006257296" lon="3.283769991248846">
        <time>2014-06-06T21:39:58Z</time>
      </trkpt>
      <trkpt lat="44.076560027897358" lon="3.283569999039173">
        <time>2014-06-06T21:40:01Z</time>
      </trkpt>
      <trkpt lat="44.076683660969138" lon="3.28316817060113">
        <time>2014-06-06T21:40:07Z</time>
      </trkpt>
      <trkpt lat="44.076760020107031" lon="3.28291998244822">
        <time>2014-06-06T21:40:11Z</time>
      </trkpt>
      <trkpt lat="44.076861860230565" lon="3.282506503164768">
        <time>2014-06-06T21:40:17Z</time>
      </trkpt>
      <trkpt lat="44.076963616535068" lon="3.282093023881316">
        <time>2014-06-06T21:40:23Z</time>
      </trkpt>
      <trkpt lat="44.077065456658602" lon="3.281679544597864">
        <time>2014-06-06T21:40:29Z</time>
      </trkpt>
      <trkpt lat="44.077090015634894" lon="3.281579967588186">
        <time>2014-06-06T21:40:30Z</time>
      </trkpt>
      <trkpt lat="44.077190011739731" lon="3.281330019235611">
        <time>2014-06-06T21:40:34Z</time>
      </trkpt>
      <trkpt lat="44.077350022271276" lon="3.281060038134456">
        <time>2014-06-06T21:40:39Z</time>
      </trkpt>
      <trkpt lat="44.077559988945723" lon="3.28077002428472">
        <time>2014-06-06T21:40:45Z</time>
      </trkpt>
      <trkpt lat="44.077780013903975" lon="3.280510017648339">
        <time>2014-06-06T21:40:51Z</time>
      </trkpt>
      <trkpt lat="44.078000038862228" lon="3.280310025438666">
        <time>2014-06-06T21:40:56Z</time>
      </trkpt>
      <trkpt lat="44.078149991109967" lon="3.280229978263378">
        <time>2014-06-06T21:40:59Z</time>
      </trkpt>
      <trkpt lat="44.078360041603446" lon="3.28021002933383">
        <time>2014-06-06T21:41:03Z</time>
      </trkpt>
      <trkpt lat="44.07867000438273" lon="3.280132496729493">
        <time>2014-06-06T21:41:09Z</time>
      </trkpt>
      <trkpt lat="44.078719960525632" lon="3.280120007693768">
        <time>2014-06-06T21:41:10Z</time>
      </trkpt>
      <trkpt lat="44.079026570543647" lon="3.280019843950868">
        <time>2014-06-06T21:41:16Z</time>
      </trkpt>
      <trkpt lat="44.07920996658504" lon="3.279959997162223">
        <time>2014-06-06T21:41:20Z</time>
      </trkpt>
      <trkpt lat="44.079512301832438" lon="3.27983720228076">
        <time>2014-06-06T21:41:26Z</time>
      </trkpt>
      <trkpt lat="44.079529987648129" lon="3.279829993844032">
        <time>2014-06-06T21:41:26Z</time>
      </trkpt>
      <trkpt lat="44.079823857173324" lon="3.279672581702471">
        <time>2014-06-06T21:41:32Z</time>
      </trkpt>
      <trkpt lat="44.08008998259902" lon="3.279530005529523">
        <time>2014-06-06T21:41:37Z</time>
      </trkpt>
      <trkpt lat="44.080367423593998" lon="3.279323056340218">
        <time>2014-06-06T21:41:43Z</time>
      </trkpt>
      <trkpt lat="44.080644864588976" lon="3.279116190969944">
        <time>2014-06-06T21:41:49Z</time>
      </trkpt>
      <trkpt lat="44.080679984763265" lon="3.279090039432049">
        <time>2014-06-06T21:41:50Z</time>
      </trkpt>
      <trkpt lat="44.080935548990965" lon="3.278834475204349">
        <time>2014-06-06T21:41:56Z</time>
      </trkpt>
      <trkpt lat="44.080969998613" lon="3.278800025582314">
        <time>2014-06-06T21:41:57Z</time>
      </trkpt>
      <trkpt lat="44.081214917823672" lon="3.278525182977319">
        <time>2014-06-06T21:42:03Z</time>
      </trkpt>
      <trkpt lat="44.081380041316152" lon="3.27834002673626">
        <time>2014-06-06T21:42:07Z</time>
      </trkpt>
      <trkpt lat="44.081520019099116" lon="3.278159983456135">
        <time>2014-06-06T21:42:11Z</time>
      </trkpt>
      <trkpt lat="44.081620015203953" lon="3.277980023995042">
        <time>2014-06-06T21:42:14Z</time>
      </trkpt>
      <trkpt lat="44.081710036844015" lon="3.277810038998723">
        <time>2014-06-06T21:42:17Z</time>
      </trkpt>
      <trkpt lat="44.081790000200272" lon="3.277580039575696">
        <time>2014-06-06T21:42:21Z</time>
      </trkpt>
      <trkpt lat="44.081904496997595" lon="3.277172930538654">
        <time>2014-06-06T21:42:27Z</time>
      </trkpt>
      <trkpt lat="44.081969959661365" lon="3.276939997449517">
        <time>2014-06-06T21:42:30Z</time>
      </trkpt>
      <trkpt lat="44.082123516127467" lon="3.276558453217149">
        <time>2014-06-06T21:42:36Z</time>
      </trkpt>
      <trkpt lat="44.082276988774538" lon="3.276176825165749">
        <time>2014-06-06T21:42:42Z</time>
      </trkpt>
      <trkpt lat="44.082319987937808" lon="3.276070039719343">
        <time>2014-06-06T21:42:44Z</time>
      </trkpt>
      <trkpt lat="44.082459965720773" lon="3.275840040296316">
        <time>2014-06-06T21:42:48Z</time>
      </trkpt>
      <trkpt lat="44.082712261006236" lon="3.275578357279301">
        <time>2014-06-06T21:42:54Z</time>
      </trkpt>
      <trkpt lat="44.08273003064096" lon="3.275560000911355">
        <time>2014-06-06T21:42:54Z</time>
      </trkpt>
      <trkpt lat="44.083000933751464" lon="3.275337209925056">
        <time>2014-06-06T21:43:00Z</time>
      </trkpt>
      <trkpt lat="44.083179971203208" lon="3.275190023705363">
        <time>2014-06-06T21:43:04Z</time>
      </trkpt>
      <trkpt lat="44.083409970626235" lon="3.275060020387173">
        <time>2014-06-06T21:43:09Z</time>
      </trkpt>
      <trkpt lat="44.083708198741078" lon="3.274919204413891">
        <time>2014-06-06T21:43:15Z</time>
      </trkpt>
      <trkpt lat="44.083769973367453" lon="3.274890035390854">
        <time>2014-06-06T21:43:16Z</time>
      </trkpt>
      <trkpt lat="44.084073565900326" lon="3.274773275479674">
        <time>2014-06-06T21:43:22Z</time>
      </trkpt>
      <trkpt lat="44.084159983322024" lon="3.274739999324083">
        <time>2014-06-06T21:43:24Z</time>
      </trkpt>
      <trkpt lat="44.084474807605147" lon="3.274723403155804">
        <time>2014-06-06T21:43:30Z</time>
      </trkpt>
      <trkpt lat="44.084540018811822" lon="3.274719966575503">
        <time>2014-06-06T21:43:31Z</time>
      </trkpt>
      <trkpt lat="44.084840007126331" lon="3.274760032072663">
        <time>2014-06-06T21:43:37Z</time>
      </trkpt>
      <trkpt lat="44.085090039297938" lon="3.274890035390854">
        <time>2014-06-06T21:43:42Z</time>
      </trkpt>
      <trkpt lat="44.085376281291246" lon="3.275072174146771">
        <time>2014-06-06T21:43:48Z</time>
      </trkpt>
      <trkpt lat="44.085420034825802" lon="3.275100002065301">
        <time>2014-06-06T21:43:49Z</time>
      </trkpt>
      <trkpt lat="44.085680041462183" lon="3.275330001488328">
        <time>2014-06-06T21:43:55Z</time>
      </trkpt>
      <trkpt lat="44.085917249321938" lon="3.275617500767112">
        <time>2014-06-06T21:44:01Z</time>
      </trkpt>
      <trkpt lat="44.086010036990047" lon="3.275729985907674">
        <time>2014-06-06T21:44:03Z</time>
      </trkpt>
      <trkpt lat="44.086237102746964" lon="3.276032824069262">
        <time>2014-06-06T21:44:09Z</time>
      </trkpt>
      <trkpt lat="44.086464252322912" lon="3.276335662230849">
        <time>2014-06-06T21:44:15Z</time>
      </trkpt>
      <trkpt lat="44.086549999192357" lon="3.276449991390109">
        <time>2014-06-06T21:44:17Z</time>
      </trkpt>
      <trkpt lat="44.086670028045774" lon="3.276549987494946">
        <time>2014-06-06T21:44:20Z</time>
      </trkpt>
      <trkpt lat="44.086789973080158" lon="3.276589969173074">
        <time>2014-06-06T21:44:22Z</time>
      </trkpt>
      <trkpt lat="44.086870020255446" lon="3.27655996195972">
        <time>2014-06-06T21:44:24Z</time>
      </trkpt>
      <trkpt lat="44.086989965289831" lon="3.276449991390109">
        <time>2014-06-06T21:44:27Z</time>
      </trkpt>
      <trkpt lat="44.087149975821376" lon="3.27612997032702">
        <time>2014-06-06T21:44:32Z</time>
      </trkpt>
      <trkpt lat="44.087280901148915" lon="3.275732500478625">
        <time>2014-06-06T21:44:38Z</time>
      </trkpt>
      <trkpt lat="44.087411742657423" lon="3.275335030630231">
        <time>2014-06-06T21:44:44Z</time>
      </trkpt>
      <trkpt lat="44.087420040741563" lon="3.275309968739748">
        <time>2014-06-06T21:44:44Z</time>
      </trkpt>
      <trkpt lat="44.087493298575282" lon="3.274885006248951">
        <time>2014-06-06T21:44:50Z</time>
      </trkpt>
      <trkpt lat="44.087520036846399" lon="3.274730024859309">
        <time>2014-06-06T21:44:52Z</time>
      </trkpt>
      <trkpt lat="44.087548535317183" lon="3.274294752627611">
        <time>2014-06-06T21:44:58Z</time>
      </trkpt>
      <trkpt lat="44.087560018524528" lon="3.274119989946485">
        <time>2014-06-06T21:45:00Z</time>
      </trkpt>
      <trkpt lat="44.087537471204996" lon="3.273684130981565">
        <time>2014-06-06T21:45:06Z</time>
      </trkpt>
      <trkpt lat="44.087530011311173" lon="3.273539962247014">
        <time>2014-06-06T21:45:08Z</time>
      </trkpt>
      <trkpt lat="44.087478965520859" lon="3.273108713328838">
        <time>2014-06-06T21:45:14Z</time>
      </trkpt>
      <trkpt lat="44.087428003549576" lon="3.272677464410663">
        <time>2014-06-06T21:45:20Z</time>
      </trkpt>
      <trkpt lat="44.087376957759261" lon="3.272246215492487">
        <time>2014-06-06T21:45:26Z</time>
      </trkpt>
      <trkpt lat="44.087325995787978" lon="3.271814966574311">
        <time>2014-06-06T21:45:32Z</time>
      </trkpt>
      <trkpt lat="44.087309986352921" lon="3.27168001793325">
        <time>2014-06-06T21:45:34Z</time>
      </trkpt>
      <trkpt lat="44.087268495932221" lon="3.271246841177344">
        <time>2014-06-06T21:45:40Z</time>
      </trkpt>
      <trkpt lat="44.087239997461438" lon="3.27095003798604">
        <time>2014-06-06T21:45:44Z</time>
      </trkpt>
      <trkpt lat="44.087275704368949" lon="3.270515771582723">
        <time>2014-06-06T21:45:50Z</time>
      </trkpt>
      <trkpt lat="44.087300011888146" lon="3.270219974219799">
        <time>2014-06-06T21:45:54Z</time>
      </trkpt>
      <trkpt lat="44.087354829534888" lon="3.269789647310972">
        <time>2014-06-06T21:46:00Z</time>
      </trkpt>
      <trkpt lat="44.087409731000662" lon="3.269359320402145">
        <time>2014-06-06T21:46:06Z</time>
      </trkpt>
      <trkpt lat="44.087430015206337" lon="3.269199980422854">
        <time>2014-06-06T21:46:08Z</time>
      </trkpt>
      <trkpt lat="44.087562197819352" lon="3.268803348764777">
        <time>2014-06-06T21:46:14Z</time>
      </trkpt>
      <trkpt lat="44.08765004016459" lon="3.268539989367127">
        <time>2014-06-06T21:46:18Z</time>
      </trkpt>
      <trkpt lat="44.087801417335868" lon="3.268156768754125">
        <time>2014-06-06T21:46:24Z</time>
      </trkpt>
      <trkpt lat="44.087952794507146" lon="3.267773548141122">
        <time>2014-06-06T21:46:30Z</time>
      </trkpt>
      <trkpt lat="44.087969977408648" lon="3.26772996224463">
        <time>2014-06-06T21:46:31Z</time>
      </trkpt>
      <trkpt lat="44.088145829737186" lon="3.267367361113429">
        <time>2014-06-06T21:46:37Z</time>
      </trkpt>
      <trkpt lat="44.088289998471737" lon="3.267069971188903">
        <time>2014-06-06T21:46:42Z</time>
      </trkpt>
      <trkpt lat="44.088491499423981" lon="3.266734108328819">
        <time>2014-06-06T21:46:48Z</time>
      </trkpt>
      <trkpt lat="44.088693084195256" lon="3.266398245468736">
        <time>2014-06-06T21:46:54Z</time>
      </trkpt>
      <trkpt lat="44.088710015639663" lon="3.266369998455048">
        <time>2014-06-06T21:46:55Z</time>
      </trkpt>
      <trkpt lat="44.088944541290402" lon="3.266078224405646">
        <time>2014-06-06T21:47:01Z</time>
      </trkpt>
      <trkpt lat="44.089119974523783" lon="3.265859959647059">
        <time>2014-06-06T21:47:05Z</time>
      </trkpt>
      <trkpt lat="44.089373527094722" lon="3.265600623562932">
        <time>2014-06-06T21:47:11Z</time>
      </trkpt>
      <trkpt lat="44.089627079665661" lon="3.265341287478805">
        <time>2014-06-06T21:47:17Z</time>
      </trkpt>
      <trkpt lat="44.089880548417568" lon="3.265081867575645">
        <time>2014-06-06T21:47:23Z</time>
      </trkpt>
      <trkpt lat="44.090134100988507" lon="3.264822531491518">
        <time>2014-06-06T21:47:29Z</time>
      </trkpt>
      <trkpt lat="44.090387569740415" lon="3.264563111588359">
        <time>2014-06-06T21:47:35Z</time>
      </trkpt>
      <trkpt lat="44.090420007705688" lon="3.264530003070831">
        <time>2014-06-06T21:47:36Z</time>
      </trkpt>
      <trkpt lat="44.09066584892571" lon="3.264256836846471">
        <time>2014-06-06T21:47:42Z</time>
      </trkpt>
      <trkpt lat="44.090689988806844" lon="3.264230014756322">
        <time>2014-06-06T21:47:43Z</time>
      </trkpt>
      <trkpt lat="44.09090917557478" lon="3.263916112482548">
        <time>2014-06-06T21:47:49Z</time>
      </trkpt>
      <trkpt lat="44.091128446161747" lon="3.263602294027805">
        <time>2014-06-06T21:47:55Z</time>
      </trkpt>
      <trkpt lat="44.09113003872335" lon="3.263600030913949">
        <time>2014-06-06T21:47:55Z</time>
      </trkpt>
      <trkpt lat="44.091400858014822" lon="3.263376904651523">
        <time>2014-06-06T21:48:01Z</time>
      </trkpt>
      <trkpt lat="44.091470008715987" lon="3.263319991528988">
        <time>2014-06-06T21:48:03Z</time>
      </trkpt>
      <trkpt lat="44.09164996817708" lon="3.263099966570735">
        <time>2014-06-06T21:48:08Z</time>
      </trkpt>
      <trkpt lat="44.091856330633163" lon="3.262769803404808">
        <time>2014-06-06T21:48:14Z</time>
      </trkpt>
      <trkpt lat="44.091900000348687" lon="3.262699982151389">
        <time>2014-06-06T21:48:15Z</time>
      </trkpt>
      <trkpt lat="44.092150703072548" lon="3.262435365468264">
        <time>2014-06-06T21:48:21Z</time>
      </trkpt>
      <trkpt lat="44.092401405796409" lon="3.262170748785138">
        <time>2014-06-06T21:48:27Z</time>
      </trkpt>
      <trkpt lat="44.092620005831122" lon="3.261939994990826">
        <time>2014-06-06T21:48:32Z</time>
      </trkpt>
      <trkpt lat="44.092875570058823" lon="3.261684430763125">
        <time>2014-06-06T21:48:38Z</time>
      </trkpt>
      <trkpt lat="44.093049997463822" lon="3.261510003358126">
        <time>2014-06-06T21:48:42Z</time>
      </trkpt>
      <trkpt lat="44.093170026317239" lon="3.261419981718063">
        <time>2014-06-06T21:48:45Z</time>
      </trkpt>
      <trkpt lat="44.093340011313558" lon="3.261370025575161">
        <time>2014-06-06T21:48:48Z</time>
      </trkpt>
      <trkpt lat="44.093460040166974" lon="3.261370025575161">
        <time>2014-06-06T21:48:50Z</time>
      </trkpt>
      <trkpt lat="44.093749970197678" lon="3.261489970609546">
        <time>2014-06-06T21:48:56Z</time>
      </trkpt>
      <trkpt lat="44.093969995155931" lon="3.26167001388967">
        <time>2014-06-06T21:49:01Z</time>
      </trkpt>
      <trkpt lat="44.094209969043732" lon="3.261919962242246">
        <time>2014-06-06T21:49:07Z</time>
      </trkpt>
      <trkpt lat="44.094339972361922" lon="3.262109979987145">
        <time>2014-06-06T21:49:11Z</time>
      </trkpt>
      <trkpt lat="44.09442001953721" lon="3.262299997732043">
        <time>2014-06-06T21:49:14Z</time>
      </trkpt>
      <trkpt lat="44.094534683972597" lon="3.262707022950053">
        <time>2014-06-06T21:49:20Z</time>
      </trkpt>
      <trkpt lat="44.094649432227015" lon="3.263114131987095">
        <time>2014-06-06T21:49:26Z</time>
      </trkpt>
      <trkpt lat="44.094729982316494" lon="3.263400038704276">
        <time>2014-06-06T21:49:30Z</time>
      </trkpt>
      <trkpt lat="44.094799719750881" lon="3.263826258480549">
        <time>2014-06-06T21:49:36Z</time>
      </trkpt>
      <trkpt lat="44.094869457185268" lon="3.264252478256822">
        <time>2014-06-06T21:49:42Z</time>
      </trkpt>
      <trkpt lat="44.094939278438687" lon="3.264678698033094">
        <time>2014-06-06T21:49:48Z</time>
      </trkpt>
      <trkpt lat="44.095009015873075" lon="3.265104917809367">
        <time>2014-06-06T21:49:54Z</time>
      </trkpt>
      <trkpt lat="44.095078753307462" lon="3.26553113758564">
        <time>2014-06-06T21:50:00Z</time>
      </trkpt>
      <trkpt lat="44.095089985057712" lon="3.26560003682971">
        <time>2014-06-06T21:50:01Z</time>
      </trkpt>
      <trkpt lat="44.095185706391931" lon="3.26601636596024">
        <time>2014-06-06T21:50:07Z</time>
      </trkpt>
      <trkpt lat="44.09528142772615" lon="3.266432778909802">
        <time>2014-06-06T21:50:13Z</time>
      </trkpt>
      <trkpt lat="44.095289977267385" lon="3.266469994559884">
        <time>2014-06-06T21:50:14Z</time>
      </trkpt>
      <trkpt lat="44.09534202888608" lon="3.266901075839996">
        <time>2014-06-06T21:50:20Z</time>
      </trkpt>
      <trkpt lat="44.095359966158867" lon="3.267050022259355">
        <time>2014-06-06T21:50:22Z</time>
      </trkpt>
      <trkpt lat="44.095389051362872" lon="3.267485210672021">
        <time>2014-06-06T21:50:28Z</time>
      </trkpt>
      <trkpt lat="44.095389973372221" lon="3.267499962821603">
        <time>2014-06-06T21:50:28Z</time>
      </trkpt>
      <trkpt lat="44.095456441864371" lon="3.267927272245288">
        <time>2014-06-06T21:50:34Z</time>
      </trkpt>
      <trkpt lat="44.095459962263703" lon="3.267949987202883">
        <time>2014-06-06T21:50:34Z</time>
      </trkpt>
      <trkpt lat="44.095549983903766" lon="3.268219968304038">
        <time>2014-06-06T21:50:38Z</time>
      </trkpt>
      <trkpt lat="44.095760704949498" lon="3.268544850870967">
        <time>2014-06-06T21:50:44Z</time>
      </trkpt>
      <trkpt lat="44.095790041610599" lon="3.268590029329062">
        <time>2014-06-06T21:50:45Z</time>
      </trkpt>
      <trkpt lat="44.095949968323112" lon="3.268790021538734">
        <time>2014-06-06T21:50:49Z</time>
      </trkpt>
      <trkpt lat="44.09616001881659" lon="3.268950032070279">
        <time>2014-06-06T21:50:54Z</time>
      </trkpt>
      <trkpt lat="44.09645464271307" lon="3.269104678183794">
        <time>2014-06-06T21:51:00Z</time>
      </trkpt>
      <trkpt lat="44.096560003235936" lon="3.269159998744726">
        <time>2014-06-06T21:51:02Z</time>
      </trkpt>
      <trkpt lat="44.096820009872317" lon="3.269259994849563">
        <time>2014-06-06T21:51:07Z</time>
      </trkpt>
      <trkpt lat="44.096980020403862" lon="3.269299976527691">
        <time>2014-06-06T21:51:10Z</time>
      </trkpt>
      <trkpt lat="44.097150005400181" lon="3.269290002062917">
        <time>2014-06-06T21:51:13Z</time>
      </trkpt>
      <trkpt lat="44.097229968756437" lon="3.269269969314337">
        <time>2014-06-06T21:51:15Z</time>
      </trkpt>
      <trkpt lat="44.097440019249916" lon="3.269159998744726">
        <time>2014-06-06T21:51:19Z</time>
      </trkpt>
      <trkpt lat="44.097731290385127" lon="3.268993534147739">
        <time>2014-06-06T21:51:25Z</time>
      </trkpt>
      <trkpt lat="44.098022561520338" lon="3.268827153369784">
        <time>2014-06-06T21:51:31Z</time>
      </trkpt>
      <trkpt lat="44.098209980875254" lon="3.268720032647252">
        <time>2014-06-06T21:51:35Z</time>
      </trkpt>
      <trkpt lat="44.098339984193444" lon="3.268600003793836">
        <time>2014-06-06T21:51:38Z</time>
      </trkpt>
      <trkpt lat="44.098560009151697" lon="3.268349971622229">
        <time>2014-06-06T21:51:43Z</time>
      </trkpt>
      <trkpt lat="44.09873996861279" lon="3.268040008842945">
        <time>2014-06-06T21:51:48Z</time>
      </trkpt>
      <trkpt lat="44.098924957215786" lon="3.267686124891043">
        <time>2014-06-06T21:51:54Z</time>
      </trkpt>
      <trkpt lat="44.09910986199975" lon="3.267332324758172">
        <time>2014-06-06T21:52:00Z</time>
      </trkpt>
      <trkpt lat="44.099294766783714" lon="3.26697844080627">
        <time>2014-06-06T21:52:06Z</time>
      </trkpt>
      <trkpt lat="44.099479671567678" lon="3.266624556854367">
        <time>2014-06-06T21:52:12Z</time>
      </trkpt>
      <trkpt lat="44.099549995735288" lon="3.266490027308464">
        <time>2014-06-06T21:52:14Z</time>
      </trkpt>
      <trkpt lat="44.099674299359322" lon="3.266088366508484">
        <time>2014-06-06T21:52:20Z</time>
      </trkpt>
      <trkpt lat="44.099679999053478" lon="3.266070010140538">
        <time>2014-06-06T21:52:20Z</time>
      </trkpt>
      <trkpt lat="44.099777732044458" lon="3.265654519200325">
        <time>2014-06-06T21:52:26Z</time>
      </trkpt>
      <trkpt lat="44.099800027906895" lon="3.26555997133255">
        <time>2014-06-06T21:52:27Z</time>
      </trkpt>
      <trkpt lat="44.099881248548627" lon="3.265137691050768">
        <time>2014-06-06T21:52:33Z</time>
      </trkpt>
      <trkpt lat="44.099962469190359" lon="3.264715326949954">
        <time>2014-06-06T21:52:39Z</time>
      </trkpt>
      <trkpt lat="44.100043689832091" lon="3.264293046668172">
        <time>2014-06-06T21:52:45Z</time>
      </trkpt>
      <trkpt lat="44.10004997625947" lon="3.264260021969676">
        <time>2014-06-06T21:52:45Z</time>
      </trkpt>
      <trkpt lat="44.100153241306543" lon="3.263847045600414">
        <time>2014-06-06T21:52:51Z</time>
      </trkpt>
      <trkpt lat="44.100170005112886" lon="3.263779990375042">
        <time>2014-06-06T21:52:52Z</time>
      </trkpt>
      <trkpt lat="44.100320292636752" lon="3.26339584775269">
        <time>2014-06-06T21:52:58Z</time>
      </trkpt>
      <trkpt lat="44.100349964573979" lon="3.263319991528988">
        <time>2014-06-06T21:52:59Z</time>
      </trkpt>
      <trkpt lat="44.100524643436074" lon="3.262956216931343">
        <time>2014-06-06T21:53:05Z</time>
      </trkpt>
      <trkpt lat="44.100699238479137" lon="3.262592442333698">
        <time>2014-06-06T21:53:11Z</time>
      </trkpt>
      <trkpt lat="44.100709967315197" lon="3.262569978833199">
        <time>2014-06-06T21:53:11Z</time>
      </trkpt>
      <trkpt lat="44.100890010595322" lon="3.262350037693977">
        <time>2014-06-06T21:53:16Z</time>
      </trkpt>
      <trkpt lat="44.101162925362587" lon="3.262131689116359">
        <time>2014-06-06T21:53:22Z</time>
      </trkpt>
      <trkpt lat="44.101340034976602" lon="3.26199003495276">
        <time>2014-06-06T21:53:26Z</time>
      </trkpt>
      <trkpt lat="44.10151001997292" lon="3.261890038847923">
        <time>2014-06-06T21:53:30Z</time>
      </trkpt>
      <trkpt lat="44.101680004969239" lon="3.261819966137409">
        <time>2014-06-06T21:53:33Z</time>
      </trkpt>
      <trkpt lat="44.101900029927492" lon="3.261760035529733">
        <time>2014-06-06T21:53:37Z</time>
      </trkpt>
      <trkpt lat="44.102160036563873" lon="3.261719970032573">
        <time>2014-06-06T21:53:42Z</time>
      </trkpt>
      <trkpt lat="44.102474944666028" lon="3.261710163205862">
        <time>2014-06-06T21:53:48Z</time>
      </trkpt>
      <trkpt lat="44.102479973807931" lon="3.261709995567799">
        <time>2014-06-06T21:53:48Z</time>
      </trkpt>
      <trkpt lat="44.102794630452991" lon="3.261730531230569">
        <time>2014-06-06T21:53:54Z</time>
      </trkpt>
      <trkpt lat="44.102939972653985" lon="3.261740002781153">
        <time>2014-06-06T21:53:57Z</time>
      </trkpt>
      <trkpt lat="44.103251276537776" lon="3.261807141825557">
        <time>2014-06-06T21:54:03Z</time>
      </trkpt>
      <trkpt lat="44.103450011461973" lon="3.261849973350763">
        <time>2014-06-06T21:54:07Z</time>
      </trkpt>
      <trkpt lat="44.103755196556449" lon="3.261958099901676">
        <time>2014-06-06T21:54:13Z</time>
      </trkpt>
      <trkpt lat="44.103929959237576" lon="3.262019958347082">
        <time>2014-06-06T21:54:16Z</time>
      </trkpt>
      <trkpt lat="44.104119976982474" lon="3.262130012735724">
        <time>2014-06-06T21:54:20Z</time>
      </trkpt>
      <trkpt lat="44.104309994727373" lon="3.262299997732043">
        <time>2014-06-06T21:54:24Z</time>
      </trkpt>
      <trkpt lat="44.104540413245559" lon="3.262598142027855">
        <time>2014-06-06T21:54:30Z</time>
      </trkpt>
      <trkpt lat="44.104770747944713" lon="3.262896286323667">
        <time>2014-06-06T21:54:36Z</time>
      </trkpt>
      <trkpt lat="44.10499001853168" lon="3.263180013746023">
        <time>2014-06-06T21:54:42Z</time>
      </trkpt>
      <trkpt lat="44.105080040171742" lon="3.263250002637506">
        <time>2014-06-06T21:54:44Z</time>
      </trkpt>
      <trkpt lat="44.105250025168061" lon="3.26328000985086">
        <time>2014-06-06T21:54:47Z</time>
      </trkpt>
      <trkpt lat="44.105350021272898" lon="3.263250002637506">
        <time>2014-06-06T21:54:49Z</time>
      </trkpt>
      <trkpt lat="44.105450017377734" lon="3.263180013746023">
        <time>2014-06-06T21:54:51Z</time>
      </trkpt>
      <trkpt lat="44.105665432289243" lon="3.262861082330346">
        <time>2014-06-06T21:54:57Z</time>
      </trkpt>
      <trkpt lat="44.105699965730309" lon="3.262810036540031">
        <time>2014-06-06T21:54:58Z</time>
      </trkpt>
      <trkpt lat="44.105929043143988" lon="3.262509880587459">
        <time>2014-06-06T21:55:04Z</time>
      </trkpt>
      <trkpt lat="44.105989979580045" lon="3.262430001050234">
        <time>2014-06-06T21:55:06Z</time>
      </trkpt>
      <trkpt lat="44.106110008433461" lon="3.262239983305335">
        <time>2014-06-06T21:55:09Z</time>
      </trkpt>
      <trkpt lat="44.106230037286878" lon="3.261930020526052">
        <time>2014-06-06T21:55:14Z</time>
      </trkpt>
      <trkpt lat="44.106389963999391" lon="3.261589966714382">
        <time>2014-06-06T21:55:20Z</time>
      </trkpt>
      <trkpt lat="44.106530025601387" lon="3.261359967291355">
        <time>2014-06-06T21:55:24Z</time>
      </trkpt>
      <trkpt lat="44.106694897636771" lon="3.260987475514412">
        <time>2014-06-06T21:55:30Z</time>
      </trkpt>
      <trkpt lat="44.106800006702542" lon="3.260750016197562">
        <time>2014-06-06T21:55:34Z</time>
      </trkpt>
      <trkpt lat="44.106999160721898" lon="3.260411387309432">
        <time>2014-06-06T21:55:40Z</time>
      </trkpt>
      <trkpt lat="44.107099995017052" lon="3.260239977389574">
        <time>2014-06-06T21:55:43Z</time>
      </trkpt>
      <trkpt lat="44.107275595888495" lon="3.259877040982246">
        <time>2014-06-06T21:55:49Z</time>
      </trkpt>
      <trkpt lat="44.107399983331561" lon="3.259619968011975">
        <time>2014-06-06T21:55:53Z</time>
      </trkpt>
      <trkpt lat="44.10759000107646" lon="3.259300030767918">
        <time>2014-06-06T21:55:59Z</time>
      </trkpt>
      <trkpt lat="44.107789993286133" lon="3.259010016918182">
        <time>2014-06-06T21:56:05Z</time>
      </trkpt>
      <trkpt lat="44.108029967173934" lon="3.258759984746575">
        <time>2014-06-06T21:56:11Z</time>
      </trkpt>
      <trkpt lat="44.108229959383607" lon="3.258610032498837">
        <time>2014-06-06T21:56:15Z</time>
      </trkpt>
      <trkpt lat="44.108523409813643" lon="3.258450860157609">
        <time>2014-06-06T21:56:21Z</time>
      </trkpt>
      <trkpt lat="44.108816776424646" lon="3.258291771635413">
        <time>2014-06-06T21:56:27Z</time>
      </trkpt>
      <trkpt lat="44.108819961547852" lon="3.258290011435747">
        <time>2014-06-06T21:56:27Z</time>
      </trkpt>
      <trkpt lat="44.109121961519122" lon="3.258165623992682">
        <time>2014-06-06T21:56:33Z</time>
      </trkpt>
      <trkpt lat="44.109160015359521" lon="3.258150033652782">
        <time>2014-06-06T21:56:34Z</time>
      </trkpt>
      <trkpt lat="44.109465954825282" lon="3.258046098053455">
        <time>2014-06-06T21:56:40Z</time>
      </trkpt>
      <trkpt lat="44.109690003097057" lon="3.257969990372658">
        <time>2014-06-06T21:56:44Z</time>
      </trkpt>
      <trkpt lat="44.109987979754806" lon="3.257828336209059">
        <time>2014-06-06T21:56:50Z</time>
      </trkpt>
      <trkpt lat="44.110285956412554" lon="3.25768668204546">
        <time>2014-06-06T21:56:56Z</time>
      </trkpt>
      <trkpt lat="44.110300038009882" lon="3.257679976522923">
        <time>2014-06-06T21:56:56Z</time>
      </trkpt>
      <trkpt lat="44.110530037432909" lon="3.257549973204732">
        <time>2014-06-06T21:57:01Z</time>
      </trkpt>
      <trkpt lat="44.1106600407511" lon="3.257430028170347">
        <time>2014-06-06T21:57:04Z</time>
      </trkpt>
      <trkpt lat="44.110860032960773" lon="3.257130039855838">
        <time>2014-06-06T21:57:10Z</time>
      </trkpt>
      <trkpt lat="44.110939996317029" lon="3.256940022110939">
        <time>2014-06-06T21:57:13Z</time>
      </trkpt>
      <trkpt lat="44.111019959673285" lon="3.256569961085916">
        <time>2014-06-06T21:57:18Z</time>
      </trkpt>
      <trkpt lat="44.11106999963522" lon="3.256199983879924">
        <time>2014-06-06T21:57:23Z</time>
      </trkpt>
      <trkpt lat="44.111102018505335" lon="3.255765046924353">
        <time>2014-06-06T21:57:29Z</time>
      </trkpt>
      <trkpt lat="44.111120039597154" lon="3.255519960075617">
        <time>2014-06-06T21:57:32Z</time>
      </trkpt>
      <trkpt lat="44.111169995740056" lon="3.255170015618205">
        <time>2014-06-06T21:57:37Z</time>
      </trkpt>
      <trkpt lat="44.111279966309667" lon="3.254870027303696">
        <time>2014-06-06T21:57:42Z</time>
      </trkpt>
      <trkpt lat="44.111478617414832" lon="3.25453064404428">
        <time>2014-06-06T21:57:48Z</time>
      </trkpt>
      <trkpt lat="44.111677268519998" lon="3.254191344603896">
        <time>2014-06-06T21:57:54Z</time>
      </trkpt>
      <trkpt lat="44.111759997904301" lon="3.254050025716424">
        <time>2014-06-06T21:57:56Z</time>
      </trkpt>
      <trkpt lat="44.111890001222491" lon="3.253690022975206">
        <time>2014-06-06T21:58:02Z</time>
      </trkpt>
      <trkpt lat="44.111959990113974" lon="3.253319961950183">
        <time>2014-06-06T21:58:07Z</time>
      </trkpt>
      <trkpt lat="44.111999971792102" lon="3.252919977530837">
        <time>2014-06-06T21:58:13Z</time>
      </trkpt>
      <trkpt lat="44.111999971792102" lon="3.252640021964908">
        <time>2014-06-06T21:58:17Z</time>
      </trkpt>
      <trkpt lat="44.111969964578748" lon="3.252489985898137">
        <time>2014-06-06T21:58:19Z</time>
      </trkpt>
      <trkpt lat="44.111910033971071" lon="3.252359982579947">
        <time>2014-06-06T21:58:21Z</time>
      </trkpt>
      <trkpt lat="44.111689757555723" lon="3.25204742141068">
        <time>2014-06-06T21:58:27Z</time>
      </trkpt>
      <trkpt lat="44.111599987372756" lon="3.251920016482472">
        <time>2014-06-06T21:58:29Z</time>
      </trkpt>
      <trkpt lat="44.111439976841211" lon="3.251630002632737">
        <time>2014-06-06T21:58:34Z</time>
      </trkpt>
      <trkpt lat="44.111369987949729" lon="3.25142003595829">
        <time>2014-06-06T21:58:37Z</time>
      </trkpt>
      <trkpt lat="44.111360013484955" lon="3.251320039853454">
        <time>2014-06-06T21:58:38Z</time>
      </trkpt>
      <trkpt lat="44.111390020698309" lon="3.251230018213391">
        <time>2014-06-06T21:58:39Z</time>
      </trkpt>
      <trkpt lat="44.111621109768748" lon="3.25093287974596">
        <time>2014-06-06T21:58:45Z</time>
      </trkpt>
      <trkpt lat="44.111739965155721" lon="3.250779993832111">
        <time>2014-06-06T21:58:48Z</time>
      </trkpt>
      <trkpt lat="44.111799979582429" lon="3.250580001622438">
        <time>2014-06-06T21:58:51Z</time>
      </trkpt>
      <trkpt lat="44.111839961260557" lon="3.250289987772703">
        <time>2014-06-06T21:58:55Z</time>
      </trkpt>
      <trkpt lat="44.11192998290062" lon="3.250020006671548">
        <time>2014-06-06T21:58:59Z</time>
      </trkpt>
      <trkpt lat="44.112010030075908" lon="3.249910036101937">
        <time>2014-06-06T21:59:01Z</time>
      </trkpt>
      <trkpt lat="44.112120000645518" lon="3.249810039997101">
        <time>2014-06-06T21:59:04Z</time>
      </trkpt>
      <trkpt lat="44.112359974533319" lon="3.249699985608459">
        <time>2014-06-06T21:59:09Z</time>
      </trkpt>
      <trkpt lat="44.112674044445157" lon="3.249666625633836">
        <time>2014-06-06T21:59:15Z</time>
      </trkpt>
      <trkpt lat="44.112830031663179" lon="3.249650029465556">
        <time>2014-06-06T21:59:18Z</time>
      </trkpt>
      <trkpt lat="44.113144939765334" lon="3.249643323943019">
        <time>2014-06-06T21:59:24Z</time>
      </trkpt>
      <trkpt lat="44.113459931686521" lon="3.249636618420482">
        <time>2014-06-06T21:59:30Z</time>
      </trkpt>
      <trkpt lat="44.113774839788675" lon="3.249629912897945">
        <time>2014-06-06T21:59:36Z</time>
      </trkpt>
      <trkpt lat="44.114089831709862" lon="3.249623207375407">
        <time>2014-06-06T21:59:42Z</time>
      </trkpt>
      <trkpt lat="44.114240035414696" lon="3.249620022252202">
        <time>2014-06-06T21:59:45Z</time>
      </trkpt>
      <trkpt lat="44.114489983767271" lon="3.249599989503622">
        <time>2014-06-06T21:59:50Z</time>
      </trkpt>
      <trkpt lat="44.114740015938878" lon="3.249499993398786">
        <time>2014-06-06T21:59:55Z</time>
      </trkpt>
      <trkpt lat="44.114840012043715" lon="3.249409971758723">
        <time>2014-06-06T21:59:57Z</time>
      </trkpt>
      <trkpt lat="44.115068167448044" lon="3.249108558520675">
        <time>2014-06-06T22:00:03Z</time>
      </trkpt>
      <trkpt lat="44.115119967609644" lon="3.249039994552732">
        <time>2014-06-06T22:00:04Z</time>
      </trkpt>
      <trkpt lat="44.115319959819317" lon="3.248730031773448">
        <time>2014-06-06T22:00:10Z</time>
      </trkpt>
      <trkpt lat="44.115546103566885" lon="3.248425601050258">
        <time>2014-06-06T22:00:16Z</time>
      </trkpt>
      <trkpt lat="44.115579966455698" lon="3.248380003497005">
        <time>2014-06-06T22:00:17Z</time>
      </trkpt>
      <trkpt lat="44.115814575925469" lon="3.248088145628572">
        <time>2014-06-06T22:00:23Z</time>
      </trkpt>
      <trkpt lat="44.116049101576209" lon="3.247796287760139">
        <time>2014-06-06T22:00:29Z</time>
      </trkpt>
      <trkpt lat="44.116283627226949" lon="3.247504429891706">
        <time>2014-06-06T22:00:35Z</time>
      </trkpt>
      <trkpt lat="44.116480015218258" lon="3.247260013595223">
        <time>2014-06-06T22:00:40Z</time>
      </trkpt>
      <trkpt lat="44.116729544475675" lon="3.246993217617273">
        <time>2014-06-06T22:00:46Z</time>
      </trkpt>
      <trkpt lat="44.116770029067993" lon="3.246949966996908">
        <time>2014-06-06T22:00:47Z</time>
      </trkpt>
      <trkpt lat="44.117037327960134" lon="3.246718794107437">
        <time>2014-06-06T22:00:53Z</time>
      </trkpt>
      <trkpt lat="44.117140006273985" lon="3.246630029752851">
        <time>2014-06-06T22:00:55Z</time>
      </trkpt>
      <trkpt lat="44.117418536916375" lon="3.24642576277256">
        <time>2014-06-06T22:01:01Z</time>
      </trkpt>
      <trkpt lat="44.117439994588494" lon="3.246410004794598">
        <time>2014-06-06T22:01:01Z</time>
      </trkpt>
      <trkpt lat="44.117649961262941" lon="3.246289975941181">
        <time>2014-06-06T22:01:05Z</time>
      </trkpt>
      <trkpt lat="44.117958163842559" lon="3.246199367567897">
        <time>2014-06-06T22:01:11Z</time>
      </trkpt>
      <trkpt lat="44.117990015074611" lon="3.246189979836345">
        <time>2014-06-06T22:01:12Z</time>
      </trkpt>
      <trkpt lat="44.118303079158068" lon="3.246141532436013">
        <time>2014-06-06T22:01:18Z</time>
      </trkpt>
      <trkpt lat="44.118616059422493" lon="3.24609300121665">
        <time>2014-06-06T22:01:24Z</time>
      </trkpt>
      <trkpt lat="44.11869996227324" lon="3.246080009266734">
        <time>2014-06-06T22:01:26Z</time>
      </trkpt>
      <trkpt lat="44.119005231186748" lon="3.245971882715821">
        <time>2014-06-06T22:01:32Z</time>
      </trkpt>
      <trkpt lat="44.119179993867874" lon="3.245910024270415">
        <time>2014-06-06T22:01:35Z</time>
      </trkpt>
      <trkpt lat="44.119360037147999" lon="3.245810028165579">
        <time>2014-06-06T22:01:39Z</time>
      </trkpt>
      <trkpt lat="44.119479982182384" lon="3.245699973776937">
        <time>2014-06-06T22:01:42Z</time>
      </trkpt>
      <trkpt lat="44.119609985500574" lon="3.245499981567264">
        <time>2014-06-06T22:01:46Z</time>
      </trkpt>
      <trkpt lat="44.119749963283539" lon="3.245120029896498">
        <time>2014-06-06T22:01:52Z</time>
      </trkpt>
      <trkpt lat="44.119866136461496" lon="3.244713507592678">
        <time>2014-06-06T22:01:58Z</time>
      </trkpt>
      <trkpt lat="44.119909973815084" lon="3.244560034945607">
        <time>2014-06-06T22:02:00Z</time>
      </trkpt>
      <trkpt lat="44.119979962706566" lon="3.244230039417744">
        <time>2014-06-06T22:02:05Z</time>
      </trkpt>
      <trkpt lat="44.119990020990372" lon="3.243829971179366">
        <time>2014-06-06T22:02:10Z</time>
      </trkpt>
      <trkpt lat="44.119928749278188" lon="3.243401069194078">
        <time>2014-06-06T22:02:16Z</time>
      </trkpt>
      <trkpt lat="44.119879966601729" lon="3.243060009554029">
        <time>2014-06-06T22:02:21Z</time>
      </trkpt>
      <trkpt lat="44.119781479239464" lon="3.242644686251879">
        <time>2014-06-06T22:02:27Z</time>
      </trkpt>
      <trkpt lat="44.119739988818765" lon="3.242470007389784">
        <time>2014-06-06T22:02:30Z</time>
      </trkpt>
      <trkpt lat="44.119591126218438" lon="3.242084691300988">
        <time>2014-06-06T22:02:36Z</time>
      </trkpt>
      <trkpt lat="44.119570003822446" lon="3.24203004129231">
        <time>2014-06-06T22:02:37Z</time>
      </trkpt>
      <trkpt lat="44.119378309696913" lon="3.241683030501008">
        <time>2014-06-06T22:02:43Z</time>
      </trkpt>
      <trkpt lat="44.119360037147999" lon="3.241650005802512">
        <time>2014-06-06T22:02:44Z</time>
      </trkpt>
      <trkpt lat="44.119139844551682" lon="3.241337276995182">
        <time>2014-06-06T22:02:50Z</time>
      </trkpt>
      <trkpt lat="44.118919651955366" lon="3.241024548187852">
        <time>2014-06-06T22:02:56Z</time>
      </trkpt>
      <trkpt lat="44.118699543178082" lon="3.240711819380522">
        <time>2014-06-06T22:03:02Z</time>
      </trkpt>
      <trkpt lat="44.118480021134019" lon="3.240400012582541">
        <time>2014-06-06T22:03:08Z</time>
      </trkpt>
      <trkpt lat="44.1183100361377" lon="3.240119973197579">
        <time>2014-06-06T22:03:13Z</time>
      </trkpt>
      <trkpt lat="44.11813996732235" lon="3.239759970456362">
        <time>2014-06-06T22:03:19Z</time>
      </trkpt>
      <trkpt lat="44.117995966225863" lon="3.239371133968234">
        <time>2014-06-06T22:03:25Z</time>
      </trkpt>
      <trkpt lat="44.117939975112677" lon="3.239220008254051">
        <time>2014-06-06T22:03:27Z</time>
      </trkpt>
      <trkpt lat="44.117920026183128" lon="3.238929994404316">
        <time>2014-06-06T22:03:31Z</time>
      </trkpt>
      <trkpt lat="44.117980040609837" lon="3.238609973341227">
        <time>2014-06-06T22:03:36Z</time>
      </trkpt>
      <trkpt lat="44.118099985644221" lon="3.238339992240071">
        <time>2014-06-06T22:03:40Z</time>
      </trkpt>
      <trkpt lat="44.118311796337366" lon="3.238016283139586">
        <time>2014-06-06T22:03:46Z</time>
      </trkpt>
      <trkpt lat="44.118523523211479" lon="3.237692657858133">
        <time>2014-06-06T22:03:52Z</time>
      </trkpt>
      <trkpt lat="44.118735250085592" lon="3.237368948757649">
        <time>2014-06-06T22:03:58Z</time>
      </trkpt>
      <trkpt lat="44.118799958378077" lon="3.237269958481193">
        <time>2014-06-06T22:04:00Z</time>
      </trkpt>
      <trkpt lat="44.118969356641173" lon="3.236901322379708">
        <time>2014-06-06T22:04:06Z</time>
      </trkpt>
      <trkpt lat="44.118970027193427" lon="3.236899981275201">
        <time>2014-06-06T22:04:06Z</time>
      </trkpt>
      <trkpt lat="44.119111681357026" lon="3.236509468406439">
        <time>2014-06-06T22:04:12Z</time>
      </trkpt>
      <trkpt lat="44.119253419339657" lon="3.236118955537677">
        <time>2014-06-06T22:04:18Z</time>
      </trkpt>
      <trkpt lat="44.119379986077547" lon="3.235770016908646">
        <time>2014-06-06T22:04:23Z</time>
      </trkpt>
      <trkpt lat="44.119449974969029" lon="3.235519984737039">
        <time>2014-06-06T22:04:27Z</time>
      </trkpt>
      <trkpt lat="44.119530525058508" lon="3.235097285360098">
        <time>2014-06-06T22:04:33Z</time>
      </trkpt>
      <trkpt lat="44.119609985500574" lon="3.234680034220219">
        <time>2014-06-06T22:04:39Z</time>
      </trkpt>
      <trkpt lat="44.119667150080204" lon="3.234249958768487">
        <time>2014-06-06T22:04:45Z</time>
      </trkpt>
      <trkpt lat="44.119724230840802" lon="3.233819967135787">
        <time>2014-06-06T22:04:51Z</time>
      </trkpt>
      <trkpt lat="44.119779970496893" lon="3.233400033786893">
        <time>2014-06-06T22:04:57Z</time>
      </trkpt>
      <trkpt lat="44.119864292442799" lon="3.23297867551446">
        <time>2014-06-06T22:05:03Z</time>
      </trkpt>
      <trkpt lat="44.119879966601729" lon="3.232899969443679">
        <time>2014-06-06T22:05:04Z</time>
      </trkpt>
      <trkpt lat="44.120004354044795" lon="3.232498224824667">
        <time>2014-06-06T22:05:10Z</time>
      </trkpt>
      <trkpt lat="44.12000996991992" lon="3.232480036094785">
        <time>2014-06-06T22:05:10Z</time>
      </trkpt>
      <trkpt lat="44.120139973238111" lon="3.23216998949647">
        <time>2014-06-06T22:05:15Z</time>
      </trkpt>
      <trkpt lat="44.120360417291522" lon="3.231857679784298">
        <time>2014-06-06T22:05:21Z</time>
      </trkpt>
      <trkpt lat="44.120380030944943" lon="3.231830019503832">
        <time>2014-06-06T22:05:22Z</time>
      </trkpt>
      <trkpt lat="44.120619837194681" lon="3.23154654353857">
        <time>2014-06-06T22:05:28Z</time>
      </trkpt>
      <trkpt lat="44.120819997042418" lon="3.23131000623107">
        <time>2014-06-06T22:05:33Z</time>
      </trkpt>
      <trkpt lat="44.120970033109188" lon="3.231149995699525">
        <time>2014-06-06T22:05:37Z</time>
      </trkpt>
      <trkpt lat="44.121219981461763" lon="3.230929970741272">
        <time>2014-06-06T22:05:43Z</time>
      </trkpt>
      <trkpt lat="44.121502451598644" lon="3.230736348778009">
        <time>2014-06-06T22:05:49Z</time>
      </trkpt>
      <trkpt lat="44.121570009738207" lon="3.230689996853471">
        <time>2014-06-06T22:05:50Z</time>
      </trkpt>
      <trkpt lat="44.121862202882767" lon="3.230526633560658">
        <time>2014-06-06T22:05:56Z</time>
      </trkpt>
      <trkpt lat="44.122154396027327" lon="3.230363270267844">
        <time>2014-06-06T22:06:02Z</time>
      </trkpt>
      <trkpt lat="44.122446589171886" lon="3.230199990794063">
        <time>2014-06-06T22:06:08Z</time>
      </trkpt>
      <trkpt lat="44.122738782316446" lon="3.230036627501249">
        <time>2014-06-06T22:06:14Z</time>
      </trkpt>
      <trkpt lat="44.122840035706758" lon="3.22997996583581">
        <time>2014-06-06T22:06:16Z</time>
      </trkpt>
      <trkpt lat="44.123124685138464" lon="3.229792881757021">
        <time>2014-06-06T22:06:22Z</time>
      </trkpt>
      <trkpt lat="44.123409418389201" lon="3.229605797678232">
        <time>2014-06-06T22:06:28Z</time>
      </trkpt>
      <trkpt lat="44.123540008440614" lon="3.229519966989756">
        <time>2014-06-06T22:06:31Z</time>
      </trkpt>
      <trkpt lat="44.123804625123739" lon="3.229282759130001">
        <time>2014-06-06T22:06:37Z</time>
      </trkpt>
      <trkpt lat="44.123830022290349" lon="3.229259960353375">
        <time>2014-06-06T22:06:38Z</time>
      </trkpt>
      <trkpt lat="44.12407879717648" lon="3.228991823270917">
        <time>2014-06-06T22:06:44Z</time>
      </trkpt>
      <trkpt lat="44.124327572062612" lon="3.228723602369428">
        <time>2014-06-06T22:06:50Z</time>
      </trkpt>
      <trkpt lat="44.124469980597496" lon="3.228569962084293">
        <time>2014-06-06T22:06:53Z</time>
      </trkpt>
      <trkpt lat="44.124709535390139" lon="3.228286067023873">
        <time>2014-06-06T22:06:59Z</time>
      </trkpt>
      <trkpt lat="44.124739961698651" lon="3.228250024840236">
        <time>2014-06-06T22:07:00Z</time>
      </trkpt>
      <trkpt lat="44.124889997765422" lon="3.227909971028566">
        <time>2014-06-06T22:07:05Z</time>
      </trkpt>
      <trkpt lat="44.125012038275599" lon="3.227506801486015">
        <time>2014-06-06T22:07:11Z</time>
      </trkpt>
      <trkpt lat="44.125119997188449" lon="3.227149983868003">
        <time>2014-06-06T22:07:16Z</time>
      </trkpt>
      <trkpt lat="44.125199960544705" lon="3.226749999448657">
        <time>2014-06-06T22:07:22Z</time>
      </trkpt>
      <trkpt lat="44.125210018828511" lon="3.226350015029311">
        <time>2014-06-06T22:07:27Z</time>
      </trkpt>
      <trkpt lat="44.125189315527678" lon="3.225913653150201">
        <time>2014-06-06T22:07:33Z</time>
      </trkpt>
      <trkpt lat="44.125168696045876" lon="3.225477291271091">
        <time>2014-06-06T22:07:39Z</time>
      </trkpt>
      <trkpt lat="44.125147992745042" lon="3.22504092939198">
        <time>2014-06-06T22:07:45Z</time>
      </trkpt>
      <trkpt lat="44.125127289444208" lon="3.22460456751287">
        <time>2014-06-06T22:07:51Z</time>
      </trkpt>
      <trkpt lat="44.125119997188449" lon="3.224450005218387">
        <time>2014-06-06T22:07:53Z</time>
      </trkpt>
      <trkpt lat="44.125080015510321" lon="3.224180024117231">
        <time>2014-06-06T22:07:57Z</time>
      </trkpt>
      <trkpt lat="44.124969961121678" lon="3.223850028589368">
        <time>2014-06-06T22:08:02Z</time>
      </trkpt>
      <trkpt lat="44.124761922284961" lon="3.223521709442139">
        <time>2014-06-06T22:08:08Z</time>
      </trkpt>
      <trkpt lat="44.124553883448243" lon="3.22319339029491">
        <time>2014-06-06T22:08:14Z</time>
      </trkpt>
      <trkpt lat="44.12452002055943" lon="3.223139997571707">
        <time>2014-06-06T22:08:15Z</time>
      </trkpt>
      <trkpt lat="44.124362859874964" lon="3.222761051729322">
        <time>2014-06-06T22:08:21Z</time>
      </trkpt>
      <trkpt lat="44.124350035563111" lon="3.222730038687587">
        <time>2014-06-06T22:08:21Z</time>
      </trkpt>
      <trkpt lat="44.124290021136403" lon="3.222670024260879">
        <time>2014-06-06T22:08:22Z</time>
      </trkpt>
      <trkpt lat="44.123980309814215" lon="3.222590396180749">
        <time>2014-06-06T22:08:28Z</time>
      </trkpt>
      <trkpt lat="44.12393999285996" lon="3.222580002620816">
        <time>2014-06-06T22:08:29Z</time>
      </trkpt>
      <trkpt lat="44.123760033398867" lon="3.222510013729334">
        <time>2014-06-06T22:08:33Z</time>
      </trkpt>
      <trkpt lat="44.12366003729403" lon="3.222429966554046">
        <time>2014-06-06T22:08:35Z</time>
      </trkpt>
      <trkpt lat="44.123549982905388" lon="3.222259981557727">
        <time>2014-06-06T22:08:38Z</time>
      </trkpt>
      <trkpt lat="44.123397096991539" lon="3.221877682954073">
        <time>2014-06-06T22:08:44Z</time>
      </trkpt>
      <trkpt lat="44.123310009017587" lon="3.221660004928708">
        <time>2014-06-06T22:08:47Z</time>
      </trkpt>
      <trkpt lat="44.123214958235621" lon="3.221243089064956">
        <time>2014-06-06T22:08:53Z</time>
      </trkpt>
      <trkpt lat="44.123180005699396" lon="3.221090035513043">
        <time>2014-06-06T22:08:55Z</time>
      </trkpt>
      <trkpt lat="44.123107586055994" lon="3.220664402469993">
        <time>2014-06-06T22:09:01Z</time>
      </trkpt>
      <trkpt lat="44.123035166412592" lon="3.220238853245974">
        <time>2014-06-06T22:09:07Z</time>
      </trkpt>
      <trkpt lat="44.122962662950158" lon="3.219813304021955">
        <time>2014-06-06T22:09:13Z</time>
      </trkpt>
      <trkpt lat="44.122940031811595" lon="3.219680031761527">
        <time>2014-06-06T22:09:15Z</time>
      </trkpt>
      <trkpt lat="44.122810028493404" lon="3.219360010698438">
        <time>2014-06-06T22:09:20Z</time>
      </trkpt>
      <trkpt lat="44.122630404308438" lon="3.219000762328506">
        <time>2014-06-06T22:09:26Z</time>
      </trkpt>
      <trkpt lat="44.122569970786572" lon="3.218879979103804">
        <time>2014-06-06T22:09:28Z</time>
      </trkpt>
      <trkpt lat="44.122424125671387" lon="3.218492483720183">
        <time>2014-06-06T22:09:34Z</time>
      </trkpt>
      <trkpt lat="44.12227819673717" lon="3.218104904517531">
        <time>2014-06-06T22:09:40Z</time>
      </trkpt>
      <trkpt lat="44.122250033542514" lon="3.218029970303178">
        <time>2014-06-06T22:09:41Z</time>
      </trkpt>
      <trkpt lat="44.122090023010969" lon="3.21766996756196">
        <time>2014-06-06T22:09:47Z</time>
      </trkpt>
      <trkpt lat="44.121930012479424" lon="3.217399986460805">
        <time>2014-06-06T22:09:52Z</time>
      </trkpt>
      <trkpt lat="44.121694481000304" lon="3.217109637334943">
        <time>2014-06-06T22:09:58Z</time>
      </trkpt>
      <trkpt lat="44.121458949521184" lon="3.216819204390049">
        <time>2014-06-06T22:10:04Z</time>
      </trkpt>
      <trkpt lat="44.121223501861095" lon="3.216528855264187">
        <time>2014-06-06T22:10:10Z</time>
      </trkpt>
      <trkpt lat="44.120987970381975" lon="3.216238506138325">
        <time>2014-06-06T22:10:16Z</time>
      </trkpt>
      <trkpt lat="44.120899960398674" lon="3.216129960492253">
        <time>2014-06-06T22:10:18Z</time>
      </trkpt>
      <trkpt lat="44.12069016136229" lon="3.21580390445888">
        <time>2014-06-06T22:10:24Z</time>
      </trkpt>
      <trkpt lat="44.120480278506875" lon="3.215477848425508">
        <time>2014-06-06T22:10:30Z</time>
      </trkpt>
      <trkpt lat="44.12027039565146" lon="3.215151708573103">
        <time>2014-06-06T22:10:36Z</time>
      </trkpt>
      <trkpt lat="44.120250027626753" lon="3.215120024979115">
        <time>2014-06-06T22:10:37Z</time>
      </trkpt>
      <trkpt lat="44.120068391785026" lon="3.214762788265944">
        <time>2014-06-06T22:10:43Z</time>
      </trkpt>
      <trkpt lat="44.119950039312243" lon="3.21453002281487">
        <time>2014-06-06T22:10:47Z</time>
      </trkpt>
      <trkpt lat="44.119849959388375" lon="3.214200027287006">
        <time>2014-06-06T22:10:52Z</time>
      </trkpt>
      <trkpt lat="44.119809977710247" lon="3.213840024545789">
        <time>2014-06-06T22:10:57Z</time>
      </trkpt>
      <trkpt lat="44.119860017672181" lon="3.213489996269345">
        <time>2014-06-06T22:11:02Z</time>
      </trkpt>
      <trkpt lat="44.119920032098889" lon="3.213320011273027">
        <time>2014-06-06T22:11:05Z</time>
      </trkpt>
      <trkpt lat="44.119999995455146" lon="3.213169975206256">
        <time>2014-06-06T22:11:08Z</time>
      </trkpt>
      <trkpt lat="44.120199987664819" lon="3.212920026853681">
        <time>2014-06-06T22:11:13Z</time>
      </trkpt>
      <trkpt lat="44.12043996155262" lon="3.212700001895428">
        <time>2014-06-06T22:11:18Z</time>
      </trkpt>
      <trkpt lat="44.120722347870469" lon="3.21250612847507">
        <time>2014-06-06T22:11:24Z</time>
      </trkpt>
      <trkpt lat="44.121004650369287" lon="3.212312255054712">
        <time>2014-06-06T22:11:30Z</time>
      </trkpt>
      <trkpt lat="44.121270021423697" lon="3.212130032479763">
        <time>2014-06-06T22:11:36Z</time>
      </trkpt>
      <trkpt lat="44.121545366942883" lon="3.211917635053396">
        <time>2014-06-06T22:11:42Z</time>
      </trkpt>
      <trkpt lat="44.121619965881109" lon="3.211859967559576">
        <time>2014-06-06T22:11:44Z</time>
      </trkpt>
      <trkpt lat="44.121830016374588" lon="3.211580011993647">
        <time>2014-06-06T22:11:50Z</time>
      </trkpt>
      <trkpt lat="44.121979968622327" lon="3.211229983717203">
        <time>2014-06-06T22:11:56Z</time>
      </trkpt>
      <trkpt lat="44.122039983049035" lon="3.211039965972304">
        <time>2014-06-06T22:11:59Z</time>
      </trkpt>
      <trkpt lat="44.122069990262389" lon="3.210829999297857">
        <time>2014-06-06T22:12:02Z</time>
      </trkpt>
      <trkpt lat="44.122069990262389" lon="3.210392715409398">
        <time>2014-06-06T22:12:08Z</time>
      </trkpt>
      <trkpt lat="44.122069990262389" lon="3.210270004346967">
        <time>2014-06-06T22:12:10Z</time>
      </trkpt>
      <trkpt lat="44.122040988877416" lon="3.209834564477205">
        <time>2014-06-06T22:12:16Z</time>
      </trkpt>
      <trkpt lat="44.12201190367341" lon="3.209399208426476">
        <time>2014-06-06T22:12:22Z</time>
      </trkpt>
      <trkpt lat="44.122009975835681" lon="3.209370039403439">
        <time>2014-06-06T22:12:22Z</time>
      </trkpt>
      <trkpt lat="44.12195616401732" lon="3.20893912576139">
        <time>2014-06-06T22:12:28Z</time>
      </trkpt>
      <trkpt lat="44.121930012479424" lon="3.20872999727726">
        <time>2014-06-06T22:12:31Z</time>
      </trkpt>
      <trkpt lat="44.121843175962567" lon="3.208309644833207">
        <time>2014-06-06T22:12:37Z</time>
      </trkpt>
      <trkpt lat="44.121756423264742" lon="3.207889292389154">
        <time>2014-06-06T22:12:43Z</time>
      </trkpt>
      <trkpt lat="44.121739994734526" lon="3.207809999585152">
        <time>2014-06-06T22:12:44Z</time>
      </trkpt>
      <trkpt lat="44.12163027562201" lon="3.207400124520063">
        <time>2014-06-06T22:12:50Z</time>
      </trkpt>
      <trkpt lat="44.121549976989627" lon="3.207099968567491">
        <time>2014-06-06T22:12:54Z</time>
      </trkpt>
      <trkpt lat="44.12147001363337" lon="3.206729991361499">
        <time>2014-06-06T22:12:59Z</time>
      </trkpt>
      <trkpt lat="44.121422991156578" lon="3.206297652795911">
        <time>2014-06-06T22:13:05Z</time>
      </trkpt>
      <trkpt lat="44.121419973671436" lon="3.206269992515445">
        <time>2014-06-06T22:13:05Z</time>
      </trkpt>
      <trkpt lat="44.121419973671436" lon="3.205890040844679">
        <time>2014-06-06T22:13:10Z</time>
      </trkpt>
      <trkpt lat="44.12147001363337" lon="3.205519979819655">
        <time>2014-06-06T22:13:15Z</time>
      </trkpt>
      <trkpt lat="44.121604040265083" lon="3.205124270170927">
        <time>2014-06-06T22:13:21Z</time>
      </trkpt>
      <trkpt lat="44.121738066896796" lon="3.204728560522199">
        <time>2014-06-06T22:13:27Z</time>
      </trkpt>
      <trkpt lat="44.121872009709477" lon="3.20433285087347">
        <time>2014-06-06T22:13:33Z</time>
      </trkpt>
      <trkpt lat="44.12200603634119" lon="3.203937141224742">
        <time>2014-06-06T22:13:39Z</time>
      </trkpt>
      <trkpt lat="44.122140062972903" lon="3.203541347756982">
        <time>2014-06-06T22:13:45Z</time>
      </trkpt>
      <trkpt lat="44.122274089604616" lon="3.203145638108254">
        <time>2014-06-06T22:13:51Z</time>
      </trkpt>
      <trkpt lat="44.122320022433996" lon="3.203010018914938">
        <time>2014-06-06T22:13:53Z</time>
      </trkpt>
      <trkpt lat="44.122380036860704" lon="3.202599976211786">
        <time>2014-06-06T22:13:59Z</time>
      </trkpt>
      <trkpt lat="44.122390011325479" lon="3.202162943780422">
        <time>2014-06-06T22:14:05Z</time>
      </trkpt>
      <trkpt lat="44.122399985790253" lon="3.201725911349058">
        <time>2014-06-06T22:14:11Z</time>
      </trkpt>
      <trkpt lat="44.122409960255027" lon="3.201288795098662">
        <time>2014-06-06T22:14:17Z</time>
      </trkpt>
      <trkpt lat="44.122419934719801" lon="3.200851762667298">
        <time>2014-06-06T22:14:23Z</time>
      </trkpt>
      <trkpt lat="44.122420018538833" lon="3.200850002467632">
        <time>2014-06-06T22:14:23Z</time>
      </trkpt>
      <trkpt lat="44.122453713789582" lon="3.200415233150125">
        <time>2014-06-06T22:14:29Z</time>
      </trkpt>
      <trkpt lat="44.122487409040332" lon="3.199980463832617">
        <time>2014-06-06T22:14:35Z</time>
      </trkpt>
      <trkpt lat="44.122520014643669" lon="3.199560027569532">
        <time>2014-06-06T22:14:41Z</time>
      </trkpt>
      <trkpt lat="44.122562427073717" lon="3.199126683175564">
        <time>2014-06-06T22:14:47Z</time>
      </trkpt>
      <trkpt lat="44.122604755684733" lon="3.198693422600627">
        <time>2014-06-06T22:14:53Z</time>
      </trkpt>
      <trkpt lat="44.122610036283731" lon="3.198640029877424">
        <time>2014-06-06T22:14:54Z</time>
      </trkpt>
      <trkpt lat="44.122676504775882" lon="3.198212552815676">
        <time>2014-06-06T22:15:00Z</time>
      </trkpt>
      <trkpt lat="44.122742973268032" lon="3.197785159572959">
        <time>2014-06-06T22:15:06Z</time>
      </trkpt>
      <trkpt lat="44.122809441760182" lon="3.197357766330242">
        <time>2014-06-06T22:15:12Z</time>
      </trkpt>
      <trkpt lat="44.122820002958179" lon="3.197290040552616">
        <time>2014-06-06T22:15:13Z</time>
      </trkpt>
      <trkpt lat="44.122820002958179" lon="3.196852756664157">
        <time>2014-06-06T22:15:19Z</time>
      </trkpt>
      <trkpt lat="44.122820002958179" lon="3.196810008957982">
        <time>2014-06-06T22:15:20Z</time>
      </trkpt>
      <trkpt lat="44.122774908319116" lon="3.196377251297236">
        <time>2014-06-06T22:15:26Z</time>
      </trkpt>
      <trkpt lat="44.122729813680053" lon="3.195944409817457">
        <time>2014-06-06T22:15:32Z</time>
      </trkpt>
      <trkpt lat="44.122720006853342" lon="3.195850029587746">
        <time>2014-06-06T22:15:33Z</time>
      </trkpt>
      <trkpt lat="44.122614730149508" lon="3.195437807589769">
        <time>2014-06-06T22:15:39Z</time>
      </trkpt>
      <trkpt lat="44.122599977999926" lon="3.195379972457886">
        <time>2014-06-06T22:15:40Z</time>
      </trkpt>
      <trkpt lat="44.122463017702103" lon="3.194986190646887">
        <time>2014-06-06T22:15:46Z</time>
      </trkpt>
      <trkpt lat="44.12232605740428" lon="3.19459249265492">
        <time>2014-06-06T22:15:52Z</time>
      </trkpt>
      <trkpt lat="44.122280040755868" lon="3.194459974765778">
        <time>2014-06-06T22:15:54Z</time>
      </trkpt>
      <trkpt lat="44.122111899778247" lon="3.194090165197849">
        <time>2014-06-06T22:16:00Z</time>
      </trkpt>
      <trkpt lat="44.122079964727163" lon="3.194020008668304">
        <time>2014-06-06T22:16:01Z</time>
      </trkpt>
      <trkpt lat="44.121889360249043" lon="3.19367190822959">
        <time>2014-06-06T22:16:07Z</time>
      </trkpt>
      <trkpt lat="44.12169867195189" lon="3.193323891609907">
        <time>2014-06-06T22:16:13Z</time>
      </trkpt>
      <trkpt lat="44.121507983654737" lon="3.192975791171193">
        <time>2014-06-06T22:16:19Z</time>
      </trkpt>
      <trkpt lat="44.12144998088479" lon="3.192870011553168">
        <time>2014-06-06T22:16:21Z</time>
      </trkpt>
      <trkpt lat="44.121239511296153" lon="3.192544709891081">
        <time>2014-06-06T22:16:27Z</time>
      </trkpt>
      <trkpt lat="44.121230039745569" lon="3.192530041560531">
        <time>2014-06-06T22:16:27Z</time>
      </trkpt>
      <trkpt lat="44.121059970930219" lon="3.192219994962215">
        <time>2014-06-06T22:16:32Z</time>
      </trkpt>
      <trkpt lat="44.120970033109188" lon="3.192020002752543">
        <time>2014-06-06T22:16:35Z</time>
      </trkpt>
      <trkpt lat="44.12091001868248" lon="3.191810036078095">
        <time>2014-06-06T22:16:38Z</time>
      </trkpt>
      <trkpt lat="44.120880011469126" lon="3.191590011119843">
        <time>2014-06-06T22:16:41Z</time>
      </trkpt>
      <trkpt lat="44.120919406414032" lon="3.191156163811684">
        <time>2014-06-06T22:16:47Z</time>
      </trkpt>
      <trkpt lat="44.120919993147254" lon="3.191149961203337">
        <time>2014-06-06T22:16:47Z</time>
      </trkpt>
      <trkpt lat="44.121053433045745" lon="3.190753916278482">
        <time>2014-06-06T22:16:53Z</time>
      </trkpt>
      <trkpt lat="44.121186872944236" lon="3.190357787534595">
        <time>2014-06-06T22:16:59Z</time>
      </trkpt>
      <trkpt lat="44.121240014210343" lon="3.190200040116906">
        <time>2014-06-06T22:17:01Z</time>
      </trkpt>
      <trkpt lat="44.121341183781624" lon="3.1897858902812">
        <time>2014-06-06T22:17:07Z</time>
      </trkpt>
      <trkpt lat="44.121349984779954" lon="3.189750015735626">
        <time>2014-06-06T22:17:08Z</time>
      </trkpt>
      <trkpt lat="44.121379991993308" lon="3.189510041847825">
        <time>2014-06-06T22:17:11Z</time>
      </trkpt>
      <trkpt lat="44.121389966458082" lon="3.189269984140992">
        <time>2014-06-06T22:17:14Z</time>
      </trkpt>
      <trkpt lat="44.121362222358584" lon="3.188834460452199">
        <time>2014-06-06T22:17:20Z</time>
      </trkpt>
      <trkpt lat="44.121359959244728" lon="3.188800010830164">
        <time>2014-06-06T22:17:20Z</time>
      </trkpt>
      <trkpt lat="44.121280666440725" lon="3.188376808539033">
        <time>2014-06-06T22:17:26Z</time>
      </trkpt>
      <trkpt lat="44.121270021423697" lon="3.18831997923553">
        <time>2014-06-06T22:17:27Z</time>
      </trkpt>
      <trkpt lat="44.121147394180298" lon="3.187917228788137">
        <time>2014-06-06T22:17:33Z</time>
      </trkpt>
      <trkpt lat="44.121129959821701" lon="3.187859980389476">
        <time>2014-06-06T22:17:34Z</time>
      </trkpt>
      <trkpt lat="44.120965842157602" lon="3.187486818060279">
        <time>2014-06-06T22:17:40Z</time>
      </trkpt>
      <trkpt lat="44.120801640674472" lon="3.187113655731082">
        <time>2014-06-06T22:17:46Z</time>
      </trkpt>
      <trkpt lat="44.120637439191341" lon="3.186740493401885">
        <time>2014-06-06T22:17:52Z</time>
      </trkpt>
      <trkpt lat="44.120473237708211" lon="3.186367331072688">
        <time>2014-06-06T22:17:58Z</time>
      </trkpt>
      <trkpt lat="44.120469968765974" lon="3.186360038816929">
        <time>2014-06-06T22:17:58Z</time>
      </trkpt>
      <trkpt lat="44.120355639606714" lon="3.18595259450376">
        <time>2014-06-06T22:18:04Z</time>
      </trkpt>
      <trkpt lat="44.120309958234429" lon="3.185789985582233">
        <time>2014-06-06T22:18:06Z</time>
      </trkpt>
      <trkpt lat="44.120215997099876" lon="3.185372650623322">
        <time>2014-06-06T22:18:12Z</time>
      </trkpt>
      <trkpt lat="44.120150031521916" lon="3.185080038383603">
        <time>2014-06-06T22:18:16Z</time>
      </trkpt>
      <trkpt lat="44.120109966024756" lon="3.18470997735858">
        <time>2014-06-06T22:18:21Z</time>
      </trkpt>
      <trkpt lat="44.12005003541708" lon="3.18443002179265">
        <time>2014-06-06T22:18:25Z</time>
      </trkpt>
      <trkpt lat="44.119882229715586" lon="3.184059960767627">
        <time>2014-06-06T22:18:31Z</time>
      </trkpt>
      <trkpt lat="44.119714507833123" lon="3.183689815923572">
        <time>2014-06-06T22:18:37Z</time>
      </trkpt>
      <trkpt lat="44.119546702131629" lon="3.183319754898548">
        <time>2014-06-06T22:18:43Z</time>
      </trkpt>
      <trkpt lat="44.119378896430135" lon="3.182949693873525">
        <time>2014-06-06T22:18:49Z</time>
      </trkpt>
      <trkpt lat="44.119370011612773" lon="3.182929996401072">
        <time>2014-06-06T22:18:49Z</time>
      </trkpt>
      <trkpt lat="44.119181418791413" lon="3.182579800486565">
        <time>2014-06-06T22:18:55Z</time>
      </trkpt>
      <trkpt lat="44.119159961119294" lon="3.1825399864465">
        <time>2014-06-06T22:18:56Z</time>
      </trkpt>
      <trkpt lat="44.11894915625453" lon="3.182215103879571">
        <time>2014-06-06T22:19:02Z</time>
      </trkpt>
      <trkpt lat="44.118738351389766" lon="3.181890221312642">
        <time>2014-06-06T22:19:08Z</time>
      </trkpt>
      <trkpt lat="44.118527546525002" lon="3.181565338745713">
        <time>2014-06-06T22:19:14Z</time>
      </trkpt>
      <trkpt lat="44.118316741660237" lon="3.181240456178784">
        <time>2014-06-06T22:19:20Z</time>
      </trkpt>
      <trkpt lat="44.1183100361377" lon="3.18122997879982">
        <time>2014-06-06T22:19:20Z</time>
      </trkpt>
      <trkpt lat="44.118150025606155" lon="3.180920016020536">
        <time>2014-06-06T22:19:25Z</time>
      </trkpt>
      <trkpt lat="44.117997055873275" lon="3.180537717416883">
        <time>2014-06-06T22:19:31Z</time>
      </trkpt>
      <trkpt lat="44.117844169959426" lon="3.18015550263226">
        <time>2014-06-06T22:19:37Z</time>
      </trkpt>
      <trkpt lat="44.11770997568965" lon="3.179819975048304">
        <time>2014-06-06T22:19:42Z</time>
      </trkpt>
      <trkpt lat="44.117527501657605" lon="3.179463660344482">
        <time>2014-06-06T22:19:48Z</time>
      </trkpt>
      <trkpt lat="44.117500009015203" lon="3.179410016164184">
        <time>2014-06-06T22:19:49Z</time>
      </trkpt>
      <trkpt lat="44.117286019027233" lon="3.179089073091745">
        <time>2014-06-06T22:19:55Z</time>
      </trkpt>
      <trkpt lat="44.117260035127401" lon="3.179050013422966">
        <time>2014-06-06T22:19:56Z</time>
      </trkpt>
      <trkpt lat="44.117004387080669" lon="3.178794449195266">
        <time>2014-06-06T22:20:02Z</time>
      </trkpt>
      <trkpt lat="44.116748822852969" lon="3.178538884967566">
        <time>2014-06-06T22:20:08Z</time>
      </trkpt>
      <trkpt lat="44.116619993001223" lon="3.178409971296787">
        <time>2014-06-06T22:20:11Z</time>
      </trkpt>
      <trkpt lat="44.116429975256324" lon="3.178160022944212">
        <time>2014-06-06T22:20:16Z</time>
      </trkpt>
      <trkpt lat="44.116243477910757" lon="3.17780764773488">
        <time>2014-06-06T22:20:22Z</time>
      </trkpt>
      <trkpt lat="44.116159994155169" lon="3.177649984136224">
        <time>2014-06-06T22:20:25Z</time>
      </trkpt>
      <trkpt lat="44.115983890369534" lon="3.177287466824055">
        <time>2014-06-06T22:20:31Z</time>
      </trkpt>
      <trkpt lat="44.115807870402932" lon="3.176924949511886">
        <time>2014-06-06T22:20:37Z</time>
      </trkpt>
      <trkpt lat="44.115631766617298" lon="3.176562432199717">
        <time>2014-06-06T22:20:43Z</time>
      </trkpt>
      <trkpt lat="44.115479970350862" lon="3.176250038668513">
        <time>2014-06-06T22:20:48Z</time>
      </trkpt>
      <trkpt lat="44.115323312580585" lon="3.175870673730969">
        <time>2014-06-06T22:20:54Z</time>
      </trkpt>
      <trkpt lat="44.115166654810309" lon="3.175491392612457">
        <time>2014-06-06T22:21:00Z</time>
      </trkpt>
      <trkpt lat="44.115009997040033" lon="3.175112111493945">
        <time>2014-06-06T22:21:06Z</time>
      </trkpt>
      <trkpt lat="44.114910000935197" lon="3.174869958311319">
        <time>2014-06-06T22:21:10Z</time>
      </trkpt>
      <trkpt lat="44.114782428368926" lon="3.174470225349069">
        <time>2014-06-06T22:21:16Z</time>
      </trkpt>
      <trkpt lat="44.114759964868426" lon="3.174399985000491">
        <time>2014-06-06T22:21:17Z</time>
      </trkpt>
      <trkpt lat="44.114672457799315" lon="3.173979967832565">
        <time>2014-06-06T22:21:23Z</time>
      </trkpt>
      <trkpt lat="44.11465996876359" lon="3.173920037224889">
        <time>2014-06-06T22:21:24Z</time>
      </trkpt>
      <trkpt lat="44.114588052034378" lon="3.173494320362806">
        <time>2014-06-06T22:21:30Z</time>
      </trkpt>
      <trkpt lat="44.114540023729205" lon="3.173210006207228">
        <time>2014-06-06T22:21:34Z</time>
      </trkpt>
      <trkpt lat="44.114482272416353" lon="3.172780182212591">
        <time>2014-06-06T22:21:40Z</time>
      </trkpt>
      <trkpt lat="44.114450002089143" lon="3.172540040686727">
        <time>2014-06-06T22:21:43Z</time>
      </trkpt>
      <trkpt lat="44.114450002089143" lon="3.172102756798267">
        <time>2014-06-06T22:21:49Z</time>
      </trkpt>
      <trkpt lat="44.114450002089143" lon="3.171779969707131">
        <time>2014-06-06T22:21:53Z</time>
      </trkpt>
      <trkpt lat="44.114433825016022" lon="3.171343356370926">
        <time>2014-06-06T22:21:59Z</time>
      </trkpt>
      <trkpt lat="44.114417647942901" lon="3.17090674303472">
        <time>2014-06-06T22:22:05Z</time>
      </trkpt>
      <trkpt lat="44.11440147086978" lon="3.170470045879483">
        <time>2014-06-06T22:22:11Z</time>
      </trkpt>
      <trkpt lat="44.114389987662435" lon="3.170159999281168">
        <time>2014-06-06T22:22:15Z</time>
      </trkpt>
      <trkpt lat="44.11435998044908" lon="3.169950032606721">
        <time>2014-06-06T22:22:18Z</time>
      </trkpt>
      <trkpt lat="44.114249087870121" lon="3.169540744274855">
        <time>2014-06-06T22:22:24Z</time>
      </trkpt>
      <trkpt lat="44.114138195291162" lon="3.16913153976202">
        <time>2014-06-06T22:22:30Z</time>
      </trkpt>
      <trkpt lat="44.114027302712202" lon="3.168722335249186">
        <time>2014-06-06T22:22:36Z</time>
      </trkpt>
      <trkpt lat="44.113939963281155" lon="3.168399967253208">
        <time>2014-06-06T22:22:41Z</time>
      </trkpt>
      <trkpt lat="44.113794537261128" lon="3.168012136593461">
        <time>2014-06-06T22:22:47Z</time>
      </trkpt>
      <trkpt lat="44.113760003820062" lon="3.167920019477606">
        <time>2014-06-06T22:22:48Z</time>
      </trkpt>
      <trkpt lat="44.113560011610389" lon="3.167590023949742">
        <time>2014-06-06T22:22:54Z</time>
      </trkpt>
      <trkpt lat="44.113360019400716" lon="3.167330017313361">
        <time>2014-06-06T22:22:59Z</time>
      </trkpt>
      <trkpt lat="44.113220041617751" lon="3.167230021208525">
        <time>2014-06-06T22:23:02Z</time>
      </trkpt>
      <trkpt lat="44.112915107980371" lon="3.167120218276978">
        <time>2014-06-06T22:23:08Z</time>
      </trkpt>
      <trkpt lat="44.112719977274537" lon="3.1670499779284">
        <time>2014-06-06T22:23:12Z</time>
      </trkpt>
      <trkpt lat="44.11243281327188" lon="3.166870521381497">
        <time>2014-06-06T22:23:18Z</time>
      </trkpt>
      <trkpt lat="44.112145565450191" lon="3.166690981015563">
        <time>2014-06-06T22:23:24Z</time>
      </trkpt>
      <trkpt lat="44.11208001896739" lon="3.166649993509054">
        <time>2014-06-06T22:23:25Z</time>
      </trkpt>
      <trkpt lat="44.111820012331009" lon="3.166429968550801">
        <time>2014-06-06T22:23:31Z</time>
      </trkpt>
      <trkpt lat="44.111607698723674" lon="3.166107097640634">
        <time>2014-06-06T22:23:37Z</time>
      </trkpt>
      <trkpt lat="44.111395301297307" lon="3.165784142911434">
        <time>2014-06-06T22:23:43Z</time>
      </trkpt>
      <trkpt lat="44.111339980736375" lon="3.165699988603592">
        <time>2014-06-06T22:23:45Z</time>
      </trkpt>
      <trkpt lat="44.111098330467939" lon="3.165419613942504">
        <time>2014-06-06T22:23:51Z</time>
      </trkpt>
      <trkpt lat="44.1110900323838" lon="3.165409974753857">
        <time>2014-06-06T22:23:51Z</time>
      </trkpt>
      <trkpt lat="44.110872521996498" lon="3.165093725547195">
        <time>2014-06-06T22:23:57Z</time>
      </trkpt>
      <trkpt lat="44.110870007425547" lon="3.165090037509799">
        <time>2014-06-06T22:23:57Z</time>
      </trkpt>
      <trkpt lat="44.11068057641387" lon="3.164740679785609">
        <time>2014-06-06T22:24:03Z</time>
      </trkpt>
      <trkpt lat="44.110549986362457" lon="3.164500035345554">
        <time>2014-06-06T22:24:07Z</time>
      </trkpt>
      <trkpt lat="44.110396597534418" lon="3.164118155837059">
        <time>2014-06-06T22:24:13Z</time>
      </trkpt>
      <trkpt lat="44.110243124887347" lon="3.163736360147595">
        <time>2014-06-06T22:24:19Z</time>
      </trkpt>
      <trkpt lat="44.110119994729757" lon="3.163430001586676">
        <time>2014-06-06T22:24:24Z</time>
      </trkpt>
      <trkpt lat="44.109943136572838" lon="3.163068238645792">
        <time>2014-06-06T22:24:30Z</time>
      </trkpt>
      <trkpt lat="44.109766278415918" lon="3.162706475704908">
        <time>2014-06-06T22:24:36Z</time>
      </trkpt>
      <trkpt lat="44.109680028632283" lon="3.162530036643148">
        <time>2014-06-06T22:24:39Z</time>
      </trkpt>
      <trkpt lat="44.109455980360508" lon="3.162222672253847">
        <time>2014-06-06T22:24:45Z</time>
      </trkpt>
      <trkpt lat="44.109250036999583" lon="3.161940034478903">
        <time>2014-06-06T22:24:51Z</time>
      </trkpt>
      <trkpt lat="44.109008302912116" lon="3.161659659817815">
        <time>2014-06-06T22:24:57Z</time>
      </trkpt>
      <trkpt lat="44.109000004827976" lon="3.161650020629168">
        <time>2014-06-06T22:24:57Z</time>
      </trkpt>
      <trkpt lat="44.108800431713462" lon="3.161311810836196">
        <time>2014-06-06T22:25:03Z</time>
      </trkpt>
      <trkpt lat="44.108640002086759" lon="3.161039985716343">
        <time>2014-06-06T22:25:08Z</time>
      </trkpt>
      <trkpt lat="44.108465826138854" lon="3.16067579202354">
        <time>2014-06-06T22:25:14Z</time>
      </trkpt>
      <trkpt lat="44.108419977128506" lon="3.160579986870289">
        <time>2014-06-06T22:25:16Z</time>
      </trkpt>
      <trkpt lat="44.108260720968246" lon="3.16020280122757">
        <time>2014-06-06T22:25:22Z</time>
      </trkpt>
      <trkpt lat="44.108229959383607" lon="3.160129962489009">
        <time>2014-06-06T22:25:23Z</time>
      </trkpt>
      <trkpt lat="44.10808545537293" lon="3.15974154509604">
        <time>2014-06-06T22:25:29Z</time>
      </trkpt>
      <trkpt lat="44.108070032671094" lon="3.159699970856309">
        <time>2014-06-06T22:25:30Z</time>
      </trkpt>
      <trkpt lat="44.108010018244386" lon="3.15942001529038">
        <time>2014-06-06T22:25:34Z</time>
      </trkpt>
      <trkpt lat="44.10799995996058" lon="3.159250030294061">
        <time>2014-06-06T22:25:36Z</time>
      </trkpt>
      <trkpt lat="44.10801999270916" lon="3.15907996147871">
        <time>2014-06-06T22:25:38Z</time>
      </trkpt>
      <trkpt lat="44.108157455921173" lon="3.15868659876287">
        <time>2014-06-06T22:25:44Z</time>
      </trkpt>
      <trkpt lat="44.108294919133186" lon="3.158293319866061">
        <time>2014-06-06T22:25:50Z</time>
      </trkpt>
      <trkpt lat="44.108310006558895" lon="3.158249985426664">
        <time>2014-06-06T22:25:51Z</time>
      </trkpt>
      <trkpt lat="44.108340013772249" lon="3.158100033178926">
        <time>2014-06-06T22:25:53Z</time>
      </trkpt>
      <trkpt lat="44.108359962701797" lon="3.157859975472093">
        <time>2014-06-06T22:25:56Z</time>
      </trkpt>
      <trkpt lat="44.108370020985603" lon="3.157439958304167">
        <time>2014-06-06T22:26:02Z</time>
      </trkpt>
      <trkpt lat="44.108346803113818" lon="3.157004015520215">
        <time>2014-06-06T22:26:08Z</time>
      </trkpt>
      <trkpt lat="44.108323585242033" lon="3.156567988917232">
        <time>2014-06-06T22:26:14Z</time>
      </trkpt>
      <trkpt lat="44.108319981023669" lon="3.15650001168251">
        <time>2014-06-06T22:26:15Z</time>
      </trkpt>
      <trkpt lat="44.108240017667413" lon="3.156130034476519">
        <time>2014-06-06T22:26:20Z</time>
      </trkpt>
      <trkpt lat="44.108092747628689" lon="3.155743544921279">
        <time>2014-06-06T22:26:26Z</time>
      </trkpt>
      <trkpt lat="44.108080007135868" lon="3.155710017308593">
        <time>2014-06-06T22:26:27Z</time>
      </trkpt>
      <trkpt lat="44.107893677428365" lon="3.155357474461198">
        <time>2014-06-06T22:26:33Z</time>
      </trkpt>
      <trkpt lat="44.107710029929876" lon="3.155009960755706">
        <time>2014-06-06T22:26:39Z</time>
      </trkpt>
      <trkpt lat="44.107536189258099" lon="3.154645347967744">
        <time>2014-06-06T22:26:45Z</time>
      </trkpt>
      <trkpt lat="44.107362432405353" lon="3.154280818998814">
        <time>2014-06-06T22:26:51Z</time>
      </trkpt>
      <trkpt lat="44.107199991121888" lon="3.153940010815859">
        <time>2014-06-06T22:26:57Z</time>
      </trkpt>
      <trkpt lat="44.107052385807037" lon="3.153553772717714">
        <time>2014-06-06T22:27:03Z</time>
      </trkpt>
      <trkpt lat="44.106904780492187" lon="3.153167618438602">
        <time>2014-06-06T22:27:09Z</time>
      </trkpt>
      <trkpt lat="44.106757175177336" lon="3.152781464159489">
        <time>2014-06-06T22:27:15Z</time>
      </trkpt>
      <trkpt lat="44.106609569862485" lon="3.152395226061344">
        <time>2014-06-06T22:27:21Z</time>
      </trkpt>
      <trkpt lat="44.106461964547634" lon="3.152009071782231">
        <time>2014-06-06T22:27:27Z</time>
      </trkpt>
      <trkpt lat="44.106340007856488" lon="3.151689972728491">
        <time>2014-06-06T22:27:32Z</time>
      </trkpt>
      <trkpt lat="44.106219979003072" lon="3.151310021057725">
        <time>2014-06-06T22:27:38Z</time>
      </trkpt>
      <trkpt lat="44.106134232133627" lon="3.150889333337545">
        <time>2014-06-06T22:27:44Z</time>
      </trkpt>
      <trkpt lat="44.106048485264182" lon="3.150468729436398">
        <time>2014-06-06T22:27:50Z</time>
      </trkpt>
      <trkpt lat="44.106010012328625" lon="3.150279968976975">
        <time>2014-06-06T22:27:53Z</time>
      </trkpt>
      <trkpt lat="44.105974305421114" lon="3.149845702573657">
        <time>2014-06-06T22:27:59Z</time>
      </trkpt>
      <trkpt lat="44.105949997901917" lon="3.149549989029765">
        <time>2014-06-06T22:28:03Z</time>
      </trkpt>
      <trkpt lat="44.105949997901917" lon="3.149180011823773">
        <time>2014-06-06T22:28:08Z</time>
      </trkpt>
      <trkpt lat="44.105986710637808" lon="3.148745829239488">
        <time>2014-06-06T22:28:14Z</time>
      </trkpt>
      <trkpt lat="44.106010012328625" lon="3.148469980806112">
        <time>2014-06-06T22:28:18Z</time>
      </trkpt>
      <trkpt lat="44.106087042018771" lon="3.148046107962728">
        <time>2014-06-06T22:28:24Z</time>
      </trkpt>
      <trkpt lat="44.106089975684881" lon="3.148030014708638">
        <time>2014-06-06T22:28:24Z</time>
      </trkpt>
      <trkpt lat="44.10619986243546" lon="3.147620307281613">
        <time>2014-06-06T22:28:30Z</time>
      </trkpt>
      <trkpt lat="44.106309665367007" lon="3.147210599854589">
        <time>2014-06-06T22:28:36Z</time>
      </trkpt>
      <trkpt lat="44.106419552117586" lon="3.146800892427564">
        <time>2014-06-06T22:28:42Z</time>
      </trkpt>
      <trkpt lat="44.106460036709905" lon="3.146650018170476">
        <time>2014-06-06T22:28:44Z</time>
      </trkpt>
      <trkpt lat="44.106579395011067" lon="3.146245423704386">
        <time>2014-06-06T22:28:50Z</time>
      </trkpt>
      <trkpt lat="44.106639996170998" lon="3.146039983257651">
        <time>2014-06-06T22:28:53Z</time>
      </trkpt>
      <trkpt lat="44.106806376948953" lon="3.145668832585216">
        <time>2014-06-06T22:28:59Z</time>
      </trkpt>
      <trkpt lat="44.106972757726908" lon="3.145297598093748">
        <time>2014-06-06T22:29:05Z</time>
      </trkpt>
      <trkpt lat="44.107030006125569" lon="3.145170025527477">
        <time>2014-06-06T22:29:07Z</time>
      </trkpt>
      <trkpt lat="44.107206864282489" lon="3.144808262586594">
        <time>2014-06-06T22:29:13Z</time>
      </trkpt>
      <trkpt lat="44.107383722439408" lon="3.14444649964571">
        <time>2014-06-06T22:29:19Z</time>
      </trkpt>
      <trkpt lat="44.107560580596328" lon="3.144084736704826">
        <time>2014-06-06T22:29:25Z</time>
      </trkpt>
      <trkpt lat="44.107737438753247" lon="3.143722973763943">
        <time>2014-06-06T22:29:31Z</time>
      </trkpt>
      <trkpt lat="44.107910022139549" lon="3.143370011821389">
        <time>2014-06-06T22:29:37Z</time>
      </trkpt>
      <trkpt lat="44.108095010742545" lon="3.143016127869487">
        <time>2014-06-06T22:29:43Z</time>
      </trkpt>
      <trkpt lat="44.108279915526509" lon="3.142662327736616">
        <time>2014-06-06T22:29:49Z</time>
      </trkpt>
      <trkpt lat="44.108370020985603" lon="3.142489995807409">
        <time>2014-06-06T22:29:52Z</time>
      </trkpt>
      <trkpt lat="44.108565067872405" lon="3.142146756872535">
        <time>2014-06-06T22:29:58Z</time>
      </trkpt>
      <trkpt lat="44.108760114759207" lon="3.141803434118629">
        <time>2014-06-06T22:30:04Z</time>
      </trkpt>
      <trkpt lat="44.108955161646008" lon="3.141460195183754">
        <time>2014-06-06T22:30:10Z</time>
      </trkpt>
      <trkpt lat="44.109120033681393" lon="3.141170013695955">
        <time>2014-06-06T22:30:15Z</time>
      </trkpt>
      <trkpt lat="44.10929630510509" lon="3.14080766402185">
        <time>2014-06-06T22:30:21Z</time>
      </trkpt>
      <trkpt lat="44.109299993142486" lon="3.140800036489964">
        <time>2014-06-06T22:30:21Z</time>
      </trkpt>
      <trkpt lat="44.109360007569194" lon="3.140629967674613">
        <time>2014-06-06T22:30:24Z</time>
      </trkpt>
      <trkpt lat="44.109390014782548" lon="3.1404700409621">
        <time>2014-06-06T22:30:26Z</time>
      </trkpt>
      <trkpt lat="44.109390014782548" lon="3.14032000489533">
        <time>2014-06-06T22:30:28Z</time>
      </trkpt>
      <trkpt lat="44.109277362003922" lon="3.139911722391844">
        <time>2014-06-06T22:30:34Z</time>
      </trkpt>
      <trkpt lat="44.109230004251003" lon="3.139739977195859">
        <time>2014-06-06T22:30:37Z</time>
      </trkpt>
      <trkpt lat="44.109202343970537" lon="3.139304537326098">
        <time>2014-06-06T22:30:43Z</time>
      </trkpt>
      <trkpt lat="44.109190022572875" lon="3.139109993353486">
        <time>2014-06-06T22:30:46Z</time>
      </trkpt>
      <trkpt lat="44.109139982610941" lon="3.138840012252331">
        <time>2014-06-06T22:30:50Z</time>
      </trkpt>
      <trkpt lat="44.109090026468039" lon="3.138670027256012">
        <time>2014-06-06T22:30:53Z</time>
      </trkpt>
      <trkpt lat="44.10900997929275" lon="3.138499958440661">
        <time>2014-06-06T22:30:56Z</time>
      </trkpt>
      <trkpt lat="44.108849968761206" lon="3.138319998979569">
        <time>2014-06-06T22:31:00Z</time>
      </trkpt>
      <trkpt lat="44.108760030940175" lon="3.138269959017634">
        <time>2014-06-06T22:31:02Z</time>
      </trkpt>
      <trkpt lat="44.108452498912811" lon="3.138175411149859">
        <time>2014-06-06T22:31:08Z</time>
      </trkpt>
      <trkpt lat="44.108240017667413" lon="3.138110032305121">
        <time>2014-06-06T22:31:12Z</time>
      </trkpt>
      <trkpt lat="44.108140021562576" lon="3.138029985129833">
        <time>2014-06-06T22:31:14Z</time>
      </trkpt>
      <trkpt lat="44.10801999270916" lon="3.137860000133514">
        <time>2014-06-06T22:31:17Z</time>
      </trkpt>
      <trkpt lat="44.107970036566257" lon="3.137709964066744">
        <time>2014-06-06T22:31:19Z</time>
      </trkpt>
      <trkpt lat="44.107950003817677" lon="3.137550037354231">
        <time>2014-06-06T22:31:21Z</time>
      </trkpt>
      <trkpt lat="44.107970036566257" lon="3.137390026822686">
        <time>2014-06-06T22:31:23Z</time>
      </trkpt>
      <trkpt lat="44.108059974387288" lon="3.137160027399659">
        <time>2014-06-06T22:31:27Z</time>
      </trkpt>
      <trkpt lat="44.10825259052217" lon="3.136814022436738">
        <time>2014-06-06T22:31:33Z</time>
      </trkpt>
      <trkpt lat="44.10844512283802" lon="3.136468101292849">
        <time>2014-06-06T22:31:39Z</time>
      </trkpt>
      <trkpt lat="44.108637655153871" lon="3.136122096329927">
        <time>2014-06-06T22:31:45Z</time>
      </trkpt>
      <trkpt lat="44.108649976551533" lon="3.136099968105555">
        <time>2014-06-06T22:31:45Z</time>
      </trkpt>
      <trkpt lat="44.108818788081408" lon="3.13573082908988">
        <time>2014-06-06T22:31:51Z</time>
      </trkpt>
      <trkpt lat="44.108969997614622" lon="3.135399995371699">
        <time>2014-06-06T22:31:56Z</time>
      </trkpt>
      <trkpt lat="44.109120033681393" lon="3.135015601292253">
        <time>2014-06-06T22:32:02Z</time>
      </trkpt>
      <trkpt lat="44.109270153567195" lon="3.134631207212806">
        <time>2014-06-06T22:32:08Z</time>
      </trkpt>
      <trkpt lat="44.109420189633965" lon="3.134246896952391">
        <time>2014-06-06T22:32:14Z</time>
      </trkpt>
      <trkpt lat="44.109539967030287" lon="3.133940035477281">
        <time>2014-06-06T22:32:19Z</time>
      </trkpt>
      <trkpt lat="44.10966033115983" lon="3.133535943925381">
        <time>2014-06-06T22:32:25Z</time>
      </trkpt>
      <trkpt lat="44.109680028632283" lon="3.133469978347421">
        <time>2014-06-06T22:32:26Z</time>
      </trkpt>
      <trkpt lat="44.109699977561831" lon="3.133260011672974">
        <time>2014-06-06T22:32:29Z</time>
      </trkpt>
      <trkpt lat="44.109690003097057" lon="3.132920041680336">
        <time>2014-06-06T22:32:34Z</time>
      </trkpt>
      <trkpt lat="44.109639208763838" lon="3.132488541305065">
        <time>2014-06-06T22:32:40Z</time>
      </trkpt>
      <trkpt lat="44.10958849824965" lon="3.132057040929794">
        <time>2014-06-06T22:32:46Z</time>
      </trkpt>
      <trkpt lat="44.10953770391643" lon="3.131625624373555">
        <time>2014-06-06T22:32:52Z</time>
      </trkpt>
      <trkpt lat="44.109490010887384" lon="3.131220024079084">
        <time>2014-06-06T22:32:58Z</time>
      </trkpt>
      <trkpt lat="44.109375681728125" lon="3.130812663584948">
        <time>2014-06-06T22:33:04Z</time>
      </trkpt>
      <trkpt lat="44.10933000035584" lon="3.130649970844388">
        <time>2014-06-06T22:33:06Z</time>
      </trkpt>
      <trkpt lat="44.109201254323125" lon="3.130250992253423">
        <time>2014-06-06T22:33:12Z</time>
      </trkpt>
      <trkpt lat="44.109130008146167" lon="3.130029961466789">
        <time>2014-06-06T22:33:15Z</time>
      </trkpt>
      <trkpt lat="44.108953149989247" lon="3.129668198525906">
        <time>2014-06-06T22:33:21Z</time>
      </trkpt>
      <trkpt lat="44.108909983187914" lon="3.129580020904541">
        <time>2014-06-06T22:33:22Z</time>
      </trkpt>
      <trkpt lat="44.108730023726821" lon="3.129290007054806">
        <time>2014-06-06T22:33:27Z</time>
      </trkpt>
      <trkpt lat="44.108510920777917" lon="3.128975937142968">
        <time>2014-06-06T22:33:33Z</time>
      </trkpt>
      <trkpt lat="44.108430035412312" lon="3.128860015422106">
        <time>2014-06-06T22:33:35Z</time>
      </trkpt>
      <trkpt lat="44.108229959383607" lon="3.128700004890561">
        <time>2014-06-06T22:33:39Z</time>
      </trkpt>
      <trkpt lat="44.108029967173934" lon="3.128600008785725">
        <time>2014-06-06T22:33:43Z</time>
      </trkpt>
      <trkpt lat="44.107717489823699" lon="3.128545023500919">
        <time>2014-06-06T22:33:49Z</time>
      </trkpt>
      <trkpt lat="44.107405012473464" lon="3.128490122035146">
        <time>2014-06-06T22:33:55Z</time>
      </trkpt>
      <trkpt lat="44.107120027765632" lon="3.12843999825418">
        <time>2014-06-06T22:34:00Z</time>
      </trkpt>
      <trkpt lat="44.106805035844445" lon="3.128432286903262">
        <time>2014-06-06T22:34:06Z</time>
      </trkpt>
      <trkpt lat="44.10670998506248" lon="3.128430023789406">
        <time>2014-06-06T22:34:08Z</time>
      </trkpt>
      <trkpt lat="44.106395747512579" lon="3.128459360450506">
        <time>2014-06-06T22:34:14Z</time>
      </trkpt>
      <trkpt lat="44.106081426143646" lon="3.128488697111607">
        <time>2014-06-06T22:34:20Z</time>
      </trkpt>
      <trkpt lat="44.105959972366691" lon="3.128500012680888">
        <time>2014-06-06T22:34:22Z</time>
      </trkpt>
      <trkpt lat="44.105647914111614" lon="3.128559440374374">
        <time>2014-06-06T22:34:28Z</time>
      </trkpt>
      <trkpt lat="44.105540039017797" lon="3.128579976037145">
        <time>2014-06-06T22:34:30Z</time>
      </trkpt>
      <trkpt lat="44.10523334518075" lon="3.128679636865854">
        <time>2014-06-06T22:34:36Z</time>
      </trkpt>
      <trkpt lat="44.105139970779419" lon="3.128709979355335">
        <time>2014-06-06T22:34:38Z</time>
      </trkpt>
      <trkpt lat="44.104851465672255" lon="3.128885412588716">
        <time>2014-06-06T22:34:44Z</time>
      </trkpt>
      <trkpt lat="44.10456296056509" lon="3.129060929641128">
        <time>2014-06-06T22:34:50Z</time>
      </trkpt>
      <trkpt lat="44.104400016367435" lon="3.129160003736615">
        <time>2014-06-06T22:34:53Z</time>
      </trkpt>
      <trkpt lat="44.104116624221206" lon="3.129350943490863">
        <time>2014-06-06T22:34:59Z</time>
      </trkpt>
      <trkpt lat="44.103940017521381" lon="3.129469966515899">
        <time>2014-06-06T22:35:03Z</time>
      </trkpt>
      <trkpt lat="44.103647153824568" lon="3.129631066694856">
        <time>2014-06-06T22:35:09Z</time>
      </trkpt>
      <trkpt lat="44.103540033102036" lon="3.129689991474152">
        <time>2014-06-06T22:35:11Z</time>
      </trkpt>
      <trkpt lat="44.103320008143783" lon="3.129710024222732">
        <time>2014-06-06T22:35:15Z</time>
      </trkpt>
      <trkpt lat="44.103039968758821" lon="3.129659984260798">
        <time>2014-06-06T22:35:20Z</time>
      </trkpt>
      <trkpt lat="44.102839976549149" lon="3.129569962620735">
        <time>2014-06-06T22:35:24Z</time>
      </trkpt>
      <trkpt lat="44.102630009874701" lon="3.129420010372996">
        <time>2014-06-06T22:35:28Z</time>
      </trkpt>
      <trkpt lat="44.102409984916449" lon="3.129209959879518">
        <time>2014-06-06T22:35:33Z</time>
      </trkpt>
      <trkpt lat="44.102200018242002" lon="3.128899997100234">
        <time>2014-06-06T22:35:39Z</time>
      </trkpt>
      <trkpt lat="44.102095579728484" lon="3.128487607464194">
        <time>2014-06-06T22:35:45Z</time>
      </trkpt>
      <trkpt lat="44.102000026032329" lon="3.128110002726317">
        <time>2014-06-06T22:35:50Z</time>
      </trkpt>
      <trkpt lat="44.101932048797607" lon="3.127683196216822">
        <time>2014-06-06T22:35:56Z</time>
      </trkpt>
      <trkpt lat="44.101864071562886" lon="3.127256305888295">
        <time>2014-06-06T22:36:02Z</time>
      </trkpt>
      <trkpt lat="44.101796094328165" lon="3.1268294993788">
        <time>2014-06-06T22:36:08Z</time>
      </trkpt>
      <trkpt lat="44.101728117093444" lon="3.126402692869306">
        <time>2014-06-06T22:36:14Z</time>
      </trkpt>
      <trkpt lat="44.101660139858723" lon="3.125975886359811">
        <time>2014-06-06T22:36:20Z</time>
      </trkpt>
      <trkpt lat="44.101592246443033" lon="3.125549079850316">
        <time>2014-06-06T22:36:26Z</time>
      </trkpt>
      <trkpt lat="44.101524269208312" lon="3.12512218952179">
        <time>2014-06-06T22:36:32Z</time>
      </trkpt>
      <trkpt lat="44.101499961689115" lon="3.124969974160194">
        <time>2014-06-06T22:36:34Z</time>
      </trkpt>
      <trkpt lat="44.101419663056731" lon="3.124547358602285">
        <time>2014-06-06T22:36:40Z</time>
      </trkpt>
      <trkpt lat="44.101339280605316" lon="3.124124659225345">
        <time>2014-06-06T22:36:46Z</time>
      </trkpt>
      <trkpt lat="44.101269962266088" lon="3.123759962618351">
        <time>2014-06-06T22:36:51Z</time>
      </trkpt>
      <trkpt lat="44.101240038871765" lon="3.123429967090488">
        <time>2014-06-06T22:36:56Z</time>
      </trkpt>
      <trkpt lat="44.101240038871765" lon="3.122992850840092">
        <time>2014-06-06T22:37:02Z</time>
      </trkpt>
      <trkpt lat="44.101240038871765" lon="3.122555734589696">
        <time>2014-06-06T22:37:08Z</time>
      </trkpt>
      <trkpt lat="44.101240038871765" lon="3.122260021045804">
        <time>2014-06-06T22:37:12Z</time>
      </trkpt>
      <trkpt lat="44.101216066628695" lon="3.121824162080884">
        <time>2014-06-06T22:37:18Z</time>
      </trkpt>
      <trkpt lat="44.101192094385624" lon="3.121388303115964">
        <time>2014-06-06T22:37:24Z</time>
      </trkpt>
      <trkpt lat="44.101189998909831" lon="3.12134999781847">
        <time>2014-06-06T22:37:25Z</time>
      </trkpt>
      <trkpt lat="44.101198380813003" lon="3.120913049206138">
        <time>2014-06-06T22:37:31Z</time>
      </trkpt>
      <trkpt lat="44.101206846535206" lon="3.120476100593805">
        <time>2014-06-06T22:37:37Z</time>
      </trkpt>
      <trkpt lat="44.101210031658411" lon="3.120309971272945">
        <time>2014-06-06T22:37:39Z</time>
      </trkpt>
      <trkpt lat="44.101232578977942" lon="3.119874028488994">
        <time>2014-06-06T22:37:45Z</time>
      </trkpt>
      <trkpt lat="44.101255210116506" lon="3.11943800188601">
        <time>2014-06-06T22:37:51Z</time>
      </trkpt>
      <trkpt lat="44.101277841255069" lon="3.119002059102058">
        <time>2014-06-06T22:37:57Z</time>
      </trkpt>
      <trkpt lat="44.101300472393632" lon="3.118566032499075">
        <time>2014-06-06T22:38:03Z</time>
      </trkpt>
      <trkpt lat="44.101323019713163" lon="3.118130005896092">
        <time>2014-06-06T22:38:09Z</time>
      </trkpt>
      <trkpt lat="44.101345650851727" lon="3.11769406311214">
        <time>2014-06-06T22:38:15Z</time>
      </trkpt>
      <trkpt lat="44.101350009441376" lon="3.117609992623329">
        <time>2014-06-06T22:38:16Z</time>
      </trkpt>
      <trkpt lat="44.101436929777265" lon="3.117189891636372">
        <time>2014-06-06T22:38:22Z</time>
      </trkpt>
      <trkpt lat="44.101523850113153" lon="3.116769706830382">
        <time>2014-06-06T22:38:28Z</time>
      </trkpt>
      <trkpt lat="44.101589983329177" lon="3.11645002104342">
        <time>2014-06-06T22:38:33Z</time>
      </trkpt>
      <trkpt lat="44.101610016077757" lon="3.116280036047101">
        <time>2014-06-06T22:38:35Z</time>
      </trkpt>
      <trkpt lat="44.101589983329177" lon="3.116060011088848">
        <time>2014-06-06T22:38:38Z</time>
      </trkpt>
      <trkpt lat="44.101519994437695" lon="3.115830011665821">
        <time>2014-06-06T22:38:41Z</time>
      </trkpt>
      <trkpt lat="44.101349171251059" lon="3.115462716668844">
        <time>2014-06-06T22:38:47Z</time>
      </trkpt>
      <trkpt lat="44.101320002228022" lon="3.115400020033121">
        <time>2014-06-06T22:38:48Z</time>
      </trkpt>
      <trkpt lat="44.101133840158582" lon="3.115047309547663">
        <time>2014-06-06T22:38:54Z</time>
      </trkpt>
      <trkpt lat="44.101129984483123" lon="3.115040017291904">
        <time>2014-06-06T22:38:54Z</time>
      </trkpt>
      <trkpt lat="44.100999981164932" lon="3.114870032295585">
        <time>2014-06-06T22:38:57Z</time>
      </trkpt>
      <trkpt lat="44.100746847689152" lon="3.11460985802114">
        <time>2014-06-06T22:39:03Z</time>
      </trkpt>
      <trkpt lat="44.100639978423715" lon="3.114499971270561">
        <time>2014-06-06T22:39:06Z</time>
      </trkpt>
      <trkpt lat="44.100469993427396" lon="3.114290004596114">
        <time>2014-06-06T22:39:10Z</time>
      </trkpt>
      <trkpt lat="44.100330015644431" lon="3.114069979637861">
        <time>2014-06-06T22:39:14Z</time>
      </trkpt>
      <trkpt lat="44.100216273218393" lon="3.113662367686629">
        <time>2014-06-06T22:39:20Z</time>
      </trkpt>
      <trkpt lat="44.100209986791015" lon="3.113639988005161">
        <time>2014-06-06T22:39:20Z</time>
      </trkpt>
      <trkpt lat="44.100117869675159" lon="3.113221982493997">
        <time>2014-06-06T22:39:26Z</time>
      </trkpt>
      <trkpt lat="44.100079983472824" lon="3.113049985840917">
        <time>2014-06-06T22:39:28Z</time>
      </trkpt>
      <trkpt lat="44.100019969046116" lon="3.112650001421571">
        <time>2014-06-06T22:39:34Z</time>
      </trkpt>
      <trkpt lat="44.100030027329922" lon="3.112259991466999">
        <time>2014-06-06T22:39:39Z</time>
      </trkpt>
      <trkpt lat="44.10007000900805" lon="3.111909963190556">
        <time>2014-06-06T22:39:44Z</time>
      </trkpt>
      <trkpt lat="44.10015257075429" lon="3.111488185822964">
        <time>2014-06-06T22:39:50Z</time>
      </trkpt>
      <trkpt lat="44.100235048681498" lon="3.11106632463634">
        <time>2014-06-06T22:39:56Z</time>
      </trkpt>
      <trkpt lat="44.100249968469143" lon="3.110989965498447">
        <time>2014-06-06T22:39:57Z</time>
      </trkpt>
      <trkpt lat="44.10028450191021" lon="3.110555531457067">
        <time>2014-06-06T22:40:03Z</time>
      </trkpt>
      <trkpt lat="44.100318951532245" lon="3.110121013596654">
        <time>2014-06-06T22:40:09Z</time>
      </trkpt>
      <trkpt lat="44.100349964573979" lon="3.109729997813702">
        <time>2014-06-06T22:40:14Z</time>
      </trkpt>
      <trkpt lat="44.100378714501858" lon="3.109294725582004">
        <time>2014-06-06T22:40:20Z</time>
      </trkpt>
      <trkpt lat="44.100407464429736" lon="3.108859453350306">
        <time>2014-06-06T22:40:26Z</time>
      </trkpt>
      <trkpt lat="44.100436130538583" lon="3.108424097299576">
        <time>2014-06-06T22:40:32Z</time>
      </trkpt>
      <trkpt lat="44.100464880466461" lon="3.107988825067878">
        <time>2014-06-06T22:40:38Z</time>
      </trkpt>
      <trkpt lat="44.100493546575308" lon="3.10755355283618">
        <time>2014-06-06T22:40:44Z</time>
      </trkpt>
      <trkpt lat="44.100522296503186" lon="3.107118280604482">
        <time>2014-06-06T22:40:50Z</time>
      </trkpt>
      <trkpt lat="44.100550962612033" lon="3.106682924553752">
        <time>2014-06-06T22:40:56Z</time>
      </trkpt>
      <trkpt lat="44.100579712539911" lon="3.106247652322054">
        <time>2014-06-06T22:41:02Z</time>
      </trkpt>
      <trkpt lat="44.100599996745586" lon="3.105940036475658">
        <time>2014-06-06T22:41:06Z</time>
      </trkpt>
      <trkpt lat="44.100624052807689" lon="3.105504177510738">
        <time>2014-06-06T22:41:12Z</time>
      </trkpt>
      <trkpt lat="44.100648025050759" lon="3.105068318545818">
        <time>2014-06-06T22:41:18Z</time>
      </trkpt>
      <trkpt lat="44.100669985637069" lon="3.104670010507107">
        <time>2014-06-06T22:41:23Z</time>
      </trkpt>
      <trkpt lat="44.100708290934563" lon="3.104236163198948">
        <time>2014-06-06T22:41:29Z</time>
      </trkpt>
      <trkpt lat="44.100746596232057" lon="3.103802232071757">
        <time>2014-06-06T22:41:35Z</time>
      </trkpt>
      <trkpt lat="44.100760007277131" lon="3.103650016710162">
        <time>2014-06-06T22:41:37Z</time>
      </trkpt>
      <trkpt lat="44.100790601223707" lon="3.103214912116528">
        <time>2014-06-06T22:41:43Z</time>
      </trkpt>
      <trkpt lat="44.100821111351252" lon="3.102779891341925">
        <time>2014-06-06T22:41:49Z</time>
      </trkpt>
      <trkpt lat="44.100851705297828" lon="3.102344870567322">
        <time>2014-06-06T22:41:55Z</time>
      </trkpt>
      <trkpt lat="44.100882215425372" lon="3.101909765973687">
        <time>2014-06-06T22:42:01Z</time>
      </trkpt>
      <trkpt lat="44.100912809371948" lon="3.101474745199084">
        <time>2014-06-06T22:42:07Z</time>
      </trkpt>
      <trkpt lat="44.10092999227345" lon="3.101229993626475">
        <time>2014-06-06T22:42:10Z</time>
      </trkpt>
      <trkpt lat="44.100956143811345" lon="3.10079438611865">
        <time>2014-06-06T22:42:16Z</time>
      </trkpt>
      <trkpt lat="44.10098229534924" lon="3.100358778610826">
        <time>2014-06-06T22:42:22Z</time>
      </trkpt>
      <trkpt lat="44.101008530706167" lon="3.099923171103001">
        <time>2014-06-06T22:42:28Z</time>
      </trkpt>
      <trkpt lat="44.101034682244062" lon="3.099487563595176">
        <time>2014-06-06T22:42:34Z</time>
      </trkpt>
      <trkpt lat="44.101060833781958" lon="3.099051956087351">
        <time>2014-06-06T22:42:40Z</time>
      </trkpt>
      <trkpt lat="44.101086985319853" lon="3.098616348579526">
        <time>2014-06-06T22:42:46Z</time>
      </trkpt>
      <trkpt lat="44.101113136857748" lon="3.098180741071701">
        <time>2014-06-06T22:42:52Z</time>
      </trkpt>
      <trkpt lat="44.101129984483123" lon="3.097900031134486">
        <time>2014-06-06T22:42:56Z</time>
      </trkpt>
      <trkpt lat="44.101169966161251" lon="3.097550002858043">
        <time>2014-06-06T22:43:01Z</time>
      </trkpt>
      <trkpt lat="44.101286558434367" lon="3.097143899649382">
        <time>2014-06-06T22:43:07Z</time>
      </trkpt>
      <trkpt lat="44.101403150707483" lon="3.096737796440721">
        <time>2014-06-06T22:43:13Z</time>
      </trkpt>
      <trkpt lat="44.101480012759566" lon="3.09646999463439">
        <time>2014-06-06T22:43:17Z</time>
      </trkpt>
      <trkpt lat="44.101529968902469" lon="3.096319958567619">
        <time>2014-06-06T22:43:19Z</time>
      </trkpt>
      <trkpt lat="44.101570034399629" lon="3.096249969676137">
        <time>2014-06-06T22:43:20Z</time>
      </trkpt>
      <trkpt lat="44.101610016077757" lon="3.096049977466464">
        <time>2014-06-06T22:43:23Z</time>
      </trkpt>
      <trkpt lat="44.101718980818987" lon="3.095639850944281">
        <time>2014-06-06T22:43:29Z</time>
      </trkpt>
      <trkpt lat="44.101819982752204" lon="3.095259983092547">
        <time>2014-06-06T22:43:35Z</time>
      </trkpt>
      <trkpt lat="44.101909166201949" lon="3.094840804114938">
        <time>2014-06-06T22:43:41Z</time>
      </trkpt>
      <trkpt lat="44.10191997885704" lon="3.094790009781718">
        <time>2014-06-06T22:43:42Z</time>
      </trkpt>
      <trkpt lat="44.101955518126488" lon="3.094355659559369">
        <time>2014-06-06T22:43:48Z</time>
      </trkpt>
      <trkpt lat="44.101991057395935" lon="3.09392130933702">
        <time>2014-06-06T22:43:54Z</time>
      </trkpt>
      <trkpt lat="44.102026512846351" lon="3.093486959114671">
        <time>2014-06-06T22:44:00Z</time>
      </trkpt>
      <trkpt lat="44.102049982175231" lon="3.093199962750077">
        <time>2014-06-06T22:44:04Z</time>
      </trkpt>
      <trkpt lat="44.102049982175231" lon="3.092910032719374">
        <time>2014-06-06T22:44:08Z</time>
      </trkpt>
      <trkpt lat="44.102100022137165" lon="3.092529997229576">
        <time>2014-06-06T22:44:13Z</time>
      </trkpt>
      <trkpt lat="44.102170011028647" lon="3.092339979484677">
        <time>2014-06-06T22:44:16Z</time>
      </trkpt>
      <trkpt lat="44.102405291050673" lon="3.09204937890172">
        <time>2014-06-06T22:44:22Z</time>
      </trkpt>
      <trkpt lat="44.102509981021285" lon="3.091919962316752">
        <time>2014-06-06T22:44:25Z</time>
      </trkpt>
      <trkpt lat="44.102685414254665" lon="3.091556942090392">
        <time>2014-06-06T22:44:31Z</time>
      </trkpt>
      <trkpt lat="44.102860763669014" lon="3.091193838045001">
        <time>2014-06-06T22:44:37Z</time>
      </trkpt>
      <trkpt lat="44.103036196902394" lon="3.09083073399961">
        <time>2014-06-06T22:44:43Z</time>
      </trkpt>
      <trkpt lat="44.103080034255981" lon="3.090740041807294">
        <time>2014-06-06T22:44:44Z</time>
      </trkpt>
      <trkpt lat="44.103230321779847" lon="3.090355815365911">
        <time>2014-06-06T22:44:50Z</time>
      </trkpt>
      <trkpt lat="44.103259993717074" lon="3.090279959142208">
        <time>2014-06-06T22:44:51Z</time>
      </trkpt>
      <trkpt lat="44.103299975395203" lon="3.089990029111505">
        <time>2014-06-06T22:44:55Z</time>
      </trkpt>
      <trkpt lat="44.103264436125755" lon="3.089555678889155">
        <time>2014-06-06T22:45:01Z</time>
      </trkpt>
      <trkpt lat="44.1032500192523" lon="3.08937999419868">
        <time>2014-06-06T22:45:03Z</time>
      </trkpt>
      <trkpt lat="44.103299975395203" lon="3.089210009202361">
        <time>2014-06-06T22:45:06Z</time>
      </trkpt>
      <trkpt lat="44.103399971500039" lon="3.089189976453781">
        <time>2014-06-06T22:45:08Z</time>
      </trkpt>
      <trkpt lat="44.103559982031584" lon="3.089330038055778">
        <time>2014-06-06T22:45:12Z</time>
      </trkpt>
      <trkpt lat="44.103589989244938" lon="3.089449983090162">
        <time>2014-06-06T22:45:14Z</time>
      </trkpt>
      <trkpt lat="44.103580014780164" lon="3.089549979194999">
        <time>2014-06-06T22:45:15Z</time>
      </trkpt>
      <trkpt lat="44.103480018675327" lon="3.089860025793314">
        <time>2014-06-06T22:45:20Z</time>
      </trkpt>
      <trkpt lat="44.103450011461973" lon="3.090069992467761">
        <time>2014-06-06T22:45:23Z</time>
      </trkpt>
      <trkpt lat="44.103446574881673" lon="3.090507108718157">
        <time>2014-06-06T22:45:29Z</time>
      </trkpt>
      <trkpt lat="44.103443222120404" lon="3.090944224968553">
        <time>2014-06-06T22:45:35Z</time>
      </trkpt>
      <trkpt lat="44.103440036997199" lon="3.091359967365861">
        <time>2014-06-06T22:45:41Z</time>
      </trkpt>
      <trkpt lat="44.103399971500039" lon="3.091719970107079">
        <time>2014-06-06T22:45:46Z</time>
      </trkpt>
      <trkpt lat="44.103309949859977" lon="3.092138897627592">
        <time>2014-06-06T22:45:52Z</time>
      </trkpt>
      <trkpt lat="44.103219928219914" lon="3.092557825148106">
        <time>2014-06-06T22:45:58Z</time>
      </trkpt>
      <trkpt lat="44.103169972077012" lon="3.092790003865957">
        <time>2014-06-06T22:46:01Z</time>
      </trkpt>
      <trkpt lat="44.103129990398884" lon="3.093189988285303">
        <time>2014-06-06T22:46:07Z</time>
      </trkpt>
      <trkpt lat="44.103124709799886" lon="3.093627104535699">
        <time>2014-06-06T22:46:13Z</time>
      </trkpt>
      <trkpt lat="44.10312001593411" lon="3.094009989872575">
        <time>2014-06-06T22:46:18Z</time>
      </trkpt>
      <trkpt lat="44.103016750887036" lon="3.094422966241837">
        <time>2014-06-06T22:46:24Z</time>
      </trkpt>
      <trkpt lat="44.102969979867339" lon="3.094609966501594">
        <time>2014-06-06T22:46:27Z</time>
      </trkpt>
      <trkpt lat="44.102935949340463" lon="3.095044568181038">
        <time>2014-06-06T22:46:33Z</time>
      </trkpt>
      <trkpt lat="44.102929998189211" lon="3.095120005309582">
        <time>2014-06-06T22:46:34Z</time>
      </trkpt>
      <trkpt lat="44.102950030937791" lon="3.095199968665838">
        <time>2014-06-06T22:46:35Z</time>
      </trkpt>
      <trkpt lat="44.102990012615919" lon="3.095250008627772">
        <time>2014-06-06T22:46:36Z</time>
      </trkpt>
      <trkpt lat="44.103039968758821" lon="3.095259983092547">
        <time>2014-06-06T22:46:37Z</time>
      </trkpt>
      <trkpt lat="44.103090008720756" lon="3.095229975879192">
        <time>2014-06-06T22:46:38Z</time>
      </trkpt>
      <trkpt lat="44.103220012038946" lon="3.094880031421781">
        <time>2014-06-06T22:46:43Z</time>
      </trkpt>
      <trkpt lat="44.103310033679008" lon="3.094739969819784">
        <time>2014-06-06T22:46:46Z</time>
      </trkpt>
      <trkpt lat="44.103489993140101" lon="3.094660006463528">
        <time>2014-06-06T22:46:50Z</time>
      </trkpt>
      <trkpt lat="44.10355000756681" lon="3.094609966501594">
        <time>2014-06-06T22:46:51Z</time>
      </trkpt>
      <trkpt lat="44.103619996458292" lon="3.094479963183403">
        <time>2014-06-06T22:46:53Z</time>
      </trkpt>
      <trkpt lat="44.103747569024563" lon="3.094080314040184">
        <time>2014-06-06T22:46:59Z</time>
      </trkpt>
      <trkpt lat="44.103875141590834" lon="3.093680664896965">
        <time>2014-06-06T22:47:05Z</time>
      </trkpt>
      <trkpt lat="44.104002714157104" lon="3.093280931934714">
        <time>2014-06-06T22:47:11Z</time>
      </trkpt>
      <trkpt lat="44.104070020839572" lon="3.093069959431887">
        <time>2014-06-06T22:47:14Z</time>
      </trkpt>
      <trkpt lat="44.104189965873957" lon="3.092759996652603">
        <time>2014-06-06T22:47:19Z</time>
      </trkpt>
      <trkpt lat="44.104381492361426" lon="3.09241290204227">
        <time>2014-06-06T22:47:25Z</time>
      </trkpt>
      <trkpt lat="44.104509986937046" lon="3.092179968953133">
        <time>2014-06-06T22:47:29Z</time>
      </trkpt>
      <trkpt lat="44.104646779596806" lon="3.091786187142134">
        <time>2014-06-06T22:47:35Z</time>
      </trkpt>
      <trkpt lat="44.104760019108653" lon="3.091459963470697">
        <time>2014-06-06T22:47:40Z</time>
      </trkpt>
      <trkpt lat="44.104879964143038" lon="3.091189982369542">
        <time>2014-06-06T22:47:44Z</time>
      </trkpt>
      <trkpt lat="44.105030000209808" lon="3.090970041230321">
        <time>2014-06-06T22:47:48Z</time>
      </trkpt>
      <trkpt lat="44.105199985206127" lon="3.090810030698776">
        <time>2014-06-06T22:47:52Z</time>
      </trkpt>
      <trkpt lat="44.1053999774158" lon="3.09071003459394">
        <time>2014-06-06T22:47:56Z</time>
      </trkpt>
      <trkpt lat="44.105659984052181" lon="3.090650020167232">
        <time>2014-06-06T22:48:01Z</time>
      </trkpt>
      <trkpt lat="44.105819994583726" lon="3.090639961883426">
        <time>2014-06-06T22:48:04Z</time>
      </trkpt>
      <trkpt lat="44.106122329831123" lon="3.090762840583921">
        <time>2014-06-06T22:48:10Z</time>
      </trkpt>
      <trkpt lat="44.106424581259489" lon="3.090885635465384">
        <time>2014-06-06T22:48:16Z</time>
      </trkpt>
      <trkpt lat="44.106460036709905" lon="3.090899968519807">
        <time>2014-06-06T22:48:17Z</time>
      </trkpt>
      <trkpt lat="44.106768826022744" lon="3.090985799208283">
        <time>2014-06-06T22:48:23Z</time>
      </trkpt>
      <trkpt lat="44.106820039451122" lon="3.090999964624643">
        <time>2014-06-06T22:48:24Z</time>
      </trkpt>
      <trkpt lat="44.107132852077484" lon="3.09105109423399">
        <time>2014-06-06T22:48:30Z</time>
      </trkpt>
      <trkpt lat="44.107309961691499" lon="3.091080011799932">
        <time>2014-06-06T22:48:33Z</time>
      </trkpt>
      <trkpt lat="44.107624031603336" lon="3.09104572981596">
        <time>2014-06-06T22:48:39Z</time>
      </trkpt>
      <trkpt lat="44.107859982177615" lon="3.091019997373223">
        <time>2014-06-06T22:48:44Z</time>
      </trkpt>
      <trkpt lat="44.108174974098802" lon="3.091022679582238">
        <time>2014-06-06T22:48:50Z</time>
      </trkpt>
      <trkpt lat="44.108489966019988" lon="3.091025445610285">
        <time>2014-06-06T22:48:56Z</time>
      </trkpt>
      <trkpt lat="44.108804957941175" lon="3.0910281278193">
        <time>2014-06-06T22:49:02Z</time>
      </trkpt>
      <trkpt lat="44.109020037576556" lon="3.091029971837997">
        <time>2014-06-06T22:49:06Z</time>
      </trkpt>
      <trkpt lat="44.109334778040648" lon="3.091047490015626">
        <time>2014-06-06T22:49:12Z</time>
      </trkpt>
      <trkpt lat="44.109559999778867" lon="3.091059979051352">
        <time>2014-06-06T22:49:16Z</time>
      </trkpt>
      <trkpt lat="44.109873985871673" lon="3.091025110334158">
        <time>2014-06-06T22:49:22Z</time>
      </trkpt>
      <trkpt lat="44.109920002520084" lon="3.091019997373223">
        <time>2014-06-06T22:49:23Z</time>
      </trkpt>
      <trkpt lat="44.110040031373501" lon="3.091040030121803">
        <time>2014-06-06T22:49:25Z</time>
      </trkpt>
      <trkpt lat="44.110341528430581" lon="3.091166596859694">
        <time>2014-06-06T22:49:31Z</time>
      </trkpt>
      <trkpt lat="44.110540011897683" lon="3.09124999679625">
        <time>2014-06-06T22:49:35Z</time>
      </trkpt>
      <trkpt lat="44.11081250756979" lon="3.09146935120225">
        <time>2014-06-06T22:49:41Z</time>
      </trkpt>
      <trkpt lat="44.110949970781803" lon="3.091579992324114">
        <time>2014-06-06T22:49:44Z</time>
      </trkpt>
      <trkpt lat="44.111079974099994" lon="3.091640006750822">
        <time>2014-06-06T22:49:47Z</time>
      </trkpt>
      <trkpt lat="44.11122003570199" lon="3.091670013964176">
        <time>2014-06-06T22:49:50Z</time>
      </trkpt>
      <trkpt lat="44.111533937975764" lon="3.091705469414592">
        <time>2014-06-06T22:49:56Z</time>
      </trkpt>
      <trkpt lat="44.111839961260557" lon="3.091740002855659">
        <time>2014-06-06T22:50:02Z</time>
      </trkpt>
      <trkpt lat="44.111959990113974" lon="3.091789958998561">
        <time>2014-06-06T22:50:04Z</time>
      </trkpt>
      <trkpt lat="44.111999971792102" lon="3.091890038922429">
        <time>2014-06-06T22:50:06Z</time>
      </trkpt>
      <trkpt lat="44.111999971792102" lon="3.091960027813911">
        <time>2014-06-06T22:50:07Z</time>
      </trkpt>
      <trkpt lat="44.111950015649199" lon="3.092019958421588">
        <time>2014-06-06T22:50:08Z</time>
      </trkpt>
      <trkpt lat="44.111920008435845" lon="3.092030016705394">
        <time>2014-06-06T22:50:09Z</time>
      </trkpt>
      <trkpt lat="44.111690009012818" lon="3.091960027813911">
        <time>2014-06-06T22:50:13Z</time>
      </trkpt>
      <trkpt lat="44.111469984054565" lon="3.091960027813911">
        <time>2014-06-06T22:50:17Z</time>
      </trkpt>
      <trkpt lat="44.111169995740056" lon="3.092030016705394">
        <time>2014-06-06T22:50:23Z</time>
      </trkpt>
      <trkpt lat="44.110864643007517" lon="3.09213730506599">
        <time>2014-06-06T22:50:29Z</time>
      </trkpt>
      <trkpt lat="44.110800018534064" lon="3.092160020023584">
        <time>2014-06-06T22:50:30Z</time>
      </trkpt>
      <trkpt lat="44.110499694943428" lon="3.092291951179504">
        <time>2014-06-06T22:50:36Z</time>
      </trkpt>
      <trkpt lat="44.110199371352792" lon="3.092423882335424">
        <time>2014-06-06T22:50:42Z</time>
      </trkpt>
      <trkpt lat="44.110140027478337" lon="3.09245003387332">
        <time>2014-06-06T22:50:43Z</time>
      </trkpt>
      <trkpt lat="44.109912877902389" lon="3.092752872034907">
        <time>2014-06-06T22:50:49Z</time>
      </trkpt>
      <trkpt lat="44.109690003097057" lon="3.093050010502338">
        <time>2014-06-06T22:50:55Z</time>
      </trkpt>
      <trkpt lat="44.109569974243641" lon="3.093250002712011">
        <time>2014-06-06T22:50:59Z</time>
      </trkpt>
      <trkpt lat="44.109419686719775" lon="3.093634145334363">
        <time>2014-06-06T22:51:05Z</time>
      </trkpt>
      <trkpt lat="44.109299993142486" lon="3.093940000981093">
        <time>2014-06-06T22:51:10Z</time>
      </trkpt>
      <trkpt lat="44.109179964289069" lon="3.094160025939345">
        <time>2014-06-06T22:51:14Z</time>
      </trkpt>
      <trkpt lat="44.109109975397587" lon="3.094230014830828">
        <time>2014-06-06T22:51:16Z</time>
      </trkpt>
      <trkpt lat="44.10903001204133" lon="3.094269996508956">
        <time>2014-06-06T22:51:18Z</time>
      </trkpt>
      <trkpt lat="44.10890000872314" lon="3.09430000372231">
        <time>2014-06-06T22:51:21Z</time>
      </trkpt>
      <trkpt lat="44.108589962124825" lon="3.094290029257536">
        <time>2014-06-06T22:51:27Z</time>
      </trkpt>
      <trkpt lat="44.108500024303794" lon="3.094309978187084">
        <time>2014-06-06T22:51:29Z</time>
      </trkpt>
      <trkpt lat="44.108249992132187" lon="3.094409974291921">
        <time>2014-06-06T22:51:34Z</time>
      </trkpt>
      <trkpt lat="44.10814999602735" lon="3.094409974291921">
        <time>2014-06-06T22:51:36Z</time>
      </trkpt>
      <trkpt lat="44.107860904186964" lon="3.094236552715302">
        <time>2014-06-06T22:51:42Z</time>
      </trkpt>
      <trkpt lat="44.107799967750907" lon="3.094200007617474">
        <time>2014-06-06T22:51:43Z</time>
      </trkpt>
      <trkpt lat="44.10761003382504" lon="3.094179974868894">
        <time>2014-06-06T22:51:47Z</time>
      </trkpt>
      <trkpt lat="44.107303004711866" lon="3.094277707859874">
        <time>2014-06-06T22:51:53Z</time>
      </trkpt>
      <trkpt lat="44.107169983908534" lon="3.09432003647089">
        <time>2014-06-06T22:51:56Z</time>
      </trkpt>
      <trkpt lat="44.106871001422405" lon="3.094457415863872">
        <time>2014-06-06T22:52:02Z</time>
      </trkpt>
      <trkpt lat="44.106800006702542" lon="3.094490021467209">
        <time>2014-06-06T22:52:03Z</time>
      </trkpt>
      <trkpt lat="44.106639996170998" lon="3.09459999203682">
        <time>2014-06-06T22:52:06Z</time>
      </trkpt>
      <trkpt lat="44.106530025601387" lon="3.094720020890236">
        <time>2014-06-06T22:52:09Z</time>
      </trkpt>
      <trkpt lat="44.106449978426099" lon="3.094839965924621">
        <time>2014-06-06T22:52:11Z</time>
      </trkpt>
      <trkpt lat="44.106289967894554" lon="3.09518001973629">
        <time>2014-06-06T22:52:17Z</time>
      </trkpt>
      <trkpt lat="44.106249986216426" lon="3.095289990305901">
        <time>2014-06-06T22:52:19Z</time>
      </trkpt>
      <trkpt lat="44.106200030073524" lon="3.095619985833764">
        <time>2014-06-06T22:52:24Z</time>
      </trkpt>
      <trkpt lat="44.106179997324944" lon="3.096009995788336">
        <time>2014-06-06T22:52:29Z</time>
      </trkpt>
      <trkpt lat="44.106200030073524" lon="3.096260027959943">
        <time>2014-06-06T22:52:32Z</time>
      </trkpt>
      <trkpt lat="44.106305222958326" lon="3.096672082319856">
        <time>2014-06-06T22:52:38Z</time>
      </trkpt>
      <trkpt lat="44.106319975107908" lon="3.096730001270771">
        <time>2014-06-06T22:52:39Z</time>
      </trkpt>
      <trkpt lat="44.106349982321262" lon="3.09702998958528">
        <time>2014-06-06T22:52:43Z</time>
      </trkpt>
      <trkpt lat="44.106330033391714" lon="3.09745998121798">
        <time>2014-06-06T22:52:49Z</time>
      </trkpt>
      <trkpt lat="44.106370015069842" lon="3.097529970109463">
        <time>2014-06-06T22:52:50Z</time>
      </trkpt>
      <trkpt lat="44.106430029496551" lon="3.097529970109463">
        <time>2014-06-06T22:52:51Z</time>
      </trkpt>
      <trkpt lat="44.106470011174679" lon="3.097470039501786">
        <time>2014-06-06T22:52:52Z</time>
      </trkpt>
      <trkpt lat="44.106479985639453" lon="3.097159992903471">
        <time>2014-06-06T22:52:56Z</time>
      </trkpt>
      <trkpt lat="44.106530025601387" lon="3.096980033442378">
        <time>2014-06-06T22:52:59Z</time>
      </trkpt>
      <trkpt lat="44.106678301468492" lon="3.096594382077456">
        <time>2014-06-06T22:53:05Z</time>
      </trkpt>
      <trkpt lat="44.106679977849126" lon="3.096590023487806">
        <time>2014-06-06T22:53:05Z</time>
      </trkpt>
      <trkpt lat="44.106739992275834" lon="3.096479969099164">
        <time>2014-06-06T22:53:07Z</time>
      </trkpt>
      <trkpt lat="44.106860021129251" lon="3.096360024064779">
        <time>2014-06-06T22:53:10Z</time>
      </trkpt>
      <trkpt lat="44.106949958950281" lon="3.096290035173297">
        <time>2014-06-06T22:53:12Z</time>
      </trkpt>
      <trkpt lat="44.107120027765632" lon="3.096230020746589">
        <time>2014-06-06T22:53:15Z</time>
      </trkpt>
      <trkpt lat="44.107390008866787" lon="3.096170006319881">
        <time>2014-06-06T22:53:20Z</time>
      </trkpt>
      <trkpt lat="44.107704916968942" lon="3.096163719892502">
        <time>2014-06-06T22:53:26Z</time>
      </trkpt>
      <trkpt lat="44.107889989390969" lon="3.096160031855106">
        <time>2014-06-06T22:53:30Z</time>
      </trkpt>
      <trkpt lat="44.10817002877593" lon="3.096170006319881">
        <time>2014-06-06T22:53:35Z</time>
      </trkpt>
      <trkpt lat="44.108478901907802" lon="3.096255837008357">
        <time>2014-06-06T22:53:41Z</time>
      </trkpt>
      <trkpt lat="44.108709990978241" lon="3.096319958567619">
        <time>2014-06-06T22:53:45Z</time>
      </trkpt>
      <trkpt lat="44.108949964866042" lon="3.096360024064779">
        <time>2014-06-06T22:53:50Z</time>
      </trkpt>
      <trkpt lat="44.109264453873038" lon="3.096384666860104">
        <time>2014-06-06T22:53:56Z</time>
      </trkpt>
      <trkpt lat="44.10946000367403" lon="3.096400005742908">
        <time>2014-06-06T22:54:00Z</time>
      </trkpt>
      <trkpt lat="44.109659995883703" lon="3.096430012956262">
        <time>2014-06-06T22:54:04Z</time>
      </trkpt>
      <trkpt lat="44.109789999201894" lon="3.09646999463439">
        <time>2014-06-06T22:54:07Z</time>
      </trkpt>
      <trkpt lat="44.110084539279342" lon="3.096624976024032">
        <time>2014-06-06T22:54:13Z</time>
      </trkpt>
      <trkpt lat="44.110170034691691" lon="3.096669986844063">
        <time>2014-06-06T22:54:15Z</time>
      </trkpt>
      <trkpt lat="44.110300038009882" lon="3.096709968522191">
        <time>2014-06-06T22:54:18Z</time>
      </trkpt>
      <trkpt lat="44.110613185912371" lon="3.096756990998983">
        <time>2014-06-06T22:54:24Z</time>
      </trkpt>
      <trkpt lat="44.110700022429228" lon="3.096769982948899">
        <time>2014-06-06T22:54:26Z</time>
      </trkpt>
      <trkpt lat="44.110939996317029" lon="3.096829997375608">
        <time>2014-06-06T22:54:31Z</time>
      </trkpt>
      <trkpt lat="44.11124057136476" lon="3.096960671246052">
        <time>2014-06-06T22:54:37Z</time>
      </trkpt>
      <trkpt lat="44.111541146412492" lon="3.097091345116496">
        <time>2014-06-06T22:54:43Z</time>
      </trkpt>
      <trkpt lat="44.11162999458611" lon="3.097129985690117">
        <time>2014-06-06T22:54:45Z</time>
      </trkpt>
      <trkpt lat="44.111940544098616" lon="3.097203243523836">
        <time>2014-06-06T22:54:51Z</time>
      </trkpt>
      <trkpt lat="44.112251093611121" lon="3.097276585176587">
        <time>2014-06-06T22:54:57Z</time>
      </trkpt>
      <trkpt lat="44.112519985064864" lon="3.097340036183596">
        <time>2014-06-06T22:55:02Z</time>
      </trkpt>
      <trkpt lat="44.112828690558672" lon="3.097426788881421">
        <time>2014-06-06T22:55:08Z</time>
      </trkpt>
      <trkpt lat="44.112840006127954" lon="3.097429974004626">
        <time>2014-06-06T22:55:08Z</time>
      </trkpt>
      <trkpt lat="44.113119961693883" lon="3.097610017284751">
        <time>2014-06-06T22:55:14Z</time>
      </trkpt>
      <trkpt lat="44.113377286121249" lon="3.097862228751183">
        <time>2014-06-06T22:55:20Z</time>
      </trkpt>
      <trkpt lat="44.113634526729584" lon="3.098114440217614">
        <time>2014-06-06T22:55:26Z</time>
      </trkpt>
      <trkpt lat="44.11389185115695" lon="3.098366735503078">
        <time>2014-06-06T22:55:32Z</time>
      </trkpt>
      <trkpt lat="44.114140039309859" lon="3.098609978333116">
        <time>2014-06-06T22:55:38Z</time>
      </trkpt>
      <trkpt lat="44.114340031519532" lon="3.098860010504723">
        <time>2014-06-06T22:55:43Z</time>
      </trkpt>
      <trkpt lat="44.114532060921192" lon="3.099206602200866">
        <time>2014-06-06T22:55:49Z</time>
      </trkpt>
      <trkpt lat="44.11472400650382" lon="3.099553193897009">
        <time>2014-06-06T22:55:55Z</time>
      </trkpt>
      <trkpt lat="44.114749990403652" lon="3.099599964916706">
        <time>2014-06-06T22:55:56Z</time>
      </trkpt>
      <trkpt lat="44.114952581003308" lon="3.099934738129377">
        <time>2014-06-06T22:56:02Z</time>
      </trkpt>
      <trkpt lat="44.114979989826679" lon="3.099980000406504">
        <time>2014-06-06T22:56:03Z</time>
      </trkpt>
      <trkpt lat="44.115214766934514" lon="3.100271439179778">
        <time>2014-06-06T22:56:09Z</time>
      </trkpt>
      <trkpt lat="44.115270003676414" lon="3.100340003147721">
        <time>2014-06-06T22:56:10Z</time>
      </trkpt>
      <trkpt lat="44.115486843511462" lon="3.100657090544701">
        <time>2014-06-06T22:56:16Z</time>
      </trkpt>
      <trkpt lat="44.11570368334651" lon="3.100974261760712">
        <time>2014-06-06T22:56:22Z</time>
      </trkpt>
      <trkpt lat="44.115920523181558" lon="3.101291349157691">
        <time>2014-06-06T22:56:28Z</time>
      </trkpt>
      <trkpt lat="44.116137446835637" lon="3.10160843655467">
        <time>2014-06-06T22:56:34Z</time>
      </trkpt>
      <trkpt lat="44.116199975833297" lon="3.101699966937304">
        <time>2014-06-06T22:56:36Z</time>
      </trkpt>
      <trkpt lat="44.116379600018263" lon="3.102059215307236">
        <time>2014-06-06T22:56:42Z</time>
      </trkpt>
      <trkpt lat="44.116480015218258" lon="3.102259961888194">
        <time>2014-06-06T22:56:45Z</time>
      </trkpt>
      <trkpt lat="44.116685036569834" lon="3.102591969072819">
        <time>2014-06-06T22:56:51Z</time>
      </trkpt>
      <trkpt lat="44.116689981892705" lon="3.102600015699863">
        <time>2014-06-06T22:56:51Z</time>
      </trkpt>
      <trkpt lat="44.116911767050624" lon="3.102910481393337">
        <time>2014-06-06T22:56:57Z</time>
      </trkpt>
      <trkpt lat="44.117133552208543" lon="3.103220947086811">
        <time>2014-06-06T22:57:03Z</time>
      </trkpt>
      <trkpt lat="44.117355337366462" lon="3.103531496599317">
        <time>2014-06-06T22:57:09Z</time>
      </trkpt>
      <trkpt lat="44.117539990693331" lon="3.103789994493127">
        <time>2014-06-06T22:57:14Z</time>
      </trkpt>
      <trkpt lat="44.117772169411182" lon="3.104085456579924">
        <time>2014-06-06T22:57:20Z</time>
      </trkpt>
      <trkpt lat="44.117980040609837" lon="3.104349989444017">
        <time>2014-06-06T22:57:25Z</time>
      </trkpt>
      <trkpt lat="44.118210040032864" lon="3.104579988867044">
        <time>2014-06-06T22:57:30Z</time>
      </trkpt>
      <trkpt lat="44.11829000338912" lon="3.104679984971881">
        <time>2014-06-06T22:57:32Z</time>
      </trkpt>
      <trkpt lat="44.1183100361377" lon="3.104749973863363">
        <time>2014-06-06T22:57:33Z</time>
      </trkpt>
      <trkpt lat="44.11829000338912" lon="3.104800013825297">
        <time>2014-06-06T22:57:34Z</time>
      </trkpt>
      <trkpt lat="44.118239963427186" lon="3.104830021038652">
        <time>2014-06-06T22:57:35Z</time>
      </trkpt>
      <trkpt lat="44.11818003281951" lon="3.104830021038652">
        <time>2014-06-06T22:57:36Z</time>
      </trkpt>
      <trkpt lat="44.117999989539385" lon="3.104619970545173">
        <time>2014-06-06T22:57:40Z</time>
      </trkpt>
      <trkpt lat="44.117731600999832" lon="3.104391060769558">
        <time>2014-06-06T22:57:46Z</time>
      </trkpt>
      <trkpt lat="44.117660019546747" lon="3.104330040514469">
        <time>2014-06-06T22:57:48Z</time>
      </trkpt>
      <trkpt lat="44.117383835837245" lon="3.104119654744864">
        <time>2014-06-06T22:57:54Z</time>
      </trkpt>
      <trkpt lat="44.117107735946774" lon="3.103909268975258">
        <time>2014-06-06T22:58:00Z</time>
      </trkpt>
      <trkpt lat="44.117030035704374" lon="3.103850008919835">
        <time>2014-06-06T22:58:02Z</time>
      </trkpt>
      <trkpt lat="44.116762317717075" lon="3.103619506582618">
        <time>2014-06-06T22:58:08Z</time>
      </trkpt>
      <trkpt lat="44.116670032963157" lon="3.10353996232152">
        <time>2014-06-06T22:58:10Z</time>
      </trkpt>
      <trkpt lat="44.116411032155156" lon="3.103291187435389">
        <time>2014-06-06T22:58:16Z</time>
      </trkpt>
      <trkpt lat="44.116159994155169" lon="3.103050040081143">
        <time>2014-06-06T22:58:22Z</time>
      </trkpt>
      <trkpt lat="44.115980034694076" lon="3.102820040658116">
        <time>2014-06-06T22:58:27Z</time>
      </trkpt>
      <trkpt lat="44.115939969196916" lon="3.102809982374311">
        <time>2014-06-06T22:58:28Z</time>
      </trkpt>
      <trkpt lat="44.115899987518787" lon="3.102830015122891">
        <time>2014-06-06T22:58:29Z</time>
      </trkpt>
      <trkpt lat="44.115880038589239" lon="3.102860022336245">
        <time>2014-06-06T22:58:30Z</time>
      </trkpt>
      <trkpt lat="44.115869980305433" lon="3.102909978479147">
        <time>2014-06-06T22:58:31Z</time>
      </trkpt>
      <trkpt lat="44.115899987518787" lon="3.103030007332563">
        <time>2014-06-06T22:58:33Z</time>
      </trkpt>
      <trkpt lat="44.116129986941814" lon="3.103239974007011">
        <time>2014-06-06T22:58:38Z</time>
      </trkpt>
      <trkpt lat="44.11636283621192" lon="3.103534430265427">
        <time>2014-06-06T22:58:44Z</time>
      </trkpt>
      <trkpt lat="44.116470040753484" lon="3.10366996563971">
        <time>2014-06-06T22:58:47Z</time>
      </trkpt>
      <trkpt lat="44.116692747920752" lon="3.103979174047709">
        <time>2014-06-06T22:58:53Z</time>
      </trkpt>
      <trkpt lat="44.116915455088019" lon="3.104288298636675">
        <time>2014-06-06T22:58:59Z</time>
      </trkpt>
      <trkpt lat="44.117138162255287" lon="3.104597507044673">
        <time>2014-06-06T22:59:05Z</time>
      </trkpt>
      <trkpt lat="44.117140006273985" lon="3.104600021615624">
        <time>2014-06-06T22:59:05Z</time>
      </trkpt>
      <trkpt lat="44.117380483075976" lon="3.104882324114442">
        <time>2014-06-06T22:59:11Z</time>
      </trkpt>
      <trkpt lat="44.117600005120039" lon="3.105139983817935">
        <time>2014-06-06T22:59:16Z</time>
      </trkpt>
      <trkpt lat="44.117830004543066" lon="3.105369983240962">
        <time>2014-06-06T22:59:21Z</time>
      </trkpt>
      <trkpt lat="44.118060003966093" lon="3.105539968237281">
        <time>2014-06-06T22:59:26Z</time>
      </trkpt>
      <trkpt lat="44.118250021710992" lon="3.105769967660308">
        <time>2014-06-06T22:59:31Z</time>
      </trkpt>
      <trkpt lat="44.118505585938692" lon="3.10602561570704">
        <time>2014-06-06T22:59:37Z</time>
      </trkpt>
      <trkpt lat="44.118540035560727" lon="3.106059981510043">
        <time>2014-06-06T22:59:38Z</time>
      </trkpt>
      <trkpt lat="44.118729969486594" lon="3.106189984828234">
        <time>2014-06-06T22:59:42Z</time>
      </trkpt>
      <trkpt lat="44.119027610868216" lon="3.106333315372467">
        <time>2014-06-06T22:59:48Z</time>
      </trkpt>
      <trkpt lat="44.119270015507936" lon="3.106449991464615">
        <time>2014-06-06T22:59:53Z</time>
      </trkpt>
      <trkpt lat="44.119370011612773" lon="3.106549987569451">
        <time>2014-06-06T22:59:55Z</time>
      </trkpt>
      <trkpt lat="44.119389960542321" lon="3.106659958139062">
        <time>2014-06-06T22:59:57Z</time>
      </trkpt>
      <trkpt lat="44.119349978864193" lon="3.106709998100996">
        <time>2014-06-06T22:59:58Z</time>
      </trkpt>
      <trkpt lat="44.119270015507936" lon="3.106700023636222">
        <time>2014-06-06T23:00:00Z</time>
      </trkpt>
      <trkpt lat="44.119140012189746" lon="3.106540013104677">
        <time>2014-06-06T23:00:03Z</time>
      </trkpt>
      <trkpt lat="44.119049990549684" lon="3.106479998677969">
        <time>2014-06-06T23:00:05Z</time>
      </trkpt>
      <trkpt lat="44.118819991126657" lon="3.106400035321713">
        <time>2014-06-06T23:00:10Z</time>
      </trkpt>
      <trkpt lat="44.118508854880929" lon="3.106331722810864">
        <time>2014-06-06T23:00:16Z</time>
      </trkpt>
      <trkpt lat="44.118410032242537" lon="3.10631001368165">
        <time>2014-06-06T23:00:18Z</time>
      </trkpt>
      <trkpt lat="44.118239963427186" lon="3.106199959293008">
        <time>2014-06-06T23:00:22Z</time>
      </trkpt>
      <trkpt lat="44.118005940690637" lon="3.105907430872321">
        <time>2014-06-06T23:00:28Z</time>
      </trkpt>
      <trkpt lat="44.117999989539385" lon="3.105899970978499">
        <time>2014-06-06T23:00:28Z</time>
      </trkpt>
      <trkpt lat="44.117890018969774" lon="3.105799974873662">
        <time>2014-06-06T23:00:31Z</time>
      </trkpt>
      <trkpt lat="44.117799997329712" lon="3.105810033157468">
        <time>2014-06-06T23:00:33Z</time>
      </trkpt>
      <trkpt lat="44.117779964581132" lon="3.105940036475658">
        <time>2014-06-06T23:00:35Z</time>
      </trkpt>
      <trkpt lat="44.11783997900784" lon="3.106010025367141">
        <time>2014-06-06T23:00:36Z</time>
      </trkpt>
      <trkpt lat="44.117960007861257" lon="3.106059981510043">
        <time>2014-06-06T23:00:38Z</time>
      </trkpt>
      <trkpt lat="44.118206854909658" lon="3.106331555172801">
        <time>2014-06-06T23:00:44Z</time>
      </trkpt>
      <trkpt lat="44.118359992280602" lon="3.106500031426549">
        <time>2014-06-06T23:00:48Z</time>
      </trkpt>
      <trkpt lat="44.118648497387767" lon="3.106675464659929">
        <time>2014-06-06T23:00:54Z</time>
      </trkpt>
      <trkpt lat="44.118937002494931" lon="3.10685089789331">
        <time>2014-06-06T23:01:00Z</time>
      </trkpt>
      <trkpt lat="44.119225591421127" lon="3.10702633112669">
        <time>2014-06-06T23:01:06Z</time>
      </trkpt>
      <trkpt lat="44.119514096528292" lon="3.10720176436007">
        <time>2014-06-06T23:01:12Z</time>
      </trkpt>
      <trkpt lat="44.119802601635456" lon="3.107377281412482">
        <time>2014-06-06T23:01:18Z</time>
      </trkpt>
      <trkpt lat="44.119839984923601" lon="3.107399996370077">
        <time>2014-06-06T23:01:19Z</time>
      </trkpt>
      <trkpt lat="44.12011600099504" lon="3.107610633596778">
        <time>2014-06-06T23:01:25Z</time>
      </trkpt>
      <trkpt lat="44.120392017066479" lon="3.107821270823479">
        <time>2014-06-06T23:01:31Z</time>
      </trkpt>
      <trkpt lat="44.120599972084165" lon="3.107980024069548">
        <time>2014-06-06T23:01:36Z</time>
      </trkpt>
      <trkpt lat="44.120889566838741" lon="3.108152188360691">
        <time>2014-06-06T23:01:42Z</time>
      </trkpt>
      <trkpt lat="44.120970033109188" lon="3.108199965208769">
        <time>2014-06-06T23:01:44Z</time>
      </trkpt>
      <trkpt lat="44.121149992570281" lon="3.108350001275539">
        <time>2014-06-06T23:01:48Z</time>
      </trkpt>
      <trkpt lat="44.121249988675117" lon="3.108519986271858">
        <time>2014-06-06T23:01:51Z</time>
      </trkpt>
      <trkpt lat="44.121397091075778" lon="3.108906727284193">
        <time>2014-06-06T23:01:57Z</time>
      </trkpt>
      <trkpt lat="44.121519969776273" lon="3.109230017289519">
        <time>2014-06-06T23:02:02Z</time>
      </trkpt>
      <trkpt lat="44.121570009738207" lon="3.109460016712546">
        <time>2014-06-06T23:02:05Z</time>
      </trkpt>
      <trkpt lat="44.121600016951561" lon="3.10976997949183">
        <time>2014-06-06T23:02:09Z</time>
      </trkpt>
      <trkpt lat="44.121618205681443" lon="3.110206509009004">
        <time>2014-06-06T23:02:15Z</time>
      </trkpt>
      <trkpt lat="44.121619965881109" lon="3.110250011086464">
        <time>2014-06-06T23:02:16Z</time>
      </trkpt>
      <trkpt lat="44.121671011671424" lon="3.110681511461735">
        <time>2014-06-06T23:02:22Z</time>
      </trkpt>
      <trkpt lat="44.121721973642707" lon="3.111113011837006">
        <time>2014-06-06T23:02:28Z</time>
      </trkpt>
      <trkpt lat="44.1217499691993" lon="3.111349968239665">
        <time>2014-06-06T23:02:31Z</time>
      </trkpt>
      <trkpt lat="44.121700013056397" lon="3.111449964344502">
        <time>2014-06-06T23:02:33Z</time>
      </trkpt>
      <trkpt lat="44.121639998629689" lon="3.111439989879727">
        <time>2014-06-06T23:02:34Z</time>
      </trkpt>
      <trkpt lat="44.121589958667755" lon="3.111379975453019">
        <time>2014-06-06T23:02:35Z</time>
      </trkpt>
      <trkpt lat="44.121619965881109" lon="3.111160034313798">
        <time>2014-06-06T23:02:38Z</time>
      </trkpt>
      <trkpt lat="44.121619965881109" lon="3.111030030995607">
        <time>2014-06-06T23:02:40Z</time>
      </trkpt>
      <trkpt lat="44.121549976989627" lon="3.11062996275723">
        <time>2014-06-06T23:02:46Z</time>
      </trkpt>
      <trkpt lat="44.121450735256076" lon="3.110214974731207">
        <time>2014-06-06T23:02:52Z</time>
      </trkpt>
      <trkpt lat="44.121440006420016" lon="3.110169963911176">
        <time>2014-06-06T23:02:53Z</time>
      </trkpt>
      <trkpt lat="44.121357277035713" lon="3.109748102724552">
        <time>2014-06-06T23:02:59Z</time>
      </trkpt>
      <trkpt lat="44.12134001031518" lon="3.109660008922219">
        <time>2014-06-06T23:03:00Z</time>
      </trkpt>
      <trkpt lat="44.121249988675117" lon="3.109439983963966">
        <time>2014-06-06T23:03:03Z</time>
      </trkpt>
      <trkpt lat="44.121200032532215" lon="3.109420035034418">
        <time>2014-06-06T23:03:04Z</time>
      </trkpt>
      <trkpt lat="44.121129959821701" lon="3.109449958428741">
        <time>2014-06-06T23:03:05Z</time>
      </trkpt>
      <trkpt lat="44.121119985356927" lon="3.109509972855449">
        <time>2014-06-06T23:03:06Z</time>
      </trkpt>
      <trkpt lat="44.121159967035055" lon="3.109630001708865">
        <time>2014-06-06T23:03:08Z</time>
      </trkpt>
      <trkpt lat="44.121259963139892" lon="3.109760005027056">
        <time>2014-06-06T23:03:11Z</time>
      </trkpt>
      <trkpt lat="44.121289970353246" lon="3.109829993918538">
        <time>2014-06-06T23:03:12Z</time>
      </trkpt>
      <trkpt lat="44.121346715837717" lon="3.110260153189302">
        <time>2014-06-06T23:03:18Z</time>
      </trkpt>
      <trkpt lat="44.121403461322188" lon="3.110690228641033">
        <time>2014-06-06T23:03:24Z</time>
      </trkpt>
      <trkpt lat="44.121409999206662" lon="3.110740017145872">
        <time>2014-06-06T23:03:25Z</time>
      </trkpt>
      <trkpt lat="44.121409999206662" lon="3.110889969393611">
        <time>2014-06-06T23:03:27Z</time>
      </trkpt>
      <trkpt lat="44.121359959244728" lon="3.111019972711802">
        <time>2014-06-06T23:03:29Z</time>
      </trkpt>
      <trkpt lat="44.121219981461763" lon="3.11110001988709">
        <time>2014-06-06T23:03:32Z</time>
      </trkpt>
      <trkpt lat="44.120919322595" lon="3.111230190843344">
        <time>2014-06-06T23:03:38Z</time>
      </trkpt>
      <trkpt lat="44.120618579909205" lon="3.111360277980566">
        <time>2014-06-06T23:03:44Z</time>
      </trkpt>
      <trkpt lat="44.120550015941262" lon="3.111390033736825">
        <time>2014-06-06T23:03:45Z</time>
      </trkpt>
      <trkpt lat="44.120235107839108" lon="3.111399002373219">
        <time>2014-06-06T23:03:51Z</time>
      </trkpt>
      <trkpt lat="44.120199987664819" lon="3.111400008201599">
        <time>2014-06-06T23:03:52Z</time>
      </trkpt>
      <trkpt lat="44.11988633684814" lon="3.111359439790249">
        <time>2014-06-06T23:03:58Z</time>
      </trkpt>
      <trkpt lat="44.119572769850492" lon="3.111318787559867">
        <time>2014-06-06T23:04:04Z</time>
      </trkpt>
      <trkpt lat="44.119349978864193" lon="3.111290037631989">
        <time>2014-06-06T23:04:08Z</time>
      </trkpt>
      <trkpt lat="44.119059965014458" lon="3.111300012096763">
        <time>2014-06-06T23:04:14Z</time>
      </trkpt>
      <trkpt lat="44.118799958378077" lon="3.111349968239665">
        <time>2014-06-06T23:04:19Z</time>
      </trkpt>
      <trkpt lat="44.118689987808466" lon="3.111420040950179">
        <time>2014-06-06T23:04:21Z</time>
      </trkpt>
      <trkpt lat="44.118619998916984" lon="3.11150997877121">
        <time>2014-06-06T23:04:23Z</time>
      </trkpt>
      <trkpt lat="44.118589991703629" lon="3.111600000411272">
        <time>2014-06-06T23:04:24Z</time>
      </trkpt>
      <trkpt lat="44.118589991703629" lon="3.111690022051334">
        <time>2014-06-06T23:04:25Z</time>
      </trkpt>
      <trkpt lat="44.118619998916984" lon="3.111820025369525">
        <time>2014-06-06T23:04:27Z</time>
      </trkpt>
      <trkpt lat="44.118786295875907" lon="3.112191343680024">
        <time>2014-06-06T23:04:33Z</time>
      </trkpt>
      <trkpt lat="44.118952676653862" lon="3.112562661990523">
        <time>2014-06-06T23:04:39Z</time>
      </trkpt>
      <trkpt lat="44.119049990549684" lon="3.112780004739761">
        <time>2014-06-06T23:04:43Z</time>
      </trkpt>
      <trkpt lat="44.11919885315001" lon="3.113165320828557">
        <time>2014-06-06T23:04:49Z</time>
      </trkpt>
      <trkpt lat="44.119219975546002" lon="3.113219970837236">
        <time>2014-06-06T23:04:50Z</time>
      </trkpt>
      <trkpt lat="44.119400018826127" lon="3.113560024648905">
        <time>2014-06-06T23:04:56Z</time>
      </trkpt>
      <trkpt lat="44.119630185887218" lon="3.113858420401812">
        <time>2014-06-06T23:05:02Z</time>
      </trkpt>
      <trkpt lat="44.119669999927282" lon="3.113909969106317">
        <time>2014-06-06T23:05:03Z</time>
      </trkpt>
      <trkpt lat="44.119809977710247" lon="3.114009965211153">
        <time>2014-06-06T23:05:06Z</time>
      </trkpt>
      <trkpt lat="44.120104014873505" lon="3.114166790619493">
        <time>2014-06-06T23:05:12Z</time>
      </trkpt>
      <trkpt lat="44.120260002091527" lon="3.114250022917986">
        <time>2014-06-06T23:05:15Z</time>
      </trkpt>
      <trkpt lat="44.120535934343934" lon="3.114460995420814">
        <time>2014-06-06T23:05:21Z</time>
      </trkpt>
      <trkpt lat="44.120599972084165" lon="3.114510029554367">
        <time>2014-06-06T23:05:22Z</time>
      </trkpt>
      <trkpt lat="44.120868779718876" lon="3.114738017320633">
        <time>2014-06-06T23:05:28Z</time>
      </trkpt>
      <trkpt lat="44.120929967612028" lon="3.114789985120297">
        <time>2014-06-06T23:05:29Z</time>
      </trkpt>
      <trkpt lat="44.12121151573956" lon="3.114986037835479">
        <time>2014-06-06T23:05:35Z</time>
      </trkpt>
      <trkpt lat="44.121489962562919" lon="3.115179995074868">
        <time>2014-06-06T23:05:41Z</time>
      </trkpt>
      <trkpt lat="44.121776456013322" lon="3.115361798554659">
        <time>2014-06-06T23:05:47Z</time>
      </trkpt>
      <trkpt lat="44.122009975835681" lon="3.115509990602732">
        <time>2014-06-06T23:05:52Z</time>
      </trkpt>
      <trkpt lat="44.122281800955534" lon="3.115730937570334">
        <time>2014-06-06T23:05:58Z</time>
      </trkpt>
      <trkpt lat="44.122553626075387" lon="3.115951968356967">
        <time>2014-06-06T23:06:04Z</time>
      </trkpt>
      <trkpt lat="44.12282545119524" lon="3.116172915324569">
        <time>2014-06-06T23:06:10Z</time>
      </trkpt>
      <trkpt lat="44.123097192496061" lon="3.116393946111202">
        <time>2014-06-06T23:06:16Z</time>
      </trkpt>
      <trkpt lat="44.123240020126104" lon="3.116510035470128">
        <time>2014-06-06T23:06:19Z</time>
      </trkpt>
      <trkpt lat="44.123474881052971" lon="3.116801306605339">
        <time>2014-06-06T23:06:25Z</time>
      </trkpt>
      <trkpt lat="44.12348996847868" lon="3.116819998249412">
        <time>2014-06-06T23:06:25Z</time>
      </trkpt>
      <trkpt lat="44.123549982905388" lon="3.11701001599431">
        <time>2014-06-06T23:06:28Z</time>
      </trkpt>
      <trkpt lat="44.123540008440614" lon="3.117180000990629">
        <time>2014-06-06T23:06:30Z</time>
      </trkpt>
      <trkpt lat="44.123500026762486" lon="3.117379993200302">
        <time>2014-06-06T23:06:33Z</time>
      </trkpt>
      <trkpt lat="44.123354265466332" lon="3.117767656221986">
        <time>2014-06-06T23:06:39Z</time>
      </trkpt>
      <trkpt lat="44.123208587989211" lon="3.11815531924367">
        <time>2014-06-06T23:06:45Z</time>
      </trkpt>
      <trkpt lat="44.123062826693058" lon="3.118542982265353">
        <time>2014-06-06T23:06:51Z</time>
      </trkpt>
      <trkpt lat="44.122970039024949" lon="3.118789996951819">
        <time>2014-06-06T23:06:55Z</time>
      </trkpt>
      <trkpt lat="44.122840706259012" lon="3.119188724085689">
        <time>2014-06-06T23:07:01Z</time>
      </trkpt>
      <trkpt lat="44.122729981318116" lon="3.119530035182834">
        <time>2014-06-06T23:07:06Z</time>
      </trkpt>
      <trkpt lat="44.122659992426634" lon="3.119939994066954">
        <time>2014-06-06T23:07:12Z</time>
      </trkpt>
      <trkpt lat="44.12260165438056" lon="3.120369734242559">
        <time>2014-06-06T23:07:18Z</time>
      </trkpt>
      <trkpt lat="44.122543232515454" lon="3.120799390599132">
        <time>2014-06-06T23:07:24Z</time>
      </trkpt>
      <trkpt lat="44.12248489446938" lon="3.121229130774736">
        <time>2014-06-06T23:07:30Z</time>
      </trkpt>
      <trkpt lat="44.122426472604275" lon="3.12165878713131">
        <time>2014-06-06T23:07:36Z</time>
      </trkpt>
      <trkpt lat="44.122409960255027" lon="3.12177998945117">
        <time>2014-06-06T23:07:38Z</time>
      </trkpt>
      <trkpt lat="44.122390011325479" lon="3.122190032154322">
        <time>2014-06-06T23:07:44Z</time>
      </trkpt>
      <trkpt lat="44.122409960255027" lon="3.122590016573668">
        <time>2014-06-06T23:07:50Z</time>
      </trkpt>
      <trkpt lat="44.12249319255352" lon="3.123011710122228">
        <time>2014-06-06T23:07:56Z</time>
      </trkpt>
      <trkpt lat="44.122576424852014" lon="3.12343348748982">
        <time>2014-06-06T23:08:02Z</time>
      </trkpt>
      <trkpt lat="44.122659573331475" lon="3.123855264857411">
        <time>2014-06-06T23:08:08Z</time>
      </trkpt>
      <trkpt lat="44.122699974104762" lon="3.124060034751892">
        <time>2014-06-06T23:08:11Z</time>
      </trkpt>
      <trkpt lat="44.122806088998914" lon="3.124471753835678">
        <time>2014-06-06T23:08:17Z</time>
      </trkpt>
      <trkpt lat="44.122869959101081" lon="3.124720025807619">
        <time>2014-06-06T23:08:21Z</time>
      </trkpt>
      <trkpt lat="44.12300230935216" lon="3.12511682510376">
        <time>2014-06-06T23:08:27Z</time>
      </trkpt>
      <trkpt lat="44.123134575784206" lon="3.125513708218932">
        <time>2014-06-06T23:08:33Z</time>
      </trkpt>
      <trkpt lat="44.123249994590878" lon="3.125859964638948">
        <time>2014-06-06T23:08:38Z</time>
      </trkpt>
      <trkpt lat="44.123289976269007" lon="3.126179985702038">
        <time>2014-06-06T23:08:42Z</time>
      </trkpt>
      <trkpt lat="44.123271619901061" lon="3.126616515219212">
        <time>2014-06-06T23:08:48Z</time>
      </trkpt>
      <trkpt lat="44.123253263533115" lon="3.127053044736385">
        <time>2014-06-06T23:08:54Z</time>
      </trkpt>
      <trkpt lat="44.123249994590878" lon="3.1271299906075">
        <time>2014-06-06T23:08:55Z</time>
      </trkpt>
      <trkpt lat="44.123289976269007" lon="3.127310033887625">
        <time>2014-06-06T23:08:58Z</time>
      </trkpt>
      <trkpt lat="44.123389972373843" lon="3.12758001498878">
        <time>2014-06-06T23:09:02Z</time>
      </trkpt>
      <trkpt lat="44.123549982905388" lon="3.127889977768064">
        <time>2014-06-06T23:09:07Z</time>
      </trkpt>
      <trkpt lat="44.123748214915395" lon="3.12822986394167">
        <time>2014-06-06T23:09:13Z</time>
      </trkpt>
      <trkpt lat="44.123900011181831" lon="3.128490038216114">
        <time>2014-06-06T23:09:18Z</time>
      </trkpt>
      <trkpt lat="44.124117521569133" lon="3.128806371241808">
        <time>2014-06-06T23:09:24Z</time>
      </trkpt>
      <trkpt lat="44.124230006709695" lon="3.128969985991716">
        <time>2014-06-06T23:09:27Z</time>
      </trkpt>
      <trkpt lat="44.12445648573339" lon="3.129273829981685">
        <time>2014-06-06T23:09:33Z</time>
      </trkpt>
      <trkpt lat="44.124639965593815" lon="3.129520006477833">
        <time>2014-06-06T23:09:38Z</time>
      </trkpt>
      <trkpt lat="44.124810034409165" lon="3.129689991474152">
        <time>2014-06-06T23:09:42Z</time>
      </trkpt>
      <trkpt lat="44.125092923641205" lon="3.129882188513875">
        <time>2014-06-06T23:09:48Z</time>
      </trkpt>
      <trkpt lat="44.125340022146702" lon="3.130049994215369">
        <time>2014-06-06T23:09:53Z</time>
      </trkpt>
      <trkpt lat="44.125614110380411" lon="3.130265409126878">
        <time>2014-06-06T23:09:59Z</time>
      </trkpt>
      <trkpt lat="44.125619977712631" lon="3.130270019173622">
        <time>2014-06-06T23:09:59Z</time>
      </trkpt>
      <trkpt lat="44.125770013779402" lon="3.130440004169941">
        <time>2014-06-06T23:10:03Z</time>
      </trkpt>
      <trkpt lat="44.125978304073215" lon="3.130768071860075">
        <time>2014-06-06T23:10:09Z</time>
      </trkpt>
      <trkpt lat="44.126169998198748" lon="3.131069988012314">
        <time>2014-06-06T23:10:15Z</time>
      </trkpt>
      <trkpt lat="44.126349622383714" lon="3.131429236382246">
        <time>2014-06-06T23:10:21Z</time>
      </trkpt>
      <trkpt lat="44.126369990408421" lon="3.13146997243166">
        <time>2014-06-06T23:10:22Z</time>
      </trkpt>
      <trkpt lat="44.126488594338298" lon="3.131875153630972">
        <time>2014-06-06T23:10:28Z</time>
      </trkpt>
      <trkpt lat="44.126490019261837" lon="3.131880015134811">
        <time>2014-06-06T23:10:28Z</time>
      </trkpt>
      <trkpt lat="44.126576352864504" lon="3.132300535216928">
        <time>2014-06-06T23:10:34Z</time>
      </trkpt>
      <trkpt lat="44.126662686467171" lon="3.132721139118075">
        <time>2014-06-06T23:10:40Z</time>
      </trkpt>
      <trkpt lat="44.126749020069838" lon="3.133141659200192">
        <time>2014-06-06T23:10:46Z</time>
      </trkpt>
      <trkpt lat="44.126799982041121" lon="3.133390014991164">
        <time>2014-06-06T23:10:50Z</time>
      </trkpt>
      <trkpt lat="44.126895619556308" lon="3.133806679397821">
        <time>2014-06-06T23:10:56Z</time>
      </trkpt>
      <trkpt lat="44.126939959824085" lon="3.133999966084957">
        <time>2014-06-06T23:10:59Z</time>
      </trkpt>
      <trkpt lat="44.127089325338602" lon="3.134385030716658">
        <time>2014-06-06T23:11:05Z</time>
      </trkpt>
      <trkpt lat="44.127129977568984" lon="3.134489972144365">
        <time>2014-06-06T23:11:07Z</time>
      </trkpt>
      <trkpt lat="44.127325778827071" lon="3.134832624346018">
        <time>2014-06-06T23:11:13Z</time>
      </trkpt>
      <trkpt lat="44.127329969778657" lon="3.134840000420809">
        <time>2014-06-06T23:11:13Z</time>
      </trkpt>
      <trkpt lat="44.127582516521215" lon="3.135101515799761">
        <time>2014-06-06T23:11:19Z</time>
      </trkpt>
      <trkpt lat="44.127834979444742" lon="3.135362947359681">
        <time>2014-06-06T23:11:25Z</time>
      </trkpt>
      <trkpt lat="44.128087442368269" lon="3.135624462738633">
        <time>2014-06-06T23:11:31Z</time>
      </trkpt>
      <trkpt lat="44.128170004114509" lon="3.135709958150983">
        <time>2014-06-06T23:11:33Z</time>
      </trkpt>
      <trkpt lat="44.128349963575602" lon="3.136010030284524">
        <time>2014-06-06T23:11:38Z</time>
      </trkpt>
      <trkpt lat="44.128492623567581" lon="3.136399872601032">
        <time>2014-06-06T23:11:44Z</time>
      </trkpt>
      <trkpt lat="44.128499999642372" lon="3.136419989168644">
        <time>2014-06-06T23:11:44Z</time>
      </trkpt>
      <trkpt lat="44.128656825050712" lon="3.136799270287156">
        <time>2014-06-06T23:11:50Z</time>
      </trkpt>
      <trkpt lat="44.128813650459051" lon="3.137178551405668">
        <time>2014-06-06T23:11:56Z</time>
      </trkpt>
      <trkpt lat="44.128970475867391" lon="3.137557748705149">
        <time>2014-06-06T23:12:02Z</time>
      </trkpt>
      <trkpt lat="44.129050020128489" lon="3.137750029563904">
        <time>2014-06-06T23:12:05Z</time>
      </trkpt>
      <trkpt lat="44.129120009019971" lon="3.137959996238351">
        <time>2014-06-06T23:12:08Z</time>
      </trkpt>
      <trkpt lat="44.129159990698099" lon="3.138329973444343">
        <time>2014-06-06T23:12:13Z</time>
      </trkpt>
      <trkpt lat="44.129244312644005" lon="3.138751415535808">
        <time>2014-06-06T23:12:19Z</time>
      </trkpt>
      <trkpt lat="44.129250012338161" lon="3.138779997825623">
        <time>2014-06-06T23:12:19Z</time>
      </trkpt>
      <trkpt lat="44.12939895875752" lon="3.139165313914418">
        <time>2014-06-06T23:12:25Z</time>
      </trkpt>
      <trkpt lat="44.129540026187897" lon="3.139530010521412">
        <time>2014-06-06T23:12:31Z</time>
      </trkpt>
      <trkpt lat="44.129589982330799" lon="3.139909962192178">
        <time>2014-06-06T23:12:36Z</time>
      </trkpt>
      <trkpt lat="44.129619989544153" lon="3.14034003764391">
        <time>2014-06-06T23:12:42Z</time>
      </trkpt>
      <trkpt lat="44.129702718928456" lon="3.140761982649565">
        <time>2014-06-06T23:12:48Z</time>
      </trkpt>
      <trkpt lat="44.12971998564899" lon="3.140849992632866">
        <time>2014-06-06T23:12:49Z</time>
      </trkpt>
      <trkpt lat="44.129830040037632" lon="3.141179988160729">
        <time>2014-06-06T23:12:54Z</time>
      </trkpt>
      <trkpt lat="44.129985859617591" lon="3.141560023650527">
        <time>2014-06-06T23:13:00Z</time>
      </trkpt>
      <trkpt lat="44.129989966750145" lon="3.141569998115301">
        <time>2014-06-06T23:13:00Z</time>
      </trkpt>
      <trkpt lat="44.130171602591872" lon="3.141927318647504">
        <time>2014-06-06T23:13:06Z</time>
      </trkpt>
      <trkpt lat="44.13030001334846" lon="3.142180033028126">
        <time>2014-06-06T23:13:10Z</time>
      </trkpt>
      <trkpt lat="44.130486762151122" lon="3.142532240599394">
        <time>2014-06-06T23:13:16Z</time>
      </trkpt>
      <trkpt lat="44.130673427134752" lon="3.142884448170662">
        <time>2014-06-06T23:13:22Z</time>
      </trkpt>
      <trkpt lat="44.130860175937414" lon="3.14323665574193">
        <time>2014-06-06T23:13:28Z</time>
      </trkpt>
      <trkpt lat="44.131046840921044" lon="3.143588863313198">
        <time>2014-06-06T23:13:34Z</time>
      </trkpt>
      <trkpt lat="44.131233589723706" lon="3.143941070884466">
        <time>2014-06-06T23:13:40Z</time>
      </trkpt>
      <trkpt lat="44.131420338526368" lon="3.144293278455734">
        <time>2014-06-06T23:13:46Z</time>
      </trkpt>
      <trkpt lat="44.131607003509998" lon="3.144645486027002">
        <time>2014-06-06T23:13:52Z</time>
      </trkpt>
      <trkpt lat="44.131619995459914" lon="3.144669961184263">
        <time>2014-06-06T23:13:52Z</time>
      </trkpt>
      <trkpt lat="44.131777659058571" lon="3.145048655569553">
        <time>2014-06-06T23:13:58Z</time>
      </trkpt>
      <trkpt lat="44.131935238838196" lon="3.145427266135812">
        <time>2014-06-06T23:14:04Z</time>
      </trkpt>
      <trkpt lat="44.132092902436852" lon="3.145805960521102">
        <time>2014-06-06T23:14:10Z</time>
      </trkpt>
      <trkpt lat="44.132250482216477" lon="3.14618457108736">
        <time>2014-06-06T23:14:16Z</time>
      </trkpt>
      <trkpt lat="44.132408145815134" lon="3.146563265472651">
        <time>2014-06-06T23:14:22Z</time>
      </trkpt>
      <trkpt lat="44.132539993152022" lon="3.146880017593503">
        <time>2014-06-06T23:14:27Z</time>
      </trkpt>
      <trkpt lat="44.132570000365376" lon="3.147010020911694">
        <time>2014-06-06T23:14:29Z</time>
      </trkpt>
      <trkpt lat="44.132570000365376" lon="3.147119991481304">
        <time>2014-06-06T23:14:31Z</time>
      </trkpt>
      <trkpt lat="44.132539993152022" lon="3.147259969264269">
        <time>2014-06-06T23:14:33Z</time>
      </trkpt>
      <trkpt lat="44.132413091138005" lon="3.147660288959742">
        <time>2014-06-06T23:14:39Z</time>
      </trkpt>
      <trkpt lat="44.132409989833832" lon="3.147670011967421">
        <time>2014-06-06T23:14:39Z</time>
      </trkpt>
      <trkpt lat="44.132331535220146" lon="3.148093549534679">
        <time>2014-06-06T23:14:45Z</time>
      </trkpt>
      <trkpt lat="44.132309993728995" lon="3.148209974169731">
        <time>2014-06-06T23:14:47Z</time>
      </trkpt>
      <trkpt lat="44.132190886884928" lon="3.148614903911948">
        <time>2014-06-06T23:14:53Z</time>
      </trkpt>
      <trkpt lat="44.132110001519322" lon="3.148889997974038">
        <time>2014-06-06T23:14:57Z</time>
      </trkpt>
      <trkpt lat="44.131952840834856" lon="3.149269027635455">
        <time>2014-06-06T23:15:03Z</time>
      </trkpt>
      <trkpt lat="44.13179568015039" lon="3.149648057296872">
        <time>2014-06-06T23:15:09Z</time>
      </trkpt>
      <trkpt lat="44.131770031526685" lon="3.14970999956131">
        <time>2014-06-06T23:15:10Z</time>
      </trkpt>
      <trkpt lat="44.131759973242879" lon="3.149849977344275">
        <time>2014-06-06T23:15:12Z</time>
      </trkpt>
      <trkpt lat="44.131800038740039" lon="3.149939998984337">
        <time>2014-06-06T23:15:13Z</time>
      </trkpt>
      <trkpt lat="44.131949990987778" lon="3.150019962340593">
        <time>2014-06-06T23:15:16Z</time>
      </trkpt>
      <trkpt lat="44.13226330652833" lon="3.150064721703529">
        <time>2014-06-06T23:15:22Z</time>
      </trkpt>
      <trkpt lat="44.132300019264221" lon="3.150070002302527">
        <time>2014-06-06T23:15:23Z</time>
      </trkpt>
      <trkpt lat="44.132379982620478" lon="3.150179972872138">
        <time>2014-06-06T23:15:25Z</time>
      </trkpt>
      <trkpt lat="44.132409989833832" lon="3.150409972295165">
        <time>2014-06-06T23:15:28Z</time>
      </trkpt>
      <trkpt lat="44.132349975407124" lon="3.150650030001998">
        <time>2014-06-06T23:15:31Z</time>
      </trkpt>
      <trkpt lat="44.132219972088933" lon="3.150920011103153">
        <time>2014-06-06T23:15:35Z</time>
      </trkpt>
      <trkpt lat="44.132130034267902" lon="3.151180017739534">
        <time>2014-06-06T23:15:39Z</time>
      </trkpt>
      <trkpt lat="44.132079994305968" lon="3.151489980518818">
        <time>2014-06-06T23:15:43Z</time>
      </trkpt>
      <trkpt lat="44.132051914930344" lon="3.151925588026643">
        <time>2014-06-06T23:15:49Z</time>
      </trkpt>
      <trkpt lat="44.132023835554719" lon="3.152361195534468">
        <time>2014-06-06T23:15:55Z</time>
      </trkpt>
      <trkpt lat="44.131995672360063" lon="3.152796803042293">
        <time>2014-06-06T23:16:01Z</time>
      </trkpt>
      <trkpt lat="44.131979998201132" lon="3.153039962053299">
        <time>2014-06-06T23:16:04Z</time>
      </trkpt>
      <trkpt lat="44.131930628791451" lon="3.15347196534276">
        <time>2014-06-06T23:16:10Z</time>
      </trkpt>
      <trkpt lat="44.131881259381771" lon="3.15390388481319">
        <time>2014-06-06T23:16:16Z</time>
      </trkpt>
      <trkpt lat="44.131831889972091" lon="3.154335804283619">
        <time>2014-06-06T23:16:22Z</time>
      </trkpt>
      <trkpt lat="44.13178252056241" lon="3.154767723754048">
        <time>2014-06-06T23:16:28Z</time>
      </trkpt>
      <trkpt lat="44.131740024313331" lon="3.155139964073896">
        <time>2014-06-06T23:16:33Z</time>
      </trkpt>
      <trkpt lat="44.131682943552732" lon="3.15557012334466">
        <time>2014-06-06T23:16:39Z</time>
      </trkpt>
      <trkpt lat="44.131625778973103" lon="3.156000198796392">
        <time>2014-06-06T23:16:45Z</time>
      </trkpt>
      <trkpt lat="44.13158998824656" lon="3.156270012259483">
        <time>2014-06-06T23:16:49Z</time>
      </trkpt>
      <trkpt lat="44.131523184478283" lon="3.1566974055022">
        <time>2014-06-06T23:16:55Z</time>
      </trkpt>
      <trkpt lat="44.131456464529037" lon="3.157124798744917">
        <time>2014-06-06T23:17:01Z</time>
      </trkpt>
      <trkpt lat="44.13138966076076" lon="3.157552191987634">
        <time>2014-06-06T23:17:07Z</time>
      </trkpt>
      <trkpt lat="44.131322856992483" lon="3.157979585230351">
        <time>2014-06-06T23:17:13Z</time>
      </trkpt>
      <trkpt lat="44.131256137043238" lon="3.158406978473067">
        <time>2014-06-06T23:17:19Z</time>
      </trkpt>
      <trkpt lat="44.131189333274961" lon="3.158834371715784">
        <time>2014-06-06T23:17:25Z</time>
      </trkpt>
      <trkpt lat="44.13113996386528" lon="3.159150034189224">
        <time>2014-06-06T23:17:29Z</time>
      </trkpt>
      <trkpt lat="44.131123200058937" lon="3.159586731344461">
        <time>2014-06-06T23:17:35Z</time>
      </trkpt>
      <trkpt lat="44.131106436252594" lon="3.160023428499699">
        <time>2014-06-06T23:17:41Z</time>
      </trkpt>
      <trkpt lat="44.131089588627219" lon="3.160460125654936">
        <time>2014-06-06T23:17:47Z</time>
      </trkpt>
      <trkpt lat="44.131072824820876" lon="3.160896906629205">
        <time>2014-06-06T23:17:53Z</time>
      </trkpt>
      <trkpt lat="44.131055977195501" lon="3.161333603784442">
        <time>2014-06-06T23:17:59Z</time>
      </trkpt>
      <trkpt lat="44.13105002604425" lon="3.161490010097623">
        <time>2014-06-06T23:18:01Z</time>
      </trkpt>
      <trkpt lat="44.131058240309358" lon="3.16192721016705">
        <time>2014-06-06T23:18:07Z</time>
      </trkpt>
      <trkpt lat="44.131060000509024" lon="3.162019997835159">
        <time>2014-06-06T23:18:08Z</time>
      </trkpt>
      <trkpt lat="44.131108028814197" lon="3.162452252581716">
        <time>2014-06-06T23:18:14Z</time>
      </trkpt>
      <trkpt lat="44.13113996386528" lon="3.162740003317595">
        <time>2014-06-06T23:18:18Z</time>
      </trkpt>
      <trkpt lat="44.131173910573125" lon="3.163174772635102">
        <time>2014-06-06T23:18:24Z</time>
      </trkpt>
      <trkpt lat="44.131207773461938" lon="3.163609625771642">
        <time>2014-06-06T23:18:30Z</time>
      </trkpt>
      <trkpt lat="44.131241636350751" lon="3.16404439508915">
        <time>2014-06-06T23:18:36Z</time>
      </trkpt>
      <trkpt lat="44.131259992718697" lon="3.164280010387301">
        <time>2014-06-06T23:18:39Z</time>
      </trkpt>
      <trkpt lat="44.131320007145405" lon="3.164519984275103">
        <time>2014-06-06T23:18:42Z</time>
      </trkpt>
      <trkpt lat="44.131389996036887" lon="3.164640013128519">
        <time>2014-06-06T23:18:44Z</time>
      </trkpt>
      <trkpt lat="44.131540032103658" lon="3.164719976484776">
        <time>2014-06-06T23:18:47Z</time>
      </trkpt>
      <trkpt lat="44.131844798102975" lon="3.164830282330513">
        <time>2014-06-06T23:18:53Z</time>
      </trkpt>
      <trkpt lat="44.132149647921324" lon="3.164940504357219">
        <time>2014-06-06T23:18:59Z</time>
      </trkpt>
      <trkpt lat="44.132454413920641" lon="3.165050726383925">
        <time>2014-06-06T23:19:05Z</time>
      </trkpt>
      <trkpt lat="44.132479978725314" lon="3.165060030296445">
        <time>2014-06-06T23:19:06Z</time>
      </trkpt>
      <trkpt lat="44.132787259295583" lon="3.165156422182918">
        <time>2014-06-06T23:19:12Z</time>
      </trkpt>
      <trkpt lat="44.132990017533302" lon="3.16522004082799">
        <time>2014-06-06T23:19:16Z</time>
      </trkpt>
      <trkpt lat="44.133301908150315" lon="3.165280893445015">
        <time>2014-06-06T23:19:22Z</time>
      </trkpt>
      <trkpt lat="44.133399976417422" lon="3.165300004184246">
        <time>2014-06-06T23:19:24Z</time>
      </trkpt>
      <trkpt lat="44.133710023015738" lon="3.165320036932826">
        <time>2014-06-06T23:19:30Z</time>
      </trkpt>
      <trkpt lat="44.134025014936924" lon="3.165323808789253">
        <time>2014-06-06T23:19:36Z</time>
      </trkpt>
      <trkpt lat="44.134339923039079" lon="3.165327664464712">
        <time>2014-06-06T23:19:42Z</time>
      </trkpt>
      <trkpt lat="44.134530024603009" lon="3.1653300113976">
        <time>2014-06-06T23:19:46Z</time>
      </trkpt>
      <trkpt lat="44.134760024026036" lon="3.165379967540503">
        <time>2014-06-06T23:19:50Z</time>
      </trkpt>
      <trkpt lat="44.134969990700483" lon="3.165479963645339">
        <time>2014-06-06T23:19:54Z</time>
      </trkpt>
      <trkpt lat="44.135139975696802" lon="3.165680039674044">
        <time>2014-06-06T23:19:58Z</time>
      </trkpt>
      <trkpt lat="44.135345164686441" lon="3.166011879220605">
        <time>2014-06-06T23:20:04Z</time>
      </trkpt>
      <trkpt lat="44.135480029508471" lon="3.166229976341128">
        <time>2014-06-06T23:20:08Z</time>
      </trkpt>
      <trkpt lat="44.135699970647693" lon="3.166519990190864">
        <time>2014-06-06T23:20:14Z</time>
      </trkpt>
      <trkpt lat="44.135880013927817" lon="3.166700033470988">
        <time>2014-06-06T23:20:18Z</time>
      </trkpt>
      <trkpt lat="44.136119987815619" lon="3.166859960183501">
        <time>2014-06-06T23:20:23Z</time>
      </trkpt>
      <trkpt lat="44.136340012773871" lon="3.166930032894015">
        <time>2014-06-06T23:20:27Z</time>
      </trkpt>
      <trkpt lat="44.136653831228614" lon="3.166967080906034">
        <time>2014-06-06T23:20:33Z</time>
      </trkpt>
      <trkpt lat="44.136967733502388" lon="3.167004212737083">
        <time>2014-06-06T23:20:39Z</time>
      </trkpt>
      <trkpt lat="44.13728155195713" lon="3.167041260749102">
        <time>2014-06-06T23:20:45Z</time>
      </trkpt>
      <trkpt lat="44.137439969927073" lon="3.167060036212206">
        <time>2014-06-06T23:20:48Z</time>
      </trkpt>
      <trkpt lat="44.1376699693501" lon="3.167139999568462">
        <time>2014-06-06T23:20:53Z</time>
      </trkpt>
      <trkpt lat="44.137950008735061" lon="3.167279977351427">
        <time>2014-06-06T23:20:59Z</time>
      </trkpt>
      <trkpt lat="44.138239519670606" lon="3.167452309280634">
        <time>2014-06-06T23:21:05Z</time>
      </trkpt>
      <trkpt lat="44.138370025902987" lon="3.167530009523034">
        <time>2014-06-06T23:21:08Z</time>
      </trkpt>
      <trkpt lat="44.138653920963407" lon="3.167719272896648">
        <time>2014-06-06T23:21:14Z</time>
      </trkpt>
      <trkpt lat="44.138937899842858" lon="3.167908620089293">
        <time>2014-06-06T23:21:20Z</time>
      </trkpt>
      <trkpt lat="44.13922187872231" lon="3.168097883462906">
        <time>2014-06-06T23:21:26Z</time>
      </trkpt>
      <trkpt lat="44.139239983633161" lon="3.168110037222505">
        <time>2014-06-06T23:21:26Z</time>
      </trkpt>
      <trkpt lat="44.139507785439491" lon="3.168340204283595">
        <time>2014-06-06T23:21:32Z</time>
      </trkpt>
      <trkpt lat="44.139775671064854" lon="3.168570455163717">
        <time>2014-06-06T23:21:38Z</time>
      </trkpt>
      <trkpt lat="44.139810036867857" lon="3.168599959462881">
        <time>2014-06-06T23:21:39Z</time>
      </trkpt>
      <trkpt lat="44.140089321881533" lon="3.16880221478641">
        <time>2014-06-06T23:21:45Z</time>
      </trkpt>
      <trkpt lat="44.140099966898561" lon="3.16881000995636">
        <time>2014-06-06T23:21:45Z</time>
      </trkpt>
      <trkpt lat="44.140372546389699" lon="3.169029364362359">
        <time>2014-06-06T23:21:51Z</time>
      </trkpt>
      <trkpt lat="44.140510009601712" lon="3.169140005484223">
        <time>2014-06-06T23:21:54Z</time>
      </trkpt>
      <trkpt lat="44.140670020133257" lon="3.169200019910932">
        <time>2014-06-06T23:21:57Z</time>
      </trkpt>
      <trkpt lat="44.140889961272478" lon="3.169170012697578">
        <time>2014-06-06T23:22:01Z</time>
      </trkpt>
      <trkpt lat="44.141190284863114" lon="3.169038081541657">
        <time>2014-06-06T23:22:07Z</time>
      </trkpt>
      <trkpt lat="44.141490608453751" lon="3.168906066566706">
        <time>2014-06-06T23:22:13Z</time>
      </trkpt>
      <trkpt lat="44.141550036147237" lon="3.168879998847842">
        <time>2014-06-06T23:22:14Z</time>
      </trkpt>
      <trkpt lat="44.141699988394976" lon="3.168879998847842">
        <time>2014-06-06T23:22:17Z</time>
      </trkpt>
      <trkpt lat="44.141769977286458" lon="3.168919980525971">
        <time>2014-06-06T23:22:18Z</time>
      </trkpt>
      <trkpt lat="44.141991259530187" lon="3.169231368228793">
        <time>2014-06-06T23:22:24Z</time>
      </trkpt>
      <trkpt lat="44.142212457954884" lon="3.169542755931616">
        <time>2014-06-06T23:22:30Z</time>
      </trkpt>
      <trkpt lat="44.142433740198612" lon="3.169854059815407">
        <time>2014-06-06T23:22:36Z</time>
      </trkpt>
      <trkpt lat="44.142580004408956" lon="3.170060003176332">
        <time>2014-06-06T23:22:40Z</time>
      </trkpt>
      <trkpt lat="44.142762310802937" lon="3.170416736975312">
        <time>2014-06-06T23:22:46Z</time>
      </trkpt>
      <trkpt lat="44.142810003831983" lon="3.170510027557612">
        <time>2014-06-06T23:22:48Z</time>
      </trkpt>
      <trkpt lat="44.142972528934479" lon="3.170884698629379">
        <time>2014-06-06T23:22:54Z</time>
      </trkpt>
      <trkpt lat="44.143135054036975" lon="3.171259369701147">
        <time>2014-06-06T23:23:00Z</time>
      </trkpt>
      <trkpt lat="44.1431700065732" lon="3.171340003609657">
        <time>2014-06-06T23:23:01Z</time>
      </trkpt>
      <trkpt lat="44.143309816718102" lon="3.171731941401959">
        <time>2014-06-06T23:23:07Z</time>
      </trkpt>
      <trkpt lat="44.143449626863003" lon="3.172123963013291">
        <time>2014-06-06T23:23:13Z</time>
      </trkpt>
      <trkpt lat="44.143589520826936" lon="3.172515900805593">
        <time>2014-06-06T23:23:19Z</time>
      </trkpt>
      <trkpt lat="44.143729330971837" lon="3.172907838597894">
        <time>2014-06-06T23:23:25Z</time>
      </trkpt>
      <trkpt lat="44.143780041486025" lon="3.173049995675683">
        <time>2014-06-06T23:23:27Z</time>
      </trkpt>
      <trkpt lat="44.143927311524749" lon="3.173436652868986">
        <time>2014-06-06T23:23:33Z</time>
      </trkpt>
      <trkpt lat="44.144020015373826" lon="3.173679979518056">
        <time>2014-06-06T23:23:37Z</time>
      </trkpt>
      <trkpt lat="44.144190670922399" lon="3.17404760979116">
        <time>2014-06-06T23:23:43Z</time>
      </trkpt>
      <trkpt lat="44.144280022010207" lon="3.174239974468947">
        <time>2014-06-06T23:23:46Z</time>
      </trkpt>
      <trkpt lat="44.14446484297514" lon="3.174594193696976">
        <time>2014-06-06T23:23:52Z</time>
      </trkpt>
      <trkpt lat="44.144519995898008" lon="3.174699973315001">
        <time>2014-06-06T23:23:54Z</time>
      </trkpt>
      <trkpt lat="44.144738176837564" lon="3.175015468150377">
        <time>2014-06-06T23:24:00Z</time>
      </trkpt>
      <trkpt lat="44.144956357777119" lon="3.175330962985754">
        <time>2014-06-06T23:24:06Z</time>
      </trkpt>
      <trkpt lat="44.145174538716674" lon="3.175646457821131">
        <time>2014-06-06T23:24:12Z</time>
      </trkpt>
      <trkpt lat="44.145260034129024" lon="3.175770007073879">
        <time>2014-06-06T23:24:14Z</time>
      </trkpt>
      <trkpt lat="44.145421972498298" lon="3.176145181059837">
        <time>2014-06-06T23:24:20Z</time>
      </trkpt>
      <trkpt lat="44.14558382704854" lon="3.176520438864827">
        <time>2014-06-06T23:24:26Z</time>
      </trkpt>
      <trkpt lat="44.145669993013144" lon="3.176720011979342">
        <time>2014-06-06T23:24:29Z</time>
      </trkpt>
      <trkpt lat="44.145877445116639" lon="3.177049169316888">
        <time>2014-06-06T23:24:35Z</time>
      </trkpt>
      <trkpt lat="44.146084897220135" lon="3.177378326654434">
        <time>2014-06-06T23:24:41Z</time>
      </trkpt>
      <trkpt lat="44.14629234932363" lon="3.177707483991981">
        <time>2014-06-06T23:24:47Z</time>
      </trkpt>
      <trkpt lat="44.146420005708933" lon="3.177909990772605">
        <time>2014-06-06T23:24:51Z</time>
      </trkpt>
      <trkpt lat="44.146643467247486" lon="3.178218277171254">
        <time>2014-06-06T23:24:57Z</time>
      </trkpt>
      <trkpt lat="44.146710019558668" lon="3.178309975191951">
        <time>2014-06-06T23:24:59Z</time>
      </trkpt>
      <trkpt lat="44.146949909627438" lon="3.178593534976244">
        <time>2014-06-06T23:25:05Z</time>
      </trkpt>
      <trkpt lat="44.147040015086532" lon="3.178699985146523">
        <time>2014-06-06T23:25:07Z</time>
      </trkpt>
      <trkpt lat="44.147170018404722" lon="3.17895001731813">
        <time>2014-06-06T23:25:11Z</time>
      </trkpt>
      <trkpt lat="44.147219974547625" lon="3.179110027849674">
        <time>2014-06-06T23:25:13Z</time>
      </trkpt>
      <trkpt lat="44.147289963439107" lon="3.179500037804246">
        <time>2014-06-06T23:25:19Z</time>
      </trkpt>
      <trkpt lat="44.147289963439107" lon="3.179719978943467">
        <time>2014-06-06T23:25:22Z</time>
      </trkpt>
      <trkpt lat="44.147249981760979" lon="3.179930029436946">
        <time>2014-06-06T23:25:25Z</time>
      </trkpt>
      <trkpt lat="44.147124337032437" lon="3.180331103503704">
        <time>2014-06-06T23:25:31Z</time>
      </trkpt>
      <trkpt lat="44.146998692303896" lon="3.180732261389494">
        <time>2014-06-06T23:25:37Z</time>
      </trkpt>
      <trkpt lat="44.146873047575355" lon="3.181133419275284">
        <time>2014-06-06T23:25:43Z</time>
      </trkpt>
      <trkpt lat="44.146747402846813" lon="3.181534577161074">
        <time>2014-06-06T23:25:49Z</time>
      </trkpt>
      <trkpt lat="44.146729968488216" lon="3.181589981541038">
        <time>2014-06-06T23:25:50Z</time>
      </trkpt>
      <trkpt lat="44.146611699834466" lon="3.181995414197445">
        <time>2014-06-06T23:25:56Z</time>
      </trkpt>
      <trkpt lat="44.146493347361684" lon="3.182400846853852">
        <time>2014-06-06T23:26:02Z</time>
      </trkpt>
      <trkpt lat="44.146374994888902" lon="3.18280627951026">
        <time>2014-06-06T23:26:08Z</time>
      </trkpt>
      <trkpt lat="44.146256726235151" lon="3.183211628347635">
        <time>2014-06-06T23:26:14Z</time>
      </trkpt>
      <trkpt lat="44.146138373762369" lon="3.183617061004043">
        <time>2014-06-06T23:26:20Z</time>
      </trkpt>
      <trkpt lat="44.146120017394423" lon="3.183680009096861">
        <time>2014-06-06T23:26:21Z</time>
      </trkpt>
      <trkpt lat="44.146069977432489" lon="3.183880001306534">
        <time>2014-06-06T23:26:24Z</time>
      </trkpt>
      <trkpt lat="44.146060002967715" lon="3.184059960767627">
        <time>2014-06-06T23:26:26Z</time>
      </trkpt>
      <trkpt lat="44.146129991859198" lon="3.184400014579296">
        <time>2014-06-06T23:26:31Z</time>
      </trkpt>
      <trkpt lat="44.146287571638823" lon="3.184778792783618">
        <time>2014-06-06T23:26:37Z</time>
      </trkpt>
      <trkpt lat="44.146445151418447" lon="3.18515757098794">
        <time>2014-06-06T23:26:43Z</time>
      </trkpt>
      <trkpt lat="44.146602731198072" lon="3.18553626537323">
        <time>2014-06-06T23:26:49Z</time>
      </trkpt>
      <trkpt lat="44.146699961274862" lon="3.185770036652684">
        <time>2014-06-06T23:26:53Z</time>
      </trkpt>
      <trkpt lat="44.146832311525941" lon="3.186167003586888">
        <time>2014-06-06T23:26:59Z</time>
      </trkpt>
      <trkpt lat="44.146929960697889" lon="3.186460034921765">
        <time>2014-06-06T23:27:03Z</time>
      </trkpt>
      <trkpt lat="44.147022916004062" lon="3.18687804043293">
        <time>2014-06-06T23:27:09Z</time>
      </trkpt>
      <trkpt lat="44.147030040621758" lon="3.186909975484014">
        <time>2014-06-06T23:27:09Z</time>
      </trkpt>
      <trkpt lat="44.147061975672841" lon="3.18734516389668">
        <time>2014-06-06T23:27:15Z</time>
      </trkpt>
      <trkpt lat="44.14707999676466" lon="3.187589999288321">
        <time>2014-06-06T23:27:18Z</time>
      </trkpt>
      <trkpt lat="44.147203210741282" lon="3.18799258209765">
        <time>2014-06-06T23:27:24Z</time>
      </trkpt>
      <trkpt lat="44.14723003283143" lon="3.188080005347729">
        <time>2014-06-06T23:27:25Z</time>
      </trkpt>
      <trkpt lat="44.147300021722913" lon="3.188440008088946">
        <time>2014-06-06T23:27:30Z</time>
      </trkpt>
      <trkpt lat="44.147327849641442" lon="3.188875783234835">
        <time>2014-06-06T23:27:36Z</time>
      </trkpt>
      <trkpt lat="44.147330028936267" lon="3.188909981399775">
        <time>2014-06-06T23:27:36Z</time>
      </trkpt>
      <trkpt lat="44.147330028936267" lon="3.189347432926297">
        <time>2014-06-06T23:27:42Z</time>
      </trkpt>
      <trkpt lat="44.147330028936267" lon="3.18978488445282">
        <time>2014-06-06T23:27:48Z</time>
      </trkpt>
      <trkpt lat="44.147330028936267" lon="3.189789997413755">
        <time>2014-06-06T23:27:48Z</time>
      </trkpt>
      <trkpt lat="44.147348552942276" lon="3.190226694568992">
        <time>2014-06-06T23:27:54Z</time>
      </trkpt>
      <trkpt lat="44.147349977865815" lon="3.190259970724583">
        <time>2014-06-06T23:27:54Z</time>
      </trkpt>
      <trkpt lat="44.147435976192355" lon="3.190680826082826">
        <time>2014-06-06T23:28:00Z</time>
      </trkpt>
      <trkpt lat="44.147522058337927" lon="3.191101681441069">
        <time>2014-06-06T23:28:06Z</time>
      </trkpt>
      <trkpt lat="44.147608056664467" lon="3.191522536799312">
        <time>2014-06-06T23:28:12Z</time>
      </trkpt>
      <trkpt lat="44.147694054991007" lon="3.191943308338523">
        <time>2014-06-06T23:28:18Z</time>
      </trkpt>
      <trkpt lat="44.147780053317547" lon="3.192364163696766">
        <time>2014-06-06T23:28:24Z</time>
      </trkpt>
      <trkpt lat="44.147866051644087" lon="3.192785019055009">
        <time>2014-06-06T23:28:30Z</time>
      </trkpt>
      <trkpt lat="44.147909972816706" lon="3.193000014871359">
        <time>2014-06-06T23:28:33Z</time>
      </trkpt>
      <trkpt lat="44.148009968921542" lon="3.193169999867678">
        <time>2014-06-06T23:28:36Z</time>
      </trkpt>
      <trkpt lat="44.14809001609683" lon="3.193230014294386">
        <time>2014-06-06T23:28:38Z</time>
      </trkpt>
      <trkpt lat="44.148299982771277" lon="3.193290028721094">
        <time>2014-06-06T23:28:42Z</time>
      </trkpt>
      <trkpt lat="44.148459993302822" lon="3.193279970437288">
        <time>2014-06-06T23:28:45Z</time>
      </trkpt>
      <trkpt lat="44.148650011047721" lon="3.193209981545806">
        <time>2014-06-06T23:28:49Z</time>
      </trkpt>
      <trkpt lat="44.14894656278193" lon="3.19306262768805">
        <time>2014-06-06T23:28:55Z</time>
      </trkpt>
      <trkpt lat="44.149243114516139" lon="3.192915190011263">
        <time>2014-06-06T23:29:01Z</time>
      </trkpt>
      <trkpt lat="44.14953975006938" lon="3.192767836153507">
        <time>2014-06-06T23:29:07Z</time>
      </trkpt>
      <trkpt lat="44.149836301803589" lon="3.19262039847672">
        <time>2014-06-06T23:29:13Z</time>
      </trkpt>
      <trkpt lat="44.150132853537798" lon="3.192473044618964">
        <time>2014-06-06T23:29:19Z</time>
      </trkpt>
      <trkpt lat="44.150320021435618" lon="3.19238000549376">
        <time>2014-06-06T23:29:23Z</time>
      </trkpt>
      <trkpt lat="44.150614645332098" lon="3.192225443199277">
        <time>2014-06-06T23:29:29Z</time>
      </trkpt>
      <trkpt lat="44.150909353047609" lon="3.192070797085762">
        <time>2014-06-06T23:29:35Z</time>
      </trkpt>
      <trkpt lat="44.150929972529411" lon="3.192059984430671">
        <time>2014-06-06T23:29:35Z</time>
      </trkpt>
      <trkpt lat="44.151080008596182" lon="3.191959988325834">
        <time>2014-06-06T23:29:38Z</time>
      </trkpt>
      <trkpt lat="44.151319982483983" lon="3.191739963367581">
        <time>2014-06-06T23:29:43Z</time>
      </trkpt>
      <trkpt lat="44.15141997858882" lon="3.191690007224679">
        <time>2014-06-06T23:29:45Z</time>
      </trkpt>
      <trkpt lat="44.151489967480302" lon="3.191710039973259">
        <time>2014-06-06T23:29:46Z</time>
      </trkpt>
      <trkpt lat="44.15154998190701" lon="3.191829985007644">
        <time>2014-06-06T23:29:48Z</time>
      </trkpt>
      <trkpt lat="44.151519974693656" lon="3.191969962790608">
        <time>2014-06-06T23:29:50Z</time>
      </trkpt>
      <trkpt lat="44.151470018550754" lon="3.192050009965897">
        <time>2014-06-06T23:29:51Z</time>
      </trkpt>
      <trkpt lat="44.151194421574473" lon="3.192261988297105">
        <time>2014-06-06T23:29:57Z</time>
      </trkpt>
      <trkpt lat="44.150950005277991" lon="3.192449994385243">
        <time>2014-06-06T23:30:02Z</time>
      </trkpt>
      <trkpt lat="44.150919998064637" lon="3.192519983276725">
        <time>2014-06-06T23:30:03Z</time>
      </trkpt>
      <trkpt lat="44.150919998064637" lon="3.192579997703433">
        <time>2014-06-06T23:30:04Z</time>
      </trkpt>
      <trkpt lat="44.150940030813217" lon="3.192630037665367">
        <time>2014-06-06T23:30:05Z</time>
      </trkpt>
      <trkpt lat="44.150980012491345" lon="3.19265996105969">
        <time>2014-06-06T23:30:06Z</time>
      </trkpt>
      <trkpt lat="44.151019994169474" lon="3.19265996105969">
        <time>2014-06-06T23:30:07Z</time>
      </trkpt>
      <trkpt lat="44.151310594752431" lon="3.192491233348846">
        <time>2014-06-06T23:30:13Z</time>
      </trkpt>
      <trkpt lat="44.151330040767789" lon="3.192480001598597">
        <time>2014-06-06T23:30:13Z</time>
      </trkpt>
      <trkpt lat="44.151489967480302" lon="3.192459968850017">
        <time>2014-06-06T23:30:16Z</time>
      </trkpt>
      <trkpt lat="44.151770006865263" lon="3.192579997703433">
        <time>2014-06-06T23:30:22Z</time>
      </trkpt>
      <trkpt lat="44.151809988543391" lon="3.19265996105969">
        <time>2014-06-06T23:30:23Z</time>
      </trkpt>
      <trkpt lat="44.151809988543391" lon="3.192770015448332">
        <time>2014-06-06T23:30:25Z</time>
      </trkpt>
      <trkpt lat="44.151770006865263" lon="3.19283002987504">
        <time>2014-06-06T23:30:26Z</time>
      </trkpt>
      <trkpt lat="44.151560040190816" lon="3.192919967696071">
        <time>2014-06-06T23:30:30Z</time>
      </trkpt>
      <trkpt lat="44.151440011337399" lon="3.193119959905744">
        <time>2014-06-06T23:30:34Z</time>
      </trkpt>
      <trkpt lat="44.151359964162111" lon="3.193309977650642">
        <time>2014-06-06T23:30:37Z</time>
      </trkpt>
      <trkpt lat="44.151240019127727" lon="3.193439980968833">
        <time>2014-06-06T23:30:40Z</time>
      </trkpt>
      <trkpt lat="44.150980012491345" lon="3.193609965965152">
        <time>2014-06-06T23:30:45Z</time>
      </trkpt>
      <trkpt lat="44.150750013068318" lon="3.193680038675666">
        <time>2014-06-06T23:30:49Z</time>
      </trkpt>
      <trkpt lat="44.15066996589303" lon="3.193769976496697">
        <time>2014-06-06T23:30:51Z</time>
      </trkpt>
      <trkpt lat="44.150620009750128" lon="3.193990001454949">
        <time>2014-06-06T23:30:54Z</time>
      </trkpt>
      <trkpt lat="44.150590002536774" lon="3.194280015304685">
        <time>2014-06-06T23:30:58Z</time>
      </trkpt>
      <trkpt lat="44.150590002536774" lon="3.194559970870614">
        <time>2014-06-06T23:31:02Z</time>
      </trkpt>
      <trkpt lat="44.150610035285354" lon="3.194810003042221">
        <time>2014-06-06T23:31:05Z</time>
      </trkpt>
      <trkpt lat="44.150599977001548" lon="3.194870017468929">
        <time>2014-06-06T23:31:06Z</time>
      </trkpt>
      <trkpt lat="44.150550020858645" lon="3.194940006360412">
        <time>2014-06-06T23:31:07Z</time>
      </trkpt>
      <trkpt lat="44.150499980896711" lon="3.194970013573766">
        <time>2014-06-06T23:31:08Z</time>
      </trkpt>
      <trkpt lat="44.150420017540455" lon="3.194960039108992">
        <time>2014-06-06T23:31:10Z</time>
      </trkpt>
      <trkpt lat="44.150339970365167" lon="3.194930031895638">
        <time>2014-06-06T23:31:12Z</time>
      </trkpt>
      <trkpt lat="44.150220025330782" lon="3.194810003042221">
        <time>2014-06-06T23:31:15Z</time>
      </trkpt>
      <trkpt lat="44.1501500364393" lon="3.194800028577447">
        <time>2014-06-06T23:31:16Z</time>
      </trkpt>
      <trkpt lat="44.150079963728786" lon="3.194840010255575">
        <time>2014-06-06T23:31:17Z</time>
      </trkpt>
      <trkpt lat="44.150020033121109" lon="3.194960039108992">
        <time>2014-06-06T23:31:19Z</time>
      </trkpt>
      <trkpt lat="44.150060014799237" lon="3.195170005783439">
        <time>2014-06-06T23:31:22Z</time>
      </trkpt>
      <trkpt lat="44.150160010904074" lon="3.195309983566403">
        <time>2014-06-06T23:31:25Z</time>
      </trkpt>
      <trkpt lat="44.150329995900393" lon="3.195490026846528">
        <time>2014-06-06T23:31:29Z</time>
      </trkpt>
      <trkpt lat="44.150399984791875" lon="3.195590022951365">
        <time>2014-06-06T23:31:31Z</time>
      </trkpt>
      <trkpt lat="44.150599054992199" lon="3.195929070934653">
        <time>2014-06-06T23:31:37Z</time>
      </trkpt>
      <trkpt lat="44.15066996589303" lon="3.196050021797419">
        <time>2014-06-06T23:31:39Z</time>
      </trkpt>
      <trkpt lat="44.150769961997867" lon="3.196129985153675">
        <time>2014-06-06T23:31:41Z</time>
      </trkpt>
      <trkpt lat="44.150899965316057" lon="3.196180025115609">
        <time>2014-06-06T23:31:44Z</time>
      </trkpt>
      <trkpt lat="44.151213532313704" lon="3.196221766993403">
        <time>2014-06-06T23:31:50Z</time>
      </trkpt>
      <trkpt lat="44.151500025764108" lon="3.196259988471866">
        <time>2014-06-06T23:31:55Z</time>
      </trkpt>
      <trkpt lat="44.151809401810169" lon="3.196341879665852">
        <time>2014-06-06T23:32:01Z</time>
      </trkpt>
      <trkpt lat="44.151839995756745" lon="3.196350010111928">
        <time>2014-06-06T23:32:02Z</time>
      </trkpt>
      <trkpt lat="44.152130009606481" lon="3.196459980681539">
        <time>2014-06-06T23:32:08Z</time>
      </trkpt>
      <trkpt lat="44.152290020138025" lon="3.196570035070181">
        <time>2014-06-06T23:32:11Z</time>
      </trkpt>
      <trkpt lat="44.152399990707636" lon="3.196680005639792">
        <time>2014-06-06T23:32:14Z</time>
      </trkpt>
      <trkpt lat="44.152587074786425" lon="3.197031961753964">
        <time>2014-06-06T23:32:20Z</time>
      </trkpt>
      <trkpt lat="44.152774242684245" lon="3.197383917868137">
        <time>2014-06-06T23:32:26Z</time>
      </trkpt>
      <trkpt lat="44.152820007875562" lon="3.197470000013709">
        <time>2014-06-06T23:32:27Z</time>
      </trkpt>
      <trkpt lat="44.152840040624142" lon="3.197569996118546">
        <time>2014-06-06T23:32:28Z</time>
      </trkpt>
      <trkpt lat="44.152840040624142" lon="3.19770997390151">
        <time>2014-06-06T23:32:30Z</time>
      </trkpt>
      <trkpt lat="44.152799975126982" lon="3.197939973324537">
        <time>2014-06-06T23:32:33Z</time>
      </trkpt>
      <trkpt lat="44.152739960700274" lon="3.198020020499826">
        <time>2014-06-06T23:32:35Z</time>
      </trkpt>
      <trkpt lat="44.15269092656672" lon="3.198452107608318">
        <time>2014-06-06T23:32:41Z</time>
      </trkpt>
      <trkpt lat="44.152690004557371" lon="3.1984599865973">
        <time>2014-06-06T23:32:41Z</time>
      </trkpt>
      <trkpt lat="44.152699979022145" lon="3.198840022087097">
        <time>2014-06-06T23:32:46Z</time>
      </trkpt>
      <trkpt lat="44.152767956256866" lon="3.199267163872719">
        <time>2014-06-06T23:32:52Z</time>
      </trkpt>
      <trkpt lat="44.152769967913628" lon="3.199279988184571">
        <time>2014-06-06T23:32:52Z</time>
      </trkpt>
      <trkpt lat="44.152850015088916" lon="3.199549969285727">
        <time>2014-06-06T23:32:56Z</time>
      </trkpt>
      <trkpt lat="44.153002984821796" lon="3.199932435527444">
        <time>2014-06-06T23:33:02Z</time>
      </trkpt>
      <trkpt lat="44.153150003403425" lon="3.200299981981516">
        <time>2014-06-06T23:33:08Z</time>
      </trkpt>
      <trkpt lat="44.153199959546328" lon="3.200489999726415">
        <time>2014-06-06T23:33:11Z</time>
      </trkpt>
      <trkpt lat="44.153229966759682" lon="3.200699966400862">
        <time>2014-06-06T23:33:14Z</time>
      </trkpt>
      <trkpt lat="44.153219992294908" lon="3.201029961928725">
        <time>2014-06-06T23:33:19Z</time>
      </trkpt>
      <trkpt lat="44.153129970654845" lon="3.201349982991815">
        <time>2014-06-06T23:33:24Z</time>
      </trkpt>
      <trkpt lat="44.152960572391748" lon="3.201718786731362">
        <time>2014-06-06T23:33:30Z</time>
      </trkpt>
      <trkpt lat="44.152959985658526" lon="3.201719960197806">
        <time>2014-06-06T23:33:30Z</time>
      </trkpt>
      <trkpt lat="44.152833083644509" lon="3.202120363712311">
        <time>2014-06-06T23:33:36Z</time>
      </trkpt>
      <trkpt lat="44.152829982340336" lon="3.202130002900958">
        <time>2014-06-06T23:33:36Z</time>
      </trkpt>
      <trkpt lat="44.152757730334997" lon="3.202555803582072">
        <time>2014-06-06T23:33:42Z</time>
      </trkpt>
      <trkpt lat="44.152739960700274" lon="3.202659990638495">
        <time>2014-06-06T23:33:43Z</time>
      </trkpt>
      <trkpt lat="44.152739960700274" lon="3.202999960631132">
        <time>2014-06-06T23:33:48Z</time>
      </trkpt>
      <trkpt lat="44.152814978733659" lon="3.203424923121929">
        <time>2014-06-06T23:33:54Z</time>
      </trkpt>
      <trkpt lat="44.152889996767044" lon="3.203849801793695">
        <time>2014-06-06T23:34:00Z</time>
      </trkpt>
      <trkpt lat="44.152950011193752" lon="3.204190023243427">
        <time>2014-06-06T23:34:05Z</time>
      </trkpt>
      <trkpt lat="44.152980018407106" lon="3.204529993236065">
        <time>2014-06-06T23:34:10Z</time>
      </trkpt>
      <trkpt lat="44.152973396703601" lon="3.204967444762588">
        <time>2014-06-06T23:34:16Z</time>
      </trkpt>
      <trkpt lat="44.152969960123301" lon="3.205189984291792">
        <time>2014-06-06T23:34:19Z</time>
      </trkpt>
      <trkpt lat="44.152999967336655" lon="3.205349994823337">
        <time>2014-06-06T23:34:21Z</time>
      </trkpt>
      <trkpt lat="44.153050007298589" lon="3.205470023676753">
        <time>2014-06-06T23:34:23Z</time>
      </trkpt>
      <trkpt lat="44.153129970654845" lon="3.20557001978159">
        <time>2014-06-06T23:34:25Z</time>
      </trkpt>
      <trkpt lat="44.153280006721616" lon="3.205649983137846">
        <time>2014-06-06T23:34:28Z</time>
      </trkpt>
      <trkpt lat="44.153389977291226" lon="3.205660041421652">
        <time>2014-06-06T23:34:30Z</time>
      </trkpt>
      <trkpt lat="44.153470024466515" lon="3.205640008673072">
        <time>2014-06-06T23:34:32Z</time>
      </trkpt>
      <trkpt lat="44.153549987822771" lon="3.205589968711138">
        <time>2014-06-06T23:34:34Z</time>
      </trkpt>
      <trkpt lat="44.153799517080188" lon="3.205323005095124">
        <time>2014-06-06T23:34:40Z</time>
      </trkpt>
      <trkpt lat="44.153979979455471" lon="3.205129969865084">
        <time>2014-06-06T23:34:44Z</time>
      </trkpt>
      <trkpt lat="44.154239986091852" lon="3.204910028725863">
        <time>2014-06-06T23:34:50Z</time>
      </trkpt>
      <trkpt lat="44.154540980234742" lon="3.204781031236053">
        <time>2014-06-06T23:34:56Z</time>
      </trkpt>
      <trkpt lat="44.154590014368296" lon="3.204759992659092">
        <time>2014-06-06T23:34:57Z</time>
      </trkpt>
      <trkpt lat="44.154897127300501" lon="3.204662594944239">
        <time>2014-06-06T23:35:03Z</time>
      </trkpt>
      <trkpt lat="44.154999973252416" lon="3.204629989340901">
        <time>2014-06-06T23:35:05Z</time>
      </trkpt>
      <trkpt lat="44.155129976570606" lon="3.204639963805676">
        <time>2014-06-06T23:35:07Z</time>
      </trkpt>
      <trkpt lat="44.155219998210669" lon="3.20466997101903">
        <time>2014-06-06T23:35:09Z</time>
      </trkpt>
      <trkpt lat="44.155370034277439" lon="3.20484003983438">
        <time>2014-06-06T23:35:13Z</time>
      </trkpt>
      <trkpt lat="44.15548000484705" lon="3.205240024253726">
        <time>2014-06-06T23:35:19Z</time>
      </trkpt>
      <trkpt lat="44.155548652634025" lon="3.205666998401284">
        <time>2014-06-06T23:35:25Z</time>
      </trkpt>
      <trkpt lat="44.155570026487112" lon="3.205800019204617">
        <time>2014-06-06T23:35:27Z</time>
      </trkpt>
      <trkpt lat="44.15558997541666" lon="3.20613001473248">
        <time>2014-06-06T23:35:32Z</time>
      </trkpt>
      <trkpt lat="44.155573463067412" lon="3.206566879525781">
        <time>2014-06-06T23:35:38Z</time>
      </trkpt>
      <trkpt lat="44.155556866899133" lon="3.207003828138113">
        <time>2014-06-06T23:35:44Z</time>
      </trkpt>
      <trkpt lat="44.155540354549885" lon="3.207440776750445">
        <time>2014-06-06T23:35:50Z</time>
      </trkpt>
      <trkpt lat="44.155540019273758" lon="3.207449996843934">
        <time>2014-06-06T23:35:50Z</time>
      </trkpt>
      <trkpt lat="44.155600033700466" lon="3.207860039547086">
        <time>2014-06-06T23:35:56Z</time>
      </trkpt>
      <trkpt lat="44.155719978734851" lon="3.208190035074949">
        <time>2014-06-06T23:36:01Z</time>
      </trkpt>
      <trkpt lat="44.155849982053041" lon="3.208390027284622">
        <time>2014-06-06T23:36:05Z</time>
      </trkpt>
      <trkpt lat="44.15590999647975" lon="3.208439983427525">
        <time>2014-06-06T23:36:06Z</time>
      </trkpt>
      <trkpt lat="44.156049974262714" lon="3.208499997854233">
        <time>2014-06-06T23:36:09Z</time>
      </trkpt>
      <trkpt lat="44.156209984794259" lon="3.20845004171133">
        <time>2014-06-06T23:36:12Z</time>
      </trkpt>
      <trkpt lat="44.156507290899754" lon="3.20830537006259">
        <time>2014-06-06T23:36:18Z</time>
      </trkpt>
      <trkpt lat="44.156579962000251" lon="3.208269998431206">
        <time>2014-06-06T23:36:19Z</time>
      </trkpt>
      <trkpt lat="44.156829994171858" lon="3.208219958469272">
        <time>2014-06-06T23:36:24Z</time>
      </trkpt>
      <trkpt lat="44.157020011916757" lon="3.208249965682626">
        <time>2014-06-06T23:36:28Z</time>
      </trkpt>
      <trkpt lat="44.157325532287359" lon="3.208356248214841">
        <time>2014-06-06T23:36:34Z</time>
      </trkpt>
      <trkpt lat="44.157480010762811" lon="3.208409976214171">
        <time>2014-06-06T23:36:37Z</time>
      </trkpt>
      <trkpt lat="44.157740017399192" lon="3.208460016176105">
        <time>2014-06-06T23:36:42Z</time>
      </trkpt>
      <trkpt lat="44.158048722893" lon="3.208546852692962">
        <time>2014-06-06T23:36:48Z</time>
      </trkpt>
      <trkpt lat="44.158060038462281" lon="3.208550037816167">
        <time>2014-06-06T23:36:48Z</time>
      </trkpt>
      <trkpt lat="44.158219965174794" lon="3.208639975637198">
        <time>2014-06-06T23:36:51Z</time>
      </trkpt>
      <trkpt lat="44.158349968492985" lon="3.208790011703968">
        <time>2014-06-06T23:36:54Z</time>
      </trkpt>
      <trkpt lat="44.158551637083292" lon="3.209126126021147">
        <time>2014-06-06T23:37:00Z</time>
      </trkpt>
      <trkpt lat="44.158590026199818" lon="3.209189996123314">
        <time>2014-06-06T23:37:01Z</time>
      </trkpt>
      <trkpt lat="44.158669989556074" lon="3.209250010550022">
        <time>2014-06-06T23:37:03Z</time>
      </trkpt>
      <trkpt lat="44.158968301489949" lon="3.209390407428145">
        <time>2014-06-06T23:37:09Z</time>
      </trkpt>
      <trkpt lat="44.159266697242856" lon="3.209530804306269">
        <time>2014-06-06T23:37:15Z</time>
      </trkpt>
      <trkpt lat="44.159350013360381" lon="3.209570031613112">
        <time>2014-06-06T23:37:17Z</time>
      </trkpt>
      <trkpt lat="44.159469958394766" lon="3.209640020504594">
        <time>2014-06-06T23:37:19Z</time>
      </trkpt>
      <trkpt lat="44.159640027210116" lon="3.209830038249493">
        <time>2014-06-06T23:37:23Z</time>
      </trkpt>
      <trkpt lat="44.159749997779727" lon="3.209849987179041">
        <time>2014-06-06T23:37:25Z</time>
      </trkpt>
      <trkpt lat="44.159979997202754" lon="3.209670027717948">
        <time>2014-06-06T23:37:30Z</time>
      </trkpt>
      <trkpt lat="44.16007999330759" lon="3.209649994969368">
        <time>2014-06-06T23:37:32Z</time>
      </trkpt>
      <trkpt lat="44.160179989412427" lon="3.209670027717948">
        <time>2014-06-06T23:37:34Z</time>
      </trkpt>
      <trkpt lat="44.1603799816221" lon="3.209859961643815">
        <time>2014-06-06T23:37:39Z</time>
      </trkpt>
      <trkpt lat="44.160479977726936" lon="3.210070012137294">
        <time>2014-06-06T23:37:42Z</time>
      </trkpt>
      <trkpt lat="44.16053001768887" lon="3.210360025987029">
        <time>2014-06-06T23:37:46Z</time>
      </trkpt>
      <trkpt lat="44.160519959405065" lon="3.21059999987483">
        <time>2014-06-06T23:37:49Z</time>
      </trkpt>
      <trkpt lat="44.160479977726936" lon="3.210709970444441">
        <time>2014-06-06T23:37:51Z</time>
      </trkpt>
      <trkpt lat="44.1603799816221" lon="3.210869980975986">
        <time>2014-06-06T23:37:54Z</time>
      </trkpt>
      <trkpt lat="44.160300018265843" lon="3.211069973185659">
        <time>2014-06-06T23:37:57Z</time>
      </trkpt>
      <trkpt lat="44.160260036587715" lon="3.21135001257062">
        <time>2014-06-06T23:38:01Z</time>
      </trkpt>
      <trkpt lat="44.160279985517263" lon="3.211619993671775">
        <time>2014-06-06T23:38:05Z</time>
      </trkpt>
      <trkpt lat="44.160319967195392" lon="3.211770029738545">
        <time>2014-06-06T23:38:07Z</time>
      </trkpt>
      <trkpt lat="44.160419963300228" lon="3.211959963664413">
        <time>2014-06-06T23:38:10Z</time>
      </trkpt>
      <trkpt lat="44.160460028797388" lon="3.212119974195957">
        <time>2014-06-06T23:38:12Z</time>
      </trkpt>
      <trkpt lat="44.160449970513582" lon="3.212219970300794">
        <time>2014-06-06T23:38:13Z</time>
      </trkpt>
      <trkpt lat="44.160319967195392" lon="3.212509984150529">
        <time>2014-06-06T23:38:18Z</time>
      </trkpt>
      <trkpt lat="44.160339999943972" lon="3.212600005790591">
        <time>2014-06-06T23:38:19Z</time>
      </trkpt>
      <trkpt lat="44.160419963300228" lon="3.2126600202173">
        <time>2014-06-06T23:38:21Z</time>
      </trkpt>
      <trkpt lat="44.160734536126256" lon="3.212636383250356">
        <time>2014-06-06T23:38:27Z</time>
      </trkpt>
      <trkpt lat="44.160820031538606" lon="3.212630013003945">
        <time>2014-06-06T23:38:29Z</time>
      </trkpt>
      <trkpt lat="44.16113493964076" lon="3.212637891992927">
        <time>2014-06-06T23:38:35Z</time>
      </trkpt>
      <trkpt lat="44.161449847742915" lon="3.212645770981908">
        <time>2014-06-06T23:38:41Z</time>
      </trkpt>
      <trkpt lat="44.161620000377297" lon="3.212649961933494">
        <time>2014-06-06T23:38:44Z</time>
      </trkpt>
      <trkpt lat="44.161849999800324" lon="3.212700001895428">
        <time>2014-06-06T23:38:48Z</time>
      </trkpt>
      <trkpt lat="44.162079999223351" lon="3.212809972465038">
        <time>2014-06-06T23:38:53Z</time>
      </trkpt>
      <trkpt lat="44.162300024181604" lon="3.212879961356521">
        <time>2014-06-06T23:38:57Z</time>
      </trkpt>
      <trkpt lat="44.162611244246364" lon="3.212947100400925">
        <time>2014-06-06T23:39:03Z</time>
      </trkpt>
      <trkpt lat="44.162922548130155" lon="3.213014155626297">
        <time>2014-06-06T23:39:09Z</time>
      </trkpt>
      <trkpt lat="44.163233768194914" lon="3.213081210851669">
        <time>2014-06-06T23:39:15Z</time>
      </trkpt>
      <trkpt lat="44.163459995761514" lon="3.213129993528128">
        <time>2014-06-06T23:39:19Z</time>
      </trkpt>
      <trkpt lat="44.163699969649315" lon="3.213210040703416">
        <time>2014-06-06T23:39:24Z</time>
      </trkpt>
      <trkpt lat="44.163799965754151" lon="3.213280029594898">
        <time>2014-06-06T23:39:26Z</time>
      </trkpt>
      <trkpt lat="44.163829972967505" lon="3.213320011273027">
        <time>2014-06-06T23:39:27Z</time>
      </trkpt>
      <trkpt lat="44.163689995184541" lon="3.213429981842637">
        <time>2014-06-06T23:39:30Z</time>
      </trkpt>
      <trkpt lat="44.163397047668695" lon="3.213590662926436">
        <time>2014-06-06T23:39:36Z</time>
      </trkpt>
      <trkpt lat="44.163380032405257" lon="3.213599966838956">
        <time>2014-06-06T23:39:36Z</time>
      </trkpt>
      <trkpt lat="44.163082642480731" lon="3.213744219392538">
        <time>2014-06-06T23:39:42Z</time>
      </trkpt>
      <trkpt lat="44.162785252556205" lon="3.213888388127089">
        <time>2014-06-06T23:39:48Z</time>
      </trkpt>
      <trkpt lat="44.162487778812647" lon="3.214032556861639">
        <time>2014-06-06T23:39:54Z</time>
      </trkpt>
      <trkpt lat="44.162389962002635" lon="3.21407999843359">
        <time>2014-06-06T23:39:56Z</time>
      </trkpt>
      <trkpt lat="44.162330031394958" lon="3.214170020073652">
        <time>2014-06-06T23:39:58Z</time>
      </trkpt>
      <trkpt lat="44.162319973111153" lon="3.214300023391843">
        <time>2014-06-06T23:40:00Z</time>
      </trkpt>
      <trkpt lat="44.162419969215989" lon="3.214490041136742">
        <time>2014-06-06T23:40:03Z</time>
      </trkpt>
      <trkpt lat="44.16257000528276" lon="3.214639993384481">
        <time>2014-06-06T23:40:07Z</time>
      </trkpt>
      <trkpt lat="44.162749713286757" lon="3.214999409392476">
        <time>2014-06-06T23:40:13Z</time>
      </trkpt>
      <trkpt lat="44.162830011919141" lon="3.215160006657243">
        <time>2014-06-06T23:40:16Z</time>
      </trkpt>
      <trkpt lat="44.162950040772557" lon="3.21536997333169">
        <time>2014-06-06T23:40:20Z</time>
      </trkpt>
      <trkpt lat="44.163039978593588" lon="3.215469969436526">
        <time>2014-06-06T23:40:22Z</time>
      </trkpt>
      <trkpt lat="44.163180040195584" lon="3.215550016611815">
        <time>2014-06-06T23:40:25Z</time>
      </trkpt>
      <trkpt lat="44.16348522529006" lon="3.215657975524664">
        <time>2014-06-06T23:40:31Z</time>
      </trkpt>
      <trkpt lat="44.163790494203568" lon="3.215766018256545">
        <time>2014-06-06T23:40:37Z</time>
      </trkpt>
      <trkpt lat="44.163829972967505" lon="3.215780016034842">
        <time>2014-06-06T23:40:38Z</time>
      </trkpt>
      <trkpt lat="44.163950001820922" lon="3.215850004926324">
        <time>2014-06-06T23:40:40Z</time>
      </trkpt>
      <trkpt lat="44.164019990712404" lon="3.215959975495935">
        <time>2014-06-06T23:40:42Z</time>
      </trkpt>
      <trkpt lat="44.164059972390532" lon="3.216110011562705">
        <time>2014-06-06T23:40:44Z</time>
      </trkpt>
      <trkpt lat="44.164059972390532" lon="3.216259963810444">
        <time>2014-06-06T23:40:46Z</time>
      </trkpt>
      <trkpt lat="44.164000041782856" lon="3.216440007090569">
        <time>2014-06-06T23:40:49Z</time>
      </trkpt>
      <trkpt lat="44.163840031251311" lon="3.216739995405078">
        <time>2014-06-06T23:40:54Z</time>
      </trkpt>
      <trkpt lat="44.163789991289377" lon="3.216869998723269">
        <time>2014-06-06T23:40:56Z</time>
      </trkpt>
      <trkpt lat="44.163769958540797" lon="3.217060016468167">
        <time>2014-06-06T23:40:59Z</time>
      </trkpt>
      <trkpt lat="44.163779933005571" lon="3.217497384175658">
        <time>2014-06-06T23:41:05Z</time>
      </trkpt>
      <trkpt lat="44.163780016824603" lon="3.217499982565641">
        <time>2014-06-06T23:41:05Z</time>
      </trkpt>
      <trkpt lat="44.163729976862669" lon="3.217929974198341">
        <time>2014-06-06T23:41:11Z</time>
      </trkpt>
      <trkpt lat="44.163629980757833" lon="3.218240020796657">
        <time>2014-06-06T23:41:16Z</time>
      </trkpt>
      <trkpt lat="44.163466701284051" lon="3.218614188954234">
        <time>2014-06-06T23:41:22Z</time>
      </trkpt>
      <trkpt lat="44.163390006870031" lon="3.218790041282773">
        <time>2014-06-06T23:41:25Z</time>
      </trkpt>
      <trkpt lat="44.163314318284392" lon="3.219214752316475">
        <time>2014-06-06T23:41:31Z</time>
      </trkpt>
      <trkpt lat="44.163238629698753" lon="3.219639547169209">
        <time>2014-06-06T23:41:37Z</time>
      </trkpt>
      <trkpt lat="44.163209963589907" lon="3.219799976795912">
        <time>2014-06-06T23:41:39Z</time>
      </trkpt>
      <trkpt lat="44.163160007447004" lon="3.220219993963838">
        <time>2014-06-06T23:41:45Z</time>
      </trkpt>
      <trkpt lat="44.163180040195584" lon="3.220429960638285">
        <time>2014-06-06T23:41:48Z</time>
      </trkpt>
      <trkpt lat="44.163229996338487" lon="3.220579996705055">
        <time>2014-06-06T23:41:50Z</time>
      </trkpt>
      <trkpt lat="44.163320017978549" lon="3.220700025558472">
        <time>2014-06-06T23:41:52Z</time>
      </trkpt>
      <trkpt lat="44.163480028510094" lon="3.220830028876662">
        <time>2014-06-06T23:41:56Z</time>
      </trkpt>
      <trkpt lat="44.163680020719767" lon="3.220949973911047">
        <time>2014-06-06T23:42:00Z</time>
      </trkpt>
      <trkpt lat="44.163799965754151" lon="3.221060028299689">
        <time>2014-06-06T23:42:03Z</time>
      </trkpt>
      <trkpt lat="44.163840031251311" lon="3.221160024404526">
        <time>2014-06-06T23:42:05Z</time>
      </trkpt>
      <trkpt lat="44.163850005716085" lon="3.221330009400845">
        <time>2014-06-06T23:42:07Z</time>
      </trkpt>
      <trkpt lat="44.163819998502731" lon="3.221690012142062">
        <time>2014-06-06T23:42:12Z</time>
      </trkpt>
      <trkpt lat="44.16373391635716" lon="3.222110951319337">
        <time>2014-06-06T23:42:18Z</time>
      </trkpt>
      <trkpt lat="44.163729976862669" lon="3.222129978239536">
        <time>2014-06-06T23:42:18Z</time>
      </trkpt>
      <trkpt lat="44.163750009611249" lon="3.222229974344373">
        <time>2014-06-06T23:42:19Z</time>
      </trkpt>
      <trkpt lat="44.163789991289377" lon="3.222280014306307">
        <time>2014-06-06T23:42:20Z</time>
      </trkpt>
      <trkpt lat="44.163889987394214" lon="3.222319995984435">
        <time>2014-06-06T23:42:22Z</time>
      </trkpt>
      <trkpt lat="44.164049997925758" lon="3.222299963235855">
        <time>2014-06-06T23:42:25Z</time>
      </trkpt>
      <trkpt lat="44.164348477497697" lon="3.222160069271922">
        <time>2014-06-06T23:42:31Z</time>
      </trkpt>
      <trkpt lat="44.164370018988848" lon="3.222150010988116">
        <time>2014-06-06T23:42:31Z</time>
      </trkpt>
      <trkpt lat="44.164509996771812" lon="3.222120003774762">
        <time>2014-06-06T23:42:34Z</time>
      </trkpt>
      <trkpt lat="44.164690040051937" lon="3.22215998545289">
        <time>2014-06-06T23:42:37Z</time>
      </trkpt>
      <trkpt lat="44.164860025048256" lon="3.222259981557727">
        <time>2014-06-06T23:42:41Z</time>
      </trkpt>
      <trkpt lat="44.165000002831221" lon="3.222380010411143">
        <time>2014-06-06T23:42:44Z</time>
      </trkpt>
      <trkpt lat="44.165079966187477" lon="3.222489980980754">
        <time>2014-06-06T23:42:46Z</time>
      </trkpt>
      <trkpt lat="44.165230002254248" lon="3.222629958763719">
        <time>2014-06-06T23:42:49Z</time>
      </trkpt>
      <trkpt lat="44.165409961715341" lon="3.222719980403781">
        <time>2014-06-06T23:42:53Z</time>
      </trkpt>
      <trkpt lat="44.165710033848882" lon="3.222789969295263">
        <time>2014-06-06T23:42:59Z</time>
      </trkpt>
      <trkpt lat="44.165959982201457" lon="3.222819976508617">
        <time>2014-06-06T23:43:04Z</time>
      </trkpt>
      <trkpt lat="44.166274890303612" lon="3.222810169681907">
        <time>2014-06-06T23:43:10Z</time>
      </trkpt>
      <trkpt lat="44.166589798405766" lon="3.222800279036164">
        <time>2014-06-06T23:43:16Z</time>
      </trkpt>
      <trkpt lat="44.166600024327636" lon="3.222800027579069">
        <time>2014-06-06T23:43:16Z</time>
      </trkpt>
      <trkpt lat="44.166839998215437" lon="3.222830034792423">
        <time>2014-06-06T23:43:21Z</time>
      </trkpt>
      <trkpt lat="44.16706002317369" lon="3.222879990935326">
        <time>2014-06-06T23:43:25Z</time>
      </trkpt>
      <trkpt lat="44.167360765859485" lon="3.223010078072548">
        <time>2014-06-06T23:43:31Z</time>
      </trkpt>
      <trkpt lat="44.167430000379682" lon="3.22304000146687">
        <time>2014-06-06T23:43:32Z</time>
      </trkpt>
      <trkpt lat="44.167739879339933" lon="3.223118623718619">
        <time>2014-06-06T23:43:38Z</time>
      </trkpt>
      <trkpt lat="44.168049758300185" lon="3.223197245970368">
        <time>2014-06-06T23:43:44Z</time>
      </trkpt>
      <trkpt lat="44.168099965900183" lon="3.223209986463189">
        <time>2014-06-06T23:43:45Z</time>
      </trkpt>
      <trkpt lat="44.168406827375293" lon="3.223308976739645">
        <time>2014-06-06T23:43:51Z</time>
      </trkpt>
      <trkpt lat="44.168410012498498" lon="3.223309982568026">
        <time>2014-06-06T23:43:51Z</time>
      </trkpt>
      <trkpt lat="44.168670019134879" lon="3.22344996035099">
        <time>2014-06-06T23:43:56Z</time>
      </trkpt>
      <trkpt lat="44.168879985809326" lon="3.223609970882535">
        <time>2014-06-06T23:44:01Z</time>
      </trkpt>
      <trkpt lat="44.169049970805645" lon="3.223820021376014">
        <time>2014-06-06T23:44:05Z</time>
      </trkpt>
      <trkpt lat="44.169160025194287" lon="3.224059995263815">
        <time>2014-06-06T23:44:09Z</time>
      </trkpt>
      <trkpt lat="44.169249963015318" lon="3.224180024117231">
        <time>2014-06-06T23:44:11Z</time>
      </trkpt>
      <trkpt lat="44.169521620497108" lon="3.224401557818055">
        <time>2014-06-06T23:44:17Z</time>
      </trkpt>
      <trkpt lat="44.169629998505116" lon="3.224489986896515">
        <time>2014-06-06T23:44:19Z</time>
      </trkpt>
      <trkpt lat="44.169729994609952" lon="3.224619990214706">
        <time>2014-06-06T23:44:22Z</time>
      </trkpt>
      <trkpt lat="44.169750027358532" lon="3.224729960784316">
        <time>2014-06-06T23:44:24Z</time>
      </trkpt>
      <trkpt lat="44.169709961861372" lon="3.224870022386313">
        <time>2014-06-06T23:44:26Z</time>
      </trkpt>
      <trkpt lat="44.169457918033004" lon="3.225132375955582">
        <time>2014-06-06T23:44:32Z</time>
      </trkpt>
      <trkpt lat="44.169220039620996" lon="3.225379977375269">
        <time>2014-06-06T23:44:38Z</time>
      </trkpt>
      <trkpt lat="44.168956428766251" lon="3.225619615986943">
        <time>2014-06-06T23:44:44Z</time>
      </trkpt>
      <trkpt lat="44.1688899602741" lon="3.225679965689778">
        <time>2014-06-06T23:44:46Z</time>
      </trkpt>
      <trkpt lat="44.168689968064427" lon="3.225830001756549">
        <time>2014-06-06T23:44:50Z</time>
      </trkpt>
      <trkpt lat="44.168519983068109" lon="3.225909965112805">
        <time>2014-06-06T23:44:53Z</time>
      </trkpt>
      <trkpt lat="44.16832996532321" lon="3.225950030609965">
        <time>2014-06-06T23:44:57Z</time>
      </trkpt>
      <trkpt lat="44.168129973113537" lon="3.225950030609965">
        <time>2014-06-06T23:45:01Z</time>
      </trkpt>
      <trkpt lat="44.167859992012382" lon="3.225899990648031">
        <time>2014-06-06T23:45:06Z</time>
      </trkpt>
      <trkpt lat="44.167609959840775" lon="3.225830001756549">
        <time>2014-06-06T23:45:11Z</time>
      </trkpt>
      <trkpt lat="44.167450033128262" lon="3.225809969007969">
        <time>2014-06-06T23:45:14Z</time>
      </trkpt>
      <trkpt lat="44.167330004274845" lon="3.225860008969903">
        <time>2014-06-06T23:45:16Z</time>
      </trkpt>
      <trkpt lat="44.167209975421429" lon="3.225969979539514">
        <time>2014-06-06T23:45:19Z</time>
      </trkpt>
      <trkpt lat="44.167130012065172" lon="3.226129990071058">
        <time>2014-06-06T23:45:22Z</time>
      </trkpt>
      <trkpt lat="44.167080475017428" lon="3.226562160998583">
        <time>2014-06-06T23:45:28Z</time>
      </trkpt>
      <trkpt lat="44.167030937969685" lon="3.226994331926107">
        <time>2014-06-06T23:45:34Z</time>
      </trkpt>
      <trkpt lat="44.166981400921941" lon="3.227426502853632">
        <time>2014-06-06T23:45:40Z</time>
      </trkpt>
      <trkpt lat="44.166949968785048" lon="3.227700004354119">
        <time>2014-06-06T23:45:44Z</time>
      </trkpt>
      <trkpt lat="44.166979975998402" lon="3.227909971028566">
        <time>2014-06-06T23:45:47Z</time>
      </trkpt>
      <trkpt lat="44.167030015960336" lon="3.228080039843917">
        <time>2014-06-06T23:45:50Z</time>
      </trkpt>
      <trkpt lat="44.167120037600398" lon="3.228220017626882">
        <time>2014-06-06T23:45:53Z</time>
      </trkpt>
      <trkpt lat="44.167230008170009" lon="3.228310039266944">
        <time>2014-06-06T23:45:55Z</time>
      </trkpt>
      <trkpt lat="44.167499989271164" lon="3.228459991514683">
        <time>2014-06-06T23:46:01Z</time>
      </trkpt>
      <trkpt lat="44.167639967054129" lon="3.228569962084293">
        <time>2014-06-06T23:46:04Z</time>
      </trkpt>
      <trkpt lat="44.167699981480837" lon="3.22871002368629">
        <time>2014-06-06T23:46:06Z</time>
      </trkpt>
      <trkpt lat="44.167699981480837" lon="3.2288199942559">
        <time>2014-06-06T23:46:08Z</time>
      </trkpt>
      <trkpt lat="44.167639967054129" lon="3.228970030322671">
        <time>2014-06-06T23:46:10Z</time>
      </trkpt>
      <trkpt lat="44.167425977066159" lon="3.229291057214141">
        <time>2014-06-06T23:46:16Z</time>
      </trkpt>
      <trkpt lat="44.167239982634783" lon="3.22957000695169">
        <time>2014-06-06T23:46:21Z</time>
      </trkpt>
      <trkpt lat="44.167049964889884" lon="3.229900002479553">
        <time>2014-06-06T23:46:27Z</time>
      </trkpt>
      <trkpt lat="44.167030015960336" lon="3.230050038546324">
        <time>2014-06-06T23:46:29Z</time>
      </trkpt>
      <trkpt lat="44.167069997638464" lon="3.230220023542643">
        <time>2014-06-06T23:46:31Z</time>
      </trkpt>
      <trkpt lat="44.167139986529946" lon="3.230399983003736">
        <time>2014-06-06T23:46:34Z</time>
      </trkpt>
      <trkpt lat="44.167160019278526" lon="3.230590000748634">
        <time>2014-06-06T23:46:37Z</time>
      </trkpt>
      <trkpt lat="44.16712012141943" lon="3.231024099513888">
        <time>2014-06-06T23:46:43Z</time>
      </trkpt>
      <trkpt lat="44.167080139741302" lon="3.231458198279142">
        <time>2014-06-06T23:46:49Z</time>
      </trkpt>
      <trkpt lat="44.167079972103238" lon="3.231459958478808">
        <time>2014-06-06T23:46:49Z</time>
      </trkpt>
      <trkpt lat="44.167062537744641" lon="3.231896907091141">
        <time>2014-06-06T23:46:55Z</time>
      </trkpt>
      <trkpt lat="44.16706002317369" lon="3.231960022822022">
        <time>2014-06-06T23:46:56Z</time>
      </trkpt>
      <trkpt lat="44.167120037600398" lon="3.232160015031695">
        <time>2014-06-06T23:46:59Z</time>
      </trkpt>
      <trkpt lat="44.167239982634783" lon="3.232399988919497">
        <time>2014-06-06T23:47:03Z</time>
      </trkpt>
      <trkpt lat="44.167420025914907" lon="3.232580032199621">
        <time>2014-06-06T23:47:07Z</time>
      </trkpt>
      <trkpt lat="44.167696628719568" lon="3.232789160683751">
        <time>2014-06-06T23:47:13Z</time>
      </trkpt>
      <trkpt lat="44.167829984799027" lon="3.232889994978905">
        <time>2014-06-06T23:47:16Z</time>
      </trkpt>
      <trkpt lat="44.16789997369051" lon="3.233040031045675">
        <time>2014-06-06T23:47:18Z</time>
      </trkpt>
      <trkpt lat="44.167950013652444" lon="3.233249997720122">
        <time>2014-06-06T23:47:21Z</time>
      </trkpt>
      <trkpt lat="44.1680299770087" lon="3.233400033786893">
        <time>2014-06-06T23:47:24Z</time>
      </trkpt>
      <trkpt lat="44.168269112706184" lon="3.233684850856662">
        <time>2014-06-06T23:47:30Z</time>
      </trkpt>
      <trkpt lat="44.16850003413856" lon="3.233960028737783">
        <time>2014-06-06T23:47:36Z</time>
      </trkpt>
      <trkpt lat="44.168766243383288" lon="3.234193967655301">
        <time>2014-06-06T23:47:42Z</time>
      </trkpt>
      <trkpt lat="44.168830029666424" lon="3.234249958768487">
        <time>2014-06-06T23:47:43Z</time>
      </trkpt>
      <trkpt lat="44.168979981914163" lon="3.234479958191514">
        <time>2014-06-06T23:47:47Z</time>
      </trkpt>
      <trkpt lat="44.16920998133719" lon="3.234759997576475">
        <time>2014-06-06T23:47:53Z</time>
      </trkpt>
      <trkpt lat="44.169349959120154" lon="3.235059985890985">
        <time>2014-06-06T23:47:58Z</time>
      </trkpt>
      <trkpt lat="44.169450039044023" lon="3.235219996422529">
        <time>2014-06-06T23:48:01Z</time>
      </trkpt>
      <trkpt lat="44.169609965756536" lon="3.235429963096976">
        <time>2014-06-06T23:48:05Z</time>
      </trkpt>
      <trkpt lat="44.16966000571847" lon="3.235570024698973">
        <time>2014-06-06T23:48:07Z</time>
      </trkpt>
      <trkpt lat="44.16968003846705" lon="3.235979983583093">
        <time>2014-06-06T23:48:13Z</time>
      </trkpt>
      <trkpt lat="44.169709961861372" lon="3.236090037971735">
        <time>2014-06-06T23:48:15Z</time>
      </trkpt>
      <trkpt lat="44.169890005141497" lon="3.236369993537664">
        <time>2014-06-06T23:48:20Z</time>
      </trkpt>
      <trkpt lat="44.169910037890077" lon="3.236520029604435">
        <time>2014-06-06T23:48:22Z</time>
      </trkpt>
      <trkpt lat="44.169910037890077" lon="3.236957648769021">
        <time>2014-06-06T23:48:28Z</time>
      </trkpt>
      <trkpt lat="44.169910037890077" lon="3.237080024555326">
        <time>2014-06-06T23:48:30Z</time>
      </trkpt>
      <trkpt lat="44.169959994032979" lon="3.23719996958971">
        <time>2014-06-06T23:48:32Z</time>
      </trkpt>
      <trkpt lat="44.17008999735117" lon="3.237359980121255">
        <time>2014-06-06T23:48:35Z</time>
      </trkpt>
      <trkpt lat="44.170259982347488" lon="3.237500041723251">
        <time>2014-06-06T23:48:39Z</time>
      </trkpt>
      <trkpt lat="44.170340029522777" lon="3.237589979544282">
        <time>2014-06-06T23:48:41Z</time>
      </trkpt>
      <trkpt lat="44.170389985665679" lon="3.237700033932924">
        <time>2014-06-06T23:48:43Z</time>
      </trkpt>
      <trkpt lat="44.170389985665679" lon="3.237830037251115">
        <time>2014-06-06T23:48:45Z</time>
      </trkpt>
      <trkpt lat="44.170329971238971" lon="3.238030029460788">
        <time>2014-06-06T23:48:48Z</time>
      </trkpt>
      <trkpt lat="44.170144060626626" lon="3.238383242860436">
        <time>2014-06-06T23:48:54Z</time>
      </trkpt>
      <trkpt lat="44.170129979029298" lon="3.238409981131554">
        <time>2014-06-06T23:48:54Z</time>
      </trkpt>
      <trkpt lat="44.169916659593582" lon="3.238732013851404">
        <time>2014-06-06T23:49:00Z</time>
      </trkpt>
      <trkpt lat="44.169703340157866" lon="3.239053962752223">
        <time>2014-06-06T23:49:06Z</time>
      </trkpt>
      <trkpt lat="44.169599991291761" lon="3.239210033789277">
        <time>2014-06-06T23:49:09Z</time>
      </trkpt>
      <trkpt lat="44.169393042102456" lon="3.239539861679077">
        <time>2014-06-06T23:49:15Z</time>
      </trkpt>
      <trkpt lat="44.169279970228672" lon="3.239719988778234">
        <time>2014-06-06T23:49:18Z</time>
      </trkpt>
      <trkpt lat="44.169200006872416" lon="3.239889973774552">
        <time>2014-06-06T23:49:21Z</time>
      </trkpt>
      <trkpt lat="44.16920998133719" lon="3.240070017054677">
        <time>2014-06-06T23:49:23Z</time>
      </trkpt>
      <trkpt lat="44.169326238334179" lon="3.24047670699656">
        <time>2014-06-06T23:49:29Z</time>
      </trkpt>
      <trkpt lat="44.169330010190606" lon="3.240490034222603">
        <time>2014-06-06T23:49:29Z</time>
      </trkpt>
      <trkpt lat="44.169330010190606" lon="3.24067996814847">
        <time>2014-06-06T23:49:32Z</time>
      </trkpt>
      <trkpt lat="44.169279551133513" lon="3.241111971437931">
        <time>2014-06-06T23:49:38Z</time>
      </trkpt>
      <trkpt lat="44.169239988550544" lon="3.241450013592839">
        <time>2014-06-06T23:49:43Z</time>
      </trkpt>
      <trkpt lat="44.169249963015318" lon="3.241610024124384">
        <time>2014-06-06T23:49:45Z</time>
      </trkpt>
      <trkpt lat="44.169330010190606" lon="3.241810016334057">
        <time>2014-06-06T23:49:48Z</time>
      </trkpt>
      <trkpt lat="44.169525895267725" lon="3.242152752354741">
        <time>2014-06-06T23:49:54Z</time>
      </trkpt>
      <trkpt lat="44.169721696525812" lon="3.242495488375425">
        <time>2014-06-06T23:50:00Z</time>
      </trkpt>
      <trkpt lat="44.169917581602931" lon="3.24283822439611">
        <time>2014-06-06T23:50:06Z</time>
      </trkpt>
      <trkpt lat="44.170010033994913" lon="3.24299999512732">
        <time>2014-06-06T23:50:09Z</time>
      </trkpt>
      <trkpt lat="44.170080022886395" lon="3.243160005658865">
        <time>2014-06-06T23:50:12Z</time>
      </trkpt>
      <trkpt lat="44.170159986242652" lon="3.243469968438149">
        <time>2014-06-06T23:50:17Z</time>
      </trkpt>
      <trkpt lat="44.17019996792078" lon="3.243780015036464">
        <time>2014-06-06T23:50:21Z</time>
      </trkpt>
      <trkpt lat="44.17022000066936" lon="3.244170024991036">
        <time>2014-06-06T23:50:26Z</time>
      </trkpt>
      <trkpt lat="44.170259982347488" lon="3.244310002774">
        <time>2014-06-06T23:50:28Z</time>
      </trkpt>
      <trkpt lat="44.170380011200905" lon="3.244470013305545">
        <time>2014-06-06T23:50:31Z</time>
      </trkpt>
      <trkpt lat="44.17062995955348" lon="3.24471996165812">
        <time>2014-06-06T23:50:37Z</time>
      </trkpt>
      <trkpt lat="44.170730039477348" lon="3.244860023260117">
        <time>2014-06-06T23:50:40Z</time>
      </trkpt>
      <trkpt lat="44.170875549316406" lon="3.245248105376959">
        <time>2014-06-06T23:50:46Z</time>
      </trkpt>
      <trkpt lat="44.170879991725087" lon="3.245260007679462">
        <time>2014-06-06T23:50:46Z</time>
      </trkpt>
      <trkpt lat="44.170960038900375" lon="3.245369978249073">
        <time>2014-06-06T23:50:48Z</time>
      </trkpt>
      <trkpt lat="44.17110001668334" lon="3.245429992675781">
        <time>2014-06-06T23:50:51Z</time>
      </trkpt>
      <trkpt lat="44.171412996947765" lon="3.245478942990303">
        <time>2014-06-06T23:50:57Z</time>
      </trkpt>
      <trkpt lat="44.171420037746429" lon="3.245480032637715">
        <time>2014-06-06T23:50:57Z</time>
      </trkpt>
      <trkpt lat="44.171500001102686" lon="3.245480032637715">
        <time>2014-06-06T23:50:59Z</time>
      </trkpt>
      <trkpt lat="44.171720026060939" lon="3.245439967140555">
        <time>2014-06-06T23:51:03Z</time>
      </trkpt>
      <trkpt lat="44.171790014952421" lon="3.245450025424361">
        <time>2014-06-06T23:51:04Z</time>
      </trkpt>
      <trkpt lat="44.171860003843904" lon="3.24551003985107">
        <time>2014-06-06T23:51:06Z</time>
      </trkpt>
      <trkpt lat="44.171920018270612" lon="3.245639959350228">
        <time>2014-06-06T23:51:08Z</time>
      </trkpt>
      <trkpt lat="44.171909959986806" lon="3.245799969881773">
        <time>2014-06-06T23:51:10Z</time>
      </trkpt>
      <trkpt lat="44.171839971095324" lon="3.245950005948544">
        <time>2014-06-06T23:51:12Z</time>
      </trkpt>
      <trkpt lat="44.171709967777133" lon="3.246040027588606">
        <time>2014-06-06T23:51:15Z</time>
      </trkpt>
      <trkpt lat="44.17153000831604" lon="3.246080009266734">
        <time>2014-06-06T23:51:18Z</time>
      </trkpt>
      <trkpt lat="44.171300008893013" lon="3.246200038120151">
        <time>2014-06-06T23:51:23Z</time>
      </trkpt>
      <trkpt lat="44.171015191823244" lon="3.246386870741844">
        <time>2014-06-06T23:51:29Z</time>
      </trkpt>
      <trkpt lat="44.170979987829924" lon="3.246410004794598">
        <time>2014-06-06T23:51:30Z</time>
      </trkpt>
      <trkpt lat="44.170779995620251" lon="3.246519975364208">
        <time>2014-06-06T23:51:34Z</time>
      </trkpt>
      <trkpt lat="44.170589977875352" lon="3.246579989790916">
        <time>2014-06-06T23:51:38Z</time>
      </trkpt>
      <trkpt lat="44.170440025627613" lon="3.246660036966205">
        <time>2014-06-06T23:51:41Z</time>
      </trkpt>
      <trkpt lat="44.170319996774197" lon="3.246749974787235">
        <time>2014-06-06T23:51:44Z</time>
      </trkpt>
      <trkpt lat="44.170099971815944" lon="3.247020039707422">
        <time>2014-06-06T23:51:50Z</time>
      </trkpt>
      <trkpt lat="44.169920012354851" lon="3.247209973633289">
        <time>2014-06-06T23:51:54Z</time>
      </trkpt>
      <trkpt lat="44.16968003846705" lon="3.247409965842962">
        <time>2014-06-06T23:51:59Z</time>
      </trkpt>
      <trkpt lat="44.169483482837677" lon="3.247751947492361">
        <time>2014-06-06T23:52:05Z</time>
      </trkpt>
      <trkpt lat="44.169286927208304" lon="3.24809392914176">
        <time>2014-06-06T23:52:11Z</time>
      </trkpt>
      <trkpt lat="44.169179974123836" lon="3.248280007392168">
        <time>2014-06-06T23:52:14Z</time>
      </trkpt>
      <trkpt lat="44.168957769870758" lon="3.248590137809515">
        <time>2014-06-06T23:52:20Z</time>
      </trkpt>
      <trkpt lat="44.168749982491136" lon="3.248879984021187">
        <time>2014-06-06T23:52:26Z</time>
      </trkpt>
      <trkpt lat="44.168549403548241" lon="3.249217355623841">
        <time>2014-06-06T23:52:32Z</time>
      </trkpt>
      <trkpt lat="44.168530041351914" lon="3.249249961227179">
        <time>2014-06-06T23:52:33Z</time>
      </trkpt>
      <trkpt lat="44.168440019711852" lon="3.24950996786356">
        <time>2014-06-06T23:52:37Z</time>
      </trkpt>
      <trkpt lat="44.168407749384642" lon="3.24994532391429">
        <time>2014-06-06T23:52:43Z</time>
      </trkpt>
      <trkpt lat="44.168400038033724" lon="3.250050013884902">
        <time>2014-06-06T23:52:44Z</time>
      </trkpt>
      <trkpt lat="44.168340023607016" lon="3.250180017203093">
        <time>2014-06-06T23:52:46Z</time>
      </trkpt>
      <trkpt lat="44.168189987540245" lon="3.250250006094575">
        <time>2014-06-06T23:52:49Z</time>
      </trkpt>
      <trkpt lat="44.168080016970634" lon="3.250280013307929">
        <time>2014-06-06T23:52:51Z</time>
      </trkpt>
      <trkpt lat="44.167980020865798" lon="3.250359976664186">
        <time>2014-06-06T23:52:53Z</time>
      </trkpt>
      <trkpt lat="44.167839959263802" lon="3.250510012730956">
        <time>2014-06-06T23:52:56Z</time>
      </trkpt>
      <trkpt lat="44.167780028656125" lon="3.250600034371018">
        <time>2014-06-06T23:52:58Z</time>
      </trkpt>
      <trkpt lat="44.167729988694191" lon="3.250740012153983">
        <time>2014-06-06T23:53:00Z</time>
      </trkpt>
      <trkpt lat="44.16769377887249" lon="3.251174697652459">
        <time>2014-06-06T23:53:06Z</time>
      </trkpt>
      <trkpt lat="44.167690007016063" lon="3.251219959929586">
        <time>2014-06-06T23:53:07Z</time>
      </trkpt>
      <trkpt lat="44.167609959840775" lon="3.251490024849773">
        <time>2014-06-06T23:53:11Z</time>
      </trkpt>
      <trkpt lat="44.16746998205781" lon="3.251869976520538">
        <time>2014-06-06T23:53:17Z</time>
      </trkpt>
      <trkpt lat="44.167415164411068" lon="3.252300890162587">
        <time>2014-06-06T23:53:23Z</time>
      </trkpt>
      <trkpt lat="44.167399993166327" lon="3.252419997006655">
        <time>2014-06-06T23:53:25Z</time>
      </trkpt>
      <trkpt lat="44.167369985952973" lon="3.252759966999292">
        <time>2014-06-06T23:53:30Z</time>
      </trkpt>
      <trkpt lat="44.167381301522255" lon="3.253197334706783">
        <time>2014-06-06T23:53:36Z</time>
      </trkpt>
      <trkpt lat="44.167392617091537" lon="3.253634618595243">
        <time>2014-06-06T23:53:42Z</time>
      </trkpt>
      <trkpt lat="44.167399993166327" lon="3.253920022398233">
        <time>2014-06-06T23:53:46Z</time>
      </trkpt>
      <trkpt lat="44.167460007593036" lon="3.254199977964163">
        <time>2014-06-06T23:53:50Z</time>
      </trkpt>
      <trkpt lat="44.167655222117901" lon="3.254543384537101">
        <time>2014-06-06T23:53:56Z</time>
      </trkpt>
      <trkpt lat="44.167750021442771" lon="3.254710016772151">
        <time>2014-06-06T23:53:59Z</time>
      </trkpt>
      <trkpt lat="44.167799977585673" lon="3.254840020090342">
        <time>2014-06-06T23:54:01Z</time>
      </trkpt>
      <trkpt lat="44.167820010334253" lon="3.254959965124726">
        <time>2014-06-06T23:54:03Z</time>
      </trkpt>
      <trkpt lat="44.167810035869479" lon="3.25528996065259">
        <time>2014-06-06T23:54:08Z</time>
      </trkpt>
      <trkpt lat="44.167780028656125" lon="3.255530018359423">
        <time>2014-06-06T23:54:11Z</time>
      </trkpt>
      <trkpt lat="44.167829984799027" lon="3.255730010569096">
        <time>2014-06-06T23:54:14Z</time>
      </trkpt>
      <trkpt lat="44.1680299770087" lon="3.255960009992123">
        <time>2014-06-06T23:54:19Z</time>
      </trkpt>
      <trkpt lat="44.168099965900183" lon="3.256129994988442">
        <time>2014-06-06T23:54:22Z</time>
      </trkpt>
      <trkpt lat="44.168089991435409" lon="3.256359994411469">
        <time>2014-06-06T23:54:25Z</time>
      </trkpt>
      <trkpt lat="44.167969794943929" lon="3.256764505058527">
        <time>2014-06-06T23:54:31Z</time>
      </trkpt>
      <trkpt lat="44.167849682271481" lon="3.257169015705586">
        <time>2014-06-06T23:54:37Z</time>
      </trkpt>
      <trkpt lat="44.167729485780001" lon="3.257573526352644">
        <time>2014-06-06T23:54:43Z</time>
      </trkpt>
      <trkpt lat="44.167680032551289" lon="3.257739990949631">
        <time>2014-06-06T23:54:45Z</time>
      </trkpt>
      <trkpt lat="44.167599985376" lon="3.258160008117557">
        <time>2014-06-06T23:54:51Z</time>
      </trkpt>
      <trkpt lat="44.167578527703881" lon="3.258596621453762">
        <time>2014-06-06T23:54:57Z</time>
      </trkpt>
      <trkpt lat="44.167569978162646" lon="3.25876995921135">
        <time>2014-06-06T23:54:59Z</time>
      </trkpt>
      <trkpt lat="44.167509963735938" lon="3.259180001914501">
        <time>2014-06-06T23:55:05Z</time>
      </trkpt>
      <trkpt lat="44.167360011488199" lon="3.259489964693785">
        <time>2014-06-06T23:55:10Z</time>
      </trkpt>
      <trkpt lat="44.167139986529946" lon="3.259790036827326">
        <time>2014-06-06T23:55:16Z</time>
      </trkpt>
      <trkpt lat="44.167030015960336" lon="3.260030010715127">
        <time>2014-06-06T23:55:20Z</time>
      </trkpt>
      <trkpt lat="44.16703999042511" lon="3.26020997017622">
        <time>2014-06-06T23:55:22Z</time>
      </trkpt>
      <trkpt lat="44.167120037600398" lon="3.260469976812601">
        <time>2014-06-06T23:55:26Z</time>
      </trkpt>
      <trkpt lat="44.167139986529946" lon="3.260620012879372">
        <time>2014-06-06T23:55:28Z</time>
      </trkpt>
      <trkpt lat="44.167079972103238" lon="3.260820005089045">
        <time>2014-06-06T23:55:31Z</time>
      </trkpt>
      <trkpt lat="44.167049964889884" lon="3.261040030047298">
        <time>2014-06-06T23:55:34Z</time>
      </trkpt>
      <trkpt lat="44.167066225782037" lon="3.261477062478662">
        <time>2014-06-06T23:55:40Z</time>
      </trkpt>
      <trkpt lat="44.167069997638464" lon="3.261579992249608">
        <time>2014-06-06T23:55:41Z</time>
      </trkpt>
      <trkpt lat="44.167000008746982" lon="3.261800017207861">
        <time>2014-06-06T23:55:44Z</time>
      </trkpt>
      <trkpt lat="44.166795993223786" lon="3.262133365496993">
        <time>2014-06-06T23:55:50Z</time>
      </trkpt>
      <trkpt lat="44.166591977700591" lon="3.262466797605157">
        <time>2014-06-06T23:55:56Z</time>
      </trkpt>
      <trkpt lat="44.16658996604383" lon="3.262469982728362">
        <time>2014-06-06T23:55:56Z</time>
      </trkpt>
      <trkpt lat="44.166430039331317" lon="3.262609960511327">
        <time>2014-06-06T23:56:00Z</time>
      </trkpt>
      <trkpt lat="44.166319984942675" lon="3.262759996578097">
        <time>2014-06-06T23:56:03Z</time>
      </trkpt>
      <trkpt lat="44.166229963302612" lon="3.262989996001124">
        <time>2014-06-06T23:56:07Z</time>
      </trkpt>
      <trkpt lat="44.166113287210464" lon="3.263396434485912">
        <time>2014-06-06T23:56:13Z</time>
      </trkpt>
      <trkpt lat="44.165996611118317" lon="3.2638028729707">
        <time>2014-06-06T23:56:19Z</time>
      </trkpt>
      <trkpt lat="44.165879851207137" lon="3.264209311455488">
        <time>2014-06-06T23:56:25Z</time>
      </trkpt>
      <trkpt lat="44.165763175114989" lon="3.264615833759308">
        <time>2014-06-06T23:56:31Z</time>
      </trkpt>
      <trkpt lat="44.16564641520381" lon="3.265022272244096">
        <time>2014-06-06T23:56:37Z</time>
      </trkpt>
      <trkpt lat="44.165529739111662" lon="3.265428710728884">
        <time>2014-06-06T23:56:43Z</time>
      </trkpt>
      <trkpt lat="44.165412979200482" lon="3.265835149213672">
        <time>2014-06-06T23:56:49Z</time>
      </trkpt>
      <trkpt lat="44.165296303108335" lon="3.26624158769846">
        <time>2014-06-06T23:56:55Z</time>
      </trkpt>
      <trkpt lat="44.165179543197155" lon="3.266648026183248">
        <time>2014-06-06T23:57:01Z</time>
      </trkpt>
      <trkpt lat="44.165062867105007" lon="3.267054464668036">
        <time>2014-06-06T23:57:07Z</time>
      </trkpt>
      <trkpt lat="44.164946107193828" lon="3.267460903152823">
        <time>2014-06-06T23:57:13Z</time>
      </trkpt>
      <trkpt lat="44.164829347282648" lon="3.267867341637611">
        <time>2014-06-06T23:57:19Z</time>
      </trkpt>
      <trkpt lat="44.164819959551096" lon="3.26790003105998">
        <time>2014-06-06T23:57:19Z</time>
      </trkpt>
      <trkpt lat="44.164764974266291" lon="3.268330860882998">
        <time>2014-06-06T23:57:25Z</time>
      </trkpt>
      <trkpt lat="44.164760028943419" lon="3.268370004370809">
        <time>2014-06-06T23:57:26Z</time>
      </trkpt>
      <trkpt lat="44.164725495502353" lon="3.26880494132638">
        <time>2014-06-06T23:57:32Z</time>
      </trkpt>
      <trkpt lat="44.164690878242254" lon="3.269239878281951">
        <time>2014-06-06T23:57:38Z</time>
      </trkpt>
      <trkpt lat="44.164656344801188" lon="3.269674815237522">
        <time>2014-06-06T23:57:44Z</time>
      </trkpt>
      <trkpt lat="44.164621811360121" lon="3.270109752193093">
        <time>2014-06-06T23:57:50Z</time>
      </trkpt>
      <trkpt lat="44.164587277919054" lon="3.270544772967696">
        <time>2014-06-06T23:57:56Z</time>
      </trkpt>
      <trkpt lat="44.164552744477987" lon="3.270979709923267">
        <time>2014-06-06T23:58:02Z</time>
      </trkpt>
      <trkpt lat="44.164540003985167" lon="3.271139971911907">
        <time>2014-06-06T23:58:04Z</time>
      </trkpt>
      <trkpt lat="44.164502788335085" lon="3.27157448977232">
        <time>2014-06-06T23:58:10Z</time>
      </trkpt>
      <trkpt lat="44.164465488865972" lon="3.272009007632732">
        <time>2014-06-06T23:58:16Z</time>
      </trkpt>
      <trkpt lat="44.16442827321589" lon="3.272443525493145">
        <time>2014-06-06T23:58:22Z</time>
      </trkpt>
      <trkpt lat="44.164390973746777" lon="3.272878043353558">
        <time>2014-06-06T23:58:28Z</time>
      </trkpt>
      <trkpt lat="44.164353758096695" lon="3.27331256121397">
        <time>2014-06-06T23:58:34Z</time>
      </trkpt>
      <trkpt lat="44.164316458627582" lon="3.273747079074383">
        <time>2014-06-06T23:58:40Z</time>
      </trkpt>
      <trkpt lat="44.1642792429775" lon="3.274181596934795">
        <time>2014-06-06T23:58:46Z</time>
      </trkpt>
      <trkpt lat="44.164241943508387" lon="3.274616114795208">
        <time>2014-06-06T23:58:52Z</time>
      </trkpt>
      <trkpt lat="44.164204727858305" lon="3.275050632655621">
        <time>2014-06-06T23:58:58Z</time>
      </trkpt>
      <trkpt lat="44.164167428389192" lon="3.275485150516033">
        <time>2014-06-06T23:59:04Z</time>
      </trkpt>
      <trkpt lat="44.16413021273911" lon="3.275919668376446">
        <time>2014-06-06T23:59:10Z</time>
      </trkpt>
      <trkpt lat="44.164092913269997" lon="3.276354186236858">
        <time>2014-06-06T23:59:16Z</time>
      </trkpt>
      <trkpt lat="44.164055613800883" lon="3.276788704097271">
        <time>2014-06-06T23:59:22Z</time>
      </trkpt>
      <trkpt lat="44.164018398150802" lon="3.277223138138652">
        <time>2014-06-06T23:59:28Z</time>
      </trkpt>
      <trkpt lat="44.163981098681688" lon="3.277657655999064">
        <time>2014-06-06T23:59:34Z</time>
      </trkpt>
      <trkpt lat="44.163943799212575" lon="3.278092173859477">
        <time>2014-06-06T23:59:40Z</time>
      </trkpt>
      <trkpt lat="44.163919994607568" lon="3.278370033949614">
        <time>2014-06-06T23:59:44Z</time>
      </trkpt>
      <trkpt lat="44.163888311013579" lon="3.278805390000343">
        <time>2014-06-06T23:59:50Z</time>
      </trkpt>
      <trkpt lat="44.16388001292944" lon="3.278919970616698">
        <time>2014-06-06T23:59:52Z</time>
      </trkpt>
      <trkpt lat="44.16388001292944" lon="3.279320038855076">
        <time>2014-06-06T23:59:57Z</time>
      </trkpt>
      <trkpt lat="44.163908679038286" lon="3.279755730181932">
        <time>2014-06-07T00:00:03Z</time>
      </trkpt>
      <trkpt lat="44.163929969072342" lon="3.280080026015639">
        <time>2014-06-07T00:00:07Z</time>
      </trkpt>
      <trkpt lat="44.163899961858988" lon="3.280269959941506">
        <time>2014-06-07T00:00:10Z</time>
      </trkpt>
      <trkpt lat="44.163759984076023" lon="3.28061998821795">
        <time>2014-06-07T00:00:15Z</time>
      </trkpt>
      <trkpt lat="44.163591843098402" lon="3.280989965423942">
        <time>2014-06-07T00:00:21Z</time>
      </trkpt>
      <trkpt lat="44.163423618301749" lon="3.281359942629933">
        <time>2014-06-07T00:00:27Z</time>
      </trkpt>
      <trkpt lat="44.163309959694743" lon="3.28160997480154">
        <time>2014-06-07T00:00:31Z</time>
      </trkpt>
      <trkpt lat="44.163154223933816" lon="3.281990261748433">
        <time>2014-06-07T00:00:37Z</time>
      </trkpt>
      <trkpt lat="44.162998404353857" lon="3.282370548695326">
        <time>2014-06-07T00:00:43Z</time>
      </trkpt>
      <trkpt lat="44.162842584773898" lon="3.282750835642219">
        <time>2014-06-07T00:00:49Z</time>
      </trkpt>
      <trkpt lat="44.16272004134953" lon="3.283049985766411">
        <time>2014-06-07T00:00:54Z</time>
      </trkpt>
      <trkpt lat="44.16259347461164" lon="3.283450724557042">
        <time>2014-06-07T00:01:00Z</time>
      </trkpt>
      <trkpt lat="44.162479983642697" lon="3.283809972926974">
        <time>2014-06-07T00:01:05Z</time>
      </trkpt>
      <trkpt lat="44.162359116598964" lon="3.284214064478874">
        <time>2014-06-07T00:01:11Z</time>
      </trkpt>
      <trkpt lat="44.162238165736198" lon="3.284618072211742">
        <time>2014-06-07T00:01:17Z</time>
      </trkpt>
      <trkpt lat="44.162117214873433" lon="3.285022163763642">
        <time>2014-06-07T00:01:23Z</time>
      </trkpt>
      <trkpt lat="44.161996264010668" lon="3.285426171496511">
        <time>2014-06-07T00:01:29Z</time>
      </trkpt>
      <trkpt lat="44.161875396966934" lon="3.285830179229379">
        <time>2014-06-07T00:01:35Z</time>
      </trkpt>
      <trkpt lat="44.161754446104169" lon="3.286234270781279">
        <time>2014-06-07T00:01:41Z</time>
      </trkpt>
      <trkpt lat="44.161633495241404" lon="3.286638278514147">
        <time>2014-06-07T00:01:47Z</time>
      </trkpt>
      <trkpt lat="44.161512544378638" lon="3.287042286247015">
        <time>2014-06-07T00:01:53Z</time>
      </trkpt>
      <trkpt lat="44.161391677334905" lon="3.287446293979883">
        <time>2014-06-07T00:01:59Z</time>
      </trkpt>
      <trkpt lat="44.161270726472139" lon="3.287850385531783">
        <time>2014-06-07T00:02:05Z</time>
      </trkpt>
      <trkpt lat="44.161190008744597" lon="3.288120031356812">
        <time>2014-06-07T00:02:09Z</time>
      </trkpt>
      <trkpt lat="44.161418247967958" lon="3.288421528413892">
        <time>2014-06-07T00:02:15Z</time>
      </trkpt>
      <trkpt lat="44.161646571010351" lon="3.288723025470972">
        <time>2014-06-07T00:02:21Z</time>
      </trkpt>
      <trkpt lat="44.161719996482134" lon="3.288820004090667">
        <time>2014-06-07T00:02:23Z</time>
      </trkpt>
      <trkpt lat="44.161936333402991" lon="3.289138097316027">
        <time>2014-06-07T00:02:29Z</time>
      </trkpt>
      <trkpt lat="44.162059966474771" lon="3.289319984614849">
        <time>2014-06-07T00:02:32Z</time>
      </trkpt>
      <trkpt lat="44.162254510447383" lon="3.289664145559073">
        <time>2014-06-07T00:02:38Z</time>
      </trkpt>
      <trkpt lat="44.162448970600963" lon="3.290008390322328">
        <time>2014-06-07T00:02:44Z</time>
      </trkpt>
      <trkpt lat="44.162643514573574" lon="3.290352551266551">
        <time>2014-06-07T00:02:50Z</time>
      </trkpt>
      <trkpt lat="44.162837974727154" lon="3.290696796029806">
        <time>2014-06-07T00:02:56Z</time>
      </trkpt>
      <trkpt lat="44.163032518699765" lon="3.29104095697403">
        <time>2014-06-07T00:03:02Z</time>
      </trkpt>
      <trkpt lat="44.163226978853345" lon="3.291385117918253">
        <time>2014-06-07T00:03:08Z</time>
      </trkpt>
      <trkpt lat="44.163421439006925" lon="3.291729362681508">
        <time>2014-06-07T00:03:14Z</time>
      </trkpt>
      <trkpt lat="44.163615982979536" lon="3.292073523625732">
        <time>2014-06-07T00:03:20Z</time>
      </trkpt>
      <trkpt lat="44.163710027933121" lon="3.292239988222718">
        <time>2014-06-07T00:03:23Z</time>
      </trkpt>
      <trkpt lat="44.163850005716085" lon="3.292339984327555">
        <time>2014-06-07T00:03:26Z</time>
      </trkpt>
      <trkpt lat="44.164119986817241" lon="3.292349958792329">
        <time>2014-06-07T00:03:31Z</time>
      </trkpt>
      <trkpt lat="44.164249990135431" lon="3.292399998754263">
        <time>2014-06-07T00:03:34Z</time>
      </trkpt>
      <trkpt lat="44.164400026202202" lon="3.292499994859099">
        <time>2014-06-07T00:03:37Z</time>
      </trkpt>
      <trkpt lat="44.164560036733747" lon="3.292560009285808">
        <time>2014-06-07T00:03:40Z</time>
      </trkpt>
      <trkpt lat="44.164809985086322" lon="3.292599990963936">
        <time>2014-06-07T00:03:45Z</time>
      </trkpt>
      <trkpt lat="44.164900006726384" lon="3.292590016499162">
        <time>2014-06-07T00:03:47Z</time>
      </trkpt>
      <trkpt lat="44.165079966187477" lon="3.292520027607679">
        <time>2014-06-07T00:03:51Z</time>
      </trkpt>
      <trkpt lat="44.165389090776443" lon="3.292604265734553">
        <time>2014-06-07T00:03:57Z</time>
      </trkpt>
      <trkpt lat="44.165520016103983" lon="3.292639972642064">
        <time>2014-06-07T00:04:00Z</time>
      </trkpt>
      <trkpt lat="44.165834924206138" lon="3.292650869116187">
        <time>2014-06-07T00:04:06Z</time>
      </trkpt>
      <trkpt lat="44.166099959984422" lon="3.292660005390644">
        <time>2014-06-07T00:04:11Z</time>
      </trkpt>
      <trkpt lat="44.166414448991418" lon="3.292635194957256">
        <time>2014-06-07T00:04:17Z</time>
      </trkpt>
      <trkpt lat="44.166479995474219" lon="3.29262999817729">
        <time>2014-06-07T00:04:18Z</time>
      </trkpt>
      <trkpt lat="44.166791131719947" lon="3.292561937123537">
        <time>2014-06-07T00:04:24Z</time>
      </trkpt>
      <trkpt lat="44.166800016537309" lon="3.292560009285808">
        <time>2014-06-07T00:04:24Z</time>
      </trkpt>
      <trkpt lat="44.167107883840799" lon="3.292467640712857">
        <time>2014-06-07T00:04:30Z</time>
      </trkpt>
      <trkpt lat="44.167399993166327" lon="3.292379966005683">
        <time>2014-06-07T00:04:36Z</time>
      </trkpt>
      <trkpt lat="44.167609959840775" lon="3.292339984327555">
        <time>2014-06-07T00:04:40Z</time>
      </trkpt>
      <trkpt lat="44.167924281209707" lon="3.292369488626719">
        <time>2014-06-07T00:04:46Z</time>
      </trkpt>
      <trkpt lat="44.167929980903864" lon="3.292369991540909">
        <time>2014-06-07T00:04:46Z</time>
      </trkpt>
      <trkpt lat="44.168242290616035" lon="3.292427156120539">
        <time>2014-06-07T00:04:52Z</time>
      </trkpt>
      <trkpt lat="44.168554600328207" lon="3.292484236881137">
        <time>2014-06-07T00:04:58Z</time>
      </trkpt>
      <trkpt lat="44.168749982491136" lon="3.292520027607679">
        <time>2014-06-07T00:05:02Z</time>
      </trkpt>
      <trkpt lat="44.169009989127517" lon="3.292520027607679">
        <time>2014-06-07T00:05:07Z</time>
      </trkpt>
      <trkpt lat="44.169279970228672" lon="3.292479962110519">
        <time>2014-06-07T00:05:12Z</time>
      </trkpt>
      <trkpt lat="44.169588005170226" lon="3.292388180270791">
        <time>2014-06-07T00:05:18Z</time>
      </trkpt>
      <trkpt lat="44.169850023463368" lon="3.292309977114201">
        <time>2014-06-07T00:05:23Z</time>
      </trkpt>
      <trkpt lat="44.17008999735117" lon="3.292290028184652">
        <time>2014-06-07T00:05:28Z</time>
      </trkpt>
      <trkpt lat="44.170403312891722" lon="3.292334787547588">
        <time>2014-06-07T00:05:34Z</time>
      </trkpt>
      <trkpt lat="44.170440025627613" lon="3.292339984327555">
        <time>2014-06-07T00:05:35Z</time>
      </trkpt>
      <trkpt lat="44.17073791846633" lon="3.292482141405344">
        <time>2014-06-07T00:05:41Z</time>
      </trkpt>
      <trkpt lat="44.170879991725087" lon="3.292550034821034">
        <time>2014-06-07T00:05:44Z</time>
      </trkpt>
      <trkpt lat="44.171171011403203" lon="3.292717505246401">
        <time>2014-06-07T00:05:50Z</time>
      </trkpt>
      <trkpt lat="44.171209987252951" lon="3.292739968746901">
        <time>2014-06-07T00:05:51Z</time>
      </trkpt>
      <trkpt lat="44.171409979462624" lon="3.292810041457415">
        <time>2014-06-07T00:05:55Z</time>
      </trkpt>
      <trkpt lat="44.171620029956102" lon="3.292839964851737">
        <time>2014-06-07T00:05:59Z</time>
      </trkpt>
      <trkpt lat="44.171934854239225" lon="3.292852202430368">
        <time>2014-06-07T00:06:05Z</time>
      </trkpt>
      <trkpt lat="44.17224976234138" lon="3.292864440008998">
        <time>2014-06-07T00:06:11Z</time>
      </trkpt>
      <trkpt lat="44.172564586624503" lon="3.292876677587628">
        <time>2014-06-07T00:06:17Z</time>
      </trkpt>
      <trkpt lat="44.172649998217821" lon="3.292880030348897">
        <time>2014-06-07T00:06:19Z</time>
      </trkpt>
      <trkpt lat="44.172959374263883" lon="3.292962172999978">
        <time>2014-06-07T00:06:25Z</time>
      </trkpt>
      <trkpt lat="44.173268750309944" lon="3.293044399470091">
        <time>2014-06-07T00:06:31Z</time>
      </trkpt>
      <trkpt lat="44.173290040344" lon="3.293050015345216">
        <time>2014-06-07T00:06:31Z</time>
      </trkpt>
      <trkpt lat="44.173597488552332" lon="3.293145149946213">
        <time>2014-06-07T00:06:37Z</time>
      </trkpt>
      <trkpt lat="44.173709973692894" lon="3.293180018663406">
        <time>2014-06-07T00:06:39Z</time>
      </trkpt>
      <trkpt lat="44.173879958689213" lon="3.293210025876761">
        <time>2014-06-07T00:06:42Z</time>
      </trkpt>
      <trkpt lat="44.174194950610399" lon="3.293210025876761">
        <time>2014-06-07T00:06:48Z</time>
      </trkpt>
      <trkpt lat="44.174509942531586" lon="3.293210025876761">
        <time>2014-06-07T00:06:54Z</time>
      </trkpt>
      <trkpt lat="44.174629971385002" lon="3.293210025876761">
        <time>2014-06-07T00:06:56Z</time>
      </trkpt>
      <trkpt lat="44.174900036305189" lon="3.293240033090115">
        <time>2014-06-07T00:07:01Z</time>
      </trkpt>
      <trkpt lat="44.175059963017702" lon="3.293310021981597">
        <time>2014-06-07T00:07:04Z</time>
      </trkpt>
      <trkpt lat="44.175330027937889" lon="3.293500039726496">
        <time>2014-06-07T00:07:10Z</time>
      </trkpt>
      <trkpt lat="44.175603780895472" lon="3.293716376647353">
        <time>2014-06-07T00:07:16Z</time>
      </trkpt>
      <trkpt lat="44.175877617672086" lon="3.293932797387242">
        <time>2014-06-07T00:07:22Z</time>
      </trkpt>
      <trkpt lat="44.175950037315488" lon="3.293989961966872">
        <time>2014-06-07T00:07:24Z</time>
      </trkpt>
      <trkpt lat="44.176208702847362" lon="3.294239742681384">
        <time>2014-06-07T00:07:30Z</time>
      </trkpt>
      <trkpt lat="44.176239967346191" lon="3.294270001351833">
        <time>2014-06-07T00:07:31Z</time>
      </trkpt>
      <trkpt lat="44.176485221832991" lon="3.294544676318765">
        <time>2014-06-07T00:07:37Z</time>
      </trkpt>
      <trkpt lat="44.17673047631979" lon="3.294819351285696">
        <time>2014-06-07T00:07:43Z</time>
      </trkpt>
      <trkpt lat="44.176740031689405" lon="3.294829996302724">
        <time>2014-06-07T00:07:43Z</time>
      </trkpt>
      <trkpt lat="44.17697967030108" lon="3.295114059001207">
        <time>2014-06-07T00:07:49Z</time>
      </trkpt>
      <trkpt lat="44.177010012790561" lon="3.295150017365813">
        <time>2014-06-07T00:07:50Z</time>
      </trkpt>
      <trkpt lat="44.177119983360171" lon="3.295310027897358">
        <time>2014-06-07T00:07:53Z</time>
      </trkpt>
      <trkpt lat="44.177245711907744" lon="3.29571126960218">
        <time>2014-06-07T00:07:59Z</time>
      </trkpt>
      <trkpt lat="44.177371440455317" lon="3.296112595126033">
        <time>2014-06-07T00:08:05Z</time>
      </trkpt>
      <trkpt lat="44.177379989996552" lon="3.296140003949404">
        <time>2014-06-07T00:08:05Z</time>
      </trkpt>
      <trkpt lat="44.177509993314743" lon="3.296349970623851">
        <time>2014-06-07T00:08:09Z</time>
      </trkpt>
      <trkpt lat="44.177670003846288" lon="3.296520039439201">
        <time>2014-06-07T00:08:13Z</time>
      </trkpt>
      <trkpt lat="44.177849963307381" lon="3.296679966151714">
        <time>2014-06-07T00:08:17Z</time>
      </trkpt>
      <trkpt lat="44.177990024909377" lon="3.296760013327003">
        <time>2014-06-07T00:08:20Z</time>
      </trkpt>
      <trkpt lat="44.178150035440922" lon="3.296820027753711">
        <time>2014-06-07T00:08:23Z</time>
      </trkpt>
      <trkpt lat="44.178460836410522" lon="3.296890938654542">
        <time>2014-06-07T00:08:29Z</time>
      </trkpt>
      <trkpt lat="44.178771637380123" lon="3.296961849555373">
        <time>2014-06-07T00:08:35Z</time>
      </trkpt>
      <trkpt lat="44.179082438349724" lon="3.297032760456204">
        <time>2014-06-07T00:08:41Z</time>
      </trkpt>
      <trkpt lat="44.179393323138356" lon="3.297103671357036">
        <time>2014-06-07T00:08:47Z</time>
      </trkpt>
      <trkpt lat="44.179704124107957" lon="3.297174582257867">
        <time>2014-06-07T00:08:53Z</time>
      </trkpt>
      <trkpt lat="44.180014925077558" lon="3.297245493158698">
        <time>2014-06-07T00:08:59Z</time>
      </trkpt>
      <trkpt lat="44.18032580986619" lon="3.297316404059529">
        <time>2014-06-07T00:09:05Z</time>
      </trkpt>
      <trkpt lat="44.180636610835791" lon="3.297387314960361">
        <time>2014-06-07T00:09:11Z</time>
      </trkpt>
      <trkpt lat="44.180780025199056" lon="3.29742000438273">
        <time>2014-06-07T00:09:14Z</time>
      </trkpt>
      <trkpt lat="44.180999966338277" lon="3.29739997163415">
        <time>2014-06-07T00:09:18Z</time>
      </trkpt>
      <trkpt lat="44.181310096755624" lon="3.29732327722013">
        <time>2014-06-07T00:09:24Z</time>
      </trkpt>
      <trkpt lat="44.181620227172971" lon="3.29724658280611">
        <time>2014-06-07T00:09:30Z</time>
      </trkpt>
      <trkpt lat="44.181930357590318" lon="3.297169804573059">
        <time>2014-06-07T00:09:36Z</time>
      </trkpt>
      <trkpt lat="44.181970003992319" lon="3.297159997746348">
        <time>2014-06-07T00:09:37Z</time>
      </trkpt>
      <trkpt lat="44.182260017842054" lon="3.297110041603446">
        <time>2014-06-07T00:09:43Z</time>
      </trkpt>
      <trkpt lat="44.182450035586953" lon="3.297110041603446">
        <time>2014-06-07T00:09:47Z</time>
      </trkpt>
      <trkpt lat="44.18276209384203" lon="3.297169636934996">
        <time>2014-06-07T00:09:53Z</time>
      </trkpt>
      <trkpt lat="44.183074068278074" lon="3.297229232266545">
        <time>2014-06-07T00:09:59Z</time>
      </trkpt>
      <trkpt lat="44.183340026065707" lon="3.297280026599765">
        <time>2014-06-07T00:10:04Z</time>
      </trkpt>
      <trkpt lat="44.183653760701418" lon="3.297319253906608">
        <time>2014-06-07T00:10:10Z</time>
      </trkpt>
      <trkpt lat="44.183659963309765" lon="3.297320008277893">
        <time>2014-06-07T00:10:10Z</time>
      </trkpt>
      <trkpt lat="44.183879988268018" lon="3.297250019386411">
        <time>2014-06-07T00:10:14Z</time>
      </trkpt>
      <trkpt lat="44.184119962155819" lon="3.297129990532994">
        <time>2014-06-07T00:10:19Z</time>
      </trkpt>
      <trkpt lat="44.184209983795881" lon="3.297110041603446">
        <time>2014-06-07T00:10:21Z</time>
      </trkpt>
      <trkpt lat="44.184290030971169" lon="3.297110041603446">
        <time>2014-06-07T00:10:23Z</time>
      </trkpt>
      <trkpt lat="44.184439983218908" lon="3.297190004959703">
        <time>2014-06-07T00:10:26Z</time>
      </trkpt>
      <trkpt lat="44.184539979323745" lon="3.297320008277893">
        <time>2014-06-07T00:10:29Z</time>
      </trkpt>
      <trkpt lat="44.184731254354119" lon="3.29766777344048">
        <time>2014-06-07T00:10:35Z</time>
      </trkpt>
      <trkpt lat="44.184922529384494" lon="3.298015538603067">
        <time>2014-06-07T00:10:41Z</time>
      </trkpt>
      <trkpt lat="44.185089999809861" lon="3.298319969326258">
        <time>2014-06-07T00:10:46Z</time>
      </trkpt>
      <trkpt lat="44.185210028663278" lon="3.298449972644448">
        <time>2014-06-07T00:10:49Z</time>
      </trkpt>
      <trkpt lat="44.185220003128052" lon="3.298630015924573">
        <time>2014-06-07T00:10:51Z</time>
      </trkpt>
      <trkpt lat="44.185180021449924" lon="3.298990018665791">
        <time>2014-06-07T00:10:56Z</time>
      </trkpt>
      <trkpt lat="44.185199970379472" lon="3.299090014770627">
        <time>2014-06-07T00:10:57Z</time>
      </trkpt>
      <trkpt lat="44.185319999232888" lon="3.299390003085136">
        <time>2014-06-07T00:11:02Z</time>
      </trkpt>
      <trkpt lat="44.185429969802499" lon="3.299559988081455">
        <time>2014-06-07T00:11:05Z</time>
      </trkpt>
      <trkpt lat="44.185450002551079" lon="3.299940023571253">
        <time>2014-06-07T00:11:10Z</time>
      </trkpt>
      <trkpt lat="44.18550867587328" lon="3.300370099022985">
        <time>2014-06-07T00:11:16Z</time>
      </trkpt>
      <trkpt lat="44.185510016977787" lon="3.300379989668727">
        <time>2014-06-07T00:11:16Z</time>
      </trkpt>
      <trkpt lat="44.185600038617849" lon="3.300769999623299">
        <time>2014-06-07T00:11:22Z</time>
      </trkpt>
      <trkpt lat="44.185719983652234" lon="3.301020031794906">
        <time>2014-06-07T00:11:26Z</time>
      </trkpt>
      <trkpt lat="44.185770023614168" lon="3.301169984042645">
        <time>2014-06-07T00:11:28Z</time>
      </trkpt>
      <trkpt lat="44.185770023614168" lon="3.301320020109415">
        <time>2014-06-07T00:11:30Z</time>
      </trkpt>
      <trkpt lat="44.18568997643888" lon="3.301550019532442">
        <time>2014-06-07T00:11:34Z</time>
      </trkpt>
      <trkpt lat="44.185489984229207" lon="3.301850007846952">
        <time>2014-06-07T00:11:40Z</time>
      </trkpt>
      <trkpt lat="44.185383869335055" lon="3.302262146025896">
        <time>2014-06-07T00:11:46Z</time>
      </trkpt>
      <trkpt lat="44.185277838259935" lon="3.302674284204841">
        <time>2014-06-07T00:11:52Z</time>
      </trkpt>
      <trkpt lat="44.185229977592826" lon="3.302860027179122">
        <time>2014-06-07T00:11:55Z</time>
      </trkpt>
      <trkpt lat="44.185058064758778" lon="3.303226819261909">
        <time>2014-06-07T00:12:01Z</time>
      </trkpt>
      <trkpt lat="44.184929989278316" lon="3.303499985486269">
        <time>2014-06-07T00:12:05Z</time>
      </trkpt>
      <trkpt lat="44.184760004281998" lon="3.303750017657876">
        <time>2014-06-07T00:12:10Z</time>
      </trkpt>
      <trkpt lat="44.184530004858971" lon="3.303980017080903">
        <time>2014-06-07T00:12:15Z</time>
      </trkpt>
      <trkpt lat="44.184409976005554" lon="3.304180009290576">
        <time>2014-06-07T00:12:19Z</time>
      </trkpt>
      <trkpt lat="44.184349961578846" lon="3.304380001500249">
        <time>2014-06-07T00:12:22Z</time>
      </trkpt>
      <trkpt lat="44.184349961578846" lon="3.304479997605085">
        <time>2014-06-07T00:12:23Z</time>
      </trkpt>
      <trkpt lat="44.184369994327426" lon="3.304559960961342">
        <time>2014-06-07T00:12:24Z</time>
      </trkpt>
      <trkpt lat="44.18454316444695" lon="3.304925663396716">
        <time>2014-06-07T00:12:30Z</time>
      </trkpt>
      <trkpt lat="44.184550037607551" lon="3.30493999645114">
        <time>2014-06-07T00:12:30Z</time>
      </trkpt>
      <trkpt lat="44.18475623242557" lon="3.30527083016932">
        <time>2014-06-07T00:12:36Z</time>
      </trkpt>
      <trkpt lat="44.184962511062622" lon="3.305601663887501">
        <time>2014-06-07T00:12:42Z</time>
      </trkpt>
      <trkpt lat="44.185029985383153" lon="3.305710041895509">
        <time>2014-06-07T00:12:44Z</time>
      </trkpt>
      <trkpt lat="44.185169963166118" lon="3.305859994143248">
        <time>2014-06-07T00:12:47Z</time>
      </trkpt>
      <trkpt lat="44.185466347262263" lon="3.30600818619132">
        <time>2014-06-07T00:12:53Z</time>
      </trkpt>
      <trkpt lat="44.185570031404495" lon="3.306059986352921">
        <time>2014-06-07T00:12:55Z</time>
      </trkpt>
      <trkpt lat="44.185881922021508" lon="3.306121006608009">
        <time>2014-06-07T00:13:01Z</time>
      </trkpt>
      <trkpt lat="44.186030030250549" lon="3.306150007992983">
        <time>2014-06-07T00:13:04Z</time>
      </trkpt>
      <trkpt lat="44.186343429610133" lon="3.306193761527538">
        <time>2014-06-07T00:13:10Z</time>
      </trkpt>
      <trkpt lat="44.186656828969717" lon="3.306237431243062">
        <time>2014-06-07T00:13:16Z</time>
      </trkpt>
      <trkpt lat="44.186970228329301" lon="3.306281184777618">
        <time>2014-06-07T00:13:22Z</time>
      </trkpt>
      <trkpt lat="44.187283627688885" lon="3.306324938312173">
        <time>2014-06-07T00:13:28Z</time>
      </trkpt>
      <trkpt lat="44.187597027048469" lon="3.306368691846728">
        <time>2014-06-07T00:13:34Z</time>
      </trkpt>
      <trkpt lat="44.187749996781349" lon="3.306389981880784">
        <time>2014-06-07T00:13:37Z</time>
      </trkpt>
      <trkpt lat="44.188054092228413" lon="3.306504059582949">
        <time>2014-06-07T00:13:43Z</time>
      </trkpt>
      <trkpt lat="44.188070017844439" lon="3.306510010734201">
        <time>2014-06-07T00:13:43Z</time>
      </trkpt>
      <trkpt lat="44.188160039484501" lon="3.306570025160909">
        <time>2014-06-07T00:13:45Z</time>
      </trkpt>
      <trkpt lat="44.188260035589337" lon="3.306749984622002">
        <time>2014-06-07T00:13:48Z</time>
      </trkpt>
      <trkpt lat="44.188279984518886" lon="3.306900020688772">
        <time>2014-06-07T00:13:50Z</time>
      </trkpt>
      <trkpt lat="44.188270010054111" lon="3.307019965723157">
        <time>2014-06-07T00:13:52Z</time>
      </trkpt>
      <trkpt lat="44.188230028375983" lon="3.307130020111799">
        <time>2014-06-07T00:13:54Z</time>
      </trkpt>
      <trkpt lat="44.188109999522567" lon="3.307330012321472">
        <time>2014-06-07T00:13:58Z</time>
      </trkpt>
      <trkpt lat="44.188000028952956" lon="3.307469990104437">
        <time>2014-06-07T00:14:01Z</time>
      </trkpt>
      <trkpt lat="44.187930040061474" lon="3.307650033384562">
        <time>2014-06-07T00:14:04Z</time>
      </trkpt>
      <trkpt lat="44.187863152474165" lon="3.308077761903405">
        <time>2014-06-07T00:14:10Z</time>
      </trkpt>
      <trkpt lat="44.187829960137606" lon="3.308289991691709">
        <time>2014-06-07T00:14:13Z</time>
      </trkpt>
      <trkpt lat="44.187819985672832" lon="3.308519991114736">
        <time>2014-06-07T00:14:16Z</time>
      </trkpt>
      <trkpt lat="44.187840018421412" lon="3.308789972215891">
        <time>2014-06-07T00:14:20Z</time>
      </trkpt>
      <trkpt lat="44.187889974564314" lon="3.30900002270937">
        <time>2014-06-07T00:14:23Z</time>
      </trkpt>
      <trkpt lat="44.18801000341773" lon="3.309319959953427">
        <time>2014-06-07T00:14:28Z</time>
      </trkpt>
      <trkpt lat="44.188203038647771" lon="3.309665881097317">
        <time>2014-06-07T00:14:34Z</time>
      </trkpt>
      <trkpt lat="44.188249977305532" lon="3.309750035405159">
        <time>2014-06-07T00:14:35Z</time>
      </trkpt>
      <trkpt lat="44.188400013372302" lon="3.310090005397797">
        <time>2014-06-07T00:14:40Z</time>
      </trkpt>
      <trkpt lat="44.188449969515204" lon="3.310429975390434">
        <time>2014-06-07T00:14:45Z</time>
      </trkpt>
      <trkpt lat="44.18843999505043" lon="3.310659974813461">
        <time>2014-06-07T00:14:48Z</time>
      </trkpt>
      <trkpt lat="44.188400013372302" lon="3.311040010303259">
        <time>2014-06-07T00:14:53Z</time>
      </trkpt>
      <trkpt lat="44.188330946490169" lon="3.311467152088881">
        <time>2014-06-07T00:14:59Z</time>
      </trkpt>
      <trkpt lat="44.188261963427067" lon="3.311894210055471">
        <time>2014-06-07T00:15:05Z</time>
      </trkpt>
      <trkpt lat="44.188240002840757" lon="3.312029996886849">
        <time>2014-06-07T00:15:07Z</time>
      </trkpt>
      <trkpt lat="44.188209995627403" lon="3.312320010736585">
        <time>2014-06-07T00:15:11Z</time>
      </trkpt>
      <trkpt lat="44.188209995627403" lon="3.31258999183774">
        <time>2014-06-07T00:15:15Z</time>
      </trkpt>
      <trkpt lat="44.188189962878823" lon="3.312849998474121">
        <time>2014-06-07T00:15:19Z</time>
      </trkpt>
      <trkpt lat="44.188064066693187" lon="3.313251240178943">
        <time>2014-06-07T00:15:25Z</time>
      </trkpt>
      <trkpt lat="44.187938086688519" lon="3.313652481883764">
        <time>2014-06-07T00:15:31Z</time>
      </trkpt>
      <trkpt lat="44.187919981777668" lon="3.313709981739521">
        <time>2014-06-07T00:15:32Z</time>
      </trkpt>
      <trkpt lat="44.187810011208057" lon="3.313950039446354">
        <time>2014-06-07T00:15:36Z</time>
      </trkpt>
      <trkpt lat="44.187729964032769" lon="3.314180038869381">
        <time>2014-06-07T00:15:40Z</time>
      </trkpt>
      <trkpt lat="44.187659975141287" lon="3.314510034397245">
        <time>2014-06-07T00:15:45Z</time>
      </trkpt>
      <trkpt lat="44.187659975141287" lon="3.314750008285046">
        <time>2014-06-07T00:15:48Z</time>
      </trkpt>
      <trkpt lat="44.187799114733934" lon="3.315142784267664">
        <time>2014-06-07T00:15:54Z</time>
      </trkpt>
      <trkpt lat="44.187829960137606" lon="3.31523003987968">
        <time>2014-06-07T00:15:55Z</time>
      </trkpt>
      <trkpt lat="44.187819985672832" lon="3.315449981018901">
        <time>2014-06-07T00:15:58Z</time>
      </trkpt>
      <trkpt lat="44.187684953212738" lon="3.315845523029566">
        <time>2014-06-07T00:16:04Z</time>
      </trkpt>
      <trkpt lat="44.187680007889867" lon="3.315860023722053">
        <time>2014-06-07T00:16:04Z</time>
      </trkpt>
      <trkpt lat="44.187659975141287" lon="3.316079964861274">
        <time>2014-06-07T00:16:07Z</time>
      </trkpt>
      <trkpt lat="44.187700040638447" lon="3.316320022568107">
        <time>2014-06-07T00:16:10Z</time>
      </trkpt>
      <trkpt lat="44.187789978459477" lon="3.316680025309324">
        <time>2014-06-07T00:16:15Z</time>
      </trkpt>
      <trkpt lat="44.187800036743283" lon="3.316840035840869">
        <time>2014-06-07T00:16:17Z</time>
      </trkpt>
      <trkpt lat="44.187718145549297" lon="3.31726273521781">
        <time>2014-06-07T00:16:23Z</time>
      </trkpt>
      <trkpt lat="44.187680007889867" lon="3.317459961399436">
        <time>2014-06-07T00:16:26Z</time>
      </trkpt>
      <trkpt lat="44.187673553824425" lon="3.317897664383054">
        <time>2014-06-07T00:16:32Z</time>
      </trkpt>
      <trkpt lat="44.187670033425093" lon="3.318139985203743">
        <time>2014-06-07T00:16:35Z</time>
      </trkpt>
      <trkpt lat="44.187629967927933" lon="3.31836998462677">
        <time>2014-06-07T00:16:38Z</time>
      </trkpt>
      <trkpt lat="44.187540030106902" lon="3.318580035120249">
        <time>2014-06-07T00:16:41Z</time>
      </trkpt>
      <trkpt lat="44.187350012362003" lon="3.318880023434758">
        <time>2014-06-07T00:16:46Z</time>
      </trkpt>
      <trkpt lat="44.187250016257167" lon="3.319110022857785">
        <time>2014-06-07T00:16:50Z</time>
      </trkpt>
      <trkpt lat="44.187190001830459" lon="3.319389978423715">
        <time>2014-06-07T00:16:54Z</time>
      </trkpt>
      <trkpt lat="44.187180027365685" lon="3.31965995952487">
        <time>2014-06-07T00:16:58Z</time>
      </trkpt>
      <trkpt lat="44.187212465330958" lon="3.320095399394631">
        <time>2014-06-07T00:17:04Z</time>
      </trkpt>
      <trkpt lat="44.187229983508587" lon="3.320330008864403">
        <time>2014-06-07T00:17:07Z</time>
      </trkpt>
      <trkpt lat="44.187196539714932" lon="3.320765281096101">
        <time>2014-06-07T00:17:13Z</time>
      </trkpt>
      <trkpt lat="44.187163012102246" lon="3.321200553327799">
        <time>2014-06-07T00:17:19Z</time>
      </trkpt>
      <trkpt lat="44.18712998740375" lon="3.321629958227277">
        <time>2014-06-07T00:17:25Z</time>
      </trkpt>
      <trkpt lat="44.187009371817112" lon="3.322034385055304">
        <time>2014-06-07T00:17:31Z</time>
      </trkpt>
      <trkpt lat="44.186960002407432" lon="3.322200011461973">
        <time>2014-06-07T00:17:33Z</time>
      </trkpt>
      <trkpt lat="44.18687148950994" lon="3.322620112448931">
        <time>2014-06-07T00:17:39Z</time>
      </trkpt>
      <trkpt lat="44.186782892793417" lon="3.323040213435888">
        <time>2014-06-07T00:17:45Z</time>
      </trkpt>
      <trkpt lat="44.186694379895926" lon="3.323460314422846">
        <time>2014-06-07T00:17:51Z</time>
      </trkpt>
      <trkpt lat="44.186605866998434" lon="3.323880415409803">
        <time>2014-06-07T00:17:57Z</time>
      </trkpt>
      <trkpt lat="44.186517270281911" lon="3.324300516396761">
        <time>2014-06-07T00:18:03Z</time>
      </trkpt>
      <trkpt lat="44.186490029096603" lon="3.324430016800761">
        <time>2014-06-07T00:18:05Z</time>
      </trkpt>
      <trkpt lat="44.186500003561378" lon="3.324639983475208">
        <time>2014-06-07T00:18:08Z</time>
      </trkpt>
      <trkpt lat="44.18658952228725" lon="3.325059665367007">
        <time>2014-06-07T00:18:14Z</time>
      </trkpt>
      <trkpt lat="44.186679041013122" lon="3.325479431077838">
        <time>2014-06-07T00:18:20Z</time>
      </trkpt>
      <trkpt lat="44.186768559738994" lon="3.325899112969637">
        <time>2014-06-07T00:18:26Z</time>
      </trkpt>
      <trkpt lat="44.186858078464866" lon="3.326318794861436">
        <time>2014-06-07T00:18:32Z</time>
      </trkpt>
      <trkpt lat="44.186947513371706" lon="3.326738476753235">
        <time>2014-06-07T00:18:38Z</time>
      </trkpt>
      <trkpt lat="44.186950027942657" lon="3.32674995996058">
        <time>2014-06-07T00:18:38Z</time>
      </trkpt>
      <trkpt lat="44.18699998408556" lon="3.327039973810315">
        <time>2014-06-07T00:18:42Z</time>
      </trkpt>
      <trkpt lat="44.186982549726963" lon="3.327477090060711">
        <time>2014-06-07T00:18:48Z</time>
      </trkpt>
      <trkpt lat="44.186969976872206" lon="3.327789986506105">
        <time>2014-06-07T00:18:52Z</time>
      </trkpt>
      <trkpt lat="44.187029991298914" lon="3.328170021995902">
        <time>2014-06-07T00:18:57Z</time>
      </trkpt>
      <trkpt lat="44.187099980190396" lon="3.328419970348477">
        <time>2014-06-07T00:19:01Z</time>
      </trkpt>
      <trkpt lat="44.187190001830459" lon="3.328609988093376">
        <time>2014-06-07T00:19:04Z</time>
      </trkpt>
      <trkpt lat="44.187289997935295" lon="3.328739991411567">
        <time>2014-06-07T00:19:07Z</time>
      </trkpt>
      <trkpt lat="44.18747004121542" lon="3.328920034691691">
        <time>2014-06-07T00:19:11Z</time>
      </trkpt>
      <trkpt lat="44.187550004571676" lon="3.329050038009882">
        <time>2014-06-07T00:19:13Z</time>
      </trkpt>
      <trkpt lat="44.187589986249804" lon="3.329280037432909">
        <time>2014-06-07T00:19:16Z</time>
      </trkpt>
      <trkpt lat="44.187620244920254" lon="3.329715728759766">
        <time>2014-06-07T00:19:22Z</time>
      </trkpt>
      <trkpt lat="44.187640026211739" lon="3.329999959096313">
        <time>2014-06-07T00:19:26Z</time>
      </trkpt>
      <trkpt lat="44.187680007889867" lon="3.330219984054565">
        <time>2014-06-07T00:19:29Z</time>
      </trkpt>
      <trkpt lat="44.187749996781349" lon="3.330340012907982">
        <time>2014-06-07T00:19:31Z</time>
      </trkpt>
      <trkpt lat="44.18788000009954" lon="3.330479990690947">
        <time>2014-06-07T00:19:34Z</time>
      </trkpt>
      <trkpt lat="44.187949988991022" lon="3.330609994009137">
        <time>2014-06-07T00:19:36Z</time>
      </trkpt>
      <trkpt lat="44.188055014237761" lon="3.331022718921304">
        <time>2014-06-07T00:19:42Z</time>
      </trkpt>
      <trkpt lat="44.188159955665469" lon="3.33143544383347">
        <time>2014-06-07T00:19:48Z</time>
      </trkpt>
      <trkpt lat="44.188240002840757" lon="3.331750016659498">
        <time>2014-06-07T00:19:53Z</time>
      </trkpt>
      <trkpt lat="44.188300017267466" lon="3.332059979438782">
        <time>2014-06-07T00:19:57Z</time>
      </trkpt>
      <trkpt lat="44.188300017267466" lon="3.332497766241431">
        <time>2014-06-07T00:20:03Z</time>
      </trkpt>
      <trkpt lat="44.188300017267466" lon="3.332649981603026">
        <time>2014-06-07T00:20:05Z</time>
      </trkpt>
      <trkpt lat="44.188260035589337" lon="3.332860032096505">
        <time>2014-06-07T00:20:08Z</time>
      </trkpt>
      <trkpt lat="44.188230028375983" lon="3.333160020411015">
        <time>2014-06-07T00:20:12Z</time>
      </trkpt>
      <trkpt lat="44.188219970092177" lon="3.333499990403652">
        <time>2014-06-07T00:20:17Z</time>
      </trkpt>
      <trkpt lat="44.188240002840757" lon="3.333899974822998">
        <time>2014-06-07T00:20:22Z</time>
      </trkpt>
      <trkpt lat="44.188230028375983" lon="3.334170039743185">
        <time>2014-06-07T00:20:26Z</time>
      </trkpt>
      <trkpt lat="44.188200021162629" lon="3.33431001752615">
        <time>2014-06-07T00:20:28Z</time>
      </trkpt>
      <trkpt lat="44.187970021739602" lon="3.334579998627305">
        <time>2014-06-07T00:20:34Z</time>
      </trkpt>
      <trkpt lat="44.18788000009954" lon="3.33474000915885">
        <time>2014-06-07T00:20:37Z</time>
      </trkpt>
      <trkpt lat="44.187819985672832" lon="3.334960034117103">
        <time>2014-06-07T00:20:40Z</time>
      </trkpt>
      <trkpt lat="44.187800036743283" lon="3.335179975256324">
        <time>2014-06-07T00:20:43Z</time>
      </trkpt>
      <trkpt lat="44.187819985672832" lon="3.335409974679351">
        <time>2014-06-07T00:20:46Z</time>
      </trkpt>
      <trkpt lat="44.187918975949287" lon="3.335825633257628">
        <time>2014-06-07T00:20:52Z</time>
      </trkpt>
      <trkpt lat="44.187919981777668" lon="3.335829991847277">
        <time>2014-06-07T00:20:52Z</time>
      </trkpt>
      <trkpt lat="44.187936494126916" lon="3.336267191916704">
        <time>2014-06-07T00:20:58Z</time>
      </trkpt>
      <trkpt lat="44.187940014526248" lon="3.336359979584813">
        <time>2014-06-07T00:20:59Z</time>
      </trkpt>
      <trkpt lat="44.187930040061474" lon="3.336740015074611">
        <time>2014-06-07T00:21:04Z</time>
      </trkpt>
      <trkpt lat="44.187889974564314" lon="3.336960040032864">
        <time>2014-06-07T00:21:07Z</time>
      </trkpt>
      <trkpt lat="44.187761312350631" lon="3.337359521538019">
        <time>2014-06-07T00:21:13Z</time>
      </trkpt>
      <trkpt lat="44.187632566317916" lon="3.337759086862207">
        <time>2014-06-07T00:21:19Z</time>
      </trkpt>
      <trkpt lat="44.187503904104233" lon="3.338158652186394">
        <time>2014-06-07T00:21:25Z</time>
      </trkpt>
      <trkpt lat="44.187410026788712" lon="3.338450007140636">
        <time>2014-06-07T00:21:29Z</time>
      </trkpt>
      <trkpt lat="44.187299972400069" lon="3.338719988241792">
        <time>2014-06-07T00:21:33Z</time>
      </trkpt>
      <trkpt lat="44.187269965186715" lon="3.338930038735271">
        <time>2014-06-07T00:21:36Z</time>
      </trkpt>
      <trkpt lat="44.187280023470521" lon="3.33918996155262">
        <time>2014-06-07T00:21:40Z</time>
      </trkpt>
      <trkpt lat="44.18733324855566" lon="3.339621461927891">
        <time>2014-06-07T00:21:46Z</time>
      </trkpt>
      <trkpt lat="44.187380019575357" lon="3.339999988675118">
        <time>2014-06-07T00:21:51Z</time>
      </trkpt>
      <trkpt lat="44.1873899102211" lon="3.340437524020672">
        <time>2014-06-07T00:21:57Z</time>
      </trkpt>
      <trkpt lat="44.187399717047811" lon="3.340875059366226">
        <time>2014-06-07T00:22:03Z</time>
      </trkpt>
      <trkpt lat="44.187409607693553" lon="3.341312594711781">
        <time>2014-06-07T00:22:09Z</time>
      </trkpt>
      <trkpt lat="44.187410026788712" lon="3.341330029070377">
        <time>2014-06-07T00:22:09Z</time>
      </trkpt>
      <trkpt lat="44.187480015680194" lon="3.341609984636307">
        <time>2014-06-07T00:22:13Z</time>
      </trkpt>
      <trkpt lat="44.187605576589704" lon="3.342011477798224">
        <time>2014-06-07T00:22:19Z</time>
      </trkpt>
      <trkpt lat="44.187731137499213" lon="3.342412887141109">
        <time>2014-06-07T00:22:25Z</time>
      </trkpt>
      <trkpt lat="44.187856782227755" lon="3.342814380303025">
        <time>2014-06-07T00:22:31Z</time>
      </trkpt>
      <trkpt lat="44.187982343137264" lon="3.343215873464942">
        <time>2014-06-07T00:22:37Z</time>
      </trkpt>
      <trkpt lat="44.188089966773987" lon="3.343560034409165">
        <time>2014-06-07T00:22:42Z</time>
      </trkpt>
      <trkpt lat="44.188170433044434" lon="3.343983236700296">
        <time>2014-06-07T00:22:48Z</time>
      </trkpt>
      <trkpt lat="44.188250815495849" lon="3.344406522810459">
        <time>2014-06-07T00:22:54Z</time>
      </trkpt>
      <trkpt lat="44.188279984518886" lon="3.34455999545753">
        <time>2014-06-07T00:22:56Z</time>
      </trkpt>
      <trkpt lat="44.188352404162288" lon="3.344986047595739">
        <time>2014-06-07T00:23:02Z</time>
      </trkpt>
      <trkpt lat="44.188424739986658" lon="3.345412099733949">
        <time>2014-06-07T00:23:08Z</time>
      </trkpt>
      <trkpt lat="44.18849715963006" lon="3.345838151872158">
        <time>2014-06-07T00:23:14Z</time>
      </trkpt>
      <trkpt lat="44.188569495454431" lon="3.346264204010367">
        <time>2014-06-07T00:23:20Z</time>
      </trkpt>
      <trkpt lat="44.188641915097833" lon="3.346690256148577">
        <time>2014-06-07T00:23:26Z</time>
      </trkpt>
      <trkpt lat="44.188714250922203" lon="3.347116308286786">
        <time>2014-06-07T00:23:32Z</time>
      </trkpt>
      <trkpt lat="44.188720034435391" lon="3.347150003537536">
        <time>2014-06-07T00:23:32Z</time>
      </trkpt>
      <trkpt lat="44.18873998336494" lon="3.347389977425337">
        <time>2014-06-07T00:23:35Z</time>
      </trkpt>
      <trkpt lat="44.188703019171953" lon="3.347824746742845">
        <time>2014-06-07T00:23:41Z</time>
      </trkpt>
      <trkpt lat="44.188665971159935" lon="3.348259432241321">
        <time>2014-06-07T00:23:47Z</time>
      </trkpt>
      <trkpt lat="44.188628923147917" lon="3.348694201558828">
        <time>2014-06-07T00:23:53Z</time>
      </trkpt>
      <trkpt lat="44.18859195895493" lon="3.349128887057304">
        <time>2014-06-07T00:23:59Z</time>
      </trkpt>
      <trkpt lat="44.188554910942912" lon="3.349563656374812">
        <time>2014-06-07T00:24:05Z</time>
      </trkpt>
      <trkpt lat="44.188517862930894" lon="3.349998341873288">
        <time>2014-06-07T00:24:11Z</time>
      </trkpt>
      <trkpt lat="44.188480814918876" lon="3.350433111190796">
        <time>2014-06-07T00:24:17Z</time>
      </trkpt>
      <trkpt lat="44.188443850725889" lon="3.350867796689272">
        <time>2014-06-07T00:24:23Z</time>
      </trkpt>
      <trkpt lat="44.188430020585656" lon="3.351029986515641">
        <time>2014-06-07T00:24:25Z</time>
      </trkpt>
      <trkpt lat="44.188346536830068" lon="3.35145209915936">
        <time>2014-06-07T00:24:31Z</time>
      </trkpt>
      <trkpt lat="44.188263136893511" lon="3.351874211803079">
        <time>2014-06-07T00:24:37Z</time>
      </trkpt>
      <trkpt lat="44.188260035589337" lon="3.351889969781041">
        <time>2014-06-07T00:24:37Z</time>
      </trkpt>
      <trkpt lat="44.188189962878823" lon="3.35210002027452">
        <time>2014-06-07T00:24:40Z</time>
      </trkpt>
      <trkpt lat="44.188059959560633" lon="3.352270005270839">
        <time>2014-06-07T00:24:43Z</time>
      </trkpt>
      <trkpt lat="44.187798863276839" lon="3.352514840662479">
        <time>2014-06-07T00:24:49Z</time>
      </trkpt>
      <trkpt lat="44.187740022316575" lon="3.352569993585348">
        <time>2014-06-07T00:24:50Z</time>
      </trkpt>
      <trkpt lat="44.187550004571676" lon="3.352709971368313">
        <time>2014-06-07T00:24:54Z</time>
      </trkpt>
      <trkpt lat="44.187258901074529" lon="3.352877190336585">
        <time>2014-06-07T00:25:00Z</time>
      </trkpt>
      <trkpt lat="44.187080031260848" lon="3.3529800362885">
        <time>2014-06-07T00:25:04Z</time>
      </trkpt>
      <trkpt lat="44.186899987980723" lon="3.353169970214367">
        <time>2014-06-07T00:25:08Z</time>
      </trkpt>
      <trkpt lat="44.18669999577105" lon="3.353459984064102">
        <time>2014-06-07T00:25:14Z</time>
      </trkpt>
      <trkpt lat="44.18659002520144" lon="3.353659976273775">
        <time>2014-06-07T00:25:17Z</time>
      </trkpt>
      <trkpt lat="44.186482988297939" lon="3.354071695357561">
        <time>2014-06-07T00:25:23Z</time>
      </trkpt>
      <trkpt lat="44.186375951394439" lon="3.354483414441347">
        <time>2014-06-07T00:25:29Z</time>
      </trkpt>
      <trkpt lat="44.186330018565059" lon="3.354660021141172">
        <time>2014-06-07T00:25:32Z</time>
      </trkpt>
      <trkpt lat="44.186209989711642" lon="3.355039972811937">
        <time>2014-06-07T00:25:38Z</time>
      </trkpt>
      <trkpt lat="44.186100019142032" lon="3.355310037732124">
        <time>2014-06-07T00:25:42Z</time>
      </trkpt>
      <trkpt lat="44.185940008610487" lon="3.355550011619926">
        <time>2014-06-07T00:25:46Z</time>
      </trkpt>
      <trkpt lat="44.185697855427861" lon="3.355829967185855">
        <time>2014-06-07T00:25:52Z</time>
      </trkpt>
      <trkpt lat="44.185619987547398" lon="3.355919988825917">
        <time>2014-06-07T00:25:54Z</time>
      </trkpt>
      <trkpt lat="44.185369703918695" lon="3.356185695156455">
        <time>2014-06-07T00:26:00Z</time>
      </trkpt>
      <trkpt lat="44.185119336470962" lon="3.356451401486993">
        <time>2014-06-07T00:26:06Z</time>
      </trkpt>
      <trkpt lat="44.184868969023228" lon="3.356717023998499">
        <time>2014-06-07T00:26:12Z</time>
      </trkpt>
      <trkpt lat="44.184618685394526" lon="3.356982730329037">
        <time>2014-06-07T00:26:18Z</time>
      </trkpt>
      <trkpt lat="44.184368317946792" lon="3.357248436659575">
        <time>2014-06-07T00:26:24Z</time>
      </trkpt>
      <trkpt lat="44.184118034318089" lon="3.357514142990112">
        <time>2014-06-07T00:26:30Z</time>
      </trkpt>
      <trkpt lat="44.183867666870356" lon="3.357779765501618">
        <time>2014-06-07T00:26:36Z</time>
      </trkpt>
      <trkpt lat="44.183617299422622" lon="3.358045471832156">
        <time>2014-06-07T00:26:42Z</time>
      </trkpt>
      <trkpt lat="44.18336701579392" lon="3.358311094343662">
        <time>2014-06-07T00:26:48Z</time>
      </trkpt>
      <trkpt lat="44.183116648346186" lon="3.3585768006742">
        <time>2014-06-07T00:26:54Z</time>
      </trkpt>
      <trkpt lat="44.183010030537844" lon="3.358690040186048">
        <time>2014-06-07T00:26:57Z</time>
      </trkpt>
      <trkpt lat="44.182769637554884" lon="3.358972845599055">
        <time>2014-06-07T00:27:03Z</time>
      </trkpt>
      <trkpt lat="44.182529160752892" lon="3.359255651012063">
        <time>2014-06-07T00:27:09Z</time>
      </trkpt>
      <trkpt lat="44.182288767769933" lon="3.359538540244103">
        <time>2014-06-07T00:27:15Z</time>
      </trkpt>
      <trkpt lat="44.182048374786973" lon="3.35982134565711">
        <time>2014-06-07T00:27:21Z</time>
      </trkpt>
      <trkpt lat="44.181807981804013" lon="3.360104151070118">
        <time>2014-06-07T00:27:27Z</time>
      </trkpt>
      <trkpt lat="44.181567588821054" lon="3.360386956483126">
        <time>2014-06-07T00:27:33Z</time>
      </trkpt>
      <trkpt lat="44.181327195838094" lon="3.360669761896133">
        <time>2014-06-07T00:27:39Z</time>
      </trkpt>
      <trkpt lat="44.181086802855134" lon="3.360952651128173">
        <time>2014-06-07T00:27:45Z</time>
      </trkpt>
      <trkpt lat="44.180969959124923" lon="3.361090030521154">
        <time>2014-06-07T00:27:48Z</time>
      </trkpt>
      <trkpt lat="44.18076996691525" lon="3.361350037157536">
        <time>2014-06-07T00:27:53Z</time>
      </trkpt>
      <trkpt lat="44.180569890886545" lon="3.361688079312444">
        <time>2014-06-07T00:27:59Z</time>
      </trkpt>
      <trkpt lat="44.180480036884546" lon="3.361839959397912">
        <time>2014-06-07T00:28:02Z</time>
      </trkpt>
      <trkpt lat="44.180288258939981" lon="3.362187221646309">
        <time>2014-06-07T00:28:08Z</time>
      </trkpt>
      <trkpt lat="44.180109975859523" lon="3.362510008737445">
        <time>2014-06-07T00:28:14Z</time>
      </trkpt>
      <trkpt lat="44.180009979754686" lon="3.362730033695698">
        <time>2014-06-07T00:28:18Z</time>
      </trkpt>
      <trkpt lat="44.179969998076558" lon="3.362940000370145">
        <time>2014-06-07T00:28:21Z</time>
      </trkpt>
      <trkpt lat="44.179979972541332" lon="3.363119959831238">
        <time>2014-06-07T00:28:23Z</time>
      </trkpt>
      <trkpt lat="44.180054990574718" lon="3.363545089960098">
        <time>2014-06-07T00:28:29Z</time>
      </trkpt>
      <trkpt lat="44.180069994181395" lon="3.363629998639226">
        <time>2014-06-07T00:28:30Z</time>
      </trkpt>
      <trkpt lat="44.180160015821457" lon="3.363910038024187">
        <time>2014-06-07T00:28:34Z</time>
      </trkpt>
      <trkpt lat="44.180333856493235" lon="3.364274986088276">
        <time>2014-06-07T00:28:40Z</time>
      </trkpt>
      <trkpt lat="44.18036000803113" lon="3.364329971373081">
        <time>2014-06-07T00:28:41Z</time>
      </trkpt>
      <trkpt lat="44.180489843711257" lon="3.364728782325983">
        <time>2014-06-07T00:28:47Z</time>
      </trkpt>
      <trkpt lat="44.180499985814095" lon="3.364759963005781">
        <time>2014-06-07T00:28:47Z</time>
      </trkpt>
      <trkpt lat="44.180605513975024" lon="3.365172436460853">
        <time>2014-06-07T00:28:53Z</time>
      </trkpt>
      <trkpt lat="44.180610040202737" lon="3.365190038457513">
        <time>2014-06-07T00:28:53Z</time>
      </trkpt>
      <trkpt lat="44.180620014667511" lon="3.365460019558668">
        <time>2014-06-07T00:28:57Z</time>
      </trkpt>
      <trkpt lat="44.180598389357328" lon="3.365896632894874">
        <time>2014-06-07T00:29:03Z</time>
      </trkpt>
      <trkpt lat="44.180576764047146" lon="3.366333330050111">
        <time>2014-06-07T00:29:09Z</time>
      </trkpt>
      <trkpt lat="44.180569974705577" lon="3.366470038890839">
        <time>2014-06-07T00:29:11Z</time>
      </trkpt>
      <trkpt lat="44.180599981918931" lon="3.366859965026379">
        <time>2014-06-07T00:29:16Z</time>
      </trkpt>
      <trkpt lat="44.18066686950624" lon="3.367287693545222">
        <time>2014-06-07T00:29:22Z</time>
      </trkpt>
      <trkpt lat="44.18073384091258" lon="3.367715422064066">
        <time>2014-06-07T00:29:28Z</time>
      </trkpt>
      <trkpt lat="44.180800728499889" lon="3.36814315058291">
        <time>2014-06-07T00:29:34Z</time>
      </trkpt>
      <trkpt lat="44.180867616087198" lon="3.368570879101753">
        <time>2014-06-07T00:29:40Z</time>
      </trkpt>
      <trkpt lat="44.180880021303892" lon="3.368650004267693">
        <time>2014-06-07T00:29:41Z</time>
      </trkpt>
      <trkpt lat="44.180964343249798" lon="3.369071697816253">
        <time>2014-06-07T00:29:47Z</time>
      </trkpt>
      <trkpt lat="44.181048665195704" lon="3.369493475183845">
        <time>2014-06-07T00:29:53Z</time>
      </trkpt>
      <trkpt lat="44.181133070960641" lon="3.369915168732405">
        <time>2014-06-07T00:29:59Z</time>
      </trkpt>
      <trkpt lat="44.181189984083176" lon="3.370199985802174">
        <time>2014-06-07T00:30:03Z</time>
      </trkpt>
      <trkpt lat="44.181320322677493" lon="3.37059854529798">
        <time>2014-06-07T00:30:09Z</time>
      </trkpt>
      <trkpt lat="44.181359969079494" lon="3.370719999074936">
        <time>2014-06-07T00:30:11Z</time>
      </trkpt>
      <trkpt lat="44.181407243013382" lon="3.371152756735683">
        <time>2014-06-07T00:30:17Z</time>
      </trkpt>
      <trkpt lat="44.181419983506203" lon="3.371270019561052">
        <time>2014-06-07T00:30:19Z</time>
      </trkpt>
      <trkpt lat="44.181489972397685" lon="3.371649971231818">
        <time>2014-06-07T00:30:24Z</time>
      </trkpt>
      <trkpt lat="44.181619975715876" lon="3.372009973973036">
        <time>2014-06-07T00:30:30Z</time>
      </trkpt>
      <trkpt lat="44.181740004569292" lon="3.372169984504581">
        <time>2014-06-07T00:30:33Z</time>
      </trkpt>
      <trkpt lat="44.181849975138903" lon="3.372380034998059">
        <time>2014-06-07T00:30:37Z</time>
      </trkpt>
      <trkpt lat="44.181900015100837" lon="3.372550019994378">
        <time>2014-06-07T00:30:40Z</time>
      </trkpt>
      <trkpt lat="44.181919964030385" lon="3.372769961133599">
        <time>2014-06-07T00:30:43Z</time>
      </trkpt>
      <trkpt lat="44.181910157203674" lon="3.373207496479154">
        <time>2014-06-07T00:30:49Z</time>
      </trkpt>
      <trkpt lat="44.181900350376964" lon="3.373645031824708">
        <time>2014-06-07T00:30:55Z</time>
      </trkpt>
      <trkpt lat="44.181900015100837" lon="3.373660035431385">
        <time>2014-06-07T00:30:55Z</time>
      </trkpt>
      <trkpt lat="44.181905128061771" lon="3.374097654595971">
        <time>2014-06-07T00:31:01Z</time>
      </trkpt>
      <trkpt lat="44.181909989565611" lon="3.374520018696785">
        <time>2014-06-07T00:31:07Z</time>
      </trkpt>
      <trkpt lat="44.181985510513186" lon="3.374944981187582">
        <time>2014-06-07T00:31:13Z</time>
      </trkpt>
      <trkpt lat="44.181990036740899" lon="3.374969959259033">
        <time>2014-06-07T00:31:13Z</time>
      </trkpt>
      <trkpt lat="44.182090032845736" lon="3.375210016965866">
        <time>2014-06-07T00:31:17Z</time>
      </trkpt>
      <trkpt lat="44.182309973984957" lon="3.37551997974515">
        <time>2014-06-07T00:31:23Z</time>
      </trkpt>
      <trkpt lat="44.182598814368248" lon="3.375694826245308">
        <time>2014-06-07T00:31:29Z</time>
      </trkpt>
      <trkpt lat="44.182690009474754" lon="3.375749979168177">
        <time>2014-06-07T00:31:31Z</time>
      </trkpt>
      <trkpt lat="44.182880027219653" lon="3.375890040770173">
        <time>2014-06-07T00:31:35Z</time>
      </trkpt>
      <trkpt lat="44.18295999057591" lon="3.376009985804558">
        <time>2014-06-07T00:31:37Z</time>
      </trkpt>
      <trkpt lat="44.183020005002618" lon="3.376169996336103">
        <time>2014-06-07T00:31:39Z</time>
      </trkpt>
      <trkpt lat="44.183088652789593" lon="3.376597221940756">
        <time>2014-06-07T00:31:45Z</time>
      </trkpt>
      <trkpt lat="44.18311002664268" lon="3.376729991286993">
        <time>2014-06-07T00:31:47Z</time>
      </trkpt>
      <trkpt lat="44.183137603104115" lon="3.377166017889977">
        <time>2014-06-07T00:31:53Z</time>
      </trkpt>
      <trkpt lat="44.183159982785583" lon="3.377519985660911">
        <time>2014-06-07T00:31:58Z</time>
      </trkpt>
      <trkpt lat="44.183310186490417" lon="3.377904798835516">
        <time>2014-06-07T00:32:04Z</time>
      </trkpt>
      <trkpt lat="44.183319993317127" lon="3.377930028364062">
        <time>2014-06-07T00:32:04Z</time>
      </trkpt>
      <trkpt lat="44.183319993317127" lon="3.378190035000444">
        <time>2014-06-07T00:32:08Z</time>
      </trkpt>
      <trkpt lat="44.183250004425645" lon="3.378490023314953">
        <time>2014-06-07T00:32:12Z</time>
      </trkpt>
      <trkpt lat="44.183210022747517" lon="3.378839967772365">
        <time>2014-06-07T00:32:17Z</time>
      </trkpt>
      <trkpt lat="44.183259978890419" lon="3.379250010475516">
        <time>2014-06-07T00:32:23Z</time>
      </trkpt>
      <trkpt lat="44.183270037174225" lon="3.37960003875196">
        <time>2014-06-07T00:32:28Z</time>
      </trkpt>
      <trkpt lat="44.183250004425645" lon="3.379719983786345">
        <time>2014-06-07T00:32:30Z</time>
      </trkpt>
      <trkpt lat="44.183210022747517" lon="3.379830038174987">
        <time>2014-06-07T00:32:32Z</time>
      </trkpt>
      <trkpt lat="44.183040037751198" lon="3.380130026489496">
        <time>2014-06-07T00:32:37Z</time>
      </trkpt>
      <trkpt lat="44.182950016111135" lon="3.380500003695488">
        <time>2014-06-07T00:32:42Z</time>
      </trkpt>
      <trkpt lat="44.182881619781256" lon="3.380927313119173">
        <time>2014-06-07T00:32:48Z</time>
      </trkpt>
      <trkpt lat="44.182869968935847" lon="3.38099998421967">
        <time>2014-06-07T00:32:49Z</time>
      </trkpt>
      <trkpt lat="44.182910034433007" lon="3.381359986960888">
        <time>2014-06-07T00:32:54Z</time>
      </trkpt>
      <trkpt lat="44.182890001684427" lon="3.381710015237331">
        <time>2014-06-07T00:32:59Z</time>
      </trkpt>
      <trkpt lat="44.182798890396953" lon="3.382129026576877">
        <time>2014-06-07T00:33:05Z</time>
      </trkpt>
      <trkpt lat="44.182790005579591" lon="3.382170014083386">
        <time>2014-06-07T00:33:06Z</time>
      </trkpt>
      <trkpt lat="44.182780031114817" lon="3.382490035146475">
        <time>2014-06-07T00:33:10Z</time>
      </trkpt>
      <trkpt lat="44.182819509878755" lon="3.382924301549792">
        <time>2014-06-07T00:33:16Z</time>
      </trkpt>
      <trkpt lat="44.182820012792945" lon="3.382930001243949">
        <time>2014-06-07T00:33:16Z</time>
      </trkpt>
      <trkpt lat="44.182790005579591" lon="3.383220015093684">
        <time>2014-06-07T00:33:20Z</time>
      </trkpt>
      <trkpt lat="44.182640220969915" lon="3.383605079725385">
        <time>2014-06-07T00:33:26Z</time>
      </trkpt>
      <trkpt lat="44.18250996619463" lon="3.383940020576119">
        <time>2014-06-07T00:33:31Z</time>
      </trkpt>
      <trkpt lat="44.182444671168923" lon="3.384368168190122">
        <time>2014-06-07T00:33:37Z</time>
      </trkpt>
      <trkpt lat="44.182420028373599" lon="3.384530022740364">
        <time>2014-06-07T00:33:39Z</time>
      </trkpt>
      <trkpt lat="44.182370575144887" lon="3.38496227748692">
        <time>2014-06-07T00:33:45Z</time>
      </trkpt>
      <trkpt lat="44.182339981198311" lon="3.385229995474219">
        <time>2014-06-07T00:33:49Z</time>
      </trkpt>
      <trkpt lat="44.182240068912506" lon="3.385645067319274">
        <time>2014-06-07T00:33:55Z</time>
      </trkpt>
      <trkpt lat="44.18220997788012" lon="3.385770041495562">
        <time>2014-06-07T00:33:57Z</time>
      </trkpt>
      <trkpt lat="44.182049967348576" lon="3.385970033705235">
        <time>2014-06-07T00:34:01Z</time>
      </trkpt>
      <trkpt lat="44.181783255189657" lon="3.386202799156308">
        <time>2014-06-07T00:34:07Z</time>
      </trkpt>
      <trkpt lat="44.181516543030739" lon="3.386435564607382">
        <time>2014-06-07T00:34:13Z</time>
      </trkpt>
      <trkpt lat="44.181500030681491" lon="3.386449981480837">
        <time>2014-06-07T00:34:13Z</time>
      </trkpt>
      <trkpt lat="44.181400034576654" lon="3.386479988694191">
        <time>2014-06-07T00:34:15Z</time>
      </trkpt>
      <trkpt lat="44.181085210293531" lon="3.386494992300868">
        <time>2014-06-07T00:34:21Z</time>
      </trkpt>
      <trkpt lat="44.180980017408729" lon="3.386500021442771">
        <time>2014-06-07T00:34:23Z</time>
      </trkpt>
      <trkpt lat="44.180799974128604" lon="3.386549977585673">
        <time>2014-06-07T00:34:26Z</time>
      </trkpt>
      <trkpt lat="44.180569974705577" lon="3.38669003918767">
        <time>2014-06-07T00:34:31Z</time>
      </trkpt>
      <trkpt lat="44.180409964174032" lon="3.386860024183989">
        <time>2014-06-07T00:34:35Z</time>
      </trkpt>
      <trkpt lat="44.180202512070537" lon="3.387189265340567">
        <time>2014-06-07T00:34:41Z</time>
      </trkpt>
      <trkpt lat="44.179994976148009" lon="3.387518590316176">
        <time>2014-06-07T00:34:47Z</time>
      </trkpt>
      <trkpt lat="44.179787440225482" lon="3.387847831472755">
        <time>2014-06-07T00:34:53Z</time>
      </trkpt>
      <trkpt lat="44.179579904302955" lon="3.388177156448364">
        <time>2014-06-07T00:34:59Z</time>
      </trkpt>
      <trkpt lat="44.179372452199459" lon="3.388506397604942">
        <time>2014-06-07T00:35:05Z</time>
      </trkpt>
      <trkpt lat="44.179200036451221" lon="3.388779982924461">
        <time>2014-06-07T00:35:10Z</time>
      </trkpt>
      <trkpt lat="44.179129963740706" lon="3.388909986242652">
        <time>2014-06-07T00:35:12Z</time>
      </trkpt>
      <trkpt lat="44.179010018706322" lon="3.38926998898387">
        <time>2014-06-07T00:35:17Z</time>
      </trkpt>
      <trkpt lat="44.178940029814839" lon="3.389590010046959">
        <time>2014-06-07T00:35:22Z</time>
      </trkpt>
      <trkpt lat="44.178929971531034" lon="3.389910031110048">
        <time>2014-06-07T00:35:26Z</time>
      </trkpt>
      <trkpt lat="44.178959978744388" lon="3.390229968354106">
        <time>2014-06-07T00:35:30Z</time>
      </trkpt>
      <trkpt lat="44.178959978744388" lon="3.390500033274293">
        <time>2014-06-07T00:35:34Z</time>
      </trkpt>
      <trkpt lat="44.178899964317679" lon="3.390770014375448">
        <time>2014-06-07T00:35:38Z</time>
      </trkpt>
      <trkpt lat="44.178757974877954" lon="3.391160694882274">
        <time>2014-06-07T00:35:44Z</time>
      </trkpt>
      <trkpt lat="44.178740037605166" lon="3.391209980472922">
        <time>2014-06-07T00:35:45Z</time>
      </trkpt>
      <trkpt lat="44.178549265488982" lon="3.391558332368732">
        <time>2014-06-07T00:35:51Z</time>
      </trkpt>
      <trkpt lat="44.178510038182139" lon="3.391629997640848">
        <time>2014-06-07T00:35:52Z</time>
      </trkpt>
      <trkpt lat="44.178450023755431" lon="3.391829989850521">
        <time>2014-06-07T00:35:55Z</time>
      </trkpt>
      <trkpt lat="44.17839277535677" lon="3.39226040057838">
        <time>2014-06-07T00:36:01Z</time>
      </trkpt>
      <trkpt lat="44.17833561077714" lon="3.392690811306238">
        <time>2014-06-07T00:36:07Z</time>
      </trkpt>
      <trkpt lat="44.17827844619751" lon="3.393121222034097">
        <time>2014-06-07T00:36:13Z</time>
      </trkpt>
      <trkpt lat="44.178260006010532" lon="3.393260026350617">
        <time>2014-06-07T00:36:15Z</time>
      </trkpt>
      <trkpt lat="44.178250031545758" lon="3.393520032986999">
        <time>2014-06-07T00:36:19Z</time>
      </trkpt>
      <trkpt lat="44.178280038759112" lon="3.393850028514862">
        <time>2014-06-07T00:36:24Z</time>
      </trkpt>
      <trkpt lat="44.178361007943749" lon="3.394272979348898">
        <time>2014-06-07T00:36:30Z</time>
      </trkpt>
      <trkpt lat="44.178369976580143" lon="3.39432000182569">
        <time>2014-06-07T00:36:31Z</time>
      </trkpt>
      <trkpt lat="44.178409958258271" lon="3.394680004566908">
        <time>2014-06-07T00:36:36Z</time>
      </trkpt>
      <trkpt lat="44.178369976580143" lon="3.395109996199608">
        <time>2014-06-07T00:36:42Z</time>
      </trkpt>
      <trkpt lat="44.17830971069634" lon="3.395539568737149">
        <time>2014-06-07T00:36:48Z</time>
      </trkpt>
      <trkpt lat="44.178290013223886" lon="3.395679965615273">
        <time>2014-06-07T00:36:50Z</time>
      </trkpt>
      <trkpt lat="44.178250031545758" lon="3.395839976146817">
        <time>2014-06-07T00:36:52Z</time>
      </trkpt>
      <trkpt lat="44.178160009905696" lon="3.396020019426942">
        <time>2014-06-07T00:36:55Z</time>
      </trkpt>
      <trkpt lat="44.178090021014214" lon="3.396229986101389">
        <time>2014-06-07T00:36:58Z</time>
      </trkpt>
      <trkpt lat="44.178078202530742" lon="3.39666735380888">
        <time>2014-06-07T00:37:04Z</time>
      </trkpt>
      <trkpt lat="44.178069988265634" lon="3.396970024332404">
        <time>2014-06-07T00:37:08Z</time>
      </trkpt>
      <trkpt lat="44.178009973838925" lon="3.397289961576462">
        <time>2014-06-07T00:37:13Z</time>
      </trkpt>
      <trkpt lat="44.177900003269315" lon="3.397649964317679">
        <time>2014-06-07T00:37:18Z</time>
      </trkpt>
      <trkpt lat="44.177760863676667" lon="3.398042656481266">
        <time>2014-06-07T00:37:24Z</time>
      </trkpt>
      <trkpt lat="44.177621640264988" lon="3.398435264825821">
        <time>2014-06-07T00:37:30Z</time>
      </trkpt>
      <trkpt lat="44.177619963884354" lon="3.398439958691597">
        <time>2014-06-07T00:37:30Z</time>
      </trkpt>
      <trkpt lat="44.177540000528097" lon="3.398770038038492">
        <time>2014-06-07T00:37:35Z</time>
      </trkpt>
      <trkpt lat="44.177515776827931" lon="3.399206399917603">
        <time>2014-06-07T00:37:41Z</time>
      </trkpt>
      <trkpt lat="44.177509993314743" lon="3.399310000240803">
        <time>2014-06-07T00:37:42Z</time>
      </trkpt>
      <trkpt lat="44.177449978888035" lon="3.399489959701896">
        <time>2014-06-07T00:37:45Z</time>
      </trkpt>
      <trkpt lat="44.17733003385365" lon="3.399749966338277">
        <time>2014-06-07T00:37:49Z</time>
      </trkpt>
      <trkpt lat="44.177259961143136" lon="3.400050038471818">
        <time>2014-06-07T00:37:53Z</time>
      </trkpt>
      <trkpt lat="44.177270019426942" lon="3.400309961289167">
        <time>2014-06-07T00:37:57Z</time>
      </trkpt>
      <trkpt lat="44.177348976954818" lon="3.400733666494489">
        <time>2014-06-07T00:38:03Z</time>
      </trkpt>
      <trkpt lat="44.177379989996552" lon="3.400899963453412">
        <time>2014-06-07T00:38:05Z</time>
      </trkpt>
      <trkpt lat="44.177499935030937" lon="3.401304725557566">
        <time>2014-06-07T00:38:11Z</time>
      </trkpt>
      <trkpt lat="44.177540000528097" lon="3.401440009474754">
        <time>2014-06-07T00:38:13Z</time>
      </trkpt>
      <trkpt lat="44.177689785137773" lon="3.401825074106455">
        <time>2014-06-07T00:38:19Z</time>
      </trkpt>
      <trkpt lat="44.177749967202544" lon="3.401979971677065">
        <time>2014-06-07T00:38:21Z</time>
      </trkpt>
      <trkpt lat="44.177860021591187" lon="3.402380039915443">
        <time>2014-06-07T00:38:27Z</time>
      </trkpt>
      <trkpt lat="44.177890028804541" lon="3.402659995481372">
        <time>2014-06-07T00:38:31Z</time>
      </trkpt>
      <trkpt lat="44.177839066833258" lon="3.403091914951801">
        <time>2014-06-07T00:38:37Z</time>
      </trkpt>
      <trkpt lat="44.177788021042943" lon="3.403523834422231">
        <time>2014-06-07T00:38:43Z</time>
      </trkpt>
      <trkpt lat="44.17773705907166" lon="3.40395575389266">
        <time>2014-06-07T00:38:49Z</time>
      </trkpt>
      <trkpt lat="44.177700011059642" lon="3.404269991442561">
        <time>2014-06-07T00:38:53Z</time>
      </trkpt>
      <trkpt lat="44.177749967202544" lon="3.404499990865588">
        <time>2014-06-07T00:38:56Z</time>
      </trkpt>
      <trkpt lat="44.177800007164478" lon="3.404639968648553">
        <time>2014-06-07T00:38:58Z</time>
      </trkpt>
      <trkpt lat="44.177978206425905" lon="3.405000893399119">
        <time>2014-06-07T00:39:04Z</time>
      </trkpt>
      <trkpt lat="44.178156405687332" lon="3.405361818149686">
        <time>2014-06-07T00:39:10Z</time>
      </trkpt>
      <trkpt lat="44.178334604948759" lon="3.405722742900252">
        <time>2014-06-07T00:39:16Z</time>
      </trkpt>
      <trkpt lat="44.178512804210186" lon="3.406083667650819">
        <time>2014-06-07T00:39:22Z</time>
      </trkpt>
      <trkpt lat="44.178691003471613" lon="3.406444592401385">
        <time>2014-06-07T00:39:28Z</time>
      </trkpt>
      <trkpt lat="44.178869118914008" lon="3.406805517151952">
        <time>2014-06-07T00:39:34Z</time>
      </trkpt>
      <trkpt lat="44.179047318175435" lon="3.407166441902518">
        <time>2014-06-07T00:39:40Z</time>
      </trkpt>
      <trkpt lat="44.179225517436862" lon="3.407527366653085">
        <time>2014-06-07T00:39:46Z</time>
      </trkpt>
      <trkpt lat="44.179370021447539" lon="3.407819978892803">
        <time>2014-06-07T00:39:51Z</time>
      </trkpt>
      <trkpt lat="44.179579988121986" lon="3.408060036599636">
        <time>2014-06-07T00:39:56Z</time>
      </trkpt>
      <trkpt lat="44.179800013080239" lon="3.408230021595955">
        <time>2014-06-07T00:40:01Z</time>
      </trkpt>
      <trkpt lat="44.17993001639843" lon="3.408300010487437">
        <time>2014-06-07T00:40:04Z</time>
      </trkpt>
      <trkpt lat="44.180244086310267" lon="3.408332783728838">
        <time>2014-06-07T00:40:10Z</time>
      </trkpt>
      <trkpt lat="44.180558240041137" lon="3.40836564078927">
        <time>2014-06-07T00:40:16Z</time>
      </trkpt>
      <trkpt lat="44.180599981918931" lon="3.40836999937892">
        <time>2014-06-07T00:40:17Z</time>
      </trkpt>
      <trkpt lat="44.180729985237122" lon="3.408409981057048">
        <time>2014-06-07T00:40:20Z</time>
      </trkpt>
      <trkpt lat="44.181009773164988" lon="3.408611062914133">
        <time>2014-06-07T00:40:26Z</time>
      </trkpt>
      <trkpt lat="44.181050006300211" lon="3.408639980480075">
        <time>2014-06-07T00:40:27Z</time>
      </trkpt>
      <trkpt lat="44.181359801441431" lon="3.408719105646014">
        <time>2014-06-07T00:40:33Z</time>
      </trkpt>
      <trkpt lat="44.181519979611039" lon="3.408760009333491">
        <time>2014-06-07T00:40:36Z</time>
      </trkpt>
      <trkpt lat="44.181660041213036" lon="3.408880038186908">
        <time>2014-06-07T00:40:39Z</time>
      </trkpt>
      <trkpt lat="44.181730030104518" lon="3.409020015969873">
        <time>2014-06-07T00:40:41Z</time>
      </trkpt>
      <trkpt lat="44.181800018996" lon="3.4092500153929">
        <time>2014-06-07T00:40:44Z</time>
      </trkpt>
      <trkpt lat="44.181860033422709" lon="3.409619992598891">
        <time>2014-06-07T00:40:49Z</time>
      </trkpt>
      <trkpt lat="44.181860033422709" lon="3.409800035879016">
        <time>2014-06-07T00:40:51Z</time>
      </trkpt>
      <trkpt lat="44.181800018996" lon="3.409910006448627">
        <time>2014-06-07T00:40:53Z</time>
      </trkpt>
      <trkpt lat="44.181489972397685" lon="3.409987539052963">
        <time>2014-06-07T00:40:59Z</time>
      </trkpt>
      <trkpt lat="44.181440016254783" lon="3.410000028088689">
        <time>2014-06-07T00:41:00Z</time>
      </trkpt>
      <trkpt lat="44.18132996186614" lon="3.410079991444945">
        <time>2014-06-07T00:41:02Z</time>
      </trkpt>
      <trkpt lat="44.181229965761304" lon="3.41024000197649">
        <time>2014-06-07T00:41:05Z</time>
      </trkpt>
      <trkpt lat="44.181170035153627" lon="3.410400012508035">
        <time>2014-06-07T00:41:07Z</time>
      </trkpt>
      <trkpt lat="44.181150002405047" lon="3.410579971969128">
        <time>2014-06-07T00:41:09Z</time>
      </trkpt>
      <trkpt lat="44.181180009618402" lon="3.410720033571124">
        <time>2014-06-07T00:41:11Z</time>
      </trkpt>
      <trkpt lat="44.181310012936592" lon="3.410980040207505">
        <time>2014-06-07T00:41:15Z</time>
      </trkpt>
      <trkpt lat="44.181359969079494" lon="3.411150025203824">
        <time>2014-06-07T00:41:18Z</time>
      </trkpt>
      <trkpt lat="44.181359969079494" lon="3.411469962447882">
        <time>2014-06-07T00:41:22Z</time>
      </trkpt>
      <trkpt lat="44.181389976292849" lon="3.411559984087944">
        <time>2014-06-07T00:41:23Z</time>
      </trkpt>
      <trkpt lat="44.181540012359619" lon="3.411729969084263">
        <time>2014-06-07T00:41:27Z</time>
      </trkpt>
      <trkpt lat="44.181610001251101" lon="3.412040015682578">
        <time>2014-06-07T00:41:31Z</time>
      </trkpt>
      <trkpt lat="44.18164998292923" lon="3.41213003732264">
        <time>2014-06-07T00:41:32Z</time>
      </trkpt>
      <trkpt lat="44.181709997355938" lon="3.412189967930317">
        <time>2014-06-07T00:41:33Z</time>
      </trkpt>
      <trkpt lat="44.181830026209354" lon="3.412219975143671">
        <time>2014-06-07T00:41:35Z</time>
      </trkpt>
      <trkpt lat="44.181870007887483" lon="3.412210000678897">
        <time>2014-06-07T00:41:36Z</time>
      </trkpt>
      <trkpt lat="44.182165469974279" lon="3.412058288231492">
        <time>2014-06-07T00:41:42Z</time>
      </trkpt>
      <trkpt lat="44.182239985093474" lon="3.412019982933998">
        <time>2014-06-07T00:41:44Z</time>
      </trkpt>
      <trkpt lat="44.182379962876439" lon="3.411970026791096">
        <time>2014-06-07T00:41:47Z</time>
      </trkpt>
      <trkpt lat="44.182499991729856" lon="3.41195996850729">
        <time>2014-06-07T00:41:49Z</time>
      </trkpt>
      <trkpt lat="44.18263996951282" lon="3.41198000125587">
        <time>2014-06-07T00:41:52Z</time>
      </trkpt>
      <trkpt lat="44.182790005579591" lon="3.412040015682578">
        <time>2014-06-07T00:41:55Z</time>
      </trkpt>
      <trkpt lat="44.182899976149201" lon="3.412119979038835">
        <time>2014-06-07T00:41:57Z</time>
      </trkpt>
      <trkpt lat="44.183145062997937" lon="3.412395073100925">
        <time>2014-06-07T00:42:03Z</time>
      </trkpt>
      <trkpt lat="44.18338998220861" lon="3.412669999524951">
        <time>2014-06-07T00:42:09Z</time>
      </trkpt>
      <trkpt lat="44.183549992740154" lon="3.412920031696558">
        <time>2014-06-07T00:42:14Z</time>
      </trkpt>
      <trkpt lat="44.183670021593571" lon="3.413169980049133">
        <time>2014-06-07T00:42:18Z</time>
      </trkpt>
      <trkpt lat="44.183762976899743" lon="3.413588237017393">
        <time>2014-06-07T00:42:24Z</time>
      </trkpt>
      <trkpt lat="44.183770017698407" lon="3.413620004430413">
        <time>2014-06-07T00:42:24Z</time>
      </trkpt>
      <trkpt lat="44.183784266933799" lon="3.414057288318873">
        <time>2014-06-07T00:42:30Z</time>
      </trkpt>
      <trkpt lat="44.18379851616919" lon="3.414494572207332">
        <time>2014-06-07T00:42:36Z</time>
      </trkpt>
      <trkpt lat="44.183800024911761" lon="3.414540002122521">
        <time>2014-06-07T00:42:37Z</time>
      </trkpt>
      <trkpt lat="44.183800024911761" lon="3.414977705106139">
        <time>2014-06-07T00:42:43Z</time>
      </trkpt>
      <trkpt lat="44.183800024911761" lon="3.415409959852696">
        <time>2014-06-07T00:42:49Z</time>
      </trkpt>
      <trkpt lat="44.183693490922451" lon="3.415821930393577">
        <time>2014-06-07T00:42:55Z</time>
      </trkpt>
      <trkpt lat="44.183649988844991" lon="3.415989987552166">
        <time>2014-06-07T00:42:57Z</time>
      </trkpt>
      <trkpt lat="44.183473885059357" lon="3.416352923959494">
        <time>2014-06-07T00:43:03Z</time>
      </trkpt>
      <trkpt lat="44.183319993317127" lon="3.416670011356473">
        <time>2014-06-07T00:43:08Z</time>
      </trkpt>
      <trkpt lat="44.183196192607284" lon="3.41707251034677">
        <time>2014-06-07T00:43:14Z</time>
      </trkpt>
      <trkpt lat="44.183080019429326" lon="3.417450031265616">
        <time>2014-06-07T00:43:20Z</time>
      </trkpt>
      <trkpt lat="44.183029979467392" lon="3.417769968509674">
        <time>2014-06-07T00:43:24Z</time>
      </trkpt>
      <trkpt lat="44.183010030537844" lon="3.418080015107989">
        <time>2014-06-07T00:43:28Z</time>
      </trkpt>
      <trkpt lat="44.183004582300782" lon="3.418517634272575">
        <time>2014-06-07T00:43:34Z</time>
      </trkpt>
      <trkpt lat="44.182999972254038" lon="3.418889958411455">
        <time>2014-06-07T00:43:39Z</time>
      </trkpt>
      <trkpt lat="44.182950016111135" lon="3.419079976156354">
        <time>2014-06-07T00:43:42Z</time>
      </trkpt>
      <trkpt lat="44.182761255651712" lon="3.419430507346988">
        <time>2014-06-07T00:43:48Z</time>
      </trkpt>
      <trkpt lat="44.182739965617657" lon="3.419469986110926">
        <time>2014-06-07T00:43:49Z</time>
      </trkpt>
      <trkpt lat="44.18251390568912" lon="3.419774752110243">
        <time>2014-06-07T00:43:55Z</time>
      </trkpt>
      <trkpt lat="44.18250996619463" lon="3.419780032709241">
        <time>2014-06-07T00:43:55Z</time>
      </trkpt>
      <trkpt lat="44.182379962876439" lon="3.420040039345622">
        <time>2014-06-07T00:43:59Z</time>
      </trkpt>
      <trkpt lat="44.182279966771603" lon="3.420329969376326">
        <time>2014-06-07T00:44:03Z</time>
      </trkpt>
      <trkpt lat="44.182173432782292" lon="3.420741939917207">
        <time>2014-06-07T00:44:09Z</time>
      </trkpt>
      <trkpt lat="44.18206681497395" lon="3.421153826639056">
        <time>2014-06-07T00:44:15Z</time>
      </trkpt>
      <trkpt lat="44.18196028098464" lon="3.421565713360906">
        <time>2014-06-07T00:44:21Z</time>
      </trkpt>
      <trkpt lat="44.181909989565611" lon="3.421760005876422">
        <time>2014-06-07T00:44:24Z</time>
      </trkpt>
      <trkpt lat="44.181840000674129" lon="3.421909958124161">
        <time>2014-06-07T00:44:26Z</time>
      </trkpt>
      <trkpt lat="44.181740004569292" lon="3.422029986977577">
        <time>2014-06-07T00:44:29Z</time>
      </trkpt>
      <trkpt lat="44.181619975715876" lon="3.42212000861764">
        <time>2014-06-07T00:44:32Z</time>
      </trkpt>
      <trkpt lat="44.1813700273633" lon="3.422199971973896">
        <time>2014-06-07T00:44:37Z</time>
      </trkpt>
      <trkpt lat="44.181210016831756" lon="3.422280019149184">
        <time>2014-06-07T00:44:40Z</time>
      </trkpt>
      <trkpt lat="44.180999966338277" lon="3.422470036894083">
        <time>2014-06-07T00:44:45Z</time>
      </trkpt>
      <trkpt lat="44.180840039625764" lon="3.422670029103756">
        <time>2014-06-07T00:44:49Z</time>
      </trkpt>
      <trkpt lat="44.180759992450476" lon="3.422740017995238">
        <time>2014-06-07T00:44:51Z</time>
      </trkpt>
      <trkpt lat="44.180659996345639" lon="3.422759966924787">
        <time>2014-06-07T00:44:53Z</time>
      </trkpt>
      <trkpt lat="44.180569974705577" lon="3.422749992460012">
        <time>2014-06-07T00:44:55Z</time>
      </trkpt>
      <trkpt lat="44.18049001134932" lon="3.422710010781884">
        <time>2014-06-07T00:44:57Z</time>
      </trkpt>
      <trkpt lat="44.180330000817776" lon="3.422510018572211">
        <time>2014-06-07T00:45:01Z</time>
      </trkpt>
      <trkpt lat="44.180230004712939" lon="3.422410022467375">
        <time>2014-06-07T00:45:03Z</time>
      </trkpt>
      <trkpt lat="44.180160015821457" lon="3.422380015254021">
        <time>2014-06-07T00:45:04Z</time>
      </trkpt>
      <trkpt lat="44.180100001394749" lon="3.422389989718795">
        <time>2014-06-07T00:45:05Z</time>
      </trkpt>
      <trkpt lat="44.179979972541332" lon="3.422600040212274">
        <time>2014-06-07T00:45:09Z</time>
      </trkpt>
      <trkpt lat="44.179822141304612" lon="3.422978818416596">
        <time>2014-06-07T00:45:15Z</time>
      </trkpt>
      <trkpt lat="44.179779980331659" lon="3.423079987987876">
        <time>2014-06-07T00:45:17Z</time>
      </trkpt>
      <trkpt lat="44.179670764133334" lon="3.423490533605218">
        <time>2014-06-07T00:45:23Z</time>
      </trkpt>
      <trkpt lat="44.179561547935009" lon="3.42390107922256">
        <time>2014-06-07T00:45:29Z</time>
      </trkpt>
      <trkpt lat="44.179489966481924" lon="3.424169970676303">
        <time>2014-06-07T00:45:33Z</time>
      </trkpt>
      <trkpt lat="44.179359963163733" lon="3.424510024487972">
        <time>2014-06-07T00:45:38Z</time>
      </trkpt>
      <trkpt lat="44.179240018129349" lon="3.424629969522357">
        <time>2014-06-07T00:45:41Z</time>
      </trkpt>
      <trkpt lat="44.179119989275932" lon="3.424699958413839">
        <time>2014-06-07T00:45:43Z</time>
      </trkpt>
      <trkpt lat="44.178980011492968" lon="3.424719991162419">
        <time>2014-06-07T00:45:46Z</time>
      </trkpt>
      <trkpt lat="44.178840033710003" lon="3.424680009484291">
        <time>2014-06-07T00:45:49Z</time>
      </trkpt>
      <trkpt lat="44.178710030391812" lon="3.424589987844229">
        <time>2014-06-07T00:45:52Z</time>
      </trkpt>
      <trkpt lat="44.178499979898334" lon="3.424350013956428">
        <time>2014-06-07T00:45:57Z</time>
      </trkpt>
      <trkpt lat="44.178429991006851" lon="3.424289999529719">
        <time>2014-06-07T00:45:59Z</time>
      </trkpt>
      <trkpt lat="44.178360002115369" lon="3.424310032278299">
        <time>2014-06-07T00:46:00Z</time>
      </trkpt>
      <trkpt lat="44.178209966048598" lon="3.424450010061264">
        <time>2014-06-07T00:46:03Z</time>
      </trkpt>
      <trkpt lat="44.177999999374151" lon="3.424719991162419">
        <time>2014-06-07T00:46:08Z</time>
      </trkpt>
      <trkpt lat="44.17778936214745" lon="3.42504546046257">
        <time>2014-06-07T00:46:14Z</time>
      </trkpt>
      <trkpt lat="44.177779974415898" lon="3.425059961155057">
        <time>2014-06-07T00:46:14Z</time>
      </trkpt>
      <trkpt lat="44.177545364946127" lon="3.425351986661553">
        <time>2014-06-07T00:46:20Z</time>
      </trkpt>
      <trkpt lat="44.17733003385365" lon="3.425620039924979">
        <time>2014-06-07T00:46:26Z</time>
      </trkpt>
      <trkpt lat="44.17706960812211" lon="3.425866300240159">
        <time>2014-06-07T00:46:32Z</time>
      </trkpt>
      <trkpt lat="44.176959972828627" lon="3.425969984382391">
        <time>2014-06-07T00:46:35Z</time>
      </trkpt>
      <trkpt lat="44.17685997672379" lon="3.426020024344325">
        <time>2014-06-07T00:46:37Z</time>
      </trkpt>
      <trkpt lat="44.176699966192245" lon="3.426029998809099">
        <time>2014-06-07T00:46:40Z</time>
      </trkpt>
      <trkpt lat="44.176640035584569" lon="3.426069980487227">
        <time>2014-06-07T00:46:41Z</time>
      </trkpt>
      <trkpt lat="44.176620002835989" lon="3.426129994913936">
        <time>2014-06-07T00:46:42Z</time>
      </trkpt>
      <trkpt lat="44.176620002835989" lon="3.426190009340644">
        <time>2014-06-07T00:46:43Z</time>
      </trkpt>
      <trkpt lat="44.176659984514117" lon="3.426220016553998">
        <time>2014-06-07T00:46:44Z</time>
      </trkpt>
      <trkpt lat="44.176829969510436" lon="3.426209958270192">
        <time>2014-06-07T00:46:47Z</time>
      </trkpt>
      <trkpt lat="44.177134986966848" lon="3.426100742071867">
        <time>2014-06-07T00:46:53Z</time>
      </trkpt>
      <trkpt lat="44.177440004423261" lon="3.42599144205451">
        <time>2014-06-07T00:46:59Z</time>
      </trkpt>
      <trkpt lat="44.177500018849969" lon="3.425969984382391">
        <time>2014-06-07T00:47:00Z</time>
      </trkpt>
      <trkpt lat="44.177800510078669" lon="3.42583897523582">
        <time>2014-06-07T00:47:06Z</time>
      </trkpt>
      <trkpt lat="44.177890028804541" lon="3.425799999386072">
        <time>2014-06-07T00:47:08Z</time>
      </trkpt>
      <trkpt lat="44.178039981052279" lon="3.425639988854528">
        <time>2014-06-07T00:47:12Z</time>
      </trkpt>
      <trkpt lat="44.178130002692342" lon="3.425590032711625">
        <time>2014-06-07T00:47:14Z</time>
      </trkpt>
      <trkpt lat="44.178220024332404" lon="3.425579974427819">
        <time>2014-06-07T00:47:16Z</time>
      </trkpt>
      <trkpt lat="44.178309962153435" lon="3.425639988854528">
        <time>2014-06-07T00:47:18Z</time>
      </trkpt>
      <trkpt lat="44.178565694019198" lon="3.425895636901259">
        <time>2014-06-07T00:47:24Z</time>
      </trkpt>
      <trkpt lat="44.178580027073622" lon="3.425909969955683">
        <time>2014-06-07T00:47:24Z</time>
      </trkpt>
      <trkpt lat="44.178789993748069" lon="3.426020024344325">
        <time>2014-06-07T00:47:28Z</time>
      </trkpt>
      <trkpt lat="44.178940029814839" lon="3.426060006022453">
        <time>2014-06-07T00:47:31Z</time>
      </trkpt>
      <trkpt lat="44.179210010915995" lon="3.426039973273873">
        <time>2014-06-07T00:47:36Z</time>
      </trkpt>
      <trkpt lat="44.179359963163733" lon="3.426150027662516">
        <time>2014-06-07T00:47:39Z</time>
      </trkpt>
      <trkpt lat="44.179400028660893" lon="3.426299979910255">
        <time>2014-06-07T00:47:41Z</time>
      </trkpt>
      <trkpt lat="44.179389970377088" lon="3.426489997655153">
        <time>2014-06-07T00:47:44Z</time>
      </trkpt>
      <trkpt lat="44.179330039769411" lon="3.42671999707818">
        <time>2014-06-07T00:47:47Z</time>
      </trkpt>
      <trkpt lat="44.179210010915995" lon="3.426940022036433">
        <time>2014-06-07T00:47:51Z</time>
      </trkpt>
      <trkpt lat="44.178950004279613" lon="3.427089974284172">
        <time>2014-06-07T00:47:56Z</time>
      </trkpt>
      <trkpt lat="44.178889989852905" lon="3.427089974284172">
        <time>2014-06-07T00:47:57Z</time>
      </trkpt>
      <trkpt lat="44.178780019283295" lon="3.427000036463141">
        <time>2014-06-07T00:47:59Z</time>
      </trkpt>
      <trkpt lat="44.178670551627874" lon="3.426589574664831">
        <time>2014-06-07T00:48:05Z</time>
      </trkpt>
      <trkpt lat="44.178659990429878" lon="3.426550012081862">
        <time>2014-06-07T00:48:06Z</time>
      </trkpt>
      <trkpt lat="44.178529987111688" lon="3.426380027085543">
        <time>2014-06-07T00:48:09Z</time>
      </trkpt>
      <trkpt lat="44.178350027650595" lon="3.4262699726969">
        <time>2014-06-07T00:48:13Z</time>
      </trkpt>
      <trkpt lat="44.178239973261952" lon="3.426250023767352">
        <time>2014-06-07T00:48:15Z</time>
      </trkpt>
      <trkpt lat="44.17816998437047" lon="3.4262699726969">
        <time>2014-06-07T00:48:16Z</time>
      </trkpt>
      <trkpt lat="44.178090021014214" lon="3.426329987123609">
        <time>2014-06-07T00:48:18Z</time>
      </trkpt>
      <trkpt lat="44.177910313010216" lon="3.426689486950636">
        <time>2014-06-07T00:48:24Z</time>
      </trkpt>
      <trkpt lat="44.177790032699704" lon="3.426929963752627">
        <time>2014-06-07T00:48:28Z</time>
      </trkpt>
      <trkpt lat="44.177660029381514" lon="3.427089974284172">
        <time>2014-06-07T00:48:31Z</time>
      </trkpt>
      <trkpt lat="44.177579982206225" lon="3.42714998871088">
        <time>2014-06-07T00:48:33Z</time>
      </trkpt>
      <trkpt lat="44.177460037171841" lon="3.427200028672814">
        <time>2014-06-07T00:48:35Z</time>
      </trkpt>
      <trkpt lat="44.177145464345813" lon="3.427224168553948">
        <time>2014-06-07T00:48:41Z</time>
      </trkpt>
      <trkpt lat="44.176830975338817" lon="3.427248392254114">
        <time>2014-06-07T00:48:47Z</time>
      </trkpt>
      <trkpt lat="44.176680017262697" lon="3.427259959280491">
        <time>2014-06-07T00:48:50Z</time>
      </trkpt>
      <trkpt lat="44.176374329254031" lon="3.427365571260452">
        <time>2014-06-07T00:48:56Z</time>
      </trkpt>
      <trkpt lat="44.176129996776581" lon="3.42744997702539">
        <time>2014-06-07T00:49:01Z</time>
      </trkpt>
      <trkpt lat="44.17589002288878" lon="3.427570005878806">
        <time>2014-06-07T00:49:06Z</time>
      </trkpt>
      <trkpt lat="44.175830008462071" lon="3.427670001983643">
        <time>2014-06-07T00:49:08Z</time>
      </trkpt>
      <trkpt lat="44.175779968500137" lon="3.427800005301833">
        <time>2014-06-07T00:49:10Z</time>
      </trkpt>
      <trkpt lat="44.175720037892461" lon="3.428079960867763">
        <time>2014-06-07T00:49:14Z</time>
      </trkpt>
      <trkpt lat="44.175738226622343" lon="3.428516909480095">
        <time>2014-06-07T00:49:20Z</time>
      </trkpt>
      <trkpt lat="44.175739986822009" lon="3.428559992462397">
        <time>2014-06-07T00:49:21Z</time>
      </trkpt>
      <trkpt lat="44.175700005143881" lon="3.428640039637685">
        <time>2014-06-07T00:49:22Z</time>
      </trkpt>
      <trkpt lat="44.17557000182569" lon="3.42878001742065">
        <time>2014-06-07T00:49:25Z</time>
      </trkpt>
      <trkpt lat="44.175430024042726" lon="3.428880013525486">
        <time>2014-06-07T00:49:28Z</time>
      </trkpt>
      <trkpt lat="44.175122492015362" lon="3.42897498048842">
        <time>2014-06-07T00:49:34Z</time>
      </trkpt>
      <trkpt lat="44.17481504380703" lon="3.429069947451353">
        <time>2014-06-07T00:49:40Z</time>
      </trkpt>
      <trkpt lat="44.174750000238419" lon="3.429089980199933">
        <time>2014-06-07T00:49:41Z</time>
      </trkpt>
      <trkpt lat="44.174460824579" lon="3.429263485595584">
        <time>2014-06-07T00:49:47Z</time>
      </trkpt>
      <trkpt lat="44.174399971961975" lon="3.429300030693412">
        <time>2014-06-07T00:49:48Z</time>
      </trkpt>
      <trkpt lat="44.17428002692759" lon="3.429349986836314">
        <time>2014-06-07T00:49:50Z</time>
      </trkpt>
      <trkpt lat="44.173980038613081" lon="3.429359961301088">
        <time>2014-06-07T00:49:56Z</time>
      </trkpt>
      <trkpt lat="44.173939973115921" lon="3.429400026798248">
        <time>2014-06-07T00:49:57Z</time>
      </trkpt>
      <trkpt lat="44.173899991437793" lon="3.429519971832633">
        <time>2014-06-07T00:49:59Z</time>
      </trkpt>
      <trkpt lat="44.173899991437793" lon="3.429570011794567">
        <time>2014-06-07T00:50:00Z</time>
      </trkpt>
      <trkpt lat="44.173920024186373" lon="3.429560037329793">
        <time>2014-06-07T00:50:00Z</time>
      </trkpt>
      <trkpt lat="44.173960005864501" lon="3.429570011794567">
        <time>2014-06-07T00:50:01Z</time>
      </trkpt>
      <trkpt lat="44.173990013077855" lon="3.429609993472695">
        <time>2014-06-07T00:50:02Z</time>
      </trkpt>
      <trkpt lat="44.174300478771329" lon="3.429536232724786">
        <time>2014-06-07T00:50:08Z</time>
      </trkpt>
      <trkpt lat="44.174610944464803" lon="3.429462388157845">
        <time>2014-06-07T00:50:14Z</time>
      </trkpt>
      <trkpt lat="44.174921410158277" lon="3.429388627409935">
        <time>2014-06-07T00:50:20Z</time>
      </trkpt>
      <trkpt lat="44.17523187585175" lon="3.429314866662026">
        <time>2014-06-07T00:50:26Z</time>
      </trkpt>
      <trkpt lat="44.175542425364256" lon="3.429241022095084">
        <time>2014-06-07T00:50:32Z</time>
      </trkpt>
      <trkpt lat="44.17585289105773" lon="3.429167261347175">
        <time>2014-06-07T00:50:38Z</time>
      </trkpt>
      <trkpt lat="44.176163356751204" lon="3.429093500599265">
        <time>2014-06-07T00:50:44Z</time>
      </trkpt>
      <trkpt lat="44.176220018416643" lon="3.429080005735159">
        <time>2014-06-07T00:50:45Z</time>
      </trkpt>
      <trkpt lat="44.176359996199608" lon="3.429029965773225">
        <time>2014-06-07T00:50:48Z</time>
      </trkpt>
      <trkpt lat="44.176650596782565" lon="3.428861238062382">
        <time>2014-06-07T00:50:54Z</time>
      </trkpt>
      <trkpt lat="44.176669958978891" lon="3.428850006312132">
        <time>2014-06-07T00:50:54Z</time>
      </trkpt>
      <trkpt lat="44.176939269527793" lon="3.428622856736183">
        <time>2014-06-07T00:51:00Z</time>
      </trkpt>
      <trkpt lat="44.176989980041981" lon="3.428580025210977">
        <time>2014-06-07T00:51:01Z</time>
      </trkpt>
      <trkpt lat="44.177291728556156" lon="3.428454296663404">
        <time>2014-06-07T00:51:07Z</time>
      </trkpt>
      <trkpt lat="44.177470011636615" lon="3.428380033001304">
        <time>2014-06-07T00:51:11Z</time>
      </trkpt>
      <trkpt lat="44.17760998941958" lon="3.42835002578795">
        <time>2014-06-07T00:51:14Z</time>
      </trkpt>
      <trkpt lat="44.177690036594868" lon="3.42835002578795">
        <time>2014-06-07T00:51:16Z</time>
      </trkpt>
      <trkpt lat="44.17773999273777" lon="3.428360000252724">
        <time>2014-06-07T00:51:17Z</time>
      </trkpt>
      <trkpt lat="44.178020367398858" lon="3.428559405729175">
        <time>2014-06-07T00:51:23Z</time>
      </trkpt>
      <trkpt lat="44.17819001711905" lon="3.428680021315813">
        <time>2014-06-07T00:51:27Z</time>
      </trkpt>
      <trkpt lat="44.178461255505681" lon="3.428902560845017">
        <time>2014-06-07T00:51:33Z</time>
      </trkpt>
      <trkpt lat="44.178580027073622" lon="3.428999958559871">
        <time>2014-06-07T00:51:36Z</time>
      </trkpt>
      <trkpt lat="44.178860485553741" lon="3.42919928021729">
        <time>2014-06-07T00:51:42Z</time>
      </trkpt>
      <trkpt lat="44.178959978744388" lon="3.429270023480058">
        <time>2014-06-07T00:51:44Z</time>
      </trkpt>
      <trkpt lat="44.179230127483606" lon="3.429495077580214">
        <time>2014-06-07T00:51:50Z</time>
      </trkpt>
      <trkpt lat="44.179319981485605" lon="3.429570011794567">
        <time>2014-06-07T00:51:52Z</time>
      </trkpt>
      <trkpt lat="44.179440010339022" lon="3.429649975150824">
        <time>2014-06-07T00:51:55Z</time>
      </trkpt>
      <trkpt lat="44.179419977590442" lon="3.42974997125566">
        <time>2014-06-07T00:51:56Z</time>
      </trkpt>
    </trkseg>
  </trk>

</gpx>